<?xml version="1.0" encoding="UTF-8" standalone="no" ?>
<gpx xmlns="http://www.topografix.com/GPX/1/1" xmlns:xsi="http://www.w3.org/2001/XMLSchema-instance" xsi:schemaLocation="http://www.topografix.com/GPX/1/1 http://www.topografix.com/GPX/1/1/gpx.xsd" version="1.1" creator="VisuGPX - https://www.visugpx.com">
  <metadata>
    <name>Boucle </name>
    <desc><![CDATA[Un demi-tour forcé : sentier de droite avec une fine passerelle en métal et chemin pas clair derrière, tout droit nous sommes tombées sur un énorme bourbier !
Après le demi-tour, et une belle montée, nous retombons sur de beaux chemins ! ]]></desc>
  </metadata>
  <trk>
    <name><![CDATA[boucle 27 kms (1 demi-tour forcé)]]></name>
    <trkseg>
      <trkpt lat="48.70785" lon="1.75854">
        <ele>172.60000610352</ele>
        <time>2011-05-17T08:00:28.000Z</time>
      </trkpt>
      <trkpt lat="48.70775" lon="1.75837">
        <ele>172.60000610352</ele>
        <time>2011-05-17T08:00:40.000Z</time>
      </trkpt>
      <trkpt lat="48.70763" lon="1.75819">
        <ele>172.80000305176</ele>
        <time>2011-05-17T08:00:53.000Z</time>
      </trkpt>
      <trkpt lat="48.70756" lon="1.75808">
        <ele>173.19999694824</ele>
        <time>2011-05-17T08:01:01.000Z</time>
      </trkpt>
      <trkpt lat="48.70746" lon="1.75795">
        <ele>173.39999389648</ele>
        <time>2011-05-17T08:01:10.000Z</time>
      </trkpt>
      <trkpt lat="48.70737" lon="1.75781">
        <ele>173.39999389648</ele>
        <time>2011-05-17T08:01:20.000Z</time>
      </trkpt>
      <trkpt lat="48.70729" lon="1.7577">
        <ele>173.60000610352</ele>
        <time>2011-05-17T08:01:28.000Z</time>
      </trkpt>
      <trkpt lat="48.70722" lon="1.7576">
        <ele>173.80000305176</ele>
        <time>2011-05-17T08:01:35.000Z</time>
      </trkpt>
      <trkpt lat="48.70717" lon="1.75749">
        <ele>173.80000305176</ele>
        <time>2011-05-17T08:01:42.000Z</time>
      </trkpt>
      <trkpt lat="48.7071" lon="1.75738">
        <ele>173.80000305176</ele>
        <time>2011-05-17T08:01:50.000Z</time>
      </trkpt>
      <trkpt lat="48.70706" lon="1.75732">
        <ele>174</ele>
        <time>2011-05-17T08:01:54.000Z</time>
      </trkpt>
      <trkpt lat="48.70701" lon="1.75726">
        <ele>174</ele>
        <time>2011-05-17T08:01:59.000Z</time>
      </trkpt>
      <trkpt lat="48.70695" lon="1.75719">
        <ele>174</ele>
        <time>2011-05-17T08:02:05.000Z</time>
      </trkpt>
      <trkpt lat="48.70691" lon="1.75715">
        <ele>174</ele>
        <time>2011-05-17T08:02:08.000Z</time>
      </trkpt>
      <trkpt lat="48.70686" lon="1.75708">
        <ele>174.19999694824</ele>
        <time>2011-05-17T08:02:13.000Z</time>
      </trkpt>
      <trkpt lat="48.70681" lon="1.75701">
        <ele>174.19999694824</ele>
        <time>2011-05-17T08:02:18.000Z</time>
      </trkpt>
      <trkpt lat="48.70669" lon="1.75691">
        <ele>174.60000610352</ele>
        <time>2011-05-17T08:02:27.000Z</time>
      </trkpt>
      <trkpt lat="48.70663" lon="1.75684">
        <ele>175</ele>
        <time>2011-05-17T08:02:33.000Z</time>
      </trkpt>
      <trkpt lat="48.70654" lon="1.75678">
        <ele>176.19999694824</ele>
        <time>2011-05-17T08:02:39.000Z</time>
      </trkpt>
      <trkpt lat="48.70647" lon="1.75682">
        <ele>176.80000305176</ele>
        <time>2011-05-17T08:02:45.000Z</time>
      </trkpt>
      <trkpt lat="48.70643" lon="1.7569">
        <ele>177</ele>
        <time>2011-05-17T08:02:49.000Z</time>
      </trkpt>
      <trkpt lat="48.7064" lon="1.75695">
        <ele>177.19999694824</ele>
        <time>2011-05-17T08:02:52.000Z</time>
      </trkpt>
      <trkpt lat="48.70636" lon="1.75701">
        <ele>177.39999389648</ele>
        <time>2011-05-17T08:02:55.000Z</time>
      </trkpt>
      <trkpt lat="48.70633" lon="1.75706">
        <ele>177.60000610352</ele>
        <time>2011-05-17T08:02:57.000Z</time>
      </trkpt>
      <trkpt lat="48.70625" lon="1.75723">
        <ele>177.60000610352</ele>
        <time>2011-05-17T08:03:06.000Z</time>
      </trkpt>
      <trkpt lat="48.70625" lon="1.75724">
        <ele>177.60000610352</ele>
        <time>2011-05-17T08:03:10.000Z</time>
      </trkpt>
      <trkpt lat="48.70624" lon="1.7573">
        <ele>177.19999694824</ele>
        <time>2011-05-17T08:03:14.000Z</time>
      </trkpt>
      <trkpt lat="48.7062" lon="1.75742">
        <ele>177</ele>
        <time>2011-05-17T08:03:20.000Z</time>
      </trkpt>
      <trkpt lat="48.70613" lon="1.75753">
        <ele>177</ele>
        <time>2011-05-17T08:03:27.000Z</time>
      </trkpt>
      <trkpt lat="48.70609" lon="1.75759">
        <ele>177</ele>
        <time>2011-05-17T08:03:32.000Z</time>
      </trkpt>
      <trkpt lat="48.70607" lon="1.7576">
        <ele>177.19999694824</ele>
        <time>2011-05-17T08:03:35.000Z</time>
      </trkpt>
      <trkpt lat="48.70603" lon="1.75766">
        <ele>177.19999694824</ele>
        <time>2011-05-17T08:03:48.000Z</time>
      </trkpt>
      <trkpt lat="48.70599" lon="1.75772">
        <ele>177.19999694824</ele>
        <time>2011-05-17T08:03:51.000Z</time>
      </trkpt>
      <trkpt lat="48.70591" lon="1.75785">
        <ele>177.19999694824</ele>
        <time>2011-05-17T08:04:00.000Z</time>
      </trkpt>
      <trkpt lat="48.70586" lon="1.75796">
        <ele>177.19999694824</ele>
        <time>2011-05-17T08:04:06.000Z</time>
      </trkpt>
      <trkpt lat="48.70583" lon="1.75802">
        <ele>177</ele>
        <time>2011-05-17T08:04:10.000Z</time>
      </trkpt>
      <trkpt lat="48.70578" lon="1.75812">
        <ele>177.19999694824</ele>
        <time>2011-05-17T08:04:15.000Z</time>
      </trkpt>
      <trkpt lat="48.70574" lon="1.75819">
        <ele>177.19999694824</ele>
        <time>2011-05-17T08:04:20.000Z</time>
      </trkpt>
      <trkpt lat="48.70569" lon="1.7583">
        <ele>177.39999389648</ele>
        <time>2011-05-17T08:04:26.000Z</time>
      </trkpt>
      <trkpt lat="48.70567" lon="1.75837">
        <ele>177.39999389648</ele>
        <time>2011-05-17T08:04:30.000Z</time>
      </trkpt>
      <trkpt lat="48.70562" lon="1.75851">
        <ele>177.80000305176</ele>
        <time>2011-05-17T08:04:39.000Z</time>
      </trkpt>
      <trkpt lat="48.70559" lon="1.75861">
        <ele>178</ele>
        <time>2011-05-17T08:04:46.000Z</time>
      </trkpt>
      <trkpt lat="48.70558" lon="1.75863">
        <ele>178.19999694824</ele>
        <time>2011-05-17T08:04:47.000Z</time>
      </trkpt>
      <trkpt lat="48.70554" lon="1.75872">
        <ele>178.39999389648</ele>
        <time>2011-05-17T08:04:51.000Z</time>
      </trkpt>
      <trkpt lat="48.70548" lon="1.75883">
        <ele>178.80000305176</ele>
        <time>2011-05-17T08:04:58.000Z</time>
      </trkpt>
      <trkpt lat="48.70547" lon="1.75885">
        <ele>178.80000305176</ele>
        <time>2011-05-17T08:04:59.000Z</time>
      </trkpt>
      <trkpt lat="48.70542" lon="1.75896">
        <ele>179</ele>
        <time>2011-05-17T08:05:06.000Z</time>
      </trkpt>
      <trkpt lat="48.70538" lon="1.75908">
        <ele>179.19999694824</ele>
        <time>2011-05-17T08:05:12.000Z</time>
      </trkpt>
      <trkpt lat="48.70533" lon="1.75917">
        <ele>179.60000610352</ele>
        <time>2011-05-17T08:05:18.000Z</time>
      </trkpt>
      <trkpt lat="48.70525" lon="1.75929">
        <ele>179.60000610352</ele>
        <time>2011-05-17T08:05:25.000Z</time>
      </trkpt>
      <trkpt lat="48.70522" lon="1.75934">
        <ele>179.60000610352</ele>
        <time>2011-05-17T08:05:27.000Z</time>
      </trkpt>
      <trkpt lat="48.70512" lon="1.75947">
        <ele>179.60000610352</ele>
        <time>2011-05-17T08:05:33.000Z</time>
      </trkpt>
      <trkpt lat="48.70505" lon="1.75956">
        <ele>179.60000610352</ele>
        <time>2011-05-17T08:05:39.000Z</time>
      </trkpt>
      <trkpt lat="48.70503" lon="1.75959">
        <ele>179.60000610352</ele>
        <time>2011-05-17T08:05:42.000Z</time>
      </trkpt>
      <trkpt lat="48.70498" lon="1.75968">
        <ele>179.39999389648</ele>
        <time>2011-05-17T08:05:46.000Z</time>
      </trkpt>
      <trkpt lat="48.70496" lon="1.75972">
        <ele>179.39999389648</ele>
        <time>2011-05-17T08:05:50.000Z</time>
      </trkpt>
      <trkpt lat="48.70494" lon="1.75977">
        <ele>179.19999694824</ele>
        <time>2011-05-17T08:05:54.000Z</time>
      </trkpt>
      <trkpt lat="48.70491" lon="1.75989">
        <ele>178.80000305176</ele>
        <time>2011-05-17T08:06:02.000Z</time>
      </trkpt>
      <trkpt lat="48.70489" lon="1.75993">
        <ele>178.60000610352</ele>
        <time>2011-05-17T08:06:04.000Z</time>
      </trkpt>
      <trkpt lat="48.70487" lon="1.76">
        <ele>178.39999389648</ele>
        <time>2011-05-17T08:06:08.000Z</time>
      </trkpt>
      <trkpt lat="48.70484" lon="1.76011">
        <ele>177.80000305176</ele>
        <time>2011-05-17T08:06:15.000Z</time>
      </trkpt>
      <trkpt lat="48.7048" lon="1.76023">
        <ele>177.19999694824</ele>
        <time>2011-05-17T08:06:20.000Z</time>
      </trkpt>
      <trkpt lat="48.70481" lon="1.76027">
        <ele>177</ele>
        <time>2011-05-17T08:06:22.000Z</time>
      </trkpt>
      <trkpt lat="48.7048" lon="1.76033">
        <ele>176.80000305176</ele>
        <time>2011-05-17T08:06:25.000Z</time>
      </trkpt>
      <trkpt lat="48.70478" lon="1.76042">
        <ele>176.19999694824</ele>
        <time>2011-05-17T08:06:30.000Z</time>
      </trkpt>
      <trkpt lat="48.70478" lon="1.76053">
        <ele>175.60000610352</ele>
        <time>2011-05-17T08:06:36.000Z</time>
      </trkpt>
      <trkpt lat="48.70476" lon="1.76061">
        <ele>175.39999389648</ele>
        <time>2011-05-17T08:06:41.000Z</time>
      </trkpt>
      <trkpt lat="48.70472" lon="1.76066">
        <ele>175.19999694824</ele>
        <time>2011-05-17T08:06:44.000Z</time>
      </trkpt>
      <trkpt lat="48.70471" lon="1.76076">
        <ele>174.60000610352</ele>
        <time>2011-05-17T08:06:52.000Z</time>
      </trkpt>
      <trkpt lat="48.70469" lon="1.76088">
        <ele>174.39999389648</ele>
        <time>2011-05-17T08:06:59.000Z</time>
      </trkpt>
      <trkpt lat="48.70466" lon="1.76095">
        <ele>174.39999389648</ele>
        <time>2011-05-17T08:07:05.000Z</time>
      </trkpt>
      <trkpt lat="48.70466" lon="1.76096">
        <ele>174.39999389648</ele>
        <time>2011-05-17T08:07:06.000Z</time>
      </trkpt>
      <trkpt lat="48.70462" lon="1.76109">
        <ele>174.39999389648</ele>
        <time>2011-05-17T08:07:13.000Z</time>
      </trkpt>
      <trkpt lat="48.7046" lon="1.76119">
        <ele>174.39999389648</ele>
        <time>2011-05-17T08:07:19.000Z</time>
      </trkpt>
      <trkpt lat="48.70458" lon="1.76134">
        <ele>174.39999389648</ele>
        <time>2011-05-17T08:07:26.000Z</time>
      </trkpt>
      <trkpt lat="48.70455" lon="1.76142">
        <ele>174.39999389648</ele>
        <time>2011-05-17T08:07:31.000Z</time>
      </trkpt>
      <trkpt lat="48.70457" lon="1.76141">
        <ele>174.19999694824</ele>
        <time>2011-05-17T08:07:38.000Z</time>
      </trkpt>
      <trkpt lat="48.70457" lon="1.76142">
        <ele>174.19999694824</ele>
        <time>2011-05-17T08:07:39.000Z</time>
      </trkpt>
      <trkpt lat="48.7046" lon="1.76149">
        <ele>174</ele>
        <time>2011-05-17T08:08:13.000Z</time>
      </trkpt>
      <trkpt lat="48.70459" lon="1.76155">
        <ele>174</ele>
        <time>2011-05-17T08:08:15.000Z</time>
      </trkpt>
      <trkpt lat="48.70458" lon="1.76167">
        <ele>174</ele>
        <time>2011-05-17T08:08:21.000Z</time>
      </trkpt>
      <trkpt lat="48.70457" lon="1.76178">
        <ele>173.60000610352</ele>
        <time>2011-05-17T08:08:27.000Z</time>
      </trkpt>
      <trkpt lat="48.70458" lon="1.76192">
        <ele>173.39999389648</ele>
        <time>2011-05-17T08:08:36.000Z</time>
      </trkpt>
      <trkpt lat="48.7046" lon="1.76197">
        <ele>173</ele>
        <time>2011-05-17T08:08:40.000Z</time>
      </trkpt>
      <trkpt lat="48.70461" lon="1.76203">
        <ele>173</ele>
        <time>2011-05-17T08:08:44.000Z</time>
      </trkpt>
      <trkpt lat="48.70461" lon="1.76204">
        <ele>172.80000305176</ele>
        <time>2011-05-17T08:08:45.000Z</time>
      </trkpt>
      <trkpt lat="48.70462" lon="1.76215">
        <ele>172.60000610352</ele>
        <time>2011-05-17T08:08:51.000Z</time>
      </trkpt>
      <trkpt lat="48.7046" lon="1.76222">
        <ele>172.39999389648</ele>
        <time>2011-05-17T08:08:55.000Z</time>
      </trkpt>
      <trkpt lat="48.7046" lon="1.76238">
        <ele>172</ele>
        <time>2011-05-17T08:09:04.000Z</time>
      </trkpt>
      <trkpt lat="48.70461" lon="1.76248">
        <ele>171.80000305176</ele>
        <time>2011-05-17T08:09:10.000Z</time>
      </trkpt>
      <trkpt lat="48.70457" lon="1.76257">
        <ele>172</ele>
        <time>2011-05-17T08:09:15.000Z</time>
      </trkpt>
      <trkpt lat="48.70451" lon="1.76269">
        <ele>172.39999389648</ele>
        <time>2011-05-17T08:09:21.000Z</time>
      </trkpt>
      <trkpt lat="48.70448" lon="1.76286">
        <ele>172.60000610352</ele>
        <time>2011-05-17T08:09:28.000Z</time>
      </trkpt>
      <trkpt lat="48.70448" lon="1.76292">
        <ele>172.60000610352</ele>
        <time>2011-05-17T08:09:30.000Z</time>
      </trkpt>
      <trkpt lat="48.70447" lon="1.76298">
        <ele>172.60000610352</ele>
        <time>2011-05-17T08:09:33.000Z</time>
      </trkpt>
      <trkpt lat="48.70446" lon="1.76307">
        <ele>172.80000305176</ele>
        <time>2011-05-17T08:09:37.000Z</time>
      </trkpt>
      <trkpt lat="48.70444" lon="1.76318">
        <ele>172.80000305176</ele>
        <time>2011-05-17T08:09:42.000Z</time>
      </trkpt>
      <trkpt lat="48.70448" lon="1.7633">
        <ele>172.80000305176</ele>
        <time>2011-05-17T08:09:48.000Z</time>
      </trkpt>
      <trkpt lat="48.70448" lon="1.76332">
        <ele>172.80000305176</ele>
        <time>2011-05-17T08:09:49.000Z</time>
      </trkpt>
      <trkpt lat="48.7045" lon="1.76345">
        <ele>173.19999694824</ele>
        <time>2011-05-17T08:09:55.000Z</time>
      </trkpt>
      <trkpt lat="48.70453" lon="1.76359">
        <ele>173.80000305176</ele>
        <time>2011-05-17T08:10:02.000Z</time>
      </trkpt>
      <trkpt lat="48.70456" lon="1.76364">
        <ele>174</ele>
        <time>2011-05-17T08:10:05.000Z</time>
      </trkpt>
      <trkpt lat="48.70458" lon="1.76366">
        <ele>174</ele>
        <time>2011-05-17T08:10:07.000Z</time>
      </trkpt>
      <trkpt lat="48.70459" lon="1.76375">
        <ele>174.39999389648</ele>
        <time>2011-05-17T08:10:11.000Z</time>
      </trkpt>
      <trkpt lat="48.70459" lon="1.76386">
        <ele>175</ele>
        <time>2011-05-17T08:10:16.000Z</time>
      </trkpt>
      <trkpt lat="48.70461" lon="1.76396">
        <ele>175.39999389648</ele>
        <time>2011-05-17T08:10:21.000Z</time>
      </trkpt>
      <trkpt lat="48.70464" lon="1.76408">
        <ele>175.80000305176</ele>
        <time>2011-05-17T08:10:27.000Z</time>
      </trkpt>
      <trkpt lat="48.70463" lon="1.76425">
        <ele>176.39999389648</ele>
        <time>2011-05-17T08:10:35.000Z</time>
      </trkpt>
      <trkpt lat="48.70464" lon="1.76433">
        <ele>176.60000610352</ele>
        <time>2011-05-17T08:10:39.000Z</time>
      </trkpt>
      <trkpt lat="48.70465" lon="1.76448">
        <ele>176.80000305176</ele>
        <time>2011-05-17T08:10:46.000Z</time>
      </trkpt>
      <trkpt lat="48.70462" lon="1.76453">
        <ele>177</ele>
        <time>2011-05-17T08:10:49.000Z</time>
      </trkpt>
      <trkpt lat="48.70461" lon="1.76458">
        <ele>177.19999694824</ele>
        <time>2011-05-17T08:10:52.000Z</time>
      </trkpt>
      <trkpt lat="48.70459" lon="1.7647">
        <ele>177.60000610352</ele>
        <time>2011-05-17T08:10:58.000Z</time>
      </trkpt>
      <trkpt lat="48.70448" lon="1.76466">
        <ele>178</ele>
        <time>2011-05-17T08:11:13.000Z</time>
      </trkpt>
      <trkpt lat="48.70447" lon="1.76475">
        <ele>178.39999389648</ele>
        <time>2011-05-17T08:11:19.000Z</time>
      </trkpt>
      <trkpt lat="48.70448" lon="1.76489">
        <ele>178.80000305176</ele>
        <time>2011-05-17T08:11:26.000Z</time>
      </trkpt>
      <trkpt lat="48.70448" lon="1.76499">
        <ele>179</ele>
        <time>2011-05-17T08:11:31.000Z</time>
      </trkpt>
      <trkpt lat="48.70446" lon="1.76509">
        <ele>179.19999694824</ele>
        <time>2011-05-17T08:11:37.000Z</time>
      </trkpt>
      <trkpt lat="48.70443" lon="1.76526">
        <ele>179.39999389648</ele>
        <time>2011-05-17T08:11:44.000Z</time>
      </trkpt>
      <trkpt lat="48.70442" lon="1.76539">
        <ele>179.60000610352</ele>
        <time>2011-05-17T08:11:50.000Z</time>
      </trkpt>
      <trkpt lat="48.70442" lon="1.76548">
        <ele>179.60000610352</ele>
        <time>2011-05-17T08:11:55.000Z</time>
      </trkpt>
      <trkpt lat="48.7044" lon="1.76559">
        <ele>179.80000305176</ele>
        <time>2011-05-17T08:12:01.000Z</time>
      </trkpt>
      <trkpt lat="48.70438" lon="1.76568">
        <ele>179.80000305176</ele>
        <time>2011-05-17T08:12:06.000Z</time>
      </trkpt>
      <trkpt lat="48.70434" lon="1.76582">
        <ele>180</ele>
        <time>2011-05-17T08:12:13.000Z</time>
      </trkpt>
      <trkpt lat="48.70434" lon="1.76583">
        <ele>180</ele>
        <time>2011-05-17T08:12:14.000Z</time>
      </trkpt>
      <trkpt lat="48.70427" lon="1.76588">
        <ele>180.39999389648</ele>
        <time>2011-05-17T08:12:20.000Z</time>
      </trkpt>
      <trkpt lat="48.70416" lon="1.76596">
        <ele>180.80000305176</ele>
        <time>2011-05-17T08:12:26.000Z</time>
      </trkpt>
      <trkpt lat="48.70411" lon="1.76598">
        <ele>180.60000610352</ele>
        <time>2011-05-17T08:12:30.000Z</time>
      </trkpt>
      <trkpt lat="48.70404" lon="1.76603">
        <ele>180.39999389648</ele>
        <time>2011-05-17T08:12:34.000Z</time>
      </trkpt>
      <trkpt lat="48.70396" lon="1.76605">
        <ele>180.19999694824</ele>
        <time>2011-05-17T08:12:41.000Z</time>
      </trkpt>
      <trkpt lat="48.70391" lon="1.76607">
        <ele>180</ele>
        <time>2011-05-17T08:12:46.000Z</time>
      </trkpt>
      <trkpt lat="48.70389" lon="1.76608">
        <ele>180</ele>
        <time>2011-05-17T08:12:48.000Z</time>
      </trkpt>
      <trkpt lat="48.7038" lon="1.7661">
        <ele>179.80000305176</ele>
        <time>2011-05-17T08:12:56.000Z</time>
      </trkpt>
      <trkpt lat="48.70375" lon="1.76613">
        <ele>179.60000610352</ele>
        <time>2011-05-17T08:13:00.000Z</time>
      </trkpt>
      <trkpt lat="48.70369" lon="1.76616">
        <ele>179.39999389648</ele>
        <time>2011-05-17T08:13:05.000Z</time>
      </trkpt>
      <trkpt lat="48.70367" lon="1.76616">
        <ele>179.39999389648</ele>
        <time>2011-05-17T08:13:07.000Z</time>
      </trkpt>
      <trkpt lat="48.70364" lon="1.76619">
        <ele>179.19999694824</ele>
        <time>2011-05-17T08:13:12.000Z</time>
      </trkpt>
      <trkpt lat="48.70363" lon="1.7662">
        <ele>179.19999694824</ele>
        <time>2011-05-17T08:13:13.000Z</time>
      </trkpt>
      <trkpt lat="48.70359" lon="1.76622">
        <ele>179</ele>
        <time>2011-05-17T08:13:15.000Z</time>
      </trkpt>
      <trkpt lat="48.70351" lon="1.76629">
        <ele>178.80000305176</ele>
        <time>2011-05-17T08:13:22.000Z</time>
      </trkpt>
      <trkpt lat="48.70342" lon="1.76635">
        <ele>178.39999389648</ele>
        <time>2011-05-17T08:13:28.000Z</time>
      </trkpt>
      <trkpt lat="48.70342" lon="1.76636">
        <ele>178.39999389648</ele>
        <time>2011-05-17T08:13:29.000Z</time>
      </trkpt>
      <trkpt lat="48.70338" lon="1.76636">
        <ele>178.39999389648</ele>
        <time>2011-05-17T08:13:32.000Z</time>
      </trkpt>
      <trkpt lat="48.70336" lon="1.76634">
        <ele>178.39999389648</ele>
        <time>2011-05-17T08:13:38.000Z</time>
      </trkpt>
      <trkpt lat="48.70335" lon="1.76631">
        <ele>178.39999389648</ele>
        <time>2011-05-17T08:13:48.000Z</time>
      </trkpt>
      <trkpt lat="48.70339" lon="1.76629">
        <ele>178.39999389648</ele>
        <time>2011-05-17T08:14:00.000Z</time>
      </trkpt>
      <trkpt lat="48.70339" lon="1.76628">
        <ele>178.39999389648</ele>
        <time>2011-05-17T08:14:02.000Z</time>
      </trkpt>
      <trkpt lat="48.70335" lon="1.76643">
        <ele>178.19999694824</ele>
        <time>2011-05-17T08:15:35.000Z</time>
      </trkpt>
      <trkpt lat="48.70329" lon="1.76646">
        <ele>178.19999694824</ele>
        <time>2011-05-17T08:15:39.000Z</time>
      </trkpt>
      <trkpt lat="48.70325" lon="1.76653">
        <ele>178.19999694824</ele>
        <time>2011-05-17T08:15:45.000Z</time>
      </trkpt>
      <trkpt lat="48.70326" lon="1.76661">
        <ele>178.19999694824</ele>
        <time>2011-05-17T08:15:52.000Z</time>
      </trkpt>
      <trkpt lat="48.70327" lon="1.76672">
        <ele>178</ele>
        <time>2011-05-17T08:15:58.000Z</time>
      </trkpt>
      <trkpt lat="48.70328" lon="1.76682">
        <ele>178</ele>
        <time>2011-05-17T08:16:03.000Z</time>
      </trkpt>
      <trkpt lat="48.70331" lon="1.76695">
        <ele>178</ele>
        <time>2011-05-17T08:16:10.000Z</time>
      </trkpt>
      <trkpt lat="48.70329" lon="1.76716">
        <ele>178</ele>
        <time>2011-05-17T08:16:19.000Z</time>
      </trkpt>
      <trkpt lat="48.7033" lon="1.76738">
        <ele>178</ele>
        <time>2011-05-17T08:16:30.000Z</time>
      </trkpt>
      <trkpt lat="48.70329" lon="1.76754">
        <ele>178</ele>
        <time>2011-05-17T08:16:38.000Z</time>
      </trkpt>
      <trkpt lat="48.70329" lon="1.76769">
        <ele>178.19999694824</ele>
        <time>2011-05-17T08:16:46.000Z</time>
      </trkpt>
      <trkpt lat="48.7033" lon="1.76789">
        <ele>178.39999389648</ele>
        <time>2011-05-17T08:16:55.000Z</time>
      </trkpt>
      <trkpt lat="48.7033" lon="1.76807">
        <ele>178.60000610352</ele>
        <time>2011-05-17T08:17:03.000Z</time>
      </trkpt>
      <trkpt lat="48.7033" lon="1.76829">
        <ele>178.80000305176</ele>
        <time>2011-05-17T08:17:13.000Z</time>
      </trkpt>
      <trkpt lat="48.70331" lon="1.76855">
        <ele>179.19999694824</ele>
        <time>2011-05-17T08:17:25.000Z</time>
      </trkpt>
      <trkpt lat="48.70332" lon="1.76883">
        <ele>179.60000610352</ele>
        <time>2011-05-17T08:17:38.000Z</time>
      </trkpt>
      <trkpt lat="48.70333" lon="1.76903">
        <ele>179.80000305176</ele>
        <time>2011-05-17T08:17:47.000Z</time>
      </trkpt>
      <trkpt lat="48.70334" lon="1.76924">
        <ele>180</ele>
        <time>2011-05-17T08:17:57.000Z</time>
      </trkpt>
      <trkpt lat="48.70335" lon="1.76943">
        <ele>180.60000610352</ele>
        <time>2011-05-17T08:18:06.000Z</time>
      </trkpt>
      <trkpt lat="48.70336" lon="1.76956">
        <ele>180.80000305176</ele>
        <time>2011-05-17T08:18:14.000Z</time>
      </trkpt>
      <trkpt lat="48.70339" lon="1.76972">
        <ele>181.19999694824</ele>
        <time>2011-05-17T08:18:22.000Z</time>
      </trkpt>
      <trkpt lat="48.70341" lon="1.76987">
        <ele>181.39999389648</ele>
        <time>2011-05-17T08:18:30.000Z</time>
      </trkpt>
      <trkpt lat="48.70342" lon="1.7699">
        <ele>181.39999389648</ele>
        <time>2011-05-17T08:18:32.000Z</time>
      </trkpt>
      <trkpt lat="48.70343" lon="1.77">
        <ele>181.39999389648</ele>
        <time>2011-05-17T08:18:38.000Z</time>
      </trkpt>
      <trkpt lat="48.70343" lon="1.77005">
        <ele>181.39999389648</ele>
        <time>2011-05-17T08:18:41.000Z</time>
      </trkpt>
      <trkpt lat="48.70346" lon="1.77014">
        <ele>181.39999389648</ele>
        <time>2011-05-17T08:18:46.000Z</time>
      </trkpt>
      <trkpt lat="48.70347" lon="1.7703">
        <ele>181.19999694824</ele>
        <time>2011-05-17T08:18:53.000Z</time>
      </trkpt>
      <trkpt lat="48.70346" lon="1.77044">
        <ele>181.19999694824</ele>
        <time>2011-05-17T08:19:00.000Z</time>
      </trkpt>
      <trkpt lat="48.70347" lon="1.77061">
        <ele>181.19999694824</ele>
        <time>2011-05-17T08:19:08.000Z</time>
      </trkpt>
      <trkpt lat="48.70348" lon="1.77074">
        <ele>181.19999694824</ele>
        <time>2011-05-17T08:19:14.000Z</time>
      </trkpt>
      <trkpt lat="48.70348" lon="1.77083">
        <ele>181.19999694824</ele>
        <time>2011-05-17T08:19:19.000Z</time>
      </trkpt>
      <trkpt lat="48.7035" lon="1.77101">
        <ele>181.19999694824</ele>
        <time>2011-05-17T08:19:28.000Z</time>
      </trkpt>
      <trkpt lat="48.70352" lon="1.77115">
        <ele>181</ele>
        <time>2011-05-17T08:19:35.000Z</time>
      </trkpt>
      <trkpt lat="48.70356" lon="1.77133">
        <ele>181</ele>
        <time>2011-05-17T08:19:44.000Z</time>
      </trkpt>
      <trkpt lat="48.70357" lon="1.77135">
        <ele>181</ele>
        <time>2011-05-17T08:19:45.000Z</time>
      </trkpt>
      <trkpt lat="48.70357" lon="1.77147">
        <ele>181</ele>
        <time>2011-05-17T08:19:51.000Z</time>
      </trkpt>
      <trkpt lat="48.70359" lon="1.77161">
        <ele>181</ele>
        <time>2011-05-17T08:19:58.000Z</time>
      </trkpt>
      <trkpt lat="48.70361" lon="1.77182">
        <ele>180.80000305176</ele>
        <time>2011-05-17T08:20:08.000Z</time>
      </trkpt>
      <trkpt lat="48.70361" lon="1.772">
        <ele>180.60000610352</ele>
        <time>2011-05-17T08:20:17.000Z</time>
      </trkpt>
      <trkpt lat="48.70363" lon="1.77215">
        <ele>180.39999389648</ele>
        <time>2011-05-17T08:20:24.000Z</time>
      </trkpt>
      <trkpt lat="48.70365" lon="1.77233">
        <ele>180.39999389648</ele>
        <time>2011-05-17T08:20:33.000Z</time>
      </trkpt>
      <trkpt lat="48.70367" lon="1.77245">
        <ele>180.39999389648</ele>
        <time>2011-05-17T08:20:39.000Z</time>
      </trkpt>
      <trkpt lat="48.70368" lon="1.77259">
        <ele>180.39999389648</ele>
        <time>2011-05-17T08:20:48.000Z</time>
      </trkpt>
      <trkpt lat="48.70367" lon="1.77272">
        <ele>180.60000610352</ele>
        <time>2011-05-17T08:21:31.000Z</time>
      </trkpt>
      <trkpt lat="48.70367" lon="1.77279">
        <ele>180.80000305176</ele>
        <time>2011-05-17T08:21:34.000Z</time>
      </trkpt>
      <trkpt lat="48.70369" lon="1.77282">
        <ele>180.80000305176</ele>
        <time>2011-05-17T08:21:36.000Z</time>
      </trkpt>
      <trkpt lat="48.70373" lon="1.77288">
        <ele>181</ele>
        <time>2011-05-17T08:21:42.000Z</time>
      </trkpt>
      <trkpt lat="48.70379" lon="1.77283">
        <ele>181</ele>
        <time>2011-05-17T08:21:48.000Z</time>
      </trkpt>
      <trkpt lat="48.70388" lon="1.77277">
        <ele>181</ele>
        <time>2011-05-17T08:21:55.000Z</time>
      </trkpt>
      <trkpt lat="48.70392" lon="1.77275">
        <ele>181.19999694824</ele>
        <time>2011-05-17T08:21:58.000Z</time>
      </trkpt>
      <trkpt lat="48.70405" lon="1.77265">
        <ele>181</ele>
        <time>2011-05-17T08:22:08.000Z</time>
      </trkpt>
      <trkpt lat="48.70414" lon="1.77257">
        <ele>181</ele>
        <time>2011-05-17T08:22:16.000Z</time>
      </trkpt>
      <trkpt lat="48.70424" lon="1.7725">
        <ele>181</ele>
        <time>2011-05-17T08:22:23.000Z</time>
      </trkpt>
      <trkpt lat="48.70435" lon="1.77243">
        <ele>181</ele>
        <time>2011-05-17T08:22:32.000Z</time>
      </trkpt>
      <trkpt lat="48.70452" lon="1.77235">
        <ele>181</ele>
        <time>2011-05-17T08:22:44.000Z</time>
      </trkpt>
      <trkpt lat="48.70463" lon="1.77236">
        <ele>181.19999694824</ele>
        <time>2011-05-17T08:22:53.000Z</time>
      </trkpt>
      <trkpt lat="48.70475" lon="1.77238">
        <ele>181.39999389648</ele>
        <time>2011-05-17T08:23:02.000Z</time>
      </trkpt>
      <trkpt lat="48.70488" lon="1.77237">
        <ele>181.60000610352</ele>
        <time>2011-05-17T08:23:11.000Z</time>
      </trkpt>
      <trkpt lat="48.70498" lon="1.77237">
        <ele>181.80000305176</ele>
        <time>2011-05-17T08:23:18.000Z</time>
      </trkpt>
      <trkpt lat="48.70505" lon="1.77237">
        <ele>181.60000610352</ele>
        <time>2011-05-17T08:23:23.000Z</time>
      </trkpt>
      <trkpt lat="48.70515" lon="1.77237">
        <ele>181.60000610352</ele>
        <time>2011-05-17T08:23:32.000Z</time>
      </trkpt>
      <trkpt lat="48.70519" lon="1.77238">
        <ele>181.39999389648</ele>
        <time>2011-05-17T08:23:35.000Z</time>
      </trkpt>
      <trkpt lat="48.70527" lon="1.77236">
        <ele>181.19999694824</ele>
        <time>2011-05-17T08:23:40.000Z</time>
      </trkpt>
      <trkpt lat="48.70536" lon="1.77239">
        <ele>181.19999694824</ele>
        <time>2011-05-17T08:23:46.000Z</time>
      </trkpt>
      <trkpt lat="48.70546" lon="1.77239">
        <ele>181</ele>
        <time>2011-05-17T08:23:54.000Z</time>
      </trkpt>
      <trkpt lat="48.70555" lon="1.77241">
        <ele>180.80000305176</ele>
        <time>2011-05-17T08:24:02.000Z</time>
      </trkpt>
      <trkpt lat="48.70566" lon="1.77241">
        <ele>180.60000610352</ele>
        <time>2011-05-17T08:24:09.000Z</time>
      </trkpt>
      <trkpt lat="48.70572" lon="1.77241">
        <ele>180.60000610352</ele>
        <time>2011-05-17T08:24:13.000Z</time>
      </trkpt>
      <trkpt lat="48.70583" lon="1.77242">
        <ele>180.39999389648</ele>
        <time>2011-05-17T08:24:21.000Z</time>
      </trkpt>
      <trkpt lat="48.70589" lon="1.77244">
        <ele>180.19999694824</ele>
        <time>2011-05-17T08:24:27.000Z</time>
      </trkpt>
      <trkpt lat="48.70598" lon="1.77245">
        <ele>179.80000305176</ele>
        <time>2011-05-17T08:24:34.000Z</time>
      </trkpt>
      <trkpt lat="48.70608" lon="1.77246">
        <ele>179.39999389648</ele>
        <time>2011-05-17T08:24:40.000Z</time>
      </trkpt>
      <trkpt lat="48.70617" lon="1.77248">
        <ele>179.19999694824</ele>
        <time>2011-05-17T08:24:47.000Z</time>
      </trkpt>
      <trkpt lat="48.70632" lon="1.7725">
        <ele>178.60000610352</ele>
        <time>2011-05-17T08:24:57.000Z</time>
      </trkpt>
      <trkpt lat="48.70645" lon="1.7725">
        <ele>178</ele>
        <time>2011-05-17T08:25:06.000Z</time>
      </trkpt>
      <trkpt lat="48.70657" lon="1.77253">
        <ele>177.39999389648</ele>
        <time>2011-05-17T08:25:15.000Z</time>
      </trkpt>
      <trkpt lat="48.70665" lon="1.77254">
        <ele>177</ele>
        <time>2011-05-17T08:25:22.000Z</time>
      </trkpt>
      <trkpt lat="48.70672" lon="1.77255">
        <ele>177</ele>
        <time>2011-05-17T08:25:27.000Z</time>
      </trkpt>
      <trkpt lat="48.70683" lon="1.77255">
        <ele>176.80000305176</ele>
        <time>2011-05-17T08:25:35.000Z</time>
      </trkpt>
      <trkpt lat="48.70689" lon="1.77256">
        <ele>176.80000305176</ele>
        <time>2011-05-17T08:25:44.000Z</time>
      </trkpt>
      <trkpt lat="48.70697" lon="1.77257">
        <ele>176.60000610352</ele>
        <time>2011-05-17T08:25:50.000Z</time>
      </trkpt>
      <trkpt lat="48.70698" lon="1.77257">
        <ele>176.60000610352</ele>
        <time>2011-05-17T08:25:51.000Z</time>
      </trkpt>
      <trkpt lat="48.70707" lon="1.77258">
        <ele>176.60000610352</ele>
        <time>2011-05-17T08:25:58.000Z</time>
      </trkpt>
      <trkpt lat="48.70719" lon="1.77257">
        <ele>176.39999389648</ele>
        <time>2011-05-17T08:26:06.000Z</time>
      </trkpt>
      <trkpt lat="48.70734" lon="1.77257">
        <ele>176.19999694824</ele>
        <time>2011-05-17T08:26:16.000Z</time>
      </trkpt>
      <trkpt lat="48.70742" lon="1.77257">
        <ele>176</ele>
        <time>2011-05-17T08:26:23.000Z</time>
      </trkpt>
      <trkpt lat="48.70749" lon="1.77255">
        <ele>176</ele>
        <time>2011-05-17T08:26:29.000Z</time>
      </trkpt>
      <trkpt lat="48.7076" lon="1.77253">
        <ele>175.80000305176</ele>
        <time>2011-05-17T08:26:37.000Z</time>
      </trkpt>
      <trkpt lat="48.70775" lon="1.77252">
        <ele>175.60000610352</ele>
        <time>2011-05-17T08:26:46.000Z</time>
      </trkpt>
      <trkpt lat="48.70778" lon="1.77252">
        <ele>175.60000610352</ele>
        <time>2011-05-17T08:26:49.000Z</time>
      </trkpt>
      <trkpt lat="48.70787" lon="1.77252">
        <ele>175.39999389648</ele>
        <time>2011-05-17T08:26:57.000Z</time>
      </trkpt>
      <trkpt lat="48.70799" lon="1.77251">
        <ele>175.39999389648</ele>
        <time>2011-05-17T08:27:05.000Z</time>
      </trkpt>
      <trkpt lat="48.70807" lon="1.77251">
        <ele>175.19999694824</ele>
        <time>2011-05-17T08:27:11.000Z</time>
      </trkpt>
      <trkpt lat="48.70816" lon="1.77251">
        <ele>175.19999694824</ele>
        <time>2011-05-17T08:27:18.000Z</time>
      </trkpt>
      <trkpt lat="48.70829" lon="1.77249">
        <ele>175</ele>
        <time>2011-05-17T08:27:25.000Z</time>
      </trkpt>
      <trkpt lat="48.70837" lon="1.7725">
        <ele>175</ele>
        <time>2011-05-17T08:27:32.000Z</time>
      </trkpt>
      <trkpt lat="48.70842" lon="1.77252">
        <ele>175</ele>
        <time>2011-05-17T08:27:37.000Z</time>
      </trkpt>
      <trkpt lat="48.70847" lon="1.77253">
        <ele>175.19999694824</ele>
        <time>2011-05-17T08:27:41.000Z</time>
      </trkpt>
      <trkpt lat="48.7085" lon="1.77252">
        <ele>175.19999694824</ele>
        <time>2011-05-17T08:27:43.000Z</time>
      </trkpt>
      <trkpt lat="48.70861" lon="1.77253">
        <ele>175.19999694824</ele>
        <time>2011-05-17T08:27:51.000Z</time>
      </trkpt>
      <trkpt lat="48.70865" lon="1.77252">
        <ele>175.39999389648</ele>
        <time>2011-05-17T08:27:54.000Z</time>
      </trkpt>
      <trkpt lat="48.70876" lon="1.77256">
        <ele>175.60000610352</ele>
        <time>2011-05-17T08:28:02.000Z</time>
      </trkpt>
      <trkpt lat="48.7088" lon="1.77267">
        <ele>175.80000305176</ele>
        <time>2011-05-17T08:28:08.000Z</time>
      </trkpt>
      <trkpt lat="48.70887" lon="1.77283">
        <ele>176.19999694824</ele>
        <time>2011-05-17T08:28:14.000Z</time>
      </trkpt>
      <trkpt lat="48.70893" lon="1.773">
        <ele>176.60000610352</ele>
        <time>2011-05-17T08:28:19.000Z</time>
      </trkpt>
      <trkpt lat="48.70902" lon="1.77326">
        <ele>177.39999389648</ele>
        <time>2011-05-17T08:28:26.000Z</time>
      </trkpt>
      <trkpt lat="48.70918" lon="1.77359">
        <ele>177</ele>
        <time>2011-05-17T08:28:35.000Z</time>
      </trkpt>
      <trkpt lat="48.70929" lon="1.77374">
        <ele>176.60000610352</ele>
        <time>2011-05-17T08:28:40.000Z</time>
      </trkpt>
      <trkpt lat="48.70936" lon="1.77388">
        <ele>176.19999694824</ele>
        <time>2011-05-17T08:28:44.000Z</time>
      </trkpt>
      <trkpt lat="48.7095" lon="1.77414">
        <ele>175.80000305176</ele>
        <time>2011-05-17T08:28:51.000Z</time>
      </trkpt>
      <trkpt lat="48.70962" lon="1.77436">
        <ele>175.60000610352</ele>
        <time>2011-05-17T08:28:57.000Z</time>
      </trkpt>
      <trkpt lat="48.70979" lon="1.7747">
        <ele>174.80000305176</ele>
        <time>2011-05-17T08:29:06.000Z</time>
      </trkpt>
      <trkpt lat="48.70988" lon="1.77488">
        <ele>174.19999694824</ele>
        <time>2011-05-17T08:29:11.000Z</time>
      </trkpt>
      <trkpt lat="48.71003" lon="1.77523">
        <ele>173.39999389648</ele>
        <time>2011-05-17T08:29:20.000Z</time>
      </trkpt>
      <trkpt lat="48.71013" lon="1.77547">
        <ele>172.80000305176</ele>
        <time>2011-05-17T08:29:26.000Z</time>
      </trkpt>
      <trkpt lat="48.71023" lon="1.77571">
        <ele>172.19999694824</ele>
        <time>2011-05-17T08:29:32.000Z</time>
      </trkpt>
      <trkpt lat="48.71034" lon="1.77601">
        <ele>171.80000305176</ele>
        <time>2011-05-17T08:29:39.000Z</time>
      </trkpt>
      <trkpt lat="48.71044" lon="1.77629">
        <ele>171.39999389648</ele>
        <time>2011-05-17T08:29:46.000Z</time>
      </trkpt>
      <trkpt lat="48.7105" lon="1.77648">
        <ele>171</ele>
        <time>2011-05-17T08:29:51.000Z</time>
      </trkpt>
      <trkpt lat="48.71057" lon="1.77667">
        <ele>170.60000610352</ele>
        <time>2011-05-17T08:29:56.000Z</time>
      </trkpt>
      <trkpt lat="48.71065" lon="1.77684">
        <ele>170.19999694824</ele>
        <time>2011-05-17T08:30:01.000Z</time>
      </trkpt>
      <trkpt lat="48.71072" lon="1.77699">
        <ele>169.80000305176</ele>
        <time>2011-05-17T08:30:06.000Z</time>
      </trkpt>
      <trkpt lat="48.71075" lon="1.77702">
        <ele>169.60000610352</ele>
        <time>2011-05-17T08:30:08.000Z</time>
      </trkpt>
      <trkpt lat="48.71081" lon="1.7771">
        <ele>169.39999389648</ele>
        <time>2011-05-17T08:30:14.000Z</time>
      </trkpt>
      <trkpt lat="48.71084" lon="1.77718">
        <ele>169.19999694824</ele>
        <time>2011-05-17T08:30:18.000Z</time>
      </trkpt>
      <trkpt lat="48.7109" lon="1.77726">
        <ele>169.19999694824</ele>
        <time>2011-05-17T08:30:23.000Z</time>
      </trkpt>
      <trkpt lat="48.71095" lon="1.77733">
        <ele>169.19999694824</ele>
        <time>2011-05-17T08:30:28.000Z</time>
      </trkpt>
      <trkpt lat="48.71091" lon="1.77736">
        <ele>169.19999694824</ele>
        <time>2011-05-17T08:30:38.000Z</time>
      </trkpt>
      <trkpt lat="48.71092" lon="1.77756">
        <ele>169</ele>
        <time>2011-05-17T08:31:29.000Z</time>
      </trkpt>
      <trkpt lat="48.71097" lon="1.77758">
        <ele>169.19999694824</ele>
        <time>2011-05-17T08:31:32.000Z</time>
      </trkpt>
      <trkpt lat="48.71106" lon="1.77757">
        <ele>169.19999694824</ele>
        <time>2011-05-17T08:31:37.000Z</time>
      </trkpt>
      <trkpt lat="48.71118" lon="1.77755">
        <ele>169.39999389648</ele>
        <time>2011-05-17T08:31:42.000Z</time>
      </trkpt>
      <trkpt lat="48.71131" lon="1.77754">
        <ele>169.39999389648</ele>
        <time>2011-05-17T08:31:47.000Z</time>
      </trkpt>
      <trkpt lat="48.71145" lon="1.77759">
        <ele>169.60000610352</ele>
        <time>2011-05-17T08:31:53.000Z</time>
      </trkpt>
      <trkpt lat="48.71158" lon="1.77765">
        <ele>169.80000305176</ele>
        <time>2011-05-17T08:31:58.000Z</time>
      </trkpt>
      <trkpt lat="48.71171" lon="1.77772">
        <ele>170</ele>
        <time>2011-05-17T08:32:03.000Z</time>
      </trkpt>
      <trkpt lat="48.71177" lon="1.77777">
        <ele>170.19999694824</ele>
        <time>2011-05-17T08:32:07.000Z</time>
      </trkpt>
      <trkpt lat="48.71182" lon="1.77781">
        <ele>170.39999389648</ele>
        <time>2011-05-17T08:32:12.000Z</time>
      </trkpt>
      <trkpt lat="48.71192" lon="1.77787">
        <ele>170.80000305176</ele>
        <time>2011-05-17T08:32:20.000Z</time>
      </trkpt>
      <trkpt lat="48.71199" lon="1.77791">
        <ele>171</ele>
        <time>2011-05-17T08:32:24.000Z</time>
      </trkpt>
      <trkpt lat="48.71207" lon="1.77795">
        <ele>171.39999389648</ele>
        <time>2011-05-17T08:32:28.000Z</time>
      </trkpt>
      <trkpt lat="48.71219" lon="1.77804">
        <ele>172</ele>
        <time>2011-05-17T08:32:35.000Z</time>
      </trkpt>
      <trkpt lat="48.71232" lon="1.77813">
        <ele>172.60000610352</ele>
        <time>2011-05-17T08:32:41.000Z</time>
      </trkpt>
      <trkpt lat="48.71241" lon="1.77815">
        <ele>173</ele>
        <time>2011-05-17T08:32:46.000Z</time>
      </trkpt>
      <trkpt lat="48.71252" lon="1.77819">
        <ele>173.60000610352</ele>
        <time>2011-05-17T08:32:50.000Z</time>
      </trkpt>
      <trkpt lat="48.71266" lon="1.77824">
        <ele>173.60000610352</ele>
        <time>2011-05-17T08:32:55.000Z</time>
      </trkpt>
      <trkpt lat="48.7128" lon="1.77825">
        <ele>173.39999389648</ele>
        <time>2011-05-17T08:32:59.000Z</time>
      </trkpt>
      <trkpt lat="48.71283" lon="1.77825">
        <ele>173.39999389648</ele>
        <time>2011-05-17T08:33:00.000Z</time>
      </trkpt>
      <trkpt lat="48.71301" lon="1.77825">
        <ele>173.19999694824</ele>
        <time>2011-05-17T08:33:06.000Z</time>
      </trkpt>
      <trkpt lat="48.71312" lon="1.77825">
        <ele>173</ele>
        <time>2011-05-17T08:33:10.000Z</time>
      </trkpt>
      <trkpt lat="48.71327" lon="1.77821">
        <ele>172.80000305176</ele>
        <time>2011-05-17T08:33:15.000Z</time>
      </trkpt>
      <trkpt lat="48.71343" lon="1.77819">
        <ele>172.80000305176</ele>
        <time>2011-05-17T08:33:21.000Z</time>
      </trkpt>
      <trkpt lat="48.7136" lon="1.77814">
        <ele>172.60000610352</ele>
        <time>2011-05-17T08:33:27.000Z</time>
      </trkpt>
      <trkpt lat="48.7138" lon="1.77809">
        <ele>172.60000610352</ele>
        <time>2011-05-17T08:33:33.000Z</time>
      </trkpt>
      <trkpt lat="48.71392" lon="1.77807">
        <ele>172.60000610352</ele>
        <time>2011-05-17T08:33:37.000Z</time>
      </trkpt>
      <trkpt lat="48.71395" lon="1.77807">
        <ele>172.60000610352</ele>
        <time>2011-05-17T08:33:38.000Z</time>
      </trkpt>
      <trkpt lat="48.71403" lon="1.77799">
        <ele>172.39999389648</ele>
        <time>2011-05-17T08:33:43.000Z</time>
      </trkpt>
      <trkpt lat="48.71407" lon="1.77795">
        <ele>172.39999389648</ele>
        <time>2011-05-17T08:33:46.000Z</time>
      </trkpt>
      <trkpt lat="48.71415" lon="1.77793">
        <ele>172.39999389648</ele>
        <time>2011-05-17T08:33:51.000Z</time>
      </trkpt>
      <trkpt lat="48.71424" lon="1.77803">
        <ele>172.80000305176</ele>
        <time>2011-05-17T08:33:59.000Z</time>
      </trkpt>
      <trkpt lat="48.71428" lon="1.77806">
        <ele>173</ele>
        <time>2011-05-17T08:34:02.000Z</time>
      </trkpt>
      <trkpt lat="48.7143" lon="1.77807">
        <ele>173.19999694824</ele>
        <time>2011-05-17T08:34:04.000Z</time>
      </trkpt>
      <trkpt lat="48.71435" lon="1.778">
        <ele>173.39999389648</ele>
        <time>2011-05-17T08:34:09.000Z</time>
      </trkpt>
      <trkpt lat="48.7144" lon="1.77792">
        <ele>173.39999389648</ele>
        <time>2011-05-17T08:34:12.000Z</time>
      </trkpt>
      <trkpt lat="48.71443" lon="1.77769">
        <ele>173.19999694824</ele>
        <time>2011-05-17T08:34:18.000Z</time>
      </trkpt>
      <trkpt lat="48.71453" lon="1.77749">
        <ele>173.19999694824</ele>
        <time>2011-05-17T08:34:24.000Z</time>
      </trkpt>
      <trkpt lat="48.71456" lon="1.77745">
        <ele>173.19999694824</ele>
        <time>2011-05-17T08:34:25.000Z</time>
      </trkpt>
      <trkpt lat="48.71477" lon="1.77733">
        <ele>173.80000305176</ele>
        <time>2011-05-17T08:34:32.000Z</time>
      </trkpt>
      <trkpt lat="48.71494" lon="1.77725">
        <ele>174</ele>
        <time>2011-05-17T08:34:38.000Z</time>
      </trkpt>
      <trkpt lat="48.71506" lon="1.77717">
        <ele>174.39999389648</ele>
        <time>2011-05-17T08:34:43.000Z</time>
      </trkpt>
      <trkpt lat="48.71516" lon="1.77712">
        <ele>175</ele>
        <time>2011-05-17T08:34:47.000Z</time>
      </trkpt>
      <trkpt lat="48.71531" lon="1.77702">
        <ele>175.80000305176</ele>
        <time>2011-05-17T08:34:53.000Z</time>
      </trkpt>
      <trkpt lat="48.71543" lon="1.77698">
        <ele>176.60000610352</ele>
        <time>2011-05-17T08:34:58.000Z</time>
      </trkpt>
      <trkpt lat="48.71547" lon="1.77697">
        <ele>177</ele>
        <time>2011-05-17T08:35:03.000Z</time>
      </trkpt>
      <trkpt lat="48.71556" lon="1.77698">
        <ele>177.60000610352</ele>
        <time>2011-05-17T08:35:10.000Z</time>
      </trkpt>
      <trkpt lat="48.71566" lon="1.77702">
        <ele>178.19999694824</ele>
        <time>2011-05-17T08:35:14.000Z</time>
      </trkpt>
      <trkpt lat="48.71568" lon="1.77702">
        <ele>178.39999389648</ele>
        <time>2011-05-17T08:35:17.000Z</time>
      </trkpt>
      <trkpt lat="48.71571" lon="1.77703">
        <ele>178.60000610352</ele>
        <time>2011-05-17T08:35:18.000Z</time>
      </trkpt>
      <trkpt lat="48.7158" lon="1.77705">
        <ele>179.19999694824</ele>
        <time>2011-05-17T08:35:20.000Z</time>
      </trkpt>
      <trkpt lat="48.71595" lon="1.77712">
        <ele>179.39999389648</ele>
        <time>2011-05-17T08:35:26.000Z</time>
      </trkpt>
      <trkpt lat="48.71599" lon="1.77717">
        <ele>179.39999389648</ele>
        <time>2011-05-17T08:35:28.000Z</time>
      </trkpt>
      <trkpt lat="48.71615" lon="1.7773">
        <ele>179.39999389648</ele>
        <time>2011-05-17T08:35:35.000Z</time>
      </trkpt>
      <trkpt lat="48.71633" lon="1.7774">
        <ele>179.39999389648</ele>
        <time>2011-05-17T08:35:41.000Z</time>
      </trkpt>
      <trkpt lat="48.71643" lon="1.77745">
        <ele>179.60000610352</ele>
        <time>2011-05-17T08:35:44.000Z</time>
      </trkpt>
      <trkpt lat="48.71656" lon="1.77751">
        <ele>179.80000305176</ele>
        <time>2011-05-17T08:35:48.000Z</time>
      </trkpt>
      <trkpt lat="48.71666" lon="1.77758">
        <ele>179.80000305176</ele>
        <time>2011-05-17T08:35:52.000Z</time>
      </trkpt>
      <trkpt lat="48.71677" lon="1.77763">
        <ele>179.80000305176</ele>
        <time>2011-05-17T08:35:56.000Z</time>
      </trkpt>
      <trkpt lat="48.71695" lon="1.77773">
        <ele>179.60000610352</ele>
        <time>2011-05-17T08:36:03.000Z</time>
      </trkpt>
      <trkpt lat="48.71707" lon="1.77773">
        <ele>179.60000610352</ele>
        <time>2011-05-17T08:36:07.000Z</time>
      </trkpt>
      <trkpt lat="48.71725" lon="1.77762">
        <ele>179</ele>
        <time>2011-05-17T08:36:13.000Z</time>
      </trkpt>
      <trkpt lat="48.7174" lon="1.77755">
        <ele>178.39999389648</ele>
        <time>2011-05-17T08:36:18.000Z</time>
      </trkpt>
      <trkpt lat="48.71762" lon="1.77739">
        <ele>177.60000610352</ele>
        <time>2011-05-17T08:36:26.000Z</time>
      </trkpt>
      <trkpt lat="48.71776" lon="1.77724">
        <ele>177.19999694824</ele>
        <time>2011-05-17T08:36:32.000Z</time>
      </trkpt>
      <trkpt lat="48.71791" lon="1.77702">
        <ele>176.80000305176</ele>
        <time>2011-05-17T08:36:39.000Z</time>
      </trkpt>
      <trkpt lat="48.71807" lon="1.7768">
        <ele>177</ele>
        <time>2011-05-17T08:36:46.000Z</time>
      </trkpt>
      <trkpt lat="48.71823" lon="1.77664">
        <ele>178.19999694824</ele>
        <time>2011-05-17T08:36:52.000Z</time>
      </trkpt>
      <trkpt lat="48.71833" lon="1.77655">
        <ele>179.19999694824</ele>
        <time>2011-05-17T08:36:56.000Z</time>
      </trkpt>
      <trkpt lat="48.7185" lon="1.77638">
        <ele>178.39999389648</ele>
        <time>2011-05-17T08:37:03.000Z</time>
      </trkpt>
      <trkpt lat="48.71871" lon="1.77634">
        <ele>178.39999389648</ele>
        <time>2011-05-17T08:37:10.000Z</time>
      </trkpt>
      <trkpt lat="48.71885" lon="1.77644">
        <ele>179.19999694824</ele>
        <time>2011-05-17T08:37:15.000Z</time>
      </trkpt>
      <trkpt lat="48.71897" lon="1.77658">
        <ele>180.19999694824</ele>
        <time>2011-05-17T08:37:20.000Z</time>
      </trkpt>
      <trkpt lat="48.71905" lon="1.77668">
        <ele>180.80000305176</ele>
        <time>2011-05-17T08:37:23.000Z</time>
      </trkpt>
      <trkpt lat="48.71912" lon="1.77687">
        <ele>181.39999389648</ele>
        <time>2011-05-17T08:37:28.000Z</time>
      </trkpt>
      <trkpt lat="48.7192" lon="1.77706">
        <ele>181.60000610352</ele>
        <time>2011-05-17T08:37:33.000Z</time>
      </trkpt>
      <trkpt lat="48.71928" lon="1.77728">
        <ele>181.60000610352</ele>
        <time>2011-05-17T08:37:39.000Z</time>
      </trkpt>
      <trkpt lat="48.71932" lon="1.77754">
        <ele>182.19999694824</ele>
        <time>2011-05-17T08:37:45.000Z</time>
      </trkpt>
      <trkpt lat="48.71936" lon="1.77773">
        <ele>182.60000610352</ele>
        <time>2011-05-17T08:37:50.000Z</time>
      </trkpt>
      <trkpt lat="48.71939" lon="1.77796">
        <ele>183</ele>
        <time>2011-05-17T08:37:56.000Z</time>
      </trkpt>
      <trkpt lat="48.71943" lon="1.77816">
        <ele>183.39999389648</ele>
        <time>2011-05-17T08:38:01.000Z</time>
      </trkpt>
      <trkpt lat="48.71949" lon="1.77837">
        <ele>183.80000305176</ele>
        <time>2011-05-17T08:38:06.000Z</time>
      </trkpt>
      <trkpt lat="48.71957" lon="1.77854">
        <ele>184</ele>
        <time>2011-05-17T08:38:11.000Z</time>
      </trkpt>
      <trkpt lat="48.71961" lon="1.77861">
        <ele>184.19999694824</ele>
        <time>2011-05-17T08:38:13.000Z</time>
      </trkpt>
      <trkpt lat="48.71977" lon="1.77863">
        <ele>183.80000305176</ele>
        <time>2011-05-17T08:38:19.000Z</time>
      </trkpt>
      <trkpt lat="48.71986" lon="1.77854">
        <ele>183.19999694824</ele>
        <time>2011-05-17T08:38:23.000Z</time>
      </trkpt>
      <trkpt lat="48.71993" lon="1.77841">
        <ele>182.39999389648</ele>
        <time>2011-05-17T08:38:27.000Z</time>
      </trkpt>
      <trkpt lat="48.72005" lon="1.77822">
        <ele>181.19999694824</ele>
        <time>2011-05-17T08:38:33.000Z</time>
      </trkpt>
      <trkpt lat="48.72017" lon="1.77798">
        <ele>179.80000305176</ele>
        <time>2011-05-17T08:38:40.000Z</time>
      </trkpt>
      <trkpt lat="48.72027" lon="1.77782">
        <ele>178.60000610352</ele>
        <time>2011-05-17T08:38:45.000Z</time>
      </trkpt>
      <trkpt lat="48.72041" lon="1.7777">
        <ele>177</ele>
        <time>2011-05-17T08:38:51.000Z</time>
      </trkpt>
      <trkpt lat="48.7206" lon="1.77773">
        <ele>176</ele>
        <time>2011-05-17T08:38:58.000Z</time>
      </trkpt>
      <trkpt lat="48.72076" lon="1.77776">
        <ele>175.19999694824</ele>
        <time>2011-05-17T08:39:03.000Z</time>
      </trkpt>
      <trkpt lat="48.72088" lon="1.77779">
        <ele>174.60000610352</ele>
        <time>2011-05-17T08:39:07.000Z</time>
      </trkpt>
      <trkpt lat="48.72103" lon="1.77787">
        <ele>174.19999694824</ele>
        <time>2011-05-17T08:39:12.000Z</time>
      </trkpt>
      <trkpt lat="48.72117" lon="1.77797">
        <ele>173.80000305176</ele>
        <time>2011-05-17T08:39:17.000Z</time>
      </trkpt>
      <trkpt lat="48.7213" lon="1.77807">
        <ele>173.80000305176</ele>
        <time>2011-05-17T08:39:22.000Z</time>
      </trkpt>
      <trkpt lat="48.72143" lon="1.7782">
        <ele>174.19999694824</ele>
        <time>2011-05-17T08:39:28.000Z</time>
      </trkpt>
      <trkpt lat="48.72159" lon="1.77834">
        <ele>174.39999389648</ele>
        <time>2011-05-17T08:39:34.000Z</time>
      </trkpt>
      <trkpt lat="48.72172" lon="1.77844">
        <ele>174</ele>
        <time>2011-05-17T08:39:39.000Z</time>
      </trkpt>
      <trkpt lat="48.72188" lon="1.77858">
        <ele>173.39999389648</ele>
        <time>2011-05-17T08:39:45.000Z</time>
      </trkpt>
      <trkpt lat="48.72205" lon="1.7787">
        <ele>172.80000305176</ele>
        <time>2011-05-17T08:39:51.000Z</time>
      </trkpt>
      <trkpt lat="48.72219" lon="1.7788">
        <ele>172.39999389648</ele>
        <time>2011-05-17T08:39:56.000Z</time>
      </trkpt>
      <trkpt lat="48.72233" lon="1.77891">
        <ele>172.39999389648</ele>
        <time>2011-05-17T08:40:02.000Z</time>
      </trkpt>
      <trkpt lat="48.72247" lon="1.77904">
        <ele>172.80000305176</ele>
        <time>2011-05-17T08:40:08.000Z</time>
      </trkpt>
      <trkpt lat="48.72261" lon="1.77923">
        <ele>172.80000305176</ele>
        <time>2011-05-17T08:40:14.000Z</time>
      </trkpt>
      <trkpt lat="48.72271" lon="1.77947">
        <ele>172.19999694824</ele>
        <time>2011-05-17T08:40:20.000Z</time>
      </trkpt>
      <trkpt lat="48.72272" lon="1.7797">
        <ele>172.60000610352</ele>
        <time>2011-05-17T08:40:25.000Z</time>
      </trkpt>
      <trkpt lat="48.72269" lon="1.7799">
        <ele>173.39999389648</ele>
        <time>2011-05-17T08:40:30.000Z</time>
      </trkpt>
      <trkpt lat="48.72258" lon="1.78003">
        <ele>174.80000305176</ele>
        <time>2011-05-17T08:40:36.000Z</time>
      </trkpt>
      <trkpt lat="48.7224" lon="1.78013">
        <ele>176.19999694824</ele>
        <time>2011-05-17T08:40:43.000Z</time>
      </trkpt>
      <trkpt lat="48.72219" lon="1.78027">
        <ele>177.39999389648</ele>
        <time>2011-05-17T08:40:50.000Z</time>
      </trkpt>
      <trkpt lat="48.72211" lon="1.78036">
        <ele>177.80000305176</ele>
        <time>2011-05-17T08:40:54.000Z</time>
      </trkpt>
      <trkpt lat="48.72206" lon="1.7806">
        <ele>177.80000305176</ele>
        <time>2011-05-17T08:41:01.000Z</time>
      </trkpt>
      <trkpt lat="48.72208" lon="1.7808">
        <ele>177.39999389648</ele>
        <time>2011-05-17T08:41:06.000Z</time>
      </trkpt>
      <trkpt lat="48.72207" lon="1.78104">
        <ele>177.39999389648</ele>
        <time>2011-05-17T08:41:12.000Z</time>
      </trkpt>
      <trkpt lat="48.72203" lon="1.7813">
        <ele>177.80000305176</ele>
        <time>2011-05-17T08:41:19.000Z</time>
      </trkpt>
      <trkpt lat="48.72197" lon="1.78149">
        <ele>178.19999694824</ele>
        <time>2011-05-17T08:41:24.000Z</time>
      </trkpt>
      <trkpt lat="48.72189" lon="1.78168">
        <ele>178.60000610352</ele>
        <time>2011-05-17T08:41:29.000Z</time>
      </trkpt>
      <trkpt lat="48.72184" lon="1.78183">
        <ele>179</ele>
        <time>2011-05-17T08:41:34.000Z</time>
      </trkpt>
      <trkpt lat="48.7218" lon="1.782">
        <ele>179.19999694824</ele>
        <time>2011-05-17T08:41:39.000Z</time>
      </trkpt>
      <trkpt lat="48.72175" lon="1.7822">
        <ele>179.60000610352</ele>
        <time>2011-05-17T08:41:44.000Z</time>
      </trkpt>
      <trkpt lat="48.72167" lon="1.78247">
        <ele>179.80000305176</ele>
        <time>2011-05-17T08:41:50.000Z</time>
      </trkpt>
      <trkpt lat="48.72158" lon="1.78267">
        <ele>179.60000610352</ele>
        <time>2011-05-17T08:41:55.000Z</time>
      </trkpt>
      <trkpt lat="48.72152" lon="1.78277">
        <ele>179.39999389648</ele>
        <time>2011-05-17T08:41:59.000Z</time>
      </trkpt>
      <trkpt lat="48.72147" lon="1.78296">
        <ele>179</ele>
        <time>2011-05-17T08:42:04.000Z</time>
      </trkpt>
      <trkpt lat="48.72143" lon="1.78315">
        <ele>178.60000610352</ele>
        <time>2011-05-17T08:42:09.000Z</time>
      </trkpt>
      <trkpt lat="48.72141" lon="1.78326">
        <ele>178.39999389648</ele>
        <time>2011-05-17T08:42:12.000Z</time>
      </trkpt>
      <trkpt lat="48.72139" lon="1.78348">
        <ele>176.19999694824</ele>
        <time>2011-05-17T08:42:18.000Z</time>
      </trkpt>
      <trkpt lat="48.72137" lon="1.78372">
        <ele>173.39999389648</ele>
        <time>2011-05-17T08:42:23.000Z</time>
      </trkpt>
      <trkpt lat="48.72138" lon="1.78376">
        <ele>172.80000305176</ele>
        <time>2011-05-17T08:42:24.000Z</time>
      </trkpt>
      <trkpt lat="48.72138" lon="1.78394">
        <ele>170.39999389648</ele>
        <time>2011-05-17T08:42:28.000Z</time>
      </trkpt>
      <trkpt lat="48.72145" lon="1.78422">
        <ele>167</ele>
        <time>2011-05-17T08:42:34.000Z</time>
      </trkpt>
      <trkpt lat="48.72145" lon="1.7843">
        <ele>166.60000610352</ele>
        <time>2011-05-17T08:42:36.000Z</time>
      </trkpt>
      <trkpt lat="48.7215" lon="1.78445">
        <ele>165.80000305176</ele>
        <time>2011-05-17T08:42:40.000Z</time>
      </trkpt>
      <trkpt lat="48.72155" lon="1.7846">
        <ele>164.80000305176</ele>
        <time>2011-05-17T08:42:44.000Z</time>
      </trkpt>
      <trkpt lat="48.72162" lon="1.78481">
        <ele>163.80000305176</ele>
        <time>2011-05-17T08:42:50.000Z</time>
      </trkpt>
      <trkpt lat="48.72176" lon="1.78494">
        <ele>163.19999694824</ele>
        <time>2011-05-17T08:42:56.000Z</time>
      </trkpt>
      <trkpt lat="48.72188" lon="1.78499">
        <ele>163</ele>
        <time>2011-05-17T08:43:00.000Z</time>
      </trkpt>
      <trkpt lat="48.72199" lon="1.785">
        <ele>163</ele>
        <time>2011-05-17T08:43:05.000Z</time>
      </trkpt>
      <trkpt lat="48.7221" lon="1.78499">
        <ele>163</ele>
        <time>2011-05-17T08:43:09.000Z</time>
      </trkpt>
      <trkpt lat="48.7224" lon="1.78495">
        <ele>163.19999694824</ele>
        <time>2011-05-17T08:43:19.000Z</time>
      </trkpt>
      <trkpt lat="48.72255" lon="1.78497">
        <ele>163.39999389648</ele>
        <time>2011-05-17T08:43:25.000Z</time>
      </trkpt>
      <trkpt lat="48.72268" lon="1.78504">
        <ele>164</ele>
        <time>2011-05-17T08:43:30.000Z</time>
      </trkpt>
      <trkpt lat="48.7228" lon="1.78521">
        <ele>165.80000305176</ele>
        <time>2011-05-17T08:43:36.000Z</time>
      </trkpt>
      <trkpt lat="48.72291" lon="1.7854">
        <ele>167.19999694824</ele>
        <time>2011-05-17T08:43:41.000Z</time>
      </trkpt>
      <trkpt lat="48.72303" lon="1.78558">
        <ele>168.60000610352</ele>
        <time>2011-05-17T08:43:46.000Z</time>
      </trkpt>
      <trkpt lat="48.72312" lon="1.78579">
        <ele>169.60000610352</ele>
        <time>2011-05-17T08:43:52.000Z</time>
      </trkpt>
      <trkpt lat="48.72319" lon="1.78595">
        <ele>170.39999389648</ele>
        <time>2011-05-17T08:43:57.000Z</time>
      </trkpt>
      <trkpt lat="48.72326" lon="1.78608">
        <ele>171</ele>
        <time>2011-05-17T08:44:01.000Z</time>
      </trkpt>
      <trkpt lat="48.72336" lon="1.78622">
        <ele>172</ele>
        <time>2011-05-17T08:44:06.000Z</time>
      </trkpt>
      <trkpt lat="48.7235" lon="1.78632">
        <ele>173.19999694824</ele>
        <time>2011-05-17T08:44:11.000Z</time>
      </trkpt>
      <trkpt lat="48.72362" lon="1.78646">
        <ele>174.19999694824</ele>
        <time>2011-05-17T08:44:17.000Z</time>
      </trkpt>
      <trkpt lat="48.72372" lon="1.78653">
        <ele>174.60000610352</ele>
        <time>2011-05-17T08:44:23.000Z</time>
      </trkpt>
      <trkpt lat="48.72385" lon="1.78661">
        <ele>175.19999694824</ele>
        <time>2011-05-17T08:44:32.000Z</time>
      </trkpt>
      <trkpt lat="48.72397" lon="1.7867">
        <ele>175.39999389648</ele>
        <time>2011-05-17T08:44:41.000Z</time>
      </trkpt>
      <trkpt lat="48.7241" lon="1.78677">
        <ele>175.80000305176</ele>
        <time>2011-05-17T08:44:50.000Z</time>
      </trkpt>
      <trkpt lat="48.72415" lon="1.7868">
        <ele>175.80000305176</ele>
        <time>2011-05-17T08:44:55.000Z</time>
      </trkpt>
      <trkpt lat="48.72427" lon="1.78684">
        <ele>176.19999694824</ele>
        <time>2011-05-17T08:45:02.000Z</time>
      </trkpt>
      <trkpt lat="48.72436" lon="1.78689">
        <ele>176.39999389648</ele>
        <time>2011-05-17T08:45:08.000Z</time>
      </trkpt>
      <trkpt lat="48.72451" lon="1.78693">
        <ele>176.60000610352</ele>
        <time>2011-05-17T08:45:18.000Z</time>
      </trkpt>
      <trkpt lat="48.72462" lon="1.78692">
        <ele>176.80000305176</ele>
        <time>2011-05-17T08:45:25.000Z</time>
      </trkpt>
      <trkpt lat="48.72465" lon="1.78692">
        <ele>176.80000305176</ele>
        <time>2011-05-17T08:45:27.000Z</time>
      </trkpt>
      <trkpt lat="48.72471" lon="1.78693">
        <ele>177</ele>
        <time>2011-05-17T08:45:31.000Z</time>
      </trkpt>
      <trkpt lat="48.72483" lon="1.78692">
        <ele>177.19999694824</ele>
        <time>2011-05-17T08:45:41.000Z</time>
      </trkpt>
      <trkpt lat="48.72493" lon="1.78694">
        <ele>177.39999389648</ele>
        <time>2011-05-17T08:45:49.000Z</time>
      </trkpt>
      <trkpt lat="48.72506" lon="1.78694">
        <ele>177.60000610352</ele>
        <time>2011-05-17T08:45:59.000Z</time>
      </trkpt>
      <trkpt lat="48.72522" lon="1.78694">
        <ele>178</ele>
        <time>2011-05-17T08:46:09.000Z</time>
      </trkpt>
      <trkpt lat="48.72538" lon="1.78694">
        <ele>178.19999694824</ele>
        <time>2011-05-17T08:46:21.000Z</time>
      </trkpt>
      <trkpt lat="48.72547" lon="1.78694">
        <ele>178.39999389648</ele>
        <time>2011-05-17T08:46:29.000Z</time>
      </trkpt>
      <trkpt lat="48.72558" lon="1.78693">
        <ele>178.60000610352</ele>
        <time>2011-05-17T08:46:37.000Z</time>
      </trkpt>
      <trkpt lat="48.72575" lon="1.78692">
        <ele>178.80000305176</ele>
        <time>2011-05-17T08:46:49.000Z</time>
      </trkpt>
      <trkpt lat="48.72587" lon="1.78694">
        <ele>179</ele>
        <time>2011-05-17T08:46:59.000Z</time>
      </trkpt>
      <trkpt lat="48.72597" lon="1.78697">
        <ele>179.39999389648</ele>
        <time>2011-05-17T08:47:07.000Z</time>
      </trkpt>
      <trkpt lat="48.72611" lon="1.78701">
        <ele>179.80000305176</ele>
        <time>2011-05-17T08:47:17.000Z</time>
      </trkpt>
      <trkpt lat="48.72625" lon="1.78708">
        <ele>180.19999694824</ele>
        <time>2011-05-17T08:47:28.000Z</time>
      </trkpt>
      <trkpt lat="48.72638" lon="1.78718">
        <ele>180.39999389648</ele>
        <time>2011-05-17T08:47:39.000Z</time>
      </trkpt>
      <trkpt lat="48.72651" lon="1.78724">
        <ele>180.80000305176</ele>
        <time>2011-05-17T08:47:49.000Z</time>
      </trkpt>
      <trkpt lat="48.72659" lon="1.7873">
        <ele>181</ele>
        <time>2011-05-17T08:47:57.000Z</time>
      </trkpt>
      <trkpt lat="48.72669" lon="1.78737">
        <ele>181</ele>
        <time>2011-05-17T08:48:06.000Z</time>
      </trkpt>
      <trkpt lat="48.72688" lon="1.78747">
        <ele>181.19999694824</ele>
        <time>2011-05-17T08:48:20.000Z</time>
      </trkpt>
      <trkpt lat="48.727" lon="1.78754">
        <ele>181.19999694824</ele>
        <time>2011-05-17T08:48:30.000Z</time>
      </trkpt>
      <trkpt lat="48.72713" lon="1.78761">
        <ele>181.39999389648</ele>
        <time>2011-05-17T08:48:41.000Z</time>
      </trkpt>
      <trkpt lat="48.72723" lon="1.78767">
        <ele>181.60000610352</ele>
        <time>2011-05-17T08:48:49.000Z</time>
      </trkpt>
      <trkpt lat="48.72735" lon="1.78777">
        <ele>181.60000610352</ele>
        <time>2011-05-17T08:49:00.000Z</time>
      </trkpt>
      <trkpt lat="48.72745" lon="1.78783">
        <ele>181.80000305176</ele>
        <time>2011-05-17T08:49:08.000Z</time>
      </trkpt>
      <trkpt lat="48.7276" lon="1.78791">
        <ele>182</ele>
        <time>2011-05-17T08:49:20.000Z</time>
      </trkpt>
      <trkpt lat="48.72771" lon="1.78795">
        <ele>182.19999694824</ele>
        <time>2011-05-17T08:49:28.000Z</time>
      </trkpt>
      <trkpt lat="48.72784" lon="1.78798">
        <ele>182.19999694824</ele>
        <time>2011-05-17T08:49:38.000Z</time>
      </trkpt>
      <trkpt lat="48.72797" lon="1.78798">
        <ele>182.39999389648</ele>
        <time>2011-05-17T08:49:47.000Z</time>
      </trkpt>
      <trkpt lat="48.72812" lon="1.78799">
        <ele>182.60000610352</ele>
        <time>2011-05-17T08:49:58.000Z</time>
      </trkpt>
      <trkpt lat="48.72824" lon="1.788">
        <ele>182.60000610352</ele>
        <time>2011-05-17T08:50:07.000Z</time>
      </trkpt>
      <trkpt lat="48.72835" lon="1.788">
        <ele>182.60000610352</ele>
        <time>2011-05-17T08:50:15.000Z</time>
      </trkpt>
      <trkpt lat="48.72849" lon="1.78798">
        <ele>182.80000305176</ele>
        <time>2011-05-17T08:50:26.000Z</time>
      </trkpt>
      <trkpt lat="48.72858" lon="1.78796">
        <ele>182.80000305176</ele>
        <time>2011-05-17T08:50:33.000Z</time>
      </trkpt>
      <trkpt lat="48.72866" lon="1.78793">
        <ele>182.80000305176</ele>
        <time>2011-05-17T08:50:41.000Z</time>
      </trkpt>
      <trkpt lat="48.72871" lon="1.78791">
        <ele>183</ele>
        <time>2011-05-17T08:50:46.000Z</time>
      </trkpt>
      <trkpt lat="48.7288" lon="1.78787">
        <ele>183</ele>
        <time>2011-05-17T08:50:52.000Z</time>
      </trkpt>
      <trkpt lat="48.72885" lon="1.78785">
        <ele>183</ele>
        <time>2011-05-17T08:50:57.000Z</time>
      </trkpt>
      <trkpt lat="48.72894" lon="1.78784">
        <ele>183</ele>
        <time>2011-05-17T08:51:04.000Z</time>
      </trkpt>
      <trkpt lat="48.72897" lon="1.78784">
        <ele>183</ele>
        <time>2011-05-17T08:51:06.000Z</time>
      </trkpt>
      <trkpt lat="48.729" lon="1.78782">
        <ele>183.19999694824</ele>
        <time>2011-05-17T08:51:10.000Z</time>
      </trkpt>
      <trkpt lat="48.72912" lon="1.7878">
        <ele>183.19999694824</ele>
        <time>2011-05-17T08:51:18.000Z</time>
      </trkpt>
      <trkpt lat="48.72923" lon="1.78781">
        <ele>183.19999694824</ele>
        <time>2011-05-17T08:51:27.000Z</time>
      </trkpt>
      <trkpt lat="48.72932" lon="1.78781">
        <ele>183</ele>
        <time>2011-05-17T08:51:36.000Z</time>
      </trkpt>
      <trkpt lat="48.72937" lon="1.78781">
        <ele>183</ele>
        <time>2011-05-17T08:51:40.000Z</time>
      </trkpt>
      <trkpt lat="48.72941" lon="1.78781">
        <ele>183</ele>
        <time>2011-05-17T08:51:44.000Z</time>
      </trkpt>
      <trkpt lat="48.7295" lon="1.78781">
        <ele>182.80000305176</ele>
        <time>2011-05-17T08:51:51.000Z</time>
      </trkpt>
      <trkpt lat="48.72959" lon="1.78784">
        <ele>182.80000305176</ele>
        <time>2011-05-17T08:51:57.000Z</time>
      </trkpt>
      <trkpt lat="48.7297" lon="1.78786">
        <ele>182.60000610352</ele>
        <time>2011-05-17T08:52:05.000Z</time>
      </trkpt>
      <trkpt lat="48.72984" lon="1.78788">
        <ele>182.60000610352</ele>
        <time>2011-05-17T08:52:14.000Z</time>
      </trkpt>
      <trkpt lat="48.72999" lon="1.78789">
        <ele>182.39999389648</ele>
        <time>2011-05-17T08:52:24.000Z</time>
      </trkpt>
      <trkpt lat="48.73013" lon="1.78794">
        <ele>182.60000610352</ele>
        <time>2011-05-17T08:52:35.000Z</time>
      </trkpt>
      <trkpt lat="48.73021" lon="1.78795">
        <ele>182.60000610352</ele>
        <time>2011-05-17T08:52:42.000Z</time>
      </trkpt>
      <trkpt lat="48.73032" lon="1.78796">
        <ele>182.60000610352</ele>
        <time>2011-05-17T08:52:50.000Z</time>
      </trkpt>
      <trkpt lat="48.73041" lon="1.78796">
        <ele>182.80000305176</ele>
        <time>2011-05-17T08:52:56.000Z</time>
      </trkpt>
      <trkpt lat="48.73049" lon="1.78798">
        <ele>182.80000305176</ele>
        <time>2011-05-17T08:53:03.000Z</time>
      </trkpt>
      <trkpt lat="48.73058" lon="1.78801">
        <ele>182.80000305176</ele>
        <time>2011-05-17T08:53:09.000Z</time>
      </trkpt>
      <trkpt lat="48.73062" lon="1.78802">
        <ele>182.80000305176</ele>
        <time>2011-05-17T08:53:12.000Z</time>
      </trkpt>
      <trkpt lat="48.7307" lon="1.78804">
        <ele>182.80000305176</ele>
        <time>2011-05-17T08:53:19.000Z</time>
      </trkpt>
      <trkpt lat="48.73075" lon="1.78806">
        <ele>182.80000305176</ele>
        <time>2011-05-17T08:53:24.000Z</time>
      </trkpt>
      <trkpt lat="48.73085" lon="1.78807">
        <ele>182.80000305176</ele>
        <time>2011-05-17T08:53:32.000Z</time>
      </trkpt>
      <trkpt lat="48.73094" lon="1.78808">
        <ele>182.60000610352</ele>
        <time>2011-05-17T08:53:39.000Z</time>
      </trkpt>
      <trkpt lat="48.73104" lon="1.78811">
        <ele>182.39999389648</ele>
        <time>2011-05-17T08:53:47.000Z</time>
      </trkpt>
      <trkpt lat="48.73114" lon="1.78812">
        <ele>182.19999694824</ele>
        <time>2011-05-17T08:53:55.000Z</time>
      </trkpt>
      <trkpt lat="48.73126" lon="1.78814">
        <ele>181.80000305176</ele>
        <time>2011-05-17T08:54:04.000Z</time>
      </trkpt>
      <trkpt lat="48.7314" lon="1.78817">
        <ele>181.60000610352</ele>
        <time>2011-05-17T08:54:13.000Z</time>
      </trkpt>
      <trkpt lat="48.73152" lon="1.78818">
        <ele>181.39999389648</ele>
        <time>2011-05-17T08:54:23.000Z</time>
      </trkpt>
      <trkpt lat="48.73164" lon="1.78819">
        <ele>181.19999694824</ele>
        <time>2011-05-17T08:54:31.000Z</time>
      </trkpt>
      <trkpt lat="48.7317" lon="1.78821">
        <ele>180.80000305176</ele>
        <time>2011-05-17T08:54:35.000Z</time>
      </trkpt>
      <trkpt lat="48.7318" lon="1.78822">
        <ele>180.39999389648</ele>
        <time>2011-05-17T08:54:43.000Z</time>
      </trkpt>
      <trkpt lat="48.73191" lon="1.78823">
        <ele>179.80000305176</ele>
        <time>2011-05-17T08:54:52.000Z</time>
      </trkpt>
      <trkpt lat="48.732" lon="1.78823">
        <ele>179.39999389648</ele>
        <time>2011-05-17T08:55:00.000Z</time>
      </trkpt>
      <trkpt lat="48.73208" lon="1.78831">
        <ele>179</ele>
        <time>2011-05-17T08:55:08.000Z</time>
      </trkpt>
      <trkpt lat="48.73216" lon="1.78845">
        <ele>178.60000610352</ele>
        <time>2011-05-17T08:55:16.000Z</time>
      </trkpt>
      <trkpt lat="48.73223" lon="1.7886">
        <ele>178.39999389648</ele>
        <time>2011-05-17T08:55:25.000Z</time>
      </trkpt>
      <trkpt lat="48.73229" lon="1.78868">
        <ele>178.39999389648</ele>
        <time>2011-05-17T08:55:31.000Z</time>
      </trkpt>
      <trkpt lat="48.73236" lon="1.78882">
        <ele>178.19999694824</ele>
        <time>2011-05-17T08:55:39.000Z</time>
      </trkpt>
      <trkpt lat="48.73244" lon="1.78895">
        <ele>178</ele>
        <time>2011-05-17T08:55:47.000Z</time>
      </trkpt>
      <trkpt lat="48.73247" lon="1.789">
        <ele>177.80000305176</ele>
        <time>2011-05-17T08:55:50.000Z</time>
      </trkpt>
      <trkpt lat="48.73253" lon="1.78916">
        <ele>177.60000610352</ele>
        <time>2011-05-17T08:55:59.000Z</time>
      </trkpt>
      <trkpt lat="48.7326" lon="1.78929">
        <ele>176.60000610352</ele>
        <time>2011-05-17T08:56:07.000Z</time>
      </trkpt>
      <trkpt lat="48.73269" lon="1.78941">
        <ele>175.80000305176</ele>
        <time>2011-05-17T08:56:15.000Z</time>
      </trkpt>
      <trkpt lat="48.7327" lon="1.78944">
        <ele>175.60000610352</ele>
        <time>2011-05-17T08:56:17.000Z</time>
      </trkpt>
      <trkpt lat="48.73279" lon="1.78961">
        <ele>174.60000610352</ele>
        <time>2011-05-17T08:56:28.000Z</time>
      </trkpt>
      <trkpt lat="48.73287" lon="1.78973">
        <ele>174</ele>
        <time>2011-05-17T08:56:36.000Z</time>
      </trkpt>
      <trkpt lat="48.73293" lon="1.78987">
        <ele>173.60000610352</ele>
        <time>2011-05-17T08:56:44.000Z</time>
      </trkpt>
      <trkpt lat="48.73301" lon="1.79004">
        <ele>173.39999389648</ele>
        <time>2011-05-17T08:56:54.000Z</time>
      </trkpt>
      <trkpt lat="48.73303" lon="1.79015">
        <ele>173.60000610352</ele>
        <time>2011-05-17T08:57:00.000Z</time>
      </trkpt>
      <trkpt lat="48.73308" lon="1.7903">
        <ele>173.80000305176</ele>
        <time>2011-05-17T08:57:08.000Z</time>
      </trkpt>
      <trkpt lat="48.73313" lon="1.79043">
        <ele>174.19999694824</ele>
        <time>2011-05-17T08:57:16.000Z</time>
      </trkpt>
      <trkpt lat="48.73317" lon="1.79057">
        <ele>174.60000610352</ele>
        <time>2011-05-17T08:57:24.000Z</time>
      </trkpt>
      <trkpt lat="48.73322" lon="1.79066">
        <ele>175</ele>
        <time>2011-05-17T08:57:31.000Z</time>
      </trkpt>
      <trkpt lat="48.73329" lon="1.79078">
        <ele>175.60000610352</ele>
        <time>2011-05-17T08:57:38.000Z</time>
      </trkpt>
      <trkpt lat="48.73334" lon="1.79089">
        <ele>176.19999694824</ele>
        <time>2011-05-17T08:57:44.000Z</time>
      </trkpt>
      <trkpt lat="48.73339" lon="1.79105">
        <ele>177.39999389648</ele>
        <time>2011-05-17T08:57:53.000Z</time>
      </trkpt>
      <trkpt lat="48.73342" lon="1.79121">
        <ele>178.39999389648</ele>
        <time>2011-05-17T08:58:01.000Z</time>
      </trkpt>
      <trkpt lat="48.73346" lon="1.79133">
        <ele>179</ele>
        <time>2011-05-17T08:58:08.000Z</time>
      </trkpt>
      <trkpt lat="48.7335" lon="1.79149">
        <ele>180</ele>
        <time>2011-05-17T08:58:16.000Z</time>
      </trkpt>
      <trkpt lat="48.73355" lon="1.79163">
        <ele>180.80000305176</ele>
        <time>2011-05-17T08:58:24.000Z</time>
      </trkpt>
      <trkpt lat="48.73355" lon="1.79165">
        <ele>180.80000305176</ele>
        <time>2011-05-17T08:58:25.000Z</time>
      </trkpt>
      <trkpt lat="48.7336" lon="1.79177">
        <ele>181.39999389648</ele>
        <time>2011-05-17T08:58:32.000Z</time>
      </trkpt>
      <trkpt lat="48.73364" lon="1.79191">
        <ele>182.19999694824</ele>
        <time>2011-05-17T08:58:40.000Z</time>
      </trkpt>
      <trkpt lat="48.73368" lon="1.79202">
        <ele>182.80000305176</ele>
        <time>2011-05-17T08:58:47.000Z</time>
      </trkpt>
      <trkpt lat="48.73369" lon="1.79203">
        <ele>182.80000305176</ele>
        <time>2011-05-17T08:58:50.000Z</time>
      </trkpt>
      <trkpt lat="48.73374" lon="1.79204">
        <ele>183</ele>
        <time>2011-05-17T08:59:10.000Z</time>
      </trkpt>
      <trkpt lat="48.73377" lon="1.79213">
        <ele>183.39999389648</ele>
        <time>2011-05-17T08:59:14.000Z</time>
      </trkpt>
      <trkpt lat="48.7338" lon="1.79232">
        <ele>184.39999389648</ele>
        <time>2011-05-17T08:59:24.000Z</time>
      </trkpt>
      <trkpt lat="48.73385" lon="1.79244">
        <ele>185</ele>
        <time>2011-05-17T08:59:31.000Z</time>
      </trkpt>
      <trkpt lat="48.73393" lon="1.79257">
        <ele>185.39999389648</ele>
        <time>2011-05-17T08:59:39.000Z</time>
      </trkpt>
      <trkpt lat="48.73398" lon="1.79268">
        <ele>185.80000305176</ele>
        <time>2011-05-17T08:59:46.000Z</time>
      </trkpt>
      <trkpt lat="48.73405" lon="1.79282">
        <ele>186.39999389648</ele>
        <time>2011-05-17T08:59:54.000Z</time>
      </trkpt>
      <trkpt lat="48.73411" lon="1.79293">
        <ele>187</ele>
        <time>2011-05-17T09:00:01.000Z</time>
      </trkpt>
      <trkpt lat="48.73416" lon="1.79299">
        <ele>187.19999694824</ele>
        <time>2011-05-17T09:00:05.000Z</time>
      </trkpt>
      <trkpt lat="48.73424" lon="1.7931">
        <ele>187.80000305176</ele>
        <time>2011-05-17T09:00:14.000Z</time>
      </trkpt>
      <trkpt lat="48.73431" lon="1.79321">
        <ele>188.39999389648</ele>
        <time>2011-05-17T09:00:22.000Z</time>
      </trkpt>
      <trkpt lat="48.73437" lon="1.7933">
        <ele>188.80000305176</ele>
        <time>2011-05-17T09:00:29.000Z</time>
      </trkpt>
      <trkpt lat="48.73446" lon="1.79339">
        <ele>189.19999694824</ele>
        <time>2011-05-17T09:00:37.000Z</time>
      </trkpt>
      <trkpt lat="48.73456" lon="1.79345">
        <ele>189.39999389648</ele>
        <time>2011-05-17T09:00:45.000Z</time>
      </trkpt>
      <trkpt lat="48.73466" lon="1.79351">
        <ele>189.60000610352</ele>
        <time>2011-05-17T09:00:53.000Z</time>
      </trkpt>
      <trkpt lat="48.7347" lon="1.79351">
        <ele>189.60000610352</ele>
        <time>2011-05-17T09:00:56.000Z</time>
      </trkpt>
      <trkpt lat="48.73476" lon="1.79361">
        <ele>190.19999694824</ele>
        <time>2011-05-17T09:01:03.000Z</time>
      </trkpt>
      <trkpt lat="48.73491" lon="1.79368">
        <ele>190.60000610352</ele>
        <time>2011-05-17T09:01:14.000Z</time>
      </trkpt>
      <trkpt lat="48.73502" lon="1.79378">
        <ele>191</ele>
        <time>2011-05-17T09:01:23.000Z</time>
      </trkpt>
      <trkpt lat="48.73502" lon="1.7938">
        <ele>191.19999694824</ele>
        <time>2011-05-17T09:01:24.000Z</time>
      </trkpt>
      <trkpt lat="48.73511" lon="1.79385">
        <ele>191.39999389648</ele>
        <time>2011-05-17T09:01:32.000Z</time>
      </trkpt>
      <trkpt lat="48.73521" lon="1.79395">
        <ele>191.80000305176</ele>
        <time>2011-05-17T09:01:41.000Z</time>
      </trkpt>
      <trkpt lat="48.73527" lon="1.79403">
        <ele>192</ele>
        <time>2011-05-17T09:01:48.000Z</time>
      </trkpt>
      <trkpt lat="48.73529" lon="1.79406">
        <ele>192.19999694824</ele>
        <time>2011-05-17T09:01:50.000Z</time>
      </trkpt>
      <trkpt lat="48.73538" lon="1.79412">
        <ele>192.19999694824</ele>
        <time>2011-05-17T09:01:58.000Z</time>
      </trkpt>
      <trkpt lat="48.73541" lon="1.79419">
        <ele>192.39999389648</ele>
        <time>2011-05-17T09:02:03.000Z</time>
      </trkpt>
      <trkpt lat="48.73546" lon="1.79428">
        <ele>192.19999694824</ele>
        <time>2011-05-17T09:02:09.000Z</time>
      </trkpt>
      <trkpt lat="48.73554" lon="1.7944">
        <ele>192</ele>
        <time>2011-05-17T09:02:17.000Z</time>
      </trkpt>
      <trkpt lat="48.73562" lon="1.79453">
        <ele>191.80000305176</ele>
        <time>2011-05-17T09:02:21.000Z</time>
      </trkpt>
      <trkpt lat="48.73571" lon="1.7947">
        <ele>191.60000610352</ele>
        <time>2011-05-17T09:02:26.000Z</time>
      </trkpt>
      <trkpt lat="48.73582" lon="1.79482">
        <ele>191.19999694824</ele>
        <time>2011-05-17T09:02:31.000Z</time>
      </trkpt>
      <trkpt lat="48.73595" lon="1.79497">
        <ele>190.80000305176</ele>
        <time>2011-05-17T09:02:36.000Z</time>
      </trkpt>
      <trkpt lat="48.73609" lon="1.79514">
        <ele>190.60000610352</ele>
        <time>2011-05-17T09:02:42.000Z</time>
      </trkpt>
      <trkpt lat="48.73621" lon="1.79528">
        <ele>190.39999389648</ele>
        <time>2011-05-17T09:02:47.000Z</time>
      </trkpt>
      <trkpt lat="48.73636" lon="1.79549">
        <ele>190.19999694824</ele>
        <time>2011-05-17T09:02:54.000Z</time>
      </trkpt>
      <trkpt lat="48.73641" lon="1.79564">
        <ele>190.19999694824</ele>
        <time>2011-05-17T09:02:59.000Z</time>
      </trkpt>
      <trkpt lat="48.73651" lon="1.79579">
        <ele>190</ele>
        <time>2011-05-17T09:03:04.000Z</time>
      </trkpt>
      <trkpt lat="48.73669" lon="1.79596">
        <ele>190</ele>
        <time>2011-05-17T09:03:10.000Z</time>
      </trkpt>
      <trkpt lat="48.73682" lon="1.79611">
        <ele>190.39999389648</ele>
        <time>2011-05-17T09:03:15.000Z</time>
      </trkpt>
      <trkpt lat="48.73687" lon="1.79617">
        <ele>190.60000610352</ele>
        <time>2011-05-17T09:03:17.000Z</time>
      </trkpt>
      <trkpt lat="48.73697" lon="1.79627">
        <ele>190.80000305176</ele>
        <time>2011-05-17T09:03:21.000Z</time>
      </trkpt>
      <trkpt lat="48.7371" lon="1.79645">
        <ele>191</ele>
        <time>2011-05-17T09:03:27.000Z</time>
      </trkpt>
      <trkpt lat="48.73724" lon="1.79666">
        <ele>191.19999694824</ele>
        <time>2011-05-17T09:03:34.000Z</time>
      </trkpt>
      <trkpt lat="48.7374" lon="1.79686">
        <ele>191.39999389648</ele>
        <time>2011-05-17T09:03:41.000Z</time>
      </trkpt>
      <trkpt lat="48.73754" lon="1.79703">
        <ele>191.60000610352</ele>
        <time>2011-05-17T09:03:47.000Z</time>
      </trkpt>
      <trkpt lat="48.73767" lon="1.7972">
        <ele>192</ele>
        <time>2011-05-17T09:03:53.000Z</time>
      </trkpt>
      <trkpt lat="48.73772" lon="1.79737">
        <ele>192</ele>
        <time>2011-05-17T09:03:58.000Z</time>
      </trkpt>
      <trkpt lat="48.7378" lon="1.79749">
        <ele>192</ele>
        <time>2011-05-17T09:04:02.000Z</time>
      </trkpt>
      <trkpt lat="48.73793" lon="1.79761">
        <ele>192</ele>
        <time>2011-05-17T09:04:07.000Z</time>
      </trkpt>
      <trkpt lat="48.73808" lon="1.79779">
        <ele>192</ele>
        <time>2011-05-17T09:04:13.000Z</time>
      </trkpt>
      <trkpt lat="48.73817" lon="1.79792">
        <ele>192</ele>
        <time>2011-05-17T09:04:17.000Z</time>
      </trkpt>
      <trkpt lat="48.73827" lon="1.79804">
        <ele>191.80000305176</ele>
        <time>2011-05-17T09:04:21.000Z</time>
      </trkpt>
      <trkpt lat="48.73836" lon="1.79816">
        <ele>191.60000610352</ele>
        <time>2011-05-17T09:04:25.000Z</time>
      </trkpt>
      <trkpt lat="48.7385" lon="1.79838">
        <ele>191.19999694824</ele>
        <time>2011-05-17T09:04:31.000Z</time>
      </trkpt>
      <trkpt lat="48.7386" lon="1.79851">
        <ele>191.39999389648</ele>
        <time>2011-05-17T09:04:35.000Z</time>
      </trkpt>
      <trkpt lat="48.73862" lon="1.79855">
        <ele>191.39999389648</ele>
        <time>2011-05-17T09:04:36.000Z</time>
      </trkpt>
      <trkpt lat="48.73878" lon="1.79874">
        <ele>191.39999389648</ele>
        <time>2011-05-17T09:04:42.000Z</time>
      </trkpt>
      <trkpt lat="48.7389" lon="1.79887">
        <ele>191.60000610352</ele>
        <time>2011-05-17T09:04:46.000Z</time>
      </trkpt>
      <trkpt lat="48.73903" lon="1.79901">
        <ele>191.80000305176</ele>
        <time>2011-05-17T09:04:51.000Z</time>
      </trkpt>
      <trkpt lat="48.73909" lon="1.79911">
        <ele>191.80000305176</ele>
        <time>2011-05-17T09:04:54.000Z</time>
      </trkpt>
      <trkpt lat="48.73924" lon="1.79929">
        <ele>192</ele>
        <time>2011-05-17T09:05:00.000Z</time>
      </trkpt>
      <trkpt lat="48.73936" lon="1.79946">
        <ele>192.19999694824</ele>
        <time>2011-05-17T09:05:07.000Z</time>
      </trkpt>
      <trkpt lat="48.73943" lon="1.79951">
        <ele>192.19999694824</ele>
        <time>2011-05-17T09:05:12.000Z</time>
      </trkpt>
      <trkpt lat="48.73949" lon="1.7996">
        <ele>192.39999389648</ele>
        <time>2011-05-17T09:05:18.000Z</time>
      </trkpt>
      <trkpt lat="48.73957" lon="1.7997">
        <ele>192.39999389648</ele>
        <time>2011-05-17T09:05:25.000Z</time>
      </trkpt>
      <trkpt lat="48.7396" lon="1.79973">
        <ele>192.39999389648</ele>
        <time>2011-05-17T09:05:27.000Z</time>
      </trkpt>
      <trkpt lat="48.73963" lon="1.79979">
        <ele>192.39999389648</ele>
        <time>2011-05-17T09:05:31.000Z</time>
      </trkpt>
      <trkpt lat="48.73966" lon="1.79983">
        <ele>192.39999389648</ele>
        <time>2011-05-17T09:05:34.000Z</time>
      </trkpt>
      <trkpt lat="48.73978" lon="1.79998">
        <ele>192.39999389648</ele>
        <time>2011-05-17T09:05:45.000Z</time>
      </trkpt>
      <trkpt lat="48.73987" lon="1.80009">
        <ele>192.19999694824</ele>
        <time>2011-05-17T09:05:53.000Z</time>
      </trkpt>
      <trkpt lat="48.73988" lon="1.80012">
        <ele>192.19999694824</ele>
        <time>2011-05-17T09:05:55.000Z</time>
      </trkpt>
      <trkpt lat="48.73996" lon="1.8002">
        <ele>192</ele>
        <time>2011-05-17T09:06:02.000Z</time>
      </trkpt>
      <trkpt lat="48.74005" lon="1.80031">
        <ele>192</ele>
        <time>2011-05-17T09:06:10.000Z</time>
      </trkpt>
      <trkpt lat="48.74006" lon="1.80032">
        <ele>192</ele>
        <time>2011-05-17T09:06:11.000Z</time>
      </trkpt>
      <trkpt lat="48.74009" lon="1.80037">
        <ele>191.80000305176</ele>
        <time>2011-05-17T09:06:15.000Z</time>
      </trkpt>
      <trkpt lat="48.74013" lon="1.80036">
        <ele>192</ele>
        <time>2011-05-17T09:06:21.000Z</time>
      </trkpt>
      <trkpt lat="48.74017" lon="1.80038">
        <ele>192</ele>
        <time>2011-05-17T09:06:24.000Z</time>
      </trkpt>
      <trkpt lat="48.74022" lon="1.80052">
        <ele>191.80000305176</ele>
        <time>2011-05-17T09:06:32.000Z</time>
      </trkpt>
      <trkpt lat="48.74025" lon="1.80058">
        <ele>191.60000610352</ele>
        <time>2011-05-17T09:06:35.000Z</time>
      </trkpt>
      <trkpt lat="48.74029" lon="1.80075">
        <ele>191.19999694824</ele>
        <time>2011-05-17T09:06:44.000Z</time>
      </trkpt>
      <trkpt lat="48.74033" lon="1.80079">
        <ele>191.19999694824</ele>
        <time>2011-05-17T09:06:49.000Z</time>
      </trkpt>
      <trkpt lat="48.74041" lon="1.8009">
        <ele>191.19999694824</ele>
        <time>2011-05-17T09:06:56.000Z</time>
      </trkpt>
      <trkpt lat="48.74043" lon="1.80094">
        <ele>191.39999389648</ele>
        <time>2011-05-17T09:07:00.000Z</time>
      </trkpt>
      <trkpt lat="48.74044" lon="1.80093">
        <ele>191.39999389648</ele>
        <time>2011-05-17T09:07:03.000Z</time>
      </trkpt>
      <trkpt lat="48.74042" lon="1.80085">
        <ele>191.39999389648</ele>
        <time>2011-05-17T09:07:14.000Z</time>
      </trkpt>
      <trkpt lat="48.7404" lon="1.80071">
        <ele>191.60000610352</ele>
        <time>2011-05-17T09:07:21.000Z</time>
      </trkpt>
      <trkpt lat="48.74043" lon="1.80065">
        <ele>192</ele>
        <time>2011-05-17T09:07:27.000Z</time>
      </trkpt>
      <trkpt lat="48.74048" lon="1.80063">
        <ele>192.19999694824</ele>
        <time>2011-05-17T09:07:31.000Z</time>
      </trkpt>
      <trkpt lat="48.74057" lon="1.80065">
        <ele>192.39999389648</ele>
        <time>2011-05-17T09:07:40.000Z</time>
      </trkpt>
      <trkpt lat="48.7406" lon="1.80066">
        <ele>192.60000610352</ele>
        <time>2011-05-17T09:07:42.000Z</time>
      </trkpt>
      <trkpt lat="48.74064" lon="1.80072">
        <ele>192.39999389648</ele>
        <time>2011-05-17T09:07:47.000Z</time>
      </trkpt>
      <trkpt lat="48.74071" lon="1.80083">
        <ele>192.39999389648</ele>
        <time>2011-05-17T09:07:55.000Z</time>
      </trkpt>
      <trkpt lat="48.74073" lon="1.80087">
        <ele>192.39999389648</ele>
        <time>2011-05-17T09:07:58.000Z</time>
      </trkpt>
      <trkpt lat="48.7408" lon="1.80095">
        <ele>192.60000610352</ele>
        <time>2011-05-17T09:08:06.000Z</time>
      </trkpt>
      <trkpt lat="48.74088" lon="1.80102">
        <ele>192.60000610352</ele>
        <time>2011-05-17T09:08:14.000Z</time>
      </trkpt>
      <trkpt lat="48.74094" lon="1.80109">
        <ele>192.60000610352</ele>
        <time>2011-05-17T09:08:21.000Z</time>
      </trkpt>
      <trkpt lat="48.74101" lon="1.80119">
        <ele>192.60000610352</ele>
        <time>2011-05-17T09:08:28.000Z</time>
      </trkpt>
      <trkpt lat="48.74106" lon="1.80124">
        <ele>192.60000610352</ele>
        <time>2011-05-17T09:08:32.000Z</time>
      </trkpt>
      <trkpt lat="48.74114" lon="1.80134">
        <ele>192.60000610352</ele>
        <time>2011-05-17T09:08:40.000Z</time>
      </trkpt>
      <trkpt lat="48.7412" lon="1.80144">
        <ele>192.60000610352</ele>
        <time>2011-05-17T09:08:47.000Z</time>
      </trkpt>
      <trkpt lat="48.74124" lon="1.80151">
        <ele>192.60000610352</ele>
        <time>2011-05-17T09:08:52.000Z</time>
      </trkpt>
      <trkpt lat="48.74131" lon="1.8016">
        <ele>192.80000305176</ele>
        <time>2011-05-17T09:08:59.000Z</time>
      </trkpt>
      <trkpt lat="48.74136" lon="1.80165">
        <ele>192.80000305176</ele>
        <time>2011-05-17T09:09:04.000Z</time>
      </trkpt>
      <trkpt lat="48.74146" lon="1.80174">
        <ele>193.19999694824</ele>
        <time>2011-05-17T09:09:13.000Z</time>
      </trkpt>
      <trkpt lat="48.74153" lon="1.80183">
        <ele>193.39999389648</ele>
        <time>2011-05-17T09:09:19.000Z</time>
      </trkpt>
      <trkpt lat="48.7416" lon="1.80191">
        <ele>193.60000610352</ele>
        <time>2011-05-17T09:09:26.000Z</time>
      </trkpt>
      <trkpt lat="48.74164" lon="1.80196">
        <ele>193.80000305176</ele>
        <time>2011-05-17T09:09:30.000Z</time>
      </trkpt>
      <trkpt lat="48.7417" lon="1.80202">
        <ele>194</ele>
        <time>2011-05-17T09:09:35.000Z</time>
      </trkpt>
      <trkpt lat="48.74175" lon="1.80208">
        <ele>194</ele>
        <time>2011-05-17T09:09:40.000Z</time>
      </trkpt>
      <trkpt lat="48.74181" lon="1.80212">
        <ele>194</ele>
        <time>2011-05-17T09:09:45.000Z</time>
      </trkpt>
      <trkpt lat="48.7419" lon="1.80218">
        <ele>194</ele>
        <time>2011-05-17T09:09:52.000Z</time>
      </trkpt>
      <trkpt lat="48.74196" lon="1.80221">
        <ele>194</ele>
        <time>2011-05-17T09:09:58.000Z</time>
      </trkpt>
      <trkpt lat="48.74204" lon="1.80226">
        <ele>194</ele>
        <time>2011-05-17T09:10:04.000Z</time>
      </trkpt>
      <trkpt lat="48.74213" lon="1.80233">
        <ele>194</ele>
        <time>2011-05-17T09:10:11.000Z</time>
      </trkpt>
      <trkpt lat="48.7422" lon="1.80241">
        <ele>194</ele>
        <time>2011-05-17T09:10:18.000Z</time>
      </trkpt>
      <trkpt lat="48.74224" lon="1.80246">
        <ele>194</ele>
        <time>2011-05-17T09:10:22.000Z</time>
      </trkpt>
      <trkpt lat="48.74227" lon="1.8025">
        <ele>194</ele>
        <time>2011-05-17T09:10:25.000Z</time>
      </trkpt>
      <trkpt lat="48.74229" lon="1.80252">
        <ele>193.80000305176</ele>
        <time>2011-05-17T09:10:27.000Z</time>
      </trkpt>
      <trkpt lat="48.74237" lon="1.80262">
        <ele>193.60000610352</ele>
        <time>2011-05-17T09:10:36.000Z</time>
      </trkpt>
      <trkpt lat="48.74247" lon="1.80271">
        <ele>193.39999389648</ele>
        <time>2011-05-17T09:10:45.000Z</time>
      </trkpt>
      <trkpt lat="48.74253" lon="1.80278">
        <ele>193.19999694824</ele>
        <time>2011-05-17T09:10:51.000Z</time>
      </trkpt>
      <trkpt lat="48.7426" lon="1.80285">
        <ele>193</ele>
        <time>2011-05-17T09:10:58.000Z</time>
      </trkpt>
      <trkpt lat="48.74265" lon="1.8029">
        <ele>192.80000305176</ele>
        <time>2011-05-17T09:11:03.000Z</time>
      </trkpt>
      <trkpt lat="48.74278" lon="1.80302">
        <ele>192.60000610352</ele>
        <time>2011-05-17T09:11:13.000Z</time>
      </trkpt>
      <trkpt lat="48.74286" lon="1.80309">
        <ele>192.60000610352</ele>
        <time>2011-05-17T09:11:20.000Z</time>
      </trkpt>
      <trkpt lat="48.74295" lon="1.80318">
        <ele>192.60000610352</ele>
        <time>2011-05-17T09:11:27.000Z</time>
      </trkpt>
      <trkpt lat="48.74297" lon="1.80321">
        <ele>192.60000610352</ele>
        <time>2011-05-17T09:11:29.000Z</time>
      </trkpt>
      <trkpt lat="48.74306" lon="1.80332">
        <ele>192.60000610352</ele>
        <time>2011-05-17T09:11:38.000Z</time>
      </trkpt>
      <trkpt lat="48.74314" lon="1.80339">
        <ele>192.60000610352</ele>
        <time>2011-05-17T09:11:45.000Z</time>
      </trkpt>
      <trkpt lat="48.74322" lon="1.80346">
        <ele>192.60000610352</ele>
        <time>2011-05-17T09:11:53.000Z</time>
      </trkpt>
      <trkpt lat="48.74328" lon="1.8035">
        <ele>192.80000305176</ele>
        <time>2011-05-17T09:11:59.000Z</time>
      </trkpt>
      <trkpt lat="48.74329" lon="1.8035">
        <ele>192.80000305176</ele>
        <time>2011-05-17T09:12:00.000Z</time>
      </trkpt>
      <trkpt lat="48.74335" lon="1.80353">
        <ele>192.80000305176</ele>
        <time>2011-05-17T09:12:05.000Z</time>
      </trkpt>
      <trkpt lat="48.74337" lon="1.80355">
        <ele>192.80000305176</ele>
        <time>2011-05-17T09:12:06.000Z</time>
      </trkpt>
      <trkpt lat="48.74344" lon="1.80364">
        <ele>192.80000305176</ele>
        <time>2011-05-17T09:12:13.000Z</time>
      </trkpt>
      <trkpt lat="48.74347" lon="1.80368">
        <ele>192.80000305176</ele>
        <time>2011-05-17T09:12:18.000Z</time>
      </trkpt>
      <trkpt lat="48.7436" lon="1.80375">
        <ele>192.80000305176</ele>
        <time>2011-05-17T09:12:26.000Z</time>
      </trkpt>
      <trkpt lat="48.7437" lon="1.80384">
        <ele>192.80000305176</ele>
        <time>2011-05-17T09:12:34.000Z</time>
      </trkpt>
      <trkpt lat="48.74374" lon="1.80388">
        <ele>192.80000305176</ele>
        <time>2011-05-17T09:12:37.000Z</time>
      </trkpt>
      <trkpt lat="48.74384" lon="1.80402">
        <ele>192.80000305176</ele>
        <time>2011-05-17T09:12:46.000Z</time>
      </trkpt>
      <trkpt lat="48.74388" lon="1.8041">
        <ele>192.80000305176</ele>
        <time>2011-05-17T09:12:51.000Z</time>
      </trkpt>
      <trkpt lat="48.74389" lon="1.80412">
        <ele>192.80000305176</ele>
        <time>2011-05-17T09:12:52.000Z</time>
      </trkpt>
      <trkpt lat="48.74396" lon="1.80427">
        <ele>192.80000305176</ele>
        <time>2011-05-17T09:13:01.000Z</time>
      </trkpt>
      <trkpt lat="48.74397" lon="1.8043">
        <ele>192.80000305176</ele>
        <time>2011-05-17T09:13:03.000Z</time>
      </trkpt>
      <trkpt lat="48.74404" lon="1.80441">
        <ele>192.80000305176</ele>
        <time>2011-05-17T09:13:09.000Z</time>
      </trkpt>
      <trkpt lat="48.74409" lon="1.80452">
        <ele>192.80000305176</ele>
        <time>2011-05-17T09:13:16.000Z</time>
      </trkpt>
      <trkpt lat="48.7441" lon="1.80453">
        <ele>192.80000305176</ele>
        <time>2011-05-17T09:13:17.000Z</time>
      </trkpt>
      <trkpt lat="48.74416" lon="1.80461">
        <ele>192.80000305176</ele>
        <time>2011-05-17T09:13:23.000Z</time>
      </trkpt>
      <trkpt lat="48.7442" lon="1.80464">
        <ele>193</ele>
        <time>2011-05-17T09:13:28.000Z</time>
      </trkpt>
      <trkpt lat="48.74427" lon="1.80472">
        <ele>193</ele>
        <time>2011-05-17T09:13:35.000Z</time>
      </trkpt>
      <trkpt lat="48.74434" lon="1.8048">
        <ele>193.19999694824</ele>
        <time>2011-05-17T09:13:42.000Z</time>
      </trkpt>
      <trkpt lat="48.7444" lon="1.80492">
        <ele>193.19999694824</ele>
        <time>2011-05-17T09:13:48.000Z</time>
      </trkpt>
      <trkpt lat="48.74445" lon="1.80511">
        <ele>193</ele>
        <time>2011-05-17T09:13:57.000Z</time>
      </trkpt>
      <trkpt lat="48.74451" lon="1.80523">
        <ele>192.80000305176</ele>
        <time>2011-05-17T09:14:04.000Z</time>
      </trkpt>
      <trkpt lat="48.74457" lon="1.80539">
        <ele>192.60000610352</ele>
        <time>2011-05-17T09:14:12.000Z</time>
      </trkpt>
      <trkpt lat="48.74459" lon="1.80547">
        <ele>192.60000610352</ele>
        <time>2011-05-17T09:14:16.000Z</time>
      </trkpt>
      <trkpt lat="48.74465" lon="1.8056">
        <ele>192.39999389648</ele>
        <time>2011-05-17T09:14:23.000Z</time>
      </trkpt>
      <trkpt lat="48.74469" lon="1.80568">
        <ele>192.39999389648</ele>
        <time>2011-05-17T09:14:27.000Z</time>
      </trkpt>
      <trkpt lat="48.7447" lon="1.8057">
        <ele>192.39999389648</ele>
        <time>2011-05-17T09:14:30.000Z</time>
      </trkpt>
      <trkpt lat="48.74477" lon="1.80572">
        <ele>192.60000610352</ele>
        <time>2011-05-17T09:14:37.000Z</time>
      </trkpt>
      <trkpt lat="48.74481" lon="1.80583">
        <ele>192.39999389648</ele>
        <time>2011-05-17T09:14:42.000Z</time>
      </trkpt>
      <trkpt lat="48.74486" lon="1.80594">
        <ele>192.39999389648</ele>
        <time>2011-05-17T09:14:49.000Z</time>
      </trkpt>
      <trkpt lat="48.74487" lon="1.80596">
        <ele>192.39999389648</ele>
        <time>2011-05-17T09:14:53.000Z</time>
      </trkpt>
      <trkpt lat="48.74491" lon="1.80605">
        <ele>192.39999389648</ele>
        <time>2011-05-17T09:15:02.000Z</time>
      </trkpt>
      <trkpt lat="48.74491" lon="1.80609">
        <ele>192.39999389648</ele>
        <time>2011-05-17T09:15:03.000Z</time>
      </trkpt>
      <trkpt lat="48.74498" lon="1.80618">
        <ele>192.39999389648</ele>
        <time>2011-05-17T09:15:11.000Z</time>
      </trkpt>
      <trkpt lat="48.74506" lon="1.80621">
        <ele>192.19999694824</ele>
        <time>2011-05-17T09:15:17.000Z</time>
      </trkpt>
      <trkpt lat="48.74515" lon="1.80623">
        <ele>191.80000305176</ele>
        <time>2011-05-17T09:15:23.000Z</time>
      </trkpt>
      <trkpt lat="48.74517" lon="1.8063">
        <ele>191.60000610352</ele>
        <time>2011-05-17T09:15:30.000Z</time>
      </trkpt>
      <trkpt lat="48.74516" lon="1.80639">
        <ele>191.60000610352</ele>
        <time>2011-05-17T09:15:36.000Z</time>
      </trkpt>
      <trkpt lat="48.74514" lon="1.80648">
        <ele>191.60000610352</ele>
        <time>2011-05-17T09:15:43.000Z</time>
      </trkpt>
      <trkpt lat="48.74507" lon="1.80647">
        <ele>191.80000305176</ele>
        <time>2011-05-17T09:16:43.000Z</time>
      </trkpt>
      <trkpt lat="48.74504" lon="1.80647">
        <ele>192</ele>
        <time>2011-05-17T09:16:47.000Z</time>
      </trkpt>
      <trkpt lat="48.74485" lon="1.80652">
        <ele>191.60000610352</ele>
        <time>2011-05-17T09:17:19.000Z</time>
      </trkpt>
      <trkpt lat="48.74484" lon="1.80662">
        <ele>191.39999389648</ele>
        <time>2011-05-17T09:17:23.000Z</time>
      </trkpt>
      <trkpt lat="48.74482" lon="1.80673">
        <ele>191.39999389648</ele>
        <time>2011-05-17T09:17:29.000Z</time>
      </trkpt>
      <trkpt lat="48.74482" lon="1.80674">
        <ele>191.39999389648</ele>
        <time>2011-05-17T09:17:31.000Z</time>
      </trkpt>
      <trkpt lat="48.74482" lon="1.80684">
        <ele>191.39999389648</ele>
        <time>2011-05-17T09:17:57.000Z</time>
      </trkpt>
      <trkpt lat="48.74479" lon="1.80693">
        <ele>191.39999389648</ele>
        <time>2011-05-17T09:18:01.000Z</time>
      </trkpt>
      <trkpt lat="48.74481" lon="1.80703">
        <ele>191.60000610352</ele>
        <time>2011-05-17T09:18:09.000Z</time>
      </trkpt>
      <trkpt lat="48.74477" lon="1.80716">
        <ele>191.60000610352</ele>
        <time>2011-05-17T09:20:31.000Z</time>
      </trkpt>
      <trkpt lat="48.74469" lon="1.80731">
        <ele>191.60000610352</ele>
        <time>2011-05-17T09:20:40.000Z</time>
      </trkpt>
      <trkpt lat="48.74465" lon="1.80744">
        <ele>191.80000305176</ele>
        <time>2011-05-17T09:20:46.000Z</time>
      </trkpt>
      <trkpt lat="48.74459" lon="1.80757">
        <ele>192.19999694824</ele>
        <time>2011-05-17T09:20:53.000Z</time>
      </trkpt>
      <trkpt lat="48.74454" lon="1.80769">
        <ele>192.80000305176</ele>
        <time>2011-05-17T09:21:00.000Z</time>
      </trkpt>
      <trkpt lat="48.74448" lon="1.80784">
        <ele>193.39999389648</ele>
        <time>2011-05-17T09:21:08.000Z</time>
      </trkpt>
      <trkpt lat="48.74443" lon="1.80797">
        <ele>194</ele>
        <time>2011-05-17T09:21:15.000Z</time>
      </trkpt>
      <trkpt lat="48.74436" lon="1.80813">
        <ele>194.80000305176</ele>
        <time>2011-05-17T09:21:23.000Z</time>
      </trkpt>
      <trkpt lat="48.7443" lon="1.80827">
        <ele>195.39999389648</ele>
        <time>2011-05-17T09:21:30.000Z</time>
      </trkpt>
      <trkpt lat="48.74426" lon="1.80838">
        <ele>195.80000305176</ele>
        <time>2011-05-17T09:21:36.000Z</time>
      </trkpt>
      <trkpt lat="48.74422" lon="1.80849">
        <ele>195.80000305176</ele>
        <time>2011-05-17T09:21:42.000Z</time>
      </trkpt>
      <trkpt lat="48.7442" lon="1.80853">
        <ele>195.80000305176</ele>
        <time>2011-05-17T09:21:44.000Z</time>
      </trkpt>
      <trkpt lat="48.74412" lon="1.80871">
        <ele>195.80000305176</ele>
        <time>2011-05-17T09:21:52.000Z</time>
      </trkpt>
      <trkpt lat="48.74405" lon="1.80884">
        <ele>195.80000305176</ele>
        <time>2011-05-17T09:21:58.000Z</time>
      </trkpt>
      <trkpt lat="48.74399" lon="1.80898">
        <ele>195.80000305176</ele>
        <time>2011-05-17T09:22:05.000Z</time>
      </trkpt>
      <trkpt lat="48.74392" lon="1.80916">
        <ele>195.80000305176</ele>
        <time>2011-05-17T09:22:14.000Z</time>
      </trkpt>
      <trkpt lat="48.74385" lon="1.8093">
        <ele>195.80000305176</ele>
        <time>2011-05-17T09:22:21.000Z</time>
      </trkpt>
      <trkpt lat="48.7438" lon="1.80942">
        <ele>195.80000305176</ele>
        <time>2011-05-17T09:22:27.000Z</time>
      </trkpt>
      <trkpt lat="48.74375" lon="1.80954">
        <ele>195.60000610352</ele>
        <time>2011-05-17T09:22:33.000Z</time>
      </trkpt>
      <trkpt lat="48.7437" lon="1.80967">
        <ele>195.60000610352</ele>
        <time>2011-05-17T09:22:39.000Z</time>
      </trkpt>
      <trkpt lat="48.74363" lon="1.80987">
        <ele>195.39999389648</ele>
        <time>2011-05-17T09:22:48.000Z</time>
      </trkpt>
      <trkpt lat="48.74356" lon="1.81002">
        <ele>195.19999694824</ele>
        <time>2011-05-17T09:22:54.000Z</time>
      </trkpt>
      <trkpt lat="48.74349" lon="1.81016">
        <ele>194.80000305176</ele>
        <time>2011-05-17T09:23:00.000Z</time>
      </trkpt>
      <trkpt lat="48.74343" lon="1.81026">
        <ele>194.60000610352</ele>
        <time>2011-05-17T09:23:06.000Z</time>
      </trkpt>
      <trkpt lat="48.74337" lon="1.81041">
        <ele>194.39999389648</ele>
        <time>2011-05-17T09:23:14.000Z</time>
      </trkpt>
      <trkpt lat="48.74333" lon="1.81051">
        <ele>194.19999694824</ele>
        <time>2011-05-17T09:23:19.000Z</time>
      </trkpt>
      <trkpt lat="48.74325" lon="1.81071">
        <ele>194.19999694824</ele>
        <time>2011-05-17T09:23:28.000Z</time>
      </trkpt>
      <trkpt lat="48.74321" lon="1.81081">
        <ele>194</ele>
        <time>2011-05-17T09:23:34.000Z</time>
      </trkpt>
      <trkpt lat="48.74317" lon="1.81094">
        <ele>194.19999694824</ele>
        <time>2011-05-17T09:23:41.000Z</time>
      </trkpt>
      <trkpt lat="48.74316" lon="1.81098">
        <ele>194.19999694824</ele>
        <time>2011-05-17T09:23:43.000Z</time>
      </trkpt>
      <trkpt lat="48.74309" lon="1.81114">
        <ele>194.19999694824</ele>
        <time>2011-05-17T09:23:50.000Z</time>
      </trkpt>
      <trkpt lat="48.74307" lon="1.81116">
        <ele>194.19999694824</ele>
        <time>2011-05-17T09:23:51.000Z</time>
      </trkpt>
      <trkpt lat="48.74299" lon="1.81134">
        <ele>194.19999694824</ele>
        <time>2011-05-17T09:23:59.000Z</time>
      </trkpt>
      <trkpt lat="48.74296" lon="1.8114">
        <ele>194.19999694824</ele>
        <time>2011-05-17T09:24:02.000Z</time>
      </trkpt>
      <trkpt lat="48.74289" lon="1.81153">
        <ele>194</ele>
        <time>2011-05-17T09:24:09.000Z</time>
      </trkpt>
      <trkpt lat="48.74281" lon="1.81169">
        <ele>193.60000610352</ele>
        <time>2011-05-17T09:24:18.000Z</time>
      </trkpt>
      <trkpt lat="48.74271" lon="1.81186">
        <ele>193.39999389648</ele>
        <time>2011-05-17T09:24:27.000Z</time>
      </trkpt>
      <trkpt lat="48.74267" lon="1.81203">
        <ele>193.39999389648</ele>
        <time>2011-05-17T09:24:35.000Z</time>
      </trkpt>
      <trkpt lat="48.74259" lon="1.81219">
        <ele>193.19999694824</ele>
        <time>2011-05-17T09:24:42.000Z</time>
      </trkpt>
      <trkpt lat="48.74252" lon="1.81237">
        <ele>193</ele>
        <time>2011-05-17T09:24:50.000Z</time>
      </trkpt>
      <trkpt lat="48.74248" lon="1.81248">
        <ele>193</ele>
        <time>2011-05-17T09:24:55.000Z</time>
      </trkpt>
      <trkpt lat="48.74243" lon="1.81262">
        <ele>193.39999389648</ele>
        <time>2011-05-17T09:25:01.000Z</time>
      </trkpt>
      <trkpt lat="48.74236" lon="1.81279">
        <ele>194</ele>
        <time>2011-05-17T09:25:07.000Z</time>
      </trkpt>
      <trkpt lat="48.74226" lon="1.81301">
        <ele>194.39999389648</ele>
        <time>2011-05-17T09:25:12.000Z</time>
      </trkpt>
      <trkpt lat="48.74214" lon="1.81326">
        <ele>194.80000305176</ele>
        <time>2011-05-17T09:25:17.000Z</time>
      </trkpt>
      <trkpt lat="48.74206" lon="1.81345">
        <ele>195</ele>
        <time>2011-05-17T09:25:21.000Z</time>
      </trkpt>
      <trkpt lat="48.7419" lon="1.81381">
        <ele>195</ele>
        <time>2011-05-17T09:25:28.000Z</time>
      </trkpt>
      <trkpt lat="48.74182" lon="1.81397">
        <ele>195</ele>
        <time>2011-05-17T09:25:31.000Z</time>
      </trkpt>
      <trkpt lat="48.74168" lon="1.81429">
        <ele>195</ele>
        <time>2011-05-17T09:25:37.000Z</time>
      </trkpt>
      <trkpt lat="48.74152" lon="1.81465">
        <ele>195</ele>
        <time>2011-05-17T09:25:44.000Z</time>
      </trkpt>
      <trkpt lat="48.74149" lon="1.8147">
        <ele>195</ele>
        <time>2011-05-17T09:25:45.000Z</time>
      </trkpt>
      <trkpt lat="48.74142" lon="1.81488">
        <ele>195.19999694824</ele>
        <time>2011-05-17T09:25:48.000Z</time>
      </trkpt>
      <trkpt lat="48.74137" lon="1.81497">
        <ele>195.19999694824</ele>
        <time>2011-05-17T09:25:50.000Z</time>
      </trkpt>
      <trkpt lat="48.74121" lon="1.81534">
        <ele>195.60000610352</ele>
        <time>2011-05-17T09:25:56.000Z</time>
      </trkpt>
      <trkpt lat="48.74118" lon="1.8154">
        <ele>195.80000305176</ele>
        <time>2011-05-17T09:25:57.000Z</time>
      </trkpt>
      <trkpt lat="48.74112" lon="1.81557">
        <ele>196</ele>
        <time>2011-05-17T09:26:00.000Z</time>
      </trkpt>
      <trkpt lat="48.741" lon="1.81583">
        <ele>196.39999389648</ele>
        <time>2011-05-17T09:26:05.000Z</time>
      </trkpt>
      <trkpt lat="48.74094" lon="1.816">
        <ele>196.60000610352</ele>
        <time>2011-05-17T09:26:08.000Z</time>
      </trkpt>
      <trkpt lat="48.74089" lon="1.8161">
        <ele>196.80000305176</ele>
        <time>2011-05-17T09:26:10.000Z</time>
      </trkpt>
      <trkpt lat="48.74081" lon="1.81631">
        <ele>197</ele>
        <time>2011-05-17T09:26:14.000Z</time>
      </trkpt>
      <trkpt lat="48.74067" lon="1.81658">
        <ele>197</ele>
        <time>2011-05-17T09:26:19.000Z</time>
      </trkpt>
      <trkpt lat="48.74056" lon="1.81684">
        <ele>197.19999694824</ele>
        <time>2011-05-17T09:26:24.000Z</time>
      </trkpt>
      <trkpt lat="48.74048" lon="1.81703">
        <ele>197.39999389648</ele>
        <time>2011-05-17T09:26:27.000Z</time>
      </trkpt>
      <trkpt lat="48.74037" lon="1.8173">
        <ele>197.39999389648</ele>
        <time>2011-05-17T09:26:32.000Z</time>
      </trkpt>
      <trkpt lat="48.74025" lon="1.81765">
        <ele>196.80000305176</ele>
        <time>2011-05-17T09:26:38.000Z</time>
      </trkpt>
      <trkpt lat="48.74014" lon="1.81792">
        <ele>195.80000305176</ele>
        <time>2011-05-17T09:26:43.000Z</time>
      </trkpt>
      <trkpt lat="48.74011" lon="1.81798">
        <ele>195.39999389648</ele>
        <time>2011-05-17T09:26:44.000Z</time>
      </trkpt>
      <trkpt lat="48.73992" lon="1.81839">
        <ele>194</ele>
        <time>2011-05-17T09:26:51.000Z</time>
      </trkpt>
      <trkpt lat="48.73982" lon="1.81861">
        <ele>193.80000305176</ele>
        <time>2011-05-17T09:26:55.000Z</time>
      </trkpt>
      <trkpt lat="48.73978" lon="1.81871">
        <ele>193.80000305176</ele>
        <time>2011-05-17T09:26:57.000Z</time>
      </trkpt>
      <trkpt lat="48.73962" lon="1.81904">
        <ele>193.39999389648</ele>
        <time>2011-05-17T09:27:04.000Z</time>
      </trkpt>
      <trkpt lat="48.7395" lon="1.8193">
        <ele>193.80000305176</ele>
        <time>2011-05-17T09:27:10.000Z</time>
      </trkpt>
      <trkpt lat="48.73938" lon="1.81955">
        <ele>194.19999694824</ele>
        <time>2011-05-17T09:27:15.000Z</time>
      </trkpt>
      <trkpt lat="48.73932" lon="1.81971">
        <ele>194.39999389648</ele>
        <time>2011-05-17T09:27:18.000Z</time>
      </trkpt>
      <trkpt lat="48.73918" lon="1.82006">
        <ele>194.80000305176</ele>
        <time>2011-05-17T09:27:24.000Z</time>
      </trkpt>
      <trkpt lat="48.73912" lon="1.8202">
        <ele>194.60000610352</ele>
        <time>2011-05-17T09:27:27.000Z</time>
      </trkpt>
      <trkpt lat="48.73908" lon="1.82029">
        <ele>194.60000610352</ele>
        <time>2011-05-17T09:27:29.000Z</time>
      </trkpt>
      <trkpt lat="48.73894" lon="1.82063">
        <ele>194.39999389648</ele>
        <time>2011-05-17T09:27:36.000Z</time>
      </trkpt>
      <trkpt lat="48.73885" lon="1.82082">
        <ele>194.19999694824</ele>
        <time>2011-05-17T09:27:40.000Z</time>
      </trkpt>
      <trkpt lat="48.73874" lon="1.82108">
        <ele>194.60000610352</ele>
        <time>2011-05-17T09:27:45.000Z</time>
      </trkpt>
      <trkpt lat="48.73863" lon="1.82132">
        <ele>194.60000610352</ele>
        <time>2011-05-17T09:27:50.000Z</time>
      </trkpt>
      <trkpt lat="48.73857" lon="1.82149">
        <ele>194.39999389648</ele>
        <time>2011-05-17T09:27:54.000Z</time>
      </trkpt>
      <trkpt lat="48.73843" lon="1.82181">
        <ele>194.39999389648</ele>
        <time>2011-05-17T09:28:00.000Z</time>
      </trkpt>
      <trkpt lat="48.73838" lon="1.82193">
        <ele>194.39999389648</ele>
        <time>2011-05-17T09:28:02.000Z</time>
      </trkpt>
      <trkpt lat="48.73824" lon="1.82227">
        <ele>194.80000305176</ele>
        <time>2011-05-17T09:28:08.000Z</time>
      </trkpt>
      <trkpt lat="48.73815" lon="1.8225">
        <ele>195.19999694824</ele>
        <time>2011-05-17T09:28:12.000Z</time>
      </trkpt>
      <trkpt lat="48.73808" lon="1.82268">
        <ele>194.80000305176</ele>
        <time>2011-05-17T09:28:15.000Z</time>
      </trkpt>
      <trkpt lat="48.73804" lon="1.82278">
        <ele>194.60000610352</ele>
        <time>2011-05-17T09:28:17.000Z</time>
      </trkpt>
      <trkpt lat="48.73791" lon="1.82306">
        <ele>193.80000305176</ele>
        <time>2011-05-17T09:28:23.000Z</time>
      </trkpt>
      <trkpt lat="48.73788" lon="1.82311">
        <ele>193.60000610352</ele>
        <time>2011-05-17T09:28:24.000Z</time>
      </trkpt>
      <trkpt lat="48.73778" lon="1.82338">
        <ele>192.39999389648</ele>
        <time>2011-05-17T09:28:30.000Z</time>
      </trkpt>
      <trkpt lat="48.73769" lon="1.8236">
        <ele>191.19999694824</ele>
        <time>2011-05-17T09:28:35.000Z</time>
      </trkpt>
      <trkpt lat="48.73768" lon="1.82364">
        <ele>191</ele>
        <time>2011-05-17T09:28:36.000Z</time>
      </trkpt>
      <trkpt lat="48.73768" lon="1.82366">
        <ele>191</ele>
        <time>2011-05-17T09:28:38.000Z</time>
      </trkpt>
      <trkpt lat="48.73765" lon="1.82375">
        <ele>190.60000610352</ele>
        <time>2011-05-17T09:28:44.000Z</time>
      </trkpt>
      <trkpt lat="48.73765" lon="1.82375">
        <ele>190.60000610352</ele>
        <time>2011-05-17T09:28:45.000Z</time>
      </trkpt>
      <trkpt lat="48.73762" lon="1.82379">
        <ele>190.39999389648</ele>
        <time>2011-05-17T09:28:51.000Z</time>
      </trkpt>
      <trkpt lat="48.7376" lon="1.82382">
        <ele>190.19999694824</ele>
        <time>2011-05-17T09:28:52.000Z</time>
      </trkpt>
      <trkpt lat="48.73756" lon="1.82392">
        <ele>189.80000305176</ele>
        <time>2011-05-17T09:28:59.000Z</time>
      </trkpt>
      <trkpt lat="48.73752" lon="1.82404">
        <ele>189.39999389648</ele>
        <time>2011-05-17T09:29:06.000Z</time>
      </trkpt>
      <trkpt lat="48.73744" lon="1.82418">
        <ele>188.80000305176</ele>
        <time>2011-05-17T09:29:15.000Z</time>
      </trkpt>
      <trkpt lat="48.73738" lon="1.82435">
        <ele>188.60000610352</ele>
        <time>2011-05-17T09:29:24.000Z</time>
      </trkpt>
      <trkpt lat="48.73731" lon="1.82451">
        <ele>188.39999389648</ele>
        <time>2011-05-17T09:29:33.000Z</time>
      </trkpt>
      <trkpt lat="48.73724" lon="1.82472">
        <ele>188.39999389648</ele>
        <time>2011-05-17T09:29:45.000Z</time>
      </trkpt>
      <trkpt lat="48.7372" lon="1.82484">
        <ele>188.39999389648</ele>
        <time>2011-05-17T09:29:52.000Z</time>
      </trkpt>
      <trkpt lat="48.73717" lon="1.82491">
        <ele>188.39999389648</ele>
        <time>2011-05-17T09:29:58.000Z</time>
      </trkpt>
      <trkpt lat="48.7371" lon="1.82503">
        <ele>188.39999389648</ele>
        <time>2011-05-17T09:30:06.000Z</time>
      </trkpt>
      <trkpt lat="48.73703" lon="1.82511">
        <ele>188.60000610352</ele>
        <time>2011-05-17T09:30:12.000Z</time>
      </trkpt>
      <trkpt lat="48.73696" lon="1.82525">
        <ele>188.60000610352</ele>
        <time>2011-05-17T09:30:21.000Z</time>
      </trkpt>
      <trkpt lat="48.73691" lon="1.8254">
        <ele>188.80000305176</ele>
        <time>2011-05-17T09:30:29.000Z</time>
      </trkpt>
      <trkpt lat="48.73689" lon="1.82545">
        <ele>188.80000305176</ele>
        <time>2011-05-17T09:30:32.000Z</time>
      </trkpt>
      <trkpt lat="48.73684" lon="1.82557">
        <ele>188.80000305176</ele>
        <time>2011-05-17T09:30:39.000Z</time>
      </trkpt>
      <trkpt lat="48.73676" lon="1.82575">
        <ele>188.80000305176</ele>
        <time>2011-05-17T09:30:48.000Z</time>
      </trkpt>
      <trkpt lat="48.7367" lon="1.82589">
        <ele>189</ele>
        <time>2011-05-17T09:30:56.000Z</time>
      </trkpt>
      <trkpt lat="48.73665" lon="1.82602">
        <ele>188.80000305176</ele>
        <time>2011-05-17T09:31:03.000Z</time>
      </trkpt>
      <trkpt lat="48.73661" lon="1.82612">
        <ele>188.80000305176</ele>
        <time>2011-05-17T09:31:11.000Z</time>
      </trkpt>
      <trkpt lat="48.73659" lon="1.82619">
        <ele>188.80000305176</ele>
        <time>2011-05-17T09:31:18.000Z</time>
      </trkpt>
      <trkpt lat="48.73653" lon="1.8263">
        <ele>188.80000305176</ele>
        <time>2011-05-17T09:31:24.000Z</time>
      </trkpt>
      <trkpt lat="48.73648" lon="1.82641">
        <ele>188.60000610352</ele>
        <time>2011-05-17T09:31:31.000Z</time>
      </trkpt>
      <trkpt lat="48.73644" lon="1.82654">
        <ele>188.39999389648</ele>
        <time>2011-05-17T09:31:38.000Z</time>
      </trkpt>
      <trkpt lat="48.73638" lon="1.82665">
        <ele>188.19999694824</ele>
        <time>2011-05-17T09:31:45.000Z</time>
      </trkpt>
      <trkpt lat="48.7363" lon="1.82685">
        <ele>187.39999389648</ele>
        <time>2011-05-17T09:31:56.000Z</time>
      </trkpt>
      <trkpt lat="48.73623" lon="1.82701">
        <ele>186.80000305176</ele>
        <time>2011-05-17T09:32:05.000Z</time>
      </trkpt>
      <trkpt lat="48.73617" lon="1.82716">
        <ele>186.19999694824</ele>
        <time>2011-05-17T09:32:14.000Z</time>
      </trkpt>
      <trkpt lat="48.7361" lon="1.82728">
        <ele>185.60000610352</ele>
        <time>2011-05-17T09:32:21.000Z</time>
      </trkpt>
      <trkpt lat="48.73602" lon="1.82745">
        <ele>184.80000305176</ele>
        <time>2011-05-17T09:32:30.000Z</time>
      </trkpt>
      <trkpt lat="48.73595" lon="1.82761">
        <ele>184.19999694824</ele>
        <time>2011-05-17T09:32:39.000Z</time>
      </trkpt>
      <trkpt lat="48.73586" lon="1.8278">
        <ele>183.60000610352</ele>
        <time>2011-05-17T09:32:49.000Z</time>
      </trkpt>
      <trkpt lat="48.73579" lon="1.82796">
        <ele>183.19999694824</ele>
        <time>2011-05-17T09:32:57.000Z</time>
      </trkpt>
      <trkpt lat="48.73571" lon="1.82813">
        <ele>182.80000305176</ele>
        <time>2011-05-17T09:33:06.000Z</time>
      </trkpt>
      <trkpt lat="48.73564" lon="1.82828">
        <ele>182.39999389648</ele>
        <time>2011-05-17T09:33:15.000Z</time>
      </trkpt>
      <trkpt lat="48.73557" lon="1.82847">
        <ele>182.60000610352</ele>
        <time>2011-05-17T09:33:25.000Z</time>
      </trkpt>
      <trkpt lat="48.73551" lon="1.82861">
        <ele>182.60000610352</ele>
        <time>2011-05-17T09:33:33.000Z</time>
      </trkpt>
      <trkpt lat="48.73544" lon="1.82875">
        <ele>182.80000305176</ele>
        <time>2011-05-17T09:33:43.000Z</time>
      </trkpt>
      <trkpt lat="48.73544" lon="1.82875">
        <ele>182.80000305176</ele>
        <time>2011-05-17T09:33:44.000Z</time>
      </trkpt>
      <trkpt lat="48.73545" lon="1.82887">
        <ele>183</ele>
        <time>2011-05-17T09:34:10.000Z</time>
      </trkpt>
      <trkpt lat="48.73539" lon="1.82905">
        <ele>183</ele>
        <time>2011-05-17T09:34:19.000Z</time>
      </trkpt>
      <trkpt lat="48.73532" lon="1.82918">
        <ele>183</ele>
        <time>2011-05-17T09:34:26.000Z</time>
      </trkpt>
      <trkpt lat="48.73527" lon="1.82929">
        <ele>183.19999694824</ele>
        <time>2011-05-17T09:34:32.000Z</time>
      </trkpt>
      <trkpt lat="48.73519" lon="1.82944">
        <ele>183.39999389648</ele>
        <time>2011-05-17T09:34:40.000Z</time>
      </trkpt>
      <trkpt lat="48.73515" lon="1.82951">
        <ele>183.60000610352</ele>
        <time>2011-05-17T09:34:45.000Z</time>
      </trkpt>
      <trkpt lat="48.73507" lon="1.8297">
        <ele>184</ele>
        <time>2011-05-17T09:34:54.000Z</time>
      </trkpt>
      <trkpt lat="48.73498" lon="1.8299">
        <ele>184.39999389648</ele>
        <time>2011-05-17T09:35:05.000Z</time>
      </trkpt>
      <trkpt lat="48.73491" lon="1.83005">
        <ele>184.39999389648</ele>
        <time>2011-05-17T09:35:14.000Z</time>
      </trkpt>
      <trkpt lat="48.73483" lon="1.83022">
        <ele>184.19999694824</ele>
        <time>2011-05-17T09:35:24.000Z</time>
      </trkpt>
      <trkpt lat="48.73474" lon="1.8304">
        <ele>184</ele>
        <time>2011-05-17T09:35:34.000Z</time>
      </trkpt>
      <trkpt lat="48.73468" lon="1.83056">
        <ele>183.80000305176</ele>
        <time>2011-05-17T09:35:42.000Z</time>
      </trkpt>
      <trkpt lat="48.73459" lon="1.83073">
        <ele>183.80000305176</ele>
        <time>2011-05-17T09:35:52.000Z</time>
      </trkpt>
      <trkpt lat="48.73455" lon="1.83087">
        <ele>184</ele>
        <time>2011-05-17T09:35:59.000Z</time>
      </trkpt>
      <trkpt lat="48.73449" lon="1.83102">
        <ele>184.39999389648</ele>
        <time>2011-05-17T09:36:07.000Z</time>
      </trkpt>
      <trkpt lat="48.73444" lon="1.83117">
        <ele>184.80000305176</ele>
        <time>2011-05-17T09:36:15.000Z</time>
      </trkpt>
      <trkpt lat="48.73434" lon="1.83137">
        <ele>185.19999694824</ele>
        <time>2011-05-17T09:36:26.000Z</time>
      </trkpt>
      <trkpt lat="48.73428" lon="1.83152">
        <ele>185.60000610352</ele>
        <time>2011-05-17T09:36:34.000Z</time>
      </trkpt>
      <trkpt lat="48.73421" lon="1.83168">
        <ele>186</ele>
        <time>2011-05-17T09:36:43.000Z</time>
      </trkpt>
      <trkpt lat="48.73414" lon="1.83181">
        <ele>185.80000305176</ele>
        <time>2011-05-17T09:36:51.000Z</time>
      </trkpt>
      <trkpt lat="48.73406" lon="1.83199">
        <ele>185.60000610352</ele>
        <time>2011-05-17T09:37:00.000Z</time>
      </trkpt>
      <trkpt lat="48.73399" lon="1.83215">
        <ele>185.39999389648</ele>
        <time>2011-05-17T09:37:09.000Z</time>
      </trkpt>
      <trkpt lat="48.73392" lon="1.83228">
        <ele>185</ele>
        <time>2011-05-17T09:37:17.000Z</time>
      </trkpt>
      <trkpt lat="48.73387" lon="1.83242">
        <ele>185</ele>
        <time>2011-05-17T09:37:24.000Z</time>
      </trkpt>
      <trkpt lat="48.73378" lon="1.83264">
        <ele>184.19999694824</ele>
        <time>2011-05-17T09:37:36.000Z</time>
      </trkpt>
      <trkpt lat="48.73365" lon="1.83292">
        <ele>183.39999389648</ele>
        <time>2011-05-17T09:37:51.000Z</time>
      </trkpt>
      <trkpt lat="48.73355" lon="1.83319">
        <ele>183</ele>
        <time>2011-05-17T09:38:06.000Z</time>
      </trkpt>
      <trkpt lat="48.73348" lon="1.83335">
        <ele>183</ele>
        <time>2011-05-17T09:38:15.000Z</time>
      </trkpt>
      <trkpt lat="48.73338" lon="1.83355">
        <ele>183.19999694824</ele>
        <time>2011-05-17T09:38:27.000Z</time>
      </trkpt>
      <trkpt lat="48.73332" lon="1.8337">
        <ele>183.39999389648</ele>
        <time>2011-05-17T09:38:36.000Z</time>
      </trkpt>
      <trkpt lat="48.73331" lon="1.83377">
        <ele>183.39999389648</ele>
        <time>2011-05-17T09:38:42.000Z</time>
      </trkpt>
      <trkpt lat="48.73329" lon="1.83382">
        <ele>183.39999389648</ele>
        <time>2011-05-17T09:38:47.000Z</time>
      </trkpt>
      <trkpt lat="48.73327" lon="1.83388">
        <ele>183.39999389648</ele>
        <time>2011-05-17T09:38:52.000Z</time>
      </trkpt>
      <trkpt lat="48.73323" lon="1.83395">
        <ele>183.60000610352</ele>
        <time>2011-05-17T09:38:56.000Z</time>
      </trkpt>
      <trkpt lat="48.73321" lon="1.83407">
        <ele>183.80000305176</ele>
        <time>2011-05-17T09:39:02.000Z</time>
      </trkpt>
      <trkpt lat="48.73316" lon="1.83412">
        <ele>183.80000305176</ele>
        <time>2011-05-17T09:39:08.000Z</time>
      </trkpt>
      <trkpt lat="48.73313" lon="1.83412">
        <ele>183.80000305176</ele>
        <time>2011-05-17T09:39:11.000Z</time>
      </trkpt>
      <trkpt lat="48.73306" lon="1.83422">
        <ele>184.19999694824</ele>
        <time>2011-05-17T09:39:19.000Z</time>
      </trkpt>
      <trkpt lat="48.73306" lon="1.83422">
        <ele>184.19999694824</ele>
        <time>2011-05-17T09:39:22.000Z</time>
      </trkpt>
      <trkpt lat="48.73305" lon="1.83441">
        <ele>185</ele>
        <time>2011-05-17T09:40:04.000Z</time>
      </trkpt>
      <trkpt lat="48.73304" lon="1.83443">
        <ele>185</ele>
        <time>2011-05-17T09:40:05.000Z</time>
      </trkpt>
      <trkpt lat="48.73299" lon="1.83452">
        <ele>185.60000610352</ele>
        <time>2011-05-17T09:40:11.000Z</time>
      </trkpt>
      <trkpt lat="48.73294" lon="1.83462">
        <ele>186</ele>
        <time>2011-05-17T09:40:19.000Z</time>
      </trkpt>
      <trkpt lat="48.73288" lon="1.8347">
        <ele>186.60000610352</ele>
        <time>2011-05-17T09:40:26.000Z</time>
      </trkpt>
      <trkpt lat="48.73282" lon="1.83482">
        <ele>187.19999694824</ele>
        <time>2011-05-17T09:40:33.000Z</time>
      </trkpt>
      <trkpt lat="48.73278" lon="1.83494">
        <ele>188</ele>
        <time>2011-05-17T09:40:41.000Z</time>
      </trkpt>
      <trkpt lat="48.73273" lon="1.83505">
        <ele>188.39999389648</ele>
        <time>2011-05-17T09:40:49.000Z</time>
      </trkpt>
      <trkpt lat="48.73271" lon="1.83517">
        <ele>189</ele>
        <time>2011-05-17T09:40:57.000Z</time>
      </trkpt>
      <trkpt lat="48.73269" lon="1.83532">
        <ele>189.39999389648</ele>
        <time>2011-05-17T09:41:06.000Z</time>
      </trkpt>
      <trkpt lat="48.7326" lon="1.83544">
        <ele>190.19999694824</ele>
        <time>2011-05-17T09:41:13.000Z</time>
      </trkpt>
      <trkpt lat="48.73259" lon="1.83546">
        <ele>190.19999694824</ele>
        <time>2011-05-17T09:41:14.000Z</time>
      </trkpt>
      <trkpt lat="48.73255" lon="1.83557">
        <ele>190.80000305176</ele>
        <time>2011-05-17T09:41:22.000Z</time>
      </trkpt>
      <trkpt lat="48.73254" lon="1.83565">
        <ele>191</ele>
        <time>2011-05-17T09:41:27.000Z</time>
      </trkpt>
      <trkpt lat="48.73252" lon="1.83571">
        <ele>191.39999389648</ele>
        <time>2011-05-17T09:41:31.000Z</time>
      </trkpt>
      <trkpt lat="48.73249" lon="1.83579">
        <ele>191.80000305176</ele>
        <time>2011-05-17T09:41:36.000Z</time>
      </trkpt>
      <trkpt lat="48.73242" lon="1.83594">
        <ele>191.80000305176</ele>
        <time>2011-05-17T09:41:46.000Z</time>
      </trkpt>
      <trkpt lat="48.73241" lon="1.83595">
        <ele>191.80000305176</ele>
        <time>2011-05-17T09:41:47.000Z</time>
      </trkpt>
      <trkpt lat="48.73236" lon="1.83609">
        <ele>191.80000305176</ele>
        <time>2011-05-17T09:41:55.000Z</time>
      </trkpt>
      <trkpt lat="48.73229" lon="1.83621">
        <ele>191.80000305176</ele>
        <time>2011-05-17T09:42:03.000Z</time>
      </trkpt>
      <trkpt lat="48.73225" lon="1.83633">
        <ele>191.80000305176</ele>
        <time>2011-05-17T09:42:10.000Z</time>
      </trkpt>
      <trkpt lat="48.73219" lon="1.83648">
        <ele>191.80000305176</ele>
        <time>2011-05-17T09:42:19.000Z</time>
      </trkpt>
      <trkpt lat="48.73214" lon="1.8366">
        <ele>191.80000305176</ele>
        <time>2011-05-17T09:42:26.000Z</time>
      </trkpt>
      <trkpt lat="48.73205" lon="1.83677">
        <ele>191.80000305176</ele>
        <time>2011-05-17T09:42:35.000Z</time>
      </trkpt>
      <trkpt lat="48.732" lon="1.8369">
        <ele>191.80000305176</ele>
        <time>2011-05-17T09:42:42.000Z</time>
      </trkpt>
      <trkpt lat="48.73192" lon="1.83707">
        <ele>191.80000305176</ele>
        <time>2011-05-17T09:42:51.000Z</time>
      </trkpt>
      <trkpt lat="48.73181" lon="1.83723">
        <ele>191.39999389648</ele>
        <time>2011-05-17T09:43:00.000Z</time>
      </trkpt>
      <trkpt lat="48.73173" lon="1.83739">
        <ele>191.19999694824</ele>
        <time>2011-05-17T09:43:10.000Z</time>
      </trkpt>
      <trkpt lat="48.73169" lon="1.83755">
        <ele>191</ele>
        <time>2011-05-17T09:43:18.000Z</time>
      </trkpt>
      <trkpt lat="48.7316" lon="1.83773">
        <ele>191</ele>
        <time>2011-05-17T09:43:28.000Z</time>
      </trkpt>
      <trkpt lat="48.73153" lon="1.83788">
        <ele>191</ele>
        <time>2011-05-17T09:43:37.000Z</time>
      </trkpt>
      <trkpt lat="48.73147" lon="1.838">
        <ele>191</ele>
        <time>2011-05-17T09:43:43.000Z</time>
      </trkpt>
      <trkpt lat="48.73138" lon="1.83817">
        <ele>191</ele>
        <time>2011-05-17T09:43:53.000Z</time>
      </trkpt>
      <trkpt lat="48.73131" lon="1.83832">
        <ele>191</ele>
        <time>2011-05-17T09:44:02.000Z</time>
      </trkpt>
      <trkpt lat="48.73125" lon="1.83847">
        <ele>190.60000610352</ele>
        <time>2011-05-17T09:44:11.000Z</time>
      </trkpt>
      <trkpt lat="48.73119" lon="1.8386">
        <ele>190.39999389648</ele>
        <time>2011-05-17T09:44:19.000Z</time>
      </trkpt>
      <trkpt lat="48.73112" lon="1.83877">
        <ele>189.80000305176</ele>
        <time>2011-05-17T09:44:28.000Z</time>
      </trkpt>
      <trkpt lat="48.73105" lon="1.83888">
        <ele>189.39999389648</ele>
        <time>2011-05-17T09:44:35.000Z</time>
      </trkpt>
      <trkpt lat="48.731" lon="1.83899">
        <ele>189</ele>
        <time>2011-05-17T09:44:41.000Z</time>
      </trkpt>
      <trkpt lat="48.73095" lon="1.8391">
        <ele>188.60000610352</ele>
        <time>2011-05-17T09:44:47.000Z</time>
      </trkpt>
      <trkpt lat="48.7309" lon="1.83923">
        <ele>188.19999694824</ele>
        <time>2011-05-17T09:44:54.000Z</time>
      </trkpt>
      <trkpt lat="48.73083" lon="1.83937">
        <ele>188.19999694824</ele>
        <time>2011-05-17T09:45:02.000Z</time>
      </trkpt>
      <trkpt lat="48.73078" lon="1.83946">
        <ele>188.19999694824</ele>
        <time>2011-05-17T09:45:08.000Z</time>
      </trkpt>
      <trkpt lat="48.73074" lon="1.83957">
        <ele>188.19999694824</ele>
        <time>2011-05-17T09:45:14.000Z</time>
      </trkpt>
      <trkpt lat="48.73074" lon="1.83958">
        <ele>188.19999694824</ele>
        <time>2011-05-17T09:45:15.000Z</time>
      </trkpt>
      <trkpt lat="48.73068" lon="1.83969">
        <ele>188</ele>
        <time>2011-05-17T09:45:22.000Z</time>
      </trkpt>
      <trkpt lat="48.73065" lon="1.83978">
        <ele>188</ele>
        <time>2011-05-17T09:45:27.000Z</time>
      </trkpt>
      <trkpt lat="48.7306" lon="1.83991">
        <ele>187.80000305176</ele>
        <time>2011-05-17T09:45:34.000Z</time>
      </trkpt>
      <trkpt lat="48.73058" lon="1.83998">
        <ele>187.60000610352</ele>
        <time>2011-05-17T09:45:38.000Z</time>
      </trkpt>
      <trkpt lat="48.73056" lon="1.84003">
        <ele>187.60000610352</ele>
        <time>2011-05-17T09:45:41.000Z</time>
      </trkpt>
      <trkpt lat="48.7305" lon="1.84016">
        <ele>187.39999389648</ele>
        <time>2011-05-17T09:45:49.000Z</time>
      </trkpt>
      <trkpt lat="48.73043" lon="1.84031">
        <ele>187.19999694824</ele>
        <time>2011-05-17T09:45:58.000Z</time>
      </trkpt>
      <trkpt lat="48.73036" lon="1.84046">
        <ele>187</ele>
        <time>2011-05-17T09:46:07.000Z</time>
      </trkpt>
      <trkpt lat="48.73028" lon="1.84064">
        <ele>186.80000305176</ele>
        <time>2011-05-17T09:46:17.000Z</time>
      </trkpt>
      <trkpt lat="48.73022" lon="1.84081">
        <ele>186.60000610352</ele>
        <time>2011-05-17T09:46:26.000Z</time>
      </trkpt>
      <trkpt lat="48.73013" lon="1.84101">
        <ele>187</ele>
        <time>2011-05-17T09:46:37.000Z</time>
      </trkpt>
      <trkpt lat="48.73007" lon="1.84117">
        <ele>187.39999389648</ele>
        <time>2011-05-17T09:46:46.000Z</time>
      </trkpt>
      <trkpt lat="48.73001" lon="1.8413">
        <ele>187.60000610352</ele>
        <time>2011-05-17T09:46:54.000Z</time>
      </trkpt>
      <trkpt lat="48.72992" lon="1.84147">
        <ele>188</ele>
        <time>2011-05-17T09:47:04.000Z</time>
      </trkpt>
      <trkpt lat="48.72982" lon="1.84167">
        <ele>188</ele>
        <time>2011-05-17T09:47:16.000Z</time>
      </trkpt>
      <trkpt lat="48.72977" lon="1.84182">
        <ele>187.80000305176</ele>
        <time>2011-05-17T09:47:24.000Z</time>
      </trkpt>
      <trkpt lat="48.72973" lon="1.84195">
        <ele>187.80000305176</ele>
        <time>2011-05-17T09:47:31.000Z</time>
      </trkpt>
      <trkpt lat="48.72966" lon="1.8421">
        <ele>187.39999389648</ele>
        <time>2011-05-17T09:47:40.000Z</time>
      </trkpt>
      <trkpt lat="48.72959" lon="1.84225">
        <ele>187.19999694824</ele>
        <time>2011-05-17T09:47:49.000Z</time>
      </trkpt>
      <trkpt lat="48.72954" lon="1.84237">
        <ele>187.19999694824</ele>
        <time>2011-05-17T09:47:56.000Z</time>
      </trkpt>
      <trkpt lat="48.72947" lon="1.84252">
        <ele>187</ele>
        <time>2011-05-17T09:48:05.000Z</time>
      </trkpt>
      <trkpt lat="48.72942" lon="1.84262">
        <ele>187</ele>
        <time>2011-05-17T09:48:11.000Z</time>
      </trkpt>
      <trkpt lat="48.72938" lon="1.84274">
        <ele>187</ele>
        <time>2011-05-17T09:48:18.000Z</time>
      </trkpt>
      <trkpt lat="48.72936" lon="1.84279">
        <ele>187</ele>
        <time>2011-05-17T09:48:22.000Z</time>
      </trkpt>
      <trkpt lat="48.72931" lon="1.84289">
        <ele>186.80000305176</ele>
        <time>2011-05-17T09:48:28.000Z</time>
      </trkpt>
      <trkpt lat="48.72927" lon="1.84295">
        <ele>186.80000305176</ele>
        <time>2011-05-17T09:48:32.000Z</time>
      </trkpt>
      <trkpt lat="48.7292" lon="1.8431">
        <ele>186.80000305176</ele>
        <time>2011-05-17T09:48:42.000Z</time>
      </trkpt>
      <trkpt lat="48.72914" lon="1.84323">
        <ele>186.60000610352</ele>
        <time>2011-05-17T09:48:50.000Z</time>
      </trkpt>
      <trkpt lat="48.72908" lon="1.84337">
        <ele>186.60000610352</ele>
        <time>2011-05-17T09:48:58.000Z</time>
      </trkpt>
      <trkpt lat="48.72901" lon="1.84355">
        <ele>186.80000305176</ele>
        <time>2011-05-17T09:49:08.000Z</time>
      </trkpt>
      <trkpt lat="48.72893" lon="1.84373">
        <ele>186.80000305176</ele>
        <time>2011-05-17T09:49:19.000Z</time>
      </trkpt>
      <trkpt lat="48.72885" lon="1.84391">
        <ele>187</ele>
        <time>2011-05-17T09:49:29.000Z</time>
      </trkpt>
      <trkpt lat="48.7288" lon="1.84402">
        <ele>187.19999694824</ele>
        <time>2011-05-17T09:49:36.000Z</time>
      </trkpt>
      <trkpt lat="48.72873" lon="1.84419">
        <ele>187.39999389648</ele>
        <time>2011-05-17T09:49:46.000Z</time>
      </trkpt>
      <trkpt lat="48.72868" lon="1.84432">
        <ele>187.19999694824</ele>
        <time>2011-05-17T09:49:53.000Z</time>
      </trkpt>
      <trkpt lat="48.72862" lon="1.84444">
        <ele>187</ele>
        <time>2011-05-17T09:50:01.000Z</time>
      </trkpt>
      <trkpt lat="48.72858" lon="1.84455">
        <ele>187</ele>
        <time>2011-05-17T09:50:08.000Z</time>
      </trkpt>
      <trkpt lat="48.72851" lon="1.84474">
        <ele>186.60000610352</ele>
        <time>2011-05-17T09:50:18.000Z</time>
      </trkpt>
      <trkpt lat="48.72844" lon="1.84487">
        <ele>186.39999389648</ele>
        <time>2011-05-17T09:50:26.000Z</time>
      </trkpt>
      <trkpt lat="48.7284" lon="1.84497">
        <ele>186.19999694824</ele>
        <time>2011-05-17T09:50:32.000Z</time>
      </trkpt>
      <trkpt lat="48.72834" lon="1.84512">
        <ele>186</ele>
        <time>2011-05-17T09:50:40.000Z</time>
      </trkpt>
      <trkpt lat="48.72826" lon="1.84531">
        <ele>185.80000305176</ele>
        <time>2011-05-17T09:50:50.000Z</time>
      </trkpt>
      <trkpt lat="48.7282" lon="1.84547">
        <ele>186</ele>
        <time>2011-05-17T09:50:59.000Z</time>
      </trkpt>
      <trkpt lat="48.72813" lon="1.84563">
        <ele>186</ele>
        <time>2011-05-17T09:51:08.000Z</time>
      </trkpt>
      <trkpt lat="48.72807" lon="1.84577">
        <ele>186.19999694824</ele>
        <time>2011-05-17T09:51:16.000Z</time>
      </trkpt>
      <trkpt lat="48.72806" lon="1.84579">
        <ele>186.19999694824</ele>
        <time>2011-05-17T09:51:17.000Z</time>
      </trkpt>
      <trkpt lat="48.728" lon="1.84594">
        <ele>186.39999389648</ele>
        <time>2011-05-17T09:51:26.000Z</time>
      </trkpt>
      <trkpt lat="48.72798" lon="1.84599">
        <ele>186.60000610352</ele>
        <time>2011-05-17T09:51:29.000Z</time>
      </trkpt>
      <trkpt lat="48.72793" lon="1.84611">
        <ele>186.80000305176</ele>
        <time>2011-05-17T09:51:36.000Z</time>
      </trkpt>
      <trkpt lat="48.72785" lon="1.84627">
        <ele>187</ele>
        <time>2011-05-17T09:51:45.000Z</time>
      </trkpt>
      <trkpt lat="48.72782" lon="1.84639">
        <ele>187.19999694824</ele>
        <time>2011-05-17T09:51:52.000Z</time>
      </trkpt>
      <trkpt lat="48.72782" lon="1.84641">
        <ele>187.19999694824</ele>
        <time>2011-05-17T09:51:53.000Z</time>
      </trkpt>
      <trkpt lat="48.72786" lon="1.84649">
        <ele>187.19999694824</ele>
        <time>2011-05-17T09:51:58.000Z</time>
      </trkpt>
      <trkpt lat="48.72791" lon="1.84656">
        <ele>187.19999694824</ele>
        <time>2011-05-17T09:52:03.000Z</time>
      </trkpt>
      <trkpt lat="48.72801" lon="1.84671">
        <ele>187</ele>
        <time>2011-05-17T09:52:13.000Z</time>
      </trkpt>
      <trkpt lat="48.72813" lon="1.84686">
        <ele>186.39999389648</ele>
        <time>2011-05-17T09:52:23.000Z</time>
      </trkpt>
      <trkpt lat="48.72822" lon="1.84697">
        <ele>185.80000305176</ele>
        <time>2011-05-17T09:52:31.000Z</time>
      </trkpt>
      <trkpt lat="48.72832" lon="1.8471">
        <ele>185.39999389648</ele>
        <time>2011-05-17T09:52:40.000Z</time>
      </trkpt>
      <trkpt lat="48.7284" lon="1.8472">
        <ele>185.19999694824</ele>
        <time>2011-05-17T09:52:47.000Z</time>
      </trkpt>
      <trkpt lat="48.72849" lon="1.8473">
        <ele>185</ele>
        <time>2011-05-17T09:52:54.000Z</time>
      </trkpt>
      <trkpt lat="48.72857" lon="1.8474">
        <ele>184.80000305176</ele>
        <time>2011-05-17T09:53:01.000Z</time>
      </trkpt>
      <trkpt lat="48.72867" lon="1.84753">
        <ele>184.60000610352</ele>
        <time>2011-05-17T09:53:09.000Z</time>
      </trkpt>
      <trkpt lat="48.72868" lon="1.84754">
        <ele>184.60000610352</ele>
        <time>2011-05-17T09:53:10.000Z</time>
      </trkpt>
      <trkpt lat="48.72873" lon="1.8476">
        <ele>184.60000610352</ele>
        <time>2011-05-17T09:53:14.000Z</time>
      </trkpt>
      <trkpt lat="48.72884" lon="1.84773">
        <ele>184.39999389648</ele>
        <time>2011-05-17T09:53:22.000Z</time>
      </trkpt>
      <trkpt lat="48.72893" lon="1.84785">
        <ele>184.39999389648</ele>
        <time>2011-05-17T09:53:30.000Z</time>
      </trkpt>
      <trkpt lat="48.72898" lon="1.84791">
        <ele>184.39999389648</ele>
        <time>2011-05-17T09:53:34.000Z</time>
      </trkpt>
      <trkpt lat="48.72907" lon="1.84803">
        <ele>184.39999389648</ele>
        <time>2011-05-17T09:53:40.000Z</time>
      </trkpt>
      <trkpt lat="48.72917" lon="1.84816">
        <ele>184.39999389648</ele>
        <time>2011-05-17T09:53:49.000Z</time>
      </trkpt>
      <trkpt lat="48.72925" lon="1.84826">
        <ele>184.39999389648</ele>
        <time>2011-05-17T09:53:56.000Z</time>
      </trkpt>
      <trkpt lat="48.7293" lon="1.84837">
        <ele>184.39999389648</ele>
        <time>2011-05-17T09:54:03.000Z</time>
      </trkpt>
      <trkpt lat="48.7294" lon="1.84851">
        <ele>184.60000610352</ele>
        <time>2011-05-17T09:54:13.000Z</time>
      </trkpt>
      <trkpt lat="48.72949" lon="1.84863">
        <ele>184.80000305176</ele>
        <time>2011-05-17T09:54:21.000Z</time>
      </trkpt>
      <trkpt lat="48.72959" lon="1.84878">
        <ele>184.80000305176</ele>
        <time>2011-05-17T09:54:31.000Z</time>
      </trkpt>
      <trkpt lat="48.7296" lon="1.8488">
        <ele>184.80000305176</ele>
        <time>2011-05-17T09:54:32.000Z</time>
      </trkpt>
      <trkpt lat="48.7297" lon="1.84889">
        <ele>185.19999694824</ele>
        <time>2011-05-17T09:54:40.000Z</time>
      </trkpt>
      <trkpt lat="48.72976" lon="1.84897">
        <ele>185.19999694824</ele>
        <time>2011-05-17T09:54:46.000Z</time>
      </trkpt>
      <trkpt lat="48.72986" lon="1.84907">
        <ele>185.39999389648</ele>
        <time>2011-05-17T09:54:54.000Z</time>
      </trkpt>
      <trkpt lat="48.72997" lon="1.84922">
        <ele>185.39999389648</ele>
        <time>2011-05-17T09:55:04.000Z</time>
      </trkpt>
      <trkpt lat="48.73005" lon="1.84932">
        <ele>185.19999694824</ele>
        <time>2011-05-17T09:55:11.000Z</time>
      </trkpt>
      <trkpt lat="48.73012" lon="1.84941">
        <ele>184.80000305176</ele>
        <time>2011-05-17T09:55:18.000Z</time>
      </trkpt>
      <trkpt lat="48.73021" lon="1.84946">
        <ele>184.60000610352</ele>
        <time>2011-05-17T09:55:26.000Z</time>
      </trkpt>
      <trkpt lat="48.73024" lon="1.84947">
        <ele>184.60000610352</ele>
        <time>2011-05-17T09:55:28.000Z</time>
      </trkpt>
      <trkpt lat="48.73025" lon="1.84947">
        <ele>184.60000610352</ele>
        <time>2011-05-17T09:55:31.000Z</time>
      </trkpt>
      <trkpt lat="48.73031" lon="1.84947">
        <ele>184.60000610352</ele>
        <time>2011-05-17T09:55:39.000Z</time>
      </trkpt>
      <trkpt lat="48.73036" lon="1.84938">
        <ele>184.80000305176</ele>
        <time>2011-05-17T09:55:44.000Z</time>
      </trkpt>
      <trkpt lat="48.73038" lon="1.84933">
        <ele>185</ele>
        <time>2011-05-17T09:55:47.000Z</time>
      </trkpt>
      <trkpt lat="48.73042" lon="1.8492">
        <ele>185.39999389648</ele>
        <time>2011-05-17T09:55:55.000Z</time>
      </trkpt>
      <trkpt lat="48.73042" lon="1.8492">
        <ele>185.39999389648</ele>
        <time>2011-05-17T09:55:56.000Z</time>
      </trkpt>
      <trkpt lat="48.7304" lon="1.84931">
        <ele>185</ele>
        <time>2011-05-17T09:56:17.000Z</time>
      </trkpt>
      <trkpt lat="48.73034" lon="1.8495">
        <ele>184.60000610352</ele>
        <time>2011-05-17T09:56:26.000Z</time>
      </trkpt>
      <trkpt lat="48.73034" lon="1.84963">
        <ele>184.19999694824</ele>
        <time>2011-05-17T09:56:34.000Z</time>
      </trkpt>
      <trkpt lat="48.73034" lon="1.84963">
        <ele>184.19999694824</ele>
        <time>2011-05-17T09:56:35.000Z</time>
      </trkpt>
      <trkpt lat="48.73038" lon="1.84973">
        <ele>184</ele>
        <time>2011-05-17T09:56:46.000Z</time>
      </trkpt>
      <trkpt lat="48.73047" lon="1.84985">
        <ele>184</ele>
        <time>2011-05-17T09:56:54.000Z</time>
      </trkpt>
      <trkpt lat="48.73053" lon="1.84993">
        <ele>184</ele>
        <time>2011-05-17T09:57:00.000Z</time>
      </trkpt>
      <trkpt lat="48.7306" lon="1.85002">
        <ele>184</ele>
        <time>2011-05-17T09:57:07.000Z</time>
      </trkpt>
      <trkpt lat="48.73067" lon="1.85011">
        <ele>184.19999694824</ele>
        <time>2011-05-17T09:57:14.000Z</time>
      </trkpt>
      <trkpt lat="48.73074" lon="1.85021">
        <ele>184.19999694824</ele>
        <time>2011-05-17T09:57:20.000Z</time>
      </trkpt>
      <trkpt lat="48.73081" lon="1.85029">
        <ele>184.39999389648</ele>
        <time>2011-05-17T09:57:27.000Z</time>
      </trkpt>
      <trkpt lat="48.73087" lon="1.85037">
        <ele>184.19999694824</ele>
        <time>2011-05-17T09:57:33.000Z</time>
      </trkpt>
      <trkpt lat="48.73088" lon="1.85038">
        <ele>184.19999694824</ele>
        <time>2011-05-17T09:57:34.000Z</time>
      </trkpt>
      <trkpt lat="48.73091" lon="1.85044">
        <ele>183.80000305176</ele>
        <time>2011-05-17T09:57:38.000Z</time>
      </trkpt>
      <trkpt lat="48.73099" lon="1.85053">
        <ele>183</ele>
        <time>2011-05-17T09:57:45.000Z</time>
      </trkpt>
      <trkpt lat="48.73108" lon="1.85062">
        <ele>182.19999694824</ele>
        <time>2011-05-17T09:57:51.000Z</time>
      </trkpt>
      <trkpt lat="48.73117" lon="1.85075">
        <ele>181.19999694824</ele>
        <time>2011-05-17T09:57:58.000Z</time>
      </trkpt>
      <trkpt lat="48.73123" lon="1.85085">
        <ele>180.39999389648</ele>
        <time>2011-05-17T09:58:04.000Z</time>
      </trkpt>
      <trkpt lat="48.73129" lon="1.85096">
        <ele>179.60000610352</ele>
        <time>2011-05-17T09:58:10.000Z</time>
      </trkpt>
      <trkpt lat="48.73138" lon="1.85105">
        <ele>178.60000610352</ele>
        <time>2011-05-17T09:58:16.000Z</time>
      </trkpt>
      <trkpt lat="48.73145" lon="1.85114">
        <ele>177.80000305176</ele>
        <time>2011-05-17T09:58:22.000Z</time>
      </trkpt>
      <trkpt lat="48.73153" lon="1.85127">
        <ele>177.19999694824</ele>
        <time>2011-05-17T09:58:29.000Z</time>
      </trkpt>
      <trkpt lat="48.73159" lon="1.85135">
        <ele>176.60000610352</ele>
        <time>2011-05-17T09:58:36.000Z</time>
      </trkpt>
      <trkpt lat="48.73162" lon="1.85137">
        <ele>176.39999389648</ele>
        <time>2011-05-17T09:58:39.000Z</time>
      </trkpt>
      <trkpt lat="48.73168" lon="1.85136">
        <ele>176.19999694824</ele>
        <time>2011-05-17T09:58:51.000Z</time>
      </trkpt>
      <trkpt lat="48.73172" lon="1.85141">
        <ele>175.60000610352</ele>
        <time>2011-05-17T09:58:58.000Z</time>
      </trkpt>
      <trkpt lat="48.73179" lon="1.85151">
        <ele>174.80000305176</ele>
        <time>2011-05-17T09:59:04.000Z</time>
      </trkpt>
      <trkpt lat="48.73181" lon="1.85153">
        <ele>174.60000610352</ele>
        <time>2011-05-17T09:59:08.000Z</time>
      </trkpt>
      <trkpt lat="48.73183" lon="1.85158">
        <ele>174.39999389648</ele>
        <time>2011-05-17T09:59:18.000Z</time>
      </trkpt>
      <trkpt lat="48.73185" lon="1.85164">
        <ele>174.19999694824</ele>
        <time>2011-05-17T09:59:22.000Z</time>
      </trkpt>
      <trkpt lat="48.73195" lon="1.85175">
        <ele>172.60000610352</ele>
        <time>2011-05-17T09:59:30.000Z</time>
      </trkpt>
      <trkpt lat="48.73203" lon="1.85186">
        <ele>171.39999389648</ele>
        <time>2011-05-17T09:59:36.000Z</time>
      </trkpt>
      <trkpt lat="48.73211" lon="1.85194">
        <ele>170.60000610352</ele>
        <time>2011-05-17T09:59:41.000Z</time>
      </trkpt>
      <trkpt lat="48.73214" lon="1.852">
        <ele>170.19999694824</ele>
        <time>2011-05-17T09:59:44.000Z</time>
      </trkpt>
      <trkpt lat="48.7322" lon="1.8521">
        <ele>169.39999389648</ele>
        <time>2011-05-17T09:59:49.000Z</time>
      </trkpt>
      <trkpt lat="48.73222" lon="1.85212">
        <ele>169.39999389648</ele>
        <time>2011-05-17T09:59:50.000Z</time>
      </trkpt>
      <trkpt lat="48.73227" lon="1.85219">
        <ele>168.80000305176</ele>
        <time>2011-05-17T09:59:54.000Z</time>
      </trkpt>
      <trkpt lat="48.73236" lon="1.85234">
        <ele>168.19999694824</ele>
        <time>2011-05-17T10:00:02.000Z</time>
      </trkpt>
      <trkpt lat="48.73246" lon="1.85248">
        <ele>168</ele>
        <time>2011-05-17T10:00:10.000Z</time>
      </trkpt>
      <trkpt lat="48.73253" lon="1.85259">
        <ele>168.19999694824</ele>
        <time>2011-05-17T10:00:16.000Z</time>
      </trkpt>
      <trkpt lat="48.73254" lon="1.8526">
        <ele>168.19999694824</ele>
        <time>2011-05-17T10:00:17.000Z</time>
      </trkpt>
      <trkpt lat="48.73262" lon="1.85269">
        <ele>168.39999389648</ele>
        <time>2011-05-17T10:00:23.000Z</time>
      </trkpt>
      <trkpt lat="48.73272" lon="1.85281">
        <ele>169</ele>
        <time>2011-05-17T10:00:28.000Z</time>
      </trkpt>
      <trkpt lat="48.73283" lon="1.85296">
        <ele>170</ele>
        <time>2011-05-17T10:00:33.000Z</time>
      </trkpt>
      <trkpt lat="48.73292" lon="1.85304">
        <ele>170.80000305176</ele>
        <time>2011-05-17T10:00:39.000Z</time>
      </trkpt>
      <trkpt lat="48.73297" lon="1.85309">
        <ele>171.19999694824</ele>
        <time>2011-05-17T10:00:44.000Z</time>
      </trkpt>
      <trkpt lat="48.73299" lon="1.85311">
        <ele>171.39999389648</ele>
        <time>2011-05-17T10:00:45.000Z</time>
      </trkpt>
      <trkpt lat="48.73303" lon="1.85316">
        <ele>172</ele>
        <time>2011-05-17T10:00:49.000Z</time>
      </trkpt>
      <trkpt lat="48.73308" lon="1.85323">
        <ele>172.80000305176</ele>
        <time>2011-05-17T10:00:54.000Z</time>
      </trkpt>
      <trkpt lat="48.73313" lon="1.85333">
        <ele>173.80000305176</ele>
        <time>2011-05-17T10:00:59.000Z</time>
      </trkpt>
      <trkpt lat="48.73319" lon="1.85343">
        <ele>175</ele>
        <time>2011-05-17T10:01:07.000Z</time>
      </trkpt>
      <trkpt lat="48.73326" lon="1.85351">
        <ele>175.80000305176</ele>
        <time>2011-05-17T10:01:13.000Z</time>
      </trkpt>
      <trkpt lat="48.73331" lon="1.8536">
        <ele>176.80000305176</ele>
        <time>2011-05-17T10:01:19.000Z</time>
      </trkpt>
      <trkpt lat="48.73336" lon="1.85364">
        <ele>177.19999694824</ele>
        <time>2011-05-17T10:01:24.000Z</time>
      </trkpt>
      <trkpt lat="48.73339" lon="1.85366">
        <ele>177.39999389648</ele>
        <time>2011-05-17T10:01:29.000Z</time>
      </trkpt>
      <trkpt lat="48.73344" lon="1.85367">
        <ele>177.60000610352</ele>
        <time>2011-05-17T10:01:37.000Z</time>
      </trkpt>
      <trkpt lat="48.73344" lon="1.85367">
        <ele>177.80000305176</ele>
        <time>2011-05-17T10:01:39.000Z</time>
      </trkpt>
      <trkpt lat="48.73352" lon="1.85383">
        <ele>179</ele>
        <time>2011-05-17T10:02:00.000Z</time>
      </trkpt>
      <trkpt lat="48.73356" lon="1.85389">
        <ele>179.39999389648</ele>
        <time>2011-05-17T10:02:05.000Z</time>
      </trkpt>
      <trkpt lat="48.73362" lon="1.85398">
        <ele>180.19999694824</ele>
        <time>2011-05-17T10:02:11.000Z</time>
      </trkpt>
      <trkpt lat="48.73363" lon="1.85401">
        <ele>180.39999389648</ele>
        <time>2011-05-17T10:02:13.000Z</time>
      </trkpt>
      <trkpt lat="48.73368" lon="1.85409">
        <ele>180.80000305176</ele>
        <time>2011-05-17T10:02:18.000Z</time>
      </trkpt>
      <trkpt lat="48.73373" lon="1.85413">
        <ele>181.19999694824</ele>
        <time>2011-05-17T10:02:22.000Z</time>
      </trkpt>
      <trkpt lat="48.73381" lon="1.85419">
        <ele>181.60000610352</ele>
        <time>2011-05-17T10:02:30.000Z</time>
      </trkpt>
      <trkpt lat="48.73386" lon="1.8543">
        <ele>181.80000305176</ele>
        <time>2011-05-17T10:02:36.000Z</time>
      </trkpt>
      <trkpt lat="48.73393" lon="1.85437">
        <ele>182</ele>
        <time>2011-05-17T10:02:42.000Z</time>
      </trkpt>
      <trkpt lat="48.73399" lon="1.85446">
        <ele>182.19999694824</ele>
        <time>2011-05-17T10:02:49.000Z</time>
      </trkpt>
      <trkpt lat="48.73404" lon="1.85457">
        <ele>182.39999389648</ele>
        <time>2011-05-17T10:02:55.000Z</time>
      </trkpt>
      <trkpt lat="48.73413" lon="1.85469">
        <ele>182.60000610352</ele>
        <time>2011-05-17T10:03:03.000Z</time>
      </trkpt>
      <trkpt lat="48.7342" lon="1.85473">
        <ele>182.60000610352</ele>
        <time>2011-05-17T10:03:09.000Z</time>
      </trkpt>
      <trkpt lat="48.73427" lon="1.85481">
        <ele>182.80000305176</ele>
        <time>2011-05-17T10:03:14.000Z</time>
      </trkpt>
      <trkpt lat="48.73431" lon="1.85488">
        <ele>183</ele>
        <time>2011-05-17T10:03:18.000Z</time>
      </trkpt>
      <trkpt lat="48.73439" lon="1.85502">
        <ele>183.19999694824</ele>
        <time>2011-05-17T10:03:25.000Z</time>
      </trkpt>
      <trkpt lat="48.73441" lon="1.85503">
        <ele>183.19999694824</ele>
        <time>2011-05-17T10:03:26.000Z</time>
      </trkpt>
      <trkpt lat="48.73448" lon="1.85515">
        <ele>183.60000610352</ele>
        <time>2011-05-17T10:03:33.000Z</time>
      </trkpt>
      <trkpt lat="48.73451" lon="1.85518">
        <ele>183.60000610352</ele>
        <time>2011-05-17T10:03:35.000Z</time>
      </trkpt>
      <trkpt lat="48.73462" lon="1.85528">
        <ele>184</ele>
        <time>2011-05-17T10:03:43.000Z</time>
      </trkpt>
      <trkpt lat="48.7347" lon="1.85534">
        <ele>184</ele>
        <time>2011-05-17T10:03:48.000Z</time>
      </trkpt>
      <trkpt lat="48.73477" lon="1.85544">
        <ele>184.19999694824</ele>
        <time>2011-05-17T10:03:54.000Z</time>
      </trkpt>
      <trkpt lat="48.73485" lon="1.8555">
        <ele>184.39999389648</ele>
        <time>2011-05-17T10:04:00.000Z</time>
      </trkpt>
      <trkpt lat="48.7349" lon="1.85554">
        <ele>184.60000610352</ele>
        <time>2011-05-17T10:04:04.000Z</time>
      </trkpt>
      <trkpt lat="48.73497" lon="1.85565">
        <ele>184.60000610352</ele>
        <time>2011-05-17T10:04:10.000Z</time>
      </trkpt>
      <trkpt lat="48.735" lon="1.85573">
        <ele>184.80000305176</ele>
        <time>2011-05-17T10:04:14.000Z</time>
      </trkpt>
      <trkpt lat="48.73502" lon="1.85581">
        <ele>184.80000305176</ele>
        <time>2011-05-17T10:04:18.000Z</time>
      </trkpt>
      <trkpt lat="48.73506" lon="1.85591">
        <ele>184.80000305176</ele>
        <time>2011-05-17T10:04:23.000Z</time>
      </trkpt>
      <trkpt lat="48.7351" lon="1.85605">
        <ele>184.80000305176</ele>
        <time>2011-05-17T10:04:30.000Z</time>
      </trkpt>
      <trkpt lat="48.73512" lon="1.85612">
        <ele>184.80000305176</ele>
        <time>2011-05-17T10:04:33.000Z</time>
      </trkpt>
      <trkpt lat="48.73516" lon="1.85633">
        <ele>184.80000305176</ele>
        <time>2011-05-17T10:04:41.000Z</time>
      </trkpt>
      <trkpt lat="48.73516" lon="1.85635">
        <ele>184.80000305176</ele>
        <time>2011-05-17T10:04:42.000Z</time>
      </trkpt>
      <trkpt lat="48.73516" lon="1.85657">
        <ele>184.80000305176</ele>
        <time>2011-05-17T10:04:51.000Z</time>
      </trkpt>
      <trkpt lat="48.73519" lon="1.85669">
        <ele>184.60000610352</ele>
        <time>2011-05-17T10:04:56.000Z</time>
      </trkpt>
      <trkpt lat="48.73521" lon="1.85685">
        <ele>184.39999389648</ele>
        <time>2011-05-17T10:05:03.000Z</time>
      </trkpt>
      <trkpt lat="48.73523" lon="1.85697">
        <ele>184.19999694824</ele>
        <time>2011-05-17T10:05:09.000Z</time>
      </trkpt>
      <trkpt lat="48.73523" lon="1.85701">
        <ele>184</ele>
        <time>2011-05-17T10:05:11.000Z</time>
      </trkpt>
      <trkpt lat="48.73528" lon="1.85715">
        <ele>183.80000305176</ele>
        <time>2011-05-17T10:05:17.000Z</time>
      </trkpt>
      <trkpt lat="48.73531" lon="1.8573">
        <ele>183.39999389648</ele>
        <time>2011-05-17T10:05:24.000Z</time>
      </trkpt>
      <trkpt lat="48.73532" lon="1.85741">
        <ele>183.19999694824</ele>
        <time>2011-05-17T10:05:29.000Z</time>
      </trkpt>
      <trkpt lat="48.73535" lon="1.85754">
        <ele>183</ele>
        <time>2011-05-17T10:05:36.000Z</time>
      </trkpt>
      <trkpt lat="48.73535" lon="1.85756">
        <ele>183</ele>
        <time>2011-05-17T10:05:37.000Z</time>
      </trkpt>
      <trkpt lat="48.73537" lon="1.85768">
        <ele>182.60000610352</ele>
        <time>2011-05-17T10:05:42.000Z</time>
      </trkpt>
      <trkpt lat="48.73541" lon="1.85785">
        <ele>182.19999694824</ele>
        <time>2011-05-17T10:05:49.000Z</time>
      </trkpt>
      <trkpt lat="48.73544" lon="1.858">
        <ele>182</ele>
        <time>2011-05-17T10:05:55.000Z</time>
      </trkpt>
      <trkpt lat="48.73545" lon="1.85805">
        <ele>181.80000305176</ele>
        <time>2011-05-17T10:05:57.000Z</time>
      </trkpt>
      <trkpt lat="48.73546" lon="1.85818">
        <ele>181.60000610352</ele>
        <time>2011-05-17T10:06:03.000Z</time>
      </trkpt>
      <trkpt lat="48.73547" lon="1.85824">
        <ele>181.39999389648</ele>
        <time>2011-05-17T10:06:06.000Z</time>
      </trkpt>
      <trkpt lat="48.73548" lon="1.8584">
        <ele>180.80000305176</ele>
        <time>2011-05-17T10:06:13.000Z</time>
      </trkpt>
      <trkpt lat="48.7355" lon="1.85853">
        <ele>180.19999694824</ele>
        <time>2011-05-17T10:06:19.000Z</time>
      </trkpt>
      <trkpt lat="48.73552" lon="1.85868">
        <ele>179.39999389648</ele>
        <time>2011-05-17T10:06:25.000Z</time>
      </trkpt>
      <trkpt lat="48.73555" lon="1.85886">
        <ele>178.60000610352</ele>
        <time>2011-05-17T10:06:32.000Z</time>
      </trkpt>
      <trkpt lat="48.73557" lon="1.85902">
        <ele>177.80000305176</ele>
        <time>2011-05-17T10:06:39.000Z</time>
      </trkpt>
      <trkpt lat="48.7356" lon="1.8591">
        <ele>177.39999389648</ele>
        <time>2011-05-17T10:06:44.000Z</time>
      </trkpt>
      <trkpt lat="48.73561" lon="1.85915">
        <ele>177</ele>
        <time>2011-05-17T10:06:47.000Z</time>
      </trkpt>
      <trkpt lat="48.73565" lon="1.85928">
        <ele>176.19999694824</ele>
        <time>2011-05-17T10:06:53.000Z</time>
      </trkpt>
      <trkpt lat="48.73566" lon="1.85938">
        <ele>175.39999389648</ele>
        <time>2011-05-17T10:06:57.000Z</time>
      </trkpt>
      <trkpt lat="48.73572" lon="1.85954">
        <ele>174.19999694824</ele>
        <time>2011-05-17T10:07:04.000Z</time>
      </trkpt>
      <trkpt lat="48.73573" lon="1.8596">
        <ele>173.80000305176</ele>
        <time>2011-05-17T10:07:06.000Z</time>
      </trkpt>
      <trkpt lat="48.73579" lon="1.85963">
        <ele>173.39999389648</ele>
        <time>2011-05-17T10:07:11.000Z</time>
      </trkpt>
      <trkpt lat="48.73585" lon="1.8596">
        <ele>173.19999694824</ele>
        <time>2011-05-17T10:07:15.000Z</time>
      </trkpt>
      <trkpt lat="48.73593" lon="1.8595">
        <ele>173.39999389648</ele>
        <time>2011-05-17T10:07:21.000Z</time>
      </trkpt>
      <trkpt lat="48.736" lon="1.85941">
        <ele>173.60000610352</ele>
        <time>2011-05-17T10:07:27.000Z</time>
      </trkpt>
      <trkpt lat="48.73605" lon="1.85932">
        <ele>173.60000610352</ele>
        <time>2011-05-17T10:07:31.000Z</time>
      </trkpt>
      <trkpt lat="48.73618" lon="1.8592">
        <ele>172.80000305176</ele>
        <time>2011-05-17T10:07:38.000Z</time>
      </trkpt>
      <trkpt lat="48.73631" lon="1.85917">
        <ele>172</ele>
        <time>2011-05-17T10:07:43.000Z</time>
      </trkpt>
      <trkpt lat="48.73643" lon="1.8591">
        <ele>171</ele>
        <time>2011-05-17T10:07:48.000Z</time>
      </trkpt>
      <trkpt lat="48.73656" lon="1.85902">
        <ele>170.19999694824</ele>
        <time>2011-05-17T10:07:53.000Z</time>
      </trkpt>
      <trkpt lat="48.7366" lon="1.859">
        <ele>169.80000305176</ele>
        <time>2011-05-17T10:07:56.000Z</time>
      </trkpt>
      <trkpt lat="48.73667" lon="1.85898">
        <ele>169.39999389648</ele>
        <time>2011-05-17T10:08:01.000Z</time>
      </trkpt>
      <trkpt lat="48.73673" lon="1.85899">
        <ele>169.19999694824</ele>
        <time>2011-05-17T10:08:12.000Z</time>
      </trkpt>
      <trkpt lat="48.73683" lon="1.85896">
        <ele>169.19999694824</ele>
        <time>2011-05-17T10:08:19.000Z</time>
      </trkpt>
      <trkpt lat="48.73688" lon="1.85891">
        <ele>169.19999694824</ele>
        <time>2011-05-17T10:08:24.000Z</time>
      </trkpt>
      <trkpt lat="48.73698" lon="1.85882">
        <ele>169</ele>
        <time>2011-05-17T10:08:30.000Z</time>
      </trkpt>
      <trkpt lat="48.73702" lon="1.85881">
        <ele>168.80000305176</ele>
        <time>2011-05-17T10:08:33.000Z</time>
      </trkpt>
      <trkpt lat="48.73713" lon="1.8587">
        <ele>168.39999389648</ele>
        <time>2011-05-17T10:08:40.000Z</time>
      </trkpt>
      <trkpt lat="48.73721" lon="1.85865">
        <ele>168.19999694824</ele>
        <time>2011-05-17T10:08:45.000Z</time>
      </trkpt>
      <trkpt lat="48.73732" lon="1.85859">
        <ele>167.60000610352</ele>
        <time>2011-05-17T10:08:52.000Z</time>
      </trkpt>
      <trkpt lat="48.73741" lon="1.85852">
        <ele>167</ele>
        <time>2011-05-17T10:08:58.000Z</time>
      </trkpt>
      <trkpt lat="48.7375" lon="1.85841">
        <ele>166.19999694824</ele>
        <time>2011-05-17T10:09:05.000Z</time>
      </trkpt>
      <trkpt lat="48.73751" lon="1.8584">
        <ele>166</ele>
        <time>2011-05-17T10:09:06.000Z</time>
      </trkpt>
      <trkpt lat="48.73756" lon="1.85832">
        <ele>165.39999389648</ele>
        <time>2011-05-17T10:09:11.000Z</time>
      </trkpt>
      <trkpt lat="48.7376" lon="1.85821">
        <ele>164.80000305176</ele>
        <time>2011-05-17T10:09:16.000Z</time>
      </trkpt>
      <trkpt lat="48.73767" lon="1.85812">
        <ele>164.19999694824</ele>
        <time>2011-05-17T10:09:21.000Z</time>
      </trkpt>
      <trkpt lat="48.73777" lon="1.85802">
        <ele>163.19999694824</ele>
        <time>2011-05-17T10:09:27.000Z</time>
      </trkpt>
      <trkpt lat="48.73785" lon="1.85795">
        <ele>162.39999389648</ele>
        <time>2011-05-17T10:09:33.000Z</time>
      </trkpt>
      <trkpt lat="48.7379" lon="1.85788">
        <ele>162</ele>
        <time>2011-05-17T10:09:38.000Z</time>
      </trkpt>
      <trkpt lat="48.73796" lon="1.8578">
        <ele>161.39999389648</ele>
        <time>2011-05-17T10:09:43.000Z</time>
      </trkpt>
      <trkpt lat="48.73805" lon="1.85764">
        <ele>160.19999694824</ele>
        <time>2011-05-17T10:09:51.000Z</time>
      </trkpt>
      <trkpt lat="48.73815" lon="1.85749">
        <ele>159.19999694824</ele>
        <time>2011-05-17T10:09:59.000Z</time>
      </trkpt>
      <trkpt lat="48.73824" lon="1.85736">
        <ele>158.19999694824</ele>
        <time>2011-05-17T10:10:06.000Z</time>
      </trkpt>
      <trkpt lat="48.73831" lon="1.85726">
        <ele>157.39999389648</ele>
        <time>2011-05-17T10:10:12.000Z</time>
      </trkpt>
      <trkpt lat="48.73838" lon="1.85718">
        <ele>156.39999389648</ele>
        <time>2011-05-17T10:10:17.000Z</time>
      </trkpt>
      <trkpt lat="48.73845" lon="1.85707">
        <ele>155.39999389648</ele>
        <time>2011-05-17T10:10:23.000Z</time>
      </trkpt>
      <trkpt lat="48.73852" lon="1.85696">
        <ele>154.39999389648</ele>
        <time>2011-05-17T10:10:29.000Z</time>
      </trkpt>
      <trkpt lat="48.73854" lon="1.85694">
        <ele>154.19999694824</ele>
        <time>2011-05-17T10:10:30.000Z</time>
      </trkpt>
      <trkpt lat="48.73857" lon="1.85688">
        <ele>153.60000610352</ele>
        <time>2011-05-17T10:10:35.000Z</time>
      </trkpt>
      <trkpt lat="48.73856" lon="1.85687">
        <ele>153.60000610352</ele>
        <time>2011-05-17T10:10:37.000Z</time>
      </trkpt>
      <trkpt lat="48.73856" lon="1.85685">
        <ele>153.60000610352</ele>
        <time>2011-05-17T10:10:41.000Z</time>
      </trkpt>
      <trkpt lat="48.73857" lon="1.85702">
        <ele>153.80000305176</ele>
        <time>2011-05-17T10:12:51.000Z</time>
      </trkpt>
      <trkpt lat="48.73857" lon="1.85703">
        <ele>153.80000305176</ele>
        <time>2011-05-17T10:12:52.000Z</time>
      </trkpt>
      <trkpt lat="48.73856" lon="1.85704">
        <ele>154</ele>
        <time>2011-05-17T10:12:55.000Z</time>
      </trkpt>
      <trkpt lat="48.73856" lon="1.85704">
        <ele>154</ele>
        <time>2011-05-17T10:12:56.000Z</time>
      </trkpt>
      <trkpt lat="48.7388" lon="1.85711">
        <ele>151</ele>
        <time>2011-05-17T10:13:42.000Z</time>
      </trkpt>
      <trkpt lat="48.73885" lon="1.85724">
        <ele>150.39999389648</ele>
        <time>2011-05-17T10:13:48.000Z</time>
      </trkpt>
      <trkpt lat="48.73888" lon="1.85735">
        <ele>150</ele>
        <time>2011-05-17T10:13:54.000Z</time>
      </trkpt>
      <trkpt lat="48.73888" lon="1.85737">
        <ele>150</ele>
        <time>2011-05-17T10:13:55.000Z</time>
      </trkpt>
      <trkpt lat="48.73889" lon="1.85748">
        <ele>149.80000305176</ele>
        <time>2011-05-17T10:14:01.000Z</time>
      </trkpt>
      <trkpt lat="48.73891" lon="1.8576">
        <ele>150</ele>
        <time>2011-05-17T10:14:07.000Z</time>
      </trkpt>
      <trkpt lat="48.73895" lon="1.85769">
        <ele>149.80000305176</ele>
        <time>2011-05-17T10:14:12.000Z</time>
      </trkpt>
      <trkpt lat="48.73898" lon="1.85783">
        <ele>150</ele>
        <time>2011-05-17T10:14:19.000Z</time>
      </trkpt>
      <trkpt lat="48.73898" lon="1.85786">
        <ele>150</ele>
        <time>2011-05-17T10:14:20.000Z</time>
      </trkpt>
      <trkpt lat="48.73903" lon="1.85795">
        <ele>149.80000305176</ele>
        <time>2011-05-17T10:14:26.000Z</time>
      </trkpt>
      <trkpt lat="48.7391" lon="1.85797">
        <ele>149</ele>
        <time>2011-05-17T10:14:37.000Z</time>
      </trkpt>
      <trkpt lat="48.73912" lon="1.85802">
        <ele>149</ele>
        <time>2011-05-17T10:14:43.000Z</time>
      </trkpt>
      <trkpt lat="48.73914" lon="1.8581">
        <ele>149</ele>
        <time>2011-05-17T10:14:47.000Z</time>
      </trkpt>
      <trkpt lat="48.73917" lon="1.85821">
        <ele>149.19999694824</ele>
        <time>2011-05-17T10:14:51.000Z</time>
      </trkpt>
      <trkpt lat="48.73921" lon="1.85837">
        <ele>149.80000305176</ele>
        <time>2011-05-17T10:14:58.000Z</time>
      </trkpt>
      <trkpt lat="48.73924" lon="1.85847">
        <ele>150</ele>
        <time>2011-05-17T10:15:04.000Z</time>
      </trkpt>
      <trkpt lat="48.73931" lon="1.85863">
        <ele>150</ele>
        <time>2011-05-17T10:15:13.000Z</time>
      </trkpt>
      <trkpt lat="48.73933" lon="1.85869">
        <ele>150.19999694824</ele>
        <time>2011-05-17T10:15:16.000Z</time>
      </trkpt>
      <trkpt lat="48.7394" lon="1.85886">
        <ele>150</ele>
        <time>2011-05-17T10:15:24.000Z</time>
      </trkpt>
      <trkpt lat="48.73943" lon="1.85895">
        <ele>150.19999694824</ele>
        <time>2011-05-17T10:15:29.000Z</time>
      </trkpt>
      <trkpt lat="48.73944" lon="1.8591">
        <ele>150.60000610352</ele>
        <time>2011-05-17T10:15:36.000Z</time>
      </trkpt>
      <trkpt lat="48.73945" lon="1.85917">
        <ele>150.80000305176</ele>
        <time>2011-05-17T10:15:38.000Z</time>
      </trkpt>
      <trkpt lat="48.73947" lon="1.85923">
        <ele>151.19999694824</ele>
        <time>2011-05-17T10:15:40.000Z</time>
      </trkpt>
      <trkpt lat="48.73949" lon="1.85929">
        <ele>151.39999389648</ele>
        <time>2011-05-17T10:15:43.000Z</time>
      </trkpt>
      <trkpt lat="48.73954" lon="1.85946">
        <ele>152.39999389648</ele>
        <time>2011-05-17T10:15:50.000Z</time>
      </trkpt>
      <trkpt lat="48.73955" lon="1.85948">
        <ele>152.60000610352</ele>
        <time>2011-05-17T10:15:51.000Z</time>
      </trkpt>
      <trkpt lat="48.73957" lon="1.85953">
        <ele>152.80000305176</ele>
        <time>2011-05-17T10:15:56.000Z</time>
      </trkpt>
      <trkpt lat="48.73957" lon="1.85953">
        <ele>152.80000305176</ele>
        <time>2011-05-17T10:15:57.000Z</time>
      </trkpt>
      <trkpt lat="48.73962" lon="1.85954">
        <ele>152.19999694824</ele>
        <time>2011-05-17T10:16:06.000Z</time>
      </trkpt>
      <trkpt lat="48.73967" lon="1.85958">
        <ele>151.80000305176</ele>
        <time>2011-05-17T10:16:10.000Z</time>
      </trkpt>
      <trkpt lat="48.73976" lon="1.85964">
        <ele>151.19999694824</ele>
        <time>2011-05-17T10:16:17.000Z</time>
      </trkpt>
      <trkpt lat="48.73977" lon="1.85964">
        <ele>151.19999694824</ele>
        <time>2011-05-17T10:16:18.000Z</time>
      </trkpt>
      <trkpt lat="48.73987" lon="1.85969">
        <ele>150.39999389648</ele>
        <time>2011-05-17T10:16:25.000Z</time>
      </trkpt>
      <trkpt lat="48.73991" lon="1.85972">
        <ele>150.19999694824</ele>
        <time>2011-05-17T10:16:28.000Z</time>
      </trkpt>
      <trkpt lat="48.73999" lon="1.8598">
        <ele>149.80000305176</ele>
        <time>2011-05-17T10:16:33.000Z</time>
      </trkpt>
      <trkpt lat="48.74006" lon="1.85985">
        <ele>149.80000305176</ele>
        <time>2011-05-17T10:16:38.000Z</time>
      </trkpt>
      <trkpt lat="48.74015" lon="1.85993">
        <ele>149.80000305176</ele>
        <time>2011-05-17T10:16:45.000Z</time>
      </trkpt>
      <trkpt lat="48.74024" lon="1.86001">
        <ele>149.80000305176</ele>
        <time>2011-05-17T10:16:52.000Z</time>
      </trkpt>
      <trkpt lat="48.74027" lon="1.86006">
        <ele>150.19999694824</ele>
        <time>2011-05-17T10:16:55.000Z</time>
      </trkpt>
      <trkpt lat="48.7403" lon="1.86008">
        <ele>150.39999389648</ele>
        <time>2011-05-17T10:16:57.000Z</time>
      </trkpt>
      <trkpt lat="48.74035" lon="1.86014">
        <ele>150.80000305176</ele>
        <time>2011-05-17T10:17:01.000Z</time>
      </trkpt>
      <trkpt lat="48.74037" lon="1.86017">
        <ele>151</ele>
        <time>2011-05-17T10:17:03.000Z</time>
      </trkpt>
      <trkpt lat="48.74045" lon="1.86026">
        <ele>151.80000305176</ele>
        <time>2011-05-17T10:17:09.000Z</time>
      </trkpt>
      <trkpt lat="48.74051" lon="1.86032">
        <ele>152.19999694824</ele>
        <time>2011-05-17T10:17:15.000Z</time>
      </trkpt>
      <trkpt lat="48.74059" lon="1.86045">
        <ele>153.60000610352</ele>
        <time>2011-05-17T10:17:21.000Z</time>
      </trkpt>
      <trkpt lat="48.7406" lon="1.86048">
        <ele>153.60000610352</ele>
        <time>2011-05-17T10:17:22.000Z</time>
      </trkpt>
      <trkpt lat="48.74067" lon="1.86061">
        <ele>155</ele>
        <time>2011-05-17T10:17:29.000Z</time>
      </trkpt>
      <trkpt lat="48.74074" lon="1.86072">
        <ele>156.19999694824</ele>
        <time>2011-05-17T10:17:35.000Z</time>
      </trkpt>
      <trkpt lat="48.7408" lon="1.86081">
        <ele>157</ele>
        <time>2011-05-17T10:17:42.000Z</time>
      </trkpt>
      <trkpt lat="48.74081" lon="1.86083">
        <ele>157</ele>
        <time>2011-05-17T10:17:44.000Z</time>
      </trkpt>
      <trkpt lat="48.74092" lon="1.86086">
        <ele>156.80000305176</ele>
        <time>2011-05-17T10:17:51.000Z</time>
      </trkpt>
      <trkpt lat="48.74099" lon="1.86087">
        <ele>156.60000610352</ele>
        <time>2011-05-17T10:17:57.000Z</time>
      </trkpt>
      <trkpt lat="48.74111" lon="1.86089">
        <ele>156.19999694824</ele>
        <time>2011-05-17T10:18:05.000Z</time>
      </trkpt>
      <trkpt lat="48.74118" lon="1.86082">
        <ele>154.60000610352</ele>
        <time>2011-05-17T10:18:11.000Z</time>
      </trkpt>
      <trkpt lat="48.7412" lon="1.86079">
        <ele>154</ele>
        <time>2011-05-17T10:18:13.000Z</time>
      </trkpt>
      <trkpt lat="48.74129" lon="1.86078">
        <ele>153.39999389648</ele>
        <time>2011-05-17T10:18:19.000Z</time>
      </trkpt>
      <trkpt lat="48.74135" lon="1.86078">
        <ele>153</ele>
        <time>2011-05-17T10:18:22.000Z</time>
      </trkpt>
      <trkpt lat="48.74147" lon="1.86079">
        <ele>152.60000610352</ele>
        <time>2011-05-17T10:18:29.000Z</time>
      </trkpt>
      <trkpt lat="48.74156" lon="1.86074">
        <ele>151.19999694824</ele>
        <time>2011-05-17T10:18:36.000Z</time>
      </trkpt>
      <trkpt lat="48.74166" lon="1.86069">
        <ele>149.80000305176</ele>
        <time>2011-05-17T10:18:42.000Z</time>
      </trkpt>
      <trkpt lat="48.74174" lon="1.86064">
        <ele>149.60000610352</ele>
        <time>2011-05-17T10:18:47.000Z</time>
      </trkpt>
      <trkpt lat="48.74185" lon="1.86057">
        <ele>149</ele>
        <time>2011-05-17T10:18:54.000Z</time>
      </trkpt>
      <trkpt lat="48.7419" lon="1.86051">
        <ele>148.60000610352</ele>
        <time>2011-05-17T10:19:00.000Z</time>
      </trkpt>
      <trkpt lat="48.74191" lon="1.8605">
        <ele>148.39999389648</ele>
        <time>2011-05-17T10:19:02.000Z</time>
      </trkpt>
      <trkpt lat="48.74202" lon="1.86038">
        <ele>147</ele>
        <time>2011-05-17T10:19:11.000Z</time>
      </trkpt>
      <trkpt lat="48.74211" lon="1.86027">
        <ele>145.39999389648</ele>
        <time>2011-05-17T10:19:19.000Z</time>
      </trkpt>
      <trkpt lat="48.74222" lon="1.86022">
        <ele>145</ele>
        <time>2011-05-17T10:19:27.000Z</time>
      </trkpt>
      <trkpt lat="48.74233" lon="1.8602">
        <ele>145</ele>
        <time>2011-05-17T10:19:34.000Z</time>
      </trkpt>
      <trkpt lat="48.74246" lon="1.86017">
        <ele>145</ele>
        <time>2011-05-17T10:19:43.000Z</time>
      </trkpt>
      <trkpt lat="48.74256" lon="1.86016">
        <ele>145.19999694824</ele>
        <time>2011-05-17T10:19:50.000Z</time>
      </trkpt>
      <trkpt lat="48.74269" lon="1.86012">
        <ele>144.80000305176</ele>
        <time>2011-05-17T10:19:59.000Z</time>
      </trkpt>
      <trkpt lat="48.74281" lon="1.86007">
        <ele>144.39999389648</ele>
        <time>2011-05-17T10:20:07.000Z</time>
      </trkpt>
      <trkpt lat="48.74292" lon="1.86005">
        <ele>144.39999389648</ele>
        <time>2011-05-17T10:20:14.000Z</time>
      </trkpt>
      <trkpt lat="48.74301" lon="1.86004">
        <ele>144.60000610352</ele>
        <time>2011-05-17T10:20:20.000Z</time>
      </trkpt>
      <trkpt lat="48.74309" lon="1.86003">
        <ele>144.60000610352</ele>
        <time>2011-05-17T10:20:26.000Z</time>
      </trkpt>
      <trkpt lat="48.74316" lon="1.86">
        <ele>144.19999694824</ele>
        <time>2011-05-17T10:20:31.000Z</time>
      </trkpt>
      <trkpt lat="48.74325" lon="1.85991">
        <ele>143.80000305176</ele>
        <time>2011-05-17T10:20:38.000Z</time>
      </trkpt>
      <trkpt lat="48.74329" lon="1.85984">
        <ele>143.39999389648</ele>
        <time>2011-05-17T10:20:42.000Z</time>
      </trkpt>
      <trkpt lat="48.74333" lon="1.85978">
        <ele>143</ele>
        <time>2011-05-17T10:20:46.000Z</time>
      </trkpt>
      <trkpt lat="48.74343" lon="1.85969">
        <ele>143.19999694824</ele>
        <time>2011-05-17T10:20:53.000Z</time>
      </trkpt>
      <trkpt lat="48.7435" lon="1.85962">
        <ele>143.39999389648</ele>
        <time>2011-05-17T10:20:59.000Z</time>
      </trkpt>
      <trkpt lat="48.74362" lon="1.85956">
        <ele>143.80000305176</ele>
        <time>2011-05-17T10:21:07.000Z</time>
      </trkpt>
      <trkpt lat="48.7437" lon="1.85946">
        <ele>143.80000305176</ele>
        <time>2011-05-17T10:21:15.000Z</time>
      </trkpt>
      <trkpt lat="48.74374" lon="1.85938">
        <ele>143.60000610352</ele>
        <time>2011-05-17T10:21:19.000Z</time>
      </trkpt>
      <trkpt lat="48.74383" lon="1.85926">
        <ele>143.39999389648</ele>
        <time>2011-05-17T10:21:26.000Z</time>
      </trkpt>
      <trkpt lat="48.74391" lon="1.85918">
        <ele>143.60000610352</ele>
        <time>2011-05-17T10:21:32.000Z</time>
      </trkpt>
      <trkpt lat="48.74396" lon="1.85908">
        <ele>143.39999389648</ele>
        <time>2011-05-17T10:21:37.000Z</time>
      </trkpt>
      <trkpt lat="48.74401" lon="1.85896">
        <ele>143.39999389648</ele>
        <time>2011-05-17T10:21:43.000Z</time>
      </trkpt>
      <trkpt lat="48.74404" lon="1.85889">
        <ele>143.19999694824</ele>
        <time>2011-05-17T10:21:48.000Z</time>
      </trkpt>
      <trkpt lat="48.74409" lon="1.85875">
        <ele>142.80000305176</ele>
        <time>2011-05-17T10:21:54.000Z</time>
      </trkpt>
      <trkpt lat="48.7441" lon="1.85871">
        <ele>142.80000305176</ele>
        <time>2011-05-17T10:21:56.000Z</time>
      </trkpt>
      <trkpt lat="48.74417" lon="1.85853">
        <ele>142</ele>
        <time>2011-05-17T10:22:03.000Z</time>
      </trkpt>
      <trkpt lat="48.74423" lon="1.85841">
        <ele>141.39999389648</ele>
        <time>2011-05-17T10:22:09.000Z</time>
      </trkpt>
      <trkpt lat="48.74427" lon="1.85834">
        <ele>141</ele>
        <time>2011-05-17T10:22:13.000Z</time>
      </trkpt>
      <trkpt lat="48.74435" lon="1.85825">
        <ele>140.80000305176</ele>
        <time>2011-05-17T10:22:19.000Z</time>
      </trkpt>
      <trkpt lat="48.74441" lon="1.85821">
        <ele>140.60000610352</ele>
        <time>2011-05-17T10:22:23.000Z</time>
      </trkpt>
      <trkpt lat="48.74453" lon="1.85816">
        <ele>140.60000610352</ele>
        <time>2011-05-17T10:22:31.000Z</time>
      </trkpt>
      <trkpt lat="48.74462" lon="1.85816">
        <ele>140.60000610352</ele>
        <time>2011-05-17T10:22:37.000Z</time>
      </trkpt>
      <trkpt lat="48.74469" lon="1.8581">
        <ele>140.39999389648</ele>
        <time>2011-05-17T10:22:43.000Z</time>
      </trkpt>
      <trkpt lat="48.74472" lon="1.85806">
        <ele>140.19999694824</ele>
        <time>2011-05-17T10:22:45.000Z</time>
      </trkpt>
      <trkpt lat="48.74481" lon="1.85796">
        <ele>139.80000305176</ele>
        <time>2011-05-17T10:22:52.000Z</time>
      </trkpt>
      <trkpt lat="48.74489" lon="1.85791">
        <ele>139.80000305176</ele>
        <time>2011-05-17T10:22:58.000Z</time>
      </trkpt>
      <trkpt lat="48.74496" lon="1.85789">
        <ele>139.80000305176</ele>
        <time>2011-05-17T10:23:02.000Z</time>
      </trkpt>
      <trkpt lat="48.74506" lon="1.85785">
        <ele>139.19999694824</ele>
        <time>2011-05-17T10:23:08.000Z</time>
      </trkpt>
      <trkpt lat="48.74507" lon="1.85785">
        <ele>139.19999694824</ele>
        <time>2011-05-17T10:23:09.000Z</time>
      </trkpt>
      <trkpt lat="48.74511" lon="1.85783">
        <ele>138.80000305176</ele>
        <time>2011-05-17T10:23:14.000Z</time>
      </trkpt>
      <trkpt lat="48.74519" lon="1.85791">
        <ele>138.80000305176</ele>
        <time>2011-05-17T10:23:21.000Z</time>
      </trkpt>
      <trkpt lat="48.74529" lon="1.85793">
        <ele>138.19999694824</ele>
        <time>2011-05-17T10:23:27.000Z</time>
      </trkpt>
      <trkpt lat="48.74537" lon="1.85799">
        <ele>138</ele>
        <time>2011-05-17T10:23:33.000Z</time>
      </trkpt>
      <trkpt lat="48.74547" lon="1.85805">
        <ele>137.60000610352</ele>
        <time>2011-05-17T10:23:38.000Z</time>
      </trkpt>
      <trkpt lat="48.74554" lon="1.85815">
        <ele>137.39999389648</ele>
        <time>2011-05-17T10:23:43.000Z</time>
      </trkpt>
      <trkpt lat="48.74562" lon="1.85831">
        <ele>137.39999389648</ele>
        <time>2011-05-17T10:23:51.000Z</time>
      </trkpt>
      <trkpt lat="48.74563" lon="1.85833">
        <ele>137.39999389648</ele>
        <time>2011-05-17T10:23:52.000Z</time>
      </trkpt>
      <trkpt lat="48.74569" lon="1.85846">
        <ele>137.19999694824</ele>
        <time>2011-05-17T10:23:58.000Z</time>
      </trkpt>
      <trkpt lat="48.74582" lon="1.85856">
        <ele>136.60000610352</ele>
        <time>2011-05-17T10:24:07.000Z</time>
      </trkpt>
      <trkpt lat="48.74589" lon="1.85862">
        <ele>136.19999694824</ele>
        <time>2011-05-17T10:24:12.000Z</time>
      </trkpt>
      <trkpt lat="48.74594" lon="1.85869">
        <ele>136</ele>
        <time>2011-05-17T10:24:17.000Z</time>
      </trkpt>
      <trkpt lat="48.74596" lon="1.85871">
        <ele>136</ele>
        <time>2011-05-17T10:24:21.000Z</time>
      </trkpt>
      <trkpt lat="48.74602" lon="1.85874">
        <ele>135.60000610352</ele>
        <time>2011-05-17T10:24:41.000Z</time>
      </trkpt>
      <trkpt lat="48.74609" lon="1.8589">
        <ele>135.60000610352</ele>
        <time>2011-05-17T10:24:48.000Z</time>
      </trkpt>
      <trkpt lat="48.74611" lon="1.85905">
        <ele>135.80000305176</ele>
        <time>2011-05-17T10:24:54.000Z</time>
      </trkpt>
      <trkpt lat="48.74613" lon="1.85914">
        <ele>136</ele>
        <time>2011-05-17T10:24:58.000Z</time>
      </trkpt>
      <trkpt lat="48.74618" lon="1.85929">
        <ele>136.80000305176</ele>
        <time>2011-05-17T10:25:05.000Z</time>
      </trkpt>
      <trkpt lat="48.7462" lon="1.85937">
        <ele>137.19999694824</ele>
        <time>2011-05-17T10:25:08.000Z</time>
      </trkpt>
      <trkpt lat="48.74624" lon="1.85949">
        <ele>138</ele>
        <time>2011-05-17T10:25:16.000Z</time>
      </trkpt>
      <trkpt lat="48.7463" lon="1.85953">
        <ele>138</ele>
        <time>2011-05-17T10:25:23.000Z</time>
      </trkpt>
      <trkpt lat="48.74639" lon="1.85959">
        <ele>138.19999694824</ele>
        <time>2011-05-17T10:25:29.000Z</time>
      </trkpt>
      <trkpt lat="48.74644" lon="1.85967">
        <ele>138.60000610352</ele>
        <time>2011-05-17T10:25:34.000Z</time>
      </trkpt>
      <trkpt lat="48.7465" lon="1.8597">
        <ele>138.60000610352</ele>
        <time>2011-05-17T10:25:41.000Z</time>
      </trkpt>
      <trkpt lat="48.74653" lon="1.85973">
        <ele>138.80000305176</ele>
        <time>2011-05-17T10:25:47.000Z</time>
      </trkpt>
      <trkpt lat="48.74656" lon="1.85966">
        <ele>138</ele>
        <time>2011-05-17T10:25:56.000Z</time>
      </trkpt>
      <trkpt lat="48.74659" lon="1.85958">
        <ele>137.19999694824</ele>
        <time>2011-05-17T10:25:59.000Z</time>
      </trkpt>
      <trkpt lat="48.74661" lon="1.85954">
        <ele>136.60000610352</ele>
        <time>2011-05-17T10:26:02.000Z</time>
      </trkpt>
      <trkpt lat="48.74664" lon="1.85953">
        <ele>136.60000610352</ele>
        <time>2011-05-17T10:26:06.000Z</time>
      </trkpt>
      <trkpt lat="48.74659" lon="1.85963">
        <ele>137.60000610352</ele>
        <time>2011-05-17T10:26:24.000Z</time>
      </trkpt>
      <trkpt lat="48.74654" lon="1.85972">
        <ele>138.60000610352</ele>
        <time>2011-05-17T10:26:29.000Z</time>
      </trkpt>
      <trkpt lat="48.74656" lon="1.85977">
        <ele>139</ele>
        <time>2011-05-17T10:26:33.000Z</time>
      </trkpt>
      <trkpt lat="48.74664" lon="1.85986">
        <ele>139.60000610352</ele>
        <time>2011-05-17T10:26:41.000Z</time>
      </trkpt>
      <trkpt lat="48.74664" lon="1.85985">
        <ele>139.60000610352</ele>
        <time>2011-05-17T10:26:42.000Z</time>
      </trkpt>
      <trkpt lat="48.7467" lon="1.85992">
        <ele>139.80000305176</ele>
        <time>2011-05-17T10:26:53.000Z</time>
      </trkpt>
      <trkpt lat="48.74673" lon="1.85994">
        <ele>139.60000610352</ele>
        <time>2011-05-17T10:26:55.000Z</time>
      </trkpt>
      <trkpt lat="48.74677" lon="1.86002">
        <ele>139.80000305176</ele>
        <time>2011-05-17T10:27:00.000Z</time>
      </trkpt>
      <trkpt lat="48.74679" lon="1.86008">
        <ele>140.19999694824</ele>
        <time>2011-05-17T10:27:05.000Z</time>
      </trkpt>
      <trkpt lat="48.74681" lon="1.86008">
        <ele>140</ele>
        <time>2011-05-17T10:27:09.000Z</time>
      </trkpt>
      <trkpt lat="48.74678" lon="1.86004">
        <ele>140</ele>
        <time>2011-05-17T10:27:22.000Z</time>
      </trkpt>
      <trkpt lat="48.74672" lon="1.85995">
        <ele>139.80000305176</ele>
        <time>2011-05-17T10:27:27.000Z</time>
      </trkpt>
      <trkpt lat="48.74669" lon="1.85994">
        <ele>140</ele>
        <time>2011-05-17T10:27:30.000Z</time>
      </trkpt>
      <trkpt lat="48.74664" lon="1.85987">
        <ele>139.80000305176</ele>
        <time>2011-05-17T10:27:34.000Z</time>
      </trkpt>
      <trkpt lat="48.74657" lon="1.85983">
        <ele>139.60000610352</ele>
        <time>2011-05-17T10:27:39.000Z</time>
      </trkpt>
      <trkpt lat="48.74654" lon="1.85978">
        <ele>139.19999694824</ele>
        <time>2011-05-17T10:27:43.000Z</time>
      </trkpt>
      <trkpt lat="48.74655" lon="1.8597">
        <ele>138.39999389648</ele>
        <time>2011-05-17T10:27:49.000Z</time>
      </trkpt>
      <trkpt lat="48.74655" lon="1.85963">
        <ele>137.80000305176</ele>
        <time>2011-05-17T10:27:55.000Z</time>
      </trkpt>
      <trkpt lat="48.74658" lon="1.85959">
        <ele>137.39999389648</ele>
        <time>2011-05-17T10:27:58.000Z</time>
      </trkpt>
      <trkpt lat="48.74665" lon="1.85955">
        <ele>136.60000610352</ele>
        <time>2011-05-17T10:28:04.000Z</time>
      </trkpt>
      <trkpt lat="48.74669" lon="1.85955">
        <ele>136.39999389648</ele>
        <time>2011-05-17T10:28:07.000Z</time>
      </trkpt>
      <trkpt lat="48.74673" lon="1.85959">
        <ele>136.60000610352</ele>
        <time>2011-05-17T10:28:14.000Z</time>
      </trkpt>
      <trkpt lat="48.74673" lon="1.85975">
        <ele>138</ele>
        <time>2011-05-17T10:28:21.000Z</time>
      </trkpt>
      <trkpt lat="48.74672" lon="1.85987">
        <ele>139.19999694824</ele>
        <time>2011-05-17T10:28:27.000Z</time>
      </trkpt>
      <trkpt lat="48.74672" lon="1.85989">
        <ele>139.19999694824</ele>
        <time>2011-05-17T10:28:30.000Z</time>
      </trkpt>
      <trkpt lat="48.74681" lon="1.86007">
        <ele>139.80000305176</ele>
        <time>2011-05-17T10:29:18.000Z</time>
      </trkpt>
      <trkpt lat="48.74682" lon="1.86009">
        <ele>140</ele>
        <time>2011-05-17T10:29:19.000Z</time>
      </trkpt>
      <trkpt lat="48.74685" lon="1.86018">
        <ele>140.39999389648</ele>
        <time>2011-05-17T10:29:25.000Z</time>
      </trkpt>
      <trkpt lat="48.7469" lon="1.86021">
        <ele>140.19999694824</ele>
        <time>2011-05-17T10:29:32.000Z</time>
      </trkpt>
      <trkpt lat="48.74694" lon="1.86019">
        <ele>139.39999389648</ele>
        <time>2011-05-17T10:29:39.000Z</time>
      </trkpt>
      <trkpt lat="48.74694" lon="1.86019">
        <ele>139.39999389648</ele>
        <time>2011-05-17T10:29:40.000Z</time>
      </trkpt>
      <trkpt lat="48.74702" lon="1.86031">
        <ele>139.80000305176</ele>
        <time>2011-05-17T10:30:13.000Z</time>
      </trkpt>
      <trkpt lat="48.74705" lon="1.86035">
        <ele>140</ele>
        <time>2011-05-17T10:30:16.000Z</time>
      </trkpt>
      <trkpt lat="48.74707" lon="1.86039">
        <ele>140.19999694824</ele>
        <time>2011-05-17T10:30:21.000Z</time>
      </trkpt>
      <trkpt lat="48.7471" lon="1.86041">
        <ele>140.19999694824</ele>
        <time>2011-05-17T10:30:26.000Z</time>
      </trkpt>
      <trkpt lat="48.74713" lon="1.86041">
        <ele>139.80000305176</ele>
        <time>2011-05-17T10:30:31.000Z</time>
      </trkpt>
      <trkpt lat="48.74718" lon="1.86042">
        <ele>139.39999389648</ele>
        <time>2011-05-17T10:30:35.000Z</time>
      </trkpt>
      <trkpt lat="48.74722" lon="1.86044">
        <ele>139.39999389648</ele>
        <time>2011-05-17T10:30:39.000Z</time>
      </trkpt>
      <trkpt lat="48.74725" lon="1.86048">
        <ele>139.39999389648</ele>
        <time>2011-05-17T10:30:42.000Z</time>
      </trkpt>
      <trkpt lat="48.74731" lon="1.86052">
        <ele>139.39999389648</ele>
        <time>2011-05-17T10:30:48.000Z</time>
      </trkpt>
      <trkpt lat="48.74736" lon="1.86055">
        <ele>139.39999389648</ele>
        <time>2011-05-17T10:30:54.000Z</time>
      </trkpt>
      <trkpt lat="48.7474" lon="1.86058">
        <ele>139.39999389648</ele>
        <time>2011-05-17T10:30:58.000Z</time>
      </trkpt>
      <trkpt lat="48.74746" lon="1.86062">
        <ele>139.39999389648</ele>
        <time>2011-05-17T10:31:03.000Z</time>
      </trkpt>
      <trkpt lat="48.74749" lon="1.86063">
        <ele>139.39999389648</ele>
        <time>2011-05-17T10:31:05.000Z</time>
      </trkpt>
      <trkpt lat="48.74751" lon="1.86066">
        <ele>139.60000610352</ele>
        <time>2011-05-17T10:31:08.000Z</time>
      </trkpt>
      <trkpt lat="48.74753" lon="1.86068">
        <ele>139.80000305176</ele>
        <time>2011-05-17T10:31:11.000Z</time>
      </trkpt>
      <trkpt lat="48.74754" lon="1.86073">
        <ele>140.39999389648</ele>
        <time>2011-05-17T10:31:17.000Z</time>
      </trkpt>
      <trkpt lat="48.74757" lon="1.8608">
        <ele>141.19999694824</ele>
        <time>2011-05-17T10:31:22.000Z</time>
      </trkpt>
      <trkpt lat="48.7476" lon="1.86084">
        <ele>141.60000610352</ele>
        <time>2011-05-17T10:31:26.000Z</time>
      </trkpt>
      <trkpt lat="48.74761" lon="1.8608">
        <ele>141.19999694824</ele>
        <time>2011-05-17T10:31:33.000Z</time>
      </trkpt>
      <trkpt lat="48.7476" lon="1.86079">
        <ele>141</ele>
        <time>2011-05-17T10:31:36.000Z</time>
      </trkpt>
      <trkpt lat="48.74745" lon="1.86054">
        <ele>138.39999389648</ele>
        <time>2011-05-17T10:32:15.000Z</time>
      </trkpt>
      <trkpt lat="48.74742" lon="1.86054">
        <ele>138.80000305176</ele>
        <time>2011-05-17T10:32:17.000Z</time>
      </trkpt>
      <trkpt lat="48.74737" lon="1.86056">
        <ele>139.39999389648</ele>
        <time>2011-05-17T10:32:26.000Z</time>
      </trkpt>
      <trkpt lat="48.74732" lon="1.86056">
        <ele>140</ele>
        <time>2011-05-17T10:32:31.000Z</time>
      </trkpt>
      <trkpt lat="48.74724" lon="1.86053">
        <ele>140.19999694824</ele>
        <time>2011-05-17T10:32:37.000Z</time>
      </trkpt>
      <trkpt lat="48.7472" lon="1.86049">
        <ele>140.19999694824</ele>
        <time>2011-05-17T10:32:42.000Z</time>
      </trkpt>
      <trkpt lat="48.74716" lon="1.86046">
        <ele>140</ele>
        <time>2011-05-17T10:32:46.000Z</time>
      </trkpt>
      <trkpt lat="48.74711" lon="1.86047">
        <ele>140.80000305176</ele>
        <time>2011-05-17T10:32:54.000Z</time>
      </trkpt>
      <trkpt lat="48.74705" lon="1.86047">
        <ele>141.19999694824</ele>
        <time>2011-05-17T10:32:59.000Z</time>
      </trkpt>
      <trkpt lat="48.74704" lon="1.86046">
        <ele>141.39999389648</ele>
        <time>2011-05-17T10:33:04.000Z</time>
      </trkpt>
      <trkpt lat="48.74666" lon="1.85988">
        <ele>139.80000305176</ele>
        <time>2011-05-17T10:36:19.000Z</time>
      </trkpt>
      <trkpt lat="48.74661" lon="1.85984">
        <ele>139.39999389648</ele>
        <time>2011-05-17T10:36:23.000Z</time>
      </trkpt>
      <trkpt lat="48.74656" lon="1.85981">
        <ele>139.39999389648</ele>
        <time>2011-05-17T10:36:28.000Z</time>
      </trkpt>
      <trkpt lat="48.74655" lon="1.85981">
        <ele>139.39999389648</ele>
        <time>2011-05-17T10:36:29.000Z</time>
      </trkpt>
      <trkpt lat="48.74651" lon="1.85978">
        <ele>139.39999389648</ele>
        <time>2011-05-17T10:36:34.000Z</time>
      </trkpt>
      <trkpt lat="48.74644" lon="1.85975">
        <ele>139.39999389648</ele>
        <time>2011-05-17T10:36:41.000Z</time>
      </trkpt>
      <trkpt lat="48.74635" lon="1.85969">
        <ele>139</ele>
        <time>2011-05-17T10:36:48.000Z</time>
      </trkpt>
      <trkpt lat="48.7463" lon="1.85965">
        <ele>139</ele>
        <time>2011-05-17T10:36:52.000Z</time>
      </trkpt>
      <trkpt lat="48.74628" lon="1.85963">
        <ele>139</ele>
        <time>2011-05-17T10:36:54.000Z</time>
      </trkpt>
      <trkpt lat="48.74627" lon="1.85959">
        <ele>138.60000610352</ele>
        <time>2011-05-17T10:37:00.000Z</time>
      </trkpt>
      <trkpt lat="48.74617" lon="1.85953">
        <ele>138.60000610352</ele>
        <time>2011-05-17T10:37:19.000Z</time>
      </trkpt>
      <trkpt lat="48.74617" lon="1.85952">
        <ele>138.60000610352</ele>
        <time>2011-05-17T10:37:20.000Z</time>
      </trkpt>
      <trkpt lat="48.74614" lon="1.85949">
        <ele>138.39999389648</ele>
        <time>2011-05-17T10:37:21.000Z</time>
      </trkpt>
      <trkpt lat="48.74613" lon="1.85938">
        <ele>137.60000610352</ele>
        <time>2011-05-17T10:37:28.000Z</time>
      </trkpt>
      <trkpt lat="48.74613" lon="1.85935">
        <ele>137.39999389648</ele>
        <time>2011-05-17T10:37:30.000Z</time>
      </trkpt>
      <trkpt lat="48.74612" lon="1.8593">
        <ele>137.19999694824</ele>
        <time>2011-05-17T10:37:33.000Z</time>
      </trkpt>
      <trkpt lat="48.7461" lon="1.85919">
        <ele>136.39999389648</ele>
        <time>2011-05-17T10:37:38.000Z</time>
      </trkpt>
      <trkpt lat="48.74611" lon="1.8591">
        <ele>136</ele>
        <time>2011-05-17T10:37:42.000Z</time>
      </trkpt>
      <trkpt lat="48.74609" lon="1.85899">
        <ele>135.80000305176</ele>
        <time>2011-05-17T10:37:47.000Z</time>
      </trkpt>
      <trkpt lat="48.74606" lon="1.85892">
        <ele>135.80000305176</ele>
        <time>2011-05-17T10:37:52.000Z</time>
      </trkpt>
      <trkpt lat="48.74604" lon="1.85886">
        <ele>135.80000305176</ele>
        <time>2011-05-17T10:37:55.000Z</time>
      </trkpt>
      <trkpt lat="48.746" lon="1.85878">
        <ele>135.80000305176</ele>
        <time>2011-05-17T10:37:59.000Z</time>
      </trkpt>
      <trkpt lat="48.74597" lon="1.85874">
        <ele>136</ele>
        <time>2011-05-17T10:38:03.000Z</time>
      </trkpt>
      <trkpt lat="48.74591" lon="1.85864">
        <ele>136.19999694824</ele>
        <time>2011-05-17T10:38:09.000Z</time>
      </trkpt>
      <trkpt lat="48.74585" lon="1.85861">
        <ele>136.39999389648</ele>
        <time>2011-05-17T10:38:14.000Z</time>
      </trkpt>
      <trkpt lat="48.74582" lon="1.85861">
        <ele>136.60000610352</ele>
        <time>2011-05-17T10:38:16.000Z</time>
      </trkpt>
      <trkpt lat="48.74571" lon="1.85857">
        <ele>137.39999389648</ele>
        <time>2011-05-17T10:38:24.000Z</time>
      </trkpt>
      <trkpt lat="48.7457" lon="1.85857">
        <ele>137.39999389648</ele>
        <time>2011-05-17T10:38:25.000Z</time>
      </trkpt>
      <trkpt lat="48.74565" lon="1.8585">
        <ele>137.60000610352</ele>
        <time>2011-05-17T10:38:31.000Z</time>
      </trkpt>
      <trkpt lat="48.74563" lon="1.85839">
        <ele>137.60000610352</ele>
        <time>2011-05-17T10:38:38.000Z</time>
      </trkpt>
      <trkpt lat="48.74561" lon="1.85834">
        <ele>137.60000610352</ele>
        <time>2011-05-17T10:38:41.000Z</time>
      </trkpt>
      <trkpt lat="48.74559" lon="1.85829">
        <ele>137.60000610352</ele>
        <time>2011-05-17T10:38:44.000Z</time>
      </trkpt>
      <trkpt lat="48.74552" lon="1.85823">
        <ele>137.80000305176</ele>
        <time>2011-05-17T10:38:51.000Z</time>
      </trkpt>
      <trkpt lat="48.74547" lon="1.85817">
        <ele>138</ele>
        <time>2011-05-17T10:38:57.000Z</time>
      </trkpt>
      <trkpt lat="48.74546" lon="1.85817">
        <ele>138</ele>
        <time>2011-05-17T10:38:58.000Z</time>
      </trkpt>
      <trkpt lat="48.74539" lon="1.85815">
        <ele>138.39999389648</ele>
        <time>2011-05-17T10:39:03.000Z</time>
      </trkpt>
      <trkpt lat="48.74534" lon="1.8581">
        <ele>138.60000610352</ele>
        <time>2011-05-17T10:39:08.000Z</time>
      </trkpt>
      <trkpt lat="48.74526" lon="1.85802">
        <ele>138.80000305176</ele>
        <time>2011-05-17T10:39:16.000Z</time>
      </trkpt>
      <trkpt lat="48.74524" lon="1.85799">
        <ele>138.80000305176</ele>
        <time>2011-05-17T10:39:19.000Z</time>
      </trkpt>
      <trkpt lat="48.74515" lon="1.85796">
        <ele>139.19999694824</ele>
        <time>2011-05-17T10:39:26.000Z</time>
      </trkpt>
      <trkpt lat="48.74511" lon="1.85795">
        <ele>139.39999389648</ele>
        <time>2011-05-17T10:39:29.000Z</time>
      </trkpt>
      <trkpt lat="48.74507" lon="1.85795">
        <ele>139.60000610352</ele>
        <time>2011-05-17T10:39:33.000Z</time>
      </trkpt>
      <trkpt lat="48.74499" lon="1.85796">
        <ele>140.19999694824</ele>
        <time>2011-05-17T10:39:38.000Z</time>
      </trkpt>
      <trkpt lat="48.7449" lon="1.85799">
        <ele>140.19999694824</ele>
        <time>2011-05-17T10:39:45.000Z</time>
      </trkpt>
      <trkpt lat="48.74481" lon="1.85803">
        <ele>140.19999694824</ele>
        <time>2011-05-17T10:39:52.000Z</time>
      </trkpt>
      <trkpt lat="48.74473" lon="1.85811">
        <ele>140.60000610352</ele>
        <time>2011-05-17T10:39:58.000Z</time>
      </trkpt>
      <trkpt lat="48.74472" lon="1.85815">
        <ele>140.60000610352</ele>
        <time>2011-05-17T10:40:02.000Z</time>
      </trkpt>
      <trkpt lat="48.74466" lon="1.8582">
        <ele>140.80000305176</ele>
        <time>2011-05-17T10:40:07.000Z</time>
      </trkpt>
      <trkpt lat="48.74457" lon="1.85821">
        <ele>140.80000305176</ele>
        <time>2011-05-17T10:40:14.000Z</time>
      </trkpt>
      <trkpt lat="48.74453" lon="1.85821">
        <ele>140.80000305176</ele>
        <time>2011-05-17T10:40:17.000Z</time>
      </trkpt>
      <trkpt lat="48.74449" lon="1.85825">
        <ele>141</ele>
        <time>2011-05-17T10:40:21.000Z</time>
      </trkpt>
      <trkpt lat="48.74444" lon="1.85827">
        <ele>141</ele>
        <time>2011-05-17T10:40:25.000Z</time>
      </trkpt>
      <trkpt lat="48.74442" lon="1.85829">
        <ele>141</ele>
        <time>2011-05-17T10:40:27.000Z</time>
      </trkpt>
      <trkpt lat="48.7444" lon="1.8583">
        <ele>141</ele>
        <time>2011-05-17T10:40:29.000Z</time>
      </trkpt>
      <trkpt lat="48.74432" lon="1.85837">
        <ele>141.39999389648</ele>
        <time>2011-05-17T10:40:36.000Z</time>
      </trkpt>
      <trkpt lat="48.74425" lon="1.85847">
        <ele>141.80000305176</ele>
        <time>2011-05-17T10:40:42.000Z</time>
      </trkpt>
      <trkpt lat="48.74422" lon="1.85852">
        <ele>142</ele>
        <time>2011-05-17T10:40:47.000Z</time>
      </trkpt>
      <trkpt lat="48.74417" lon="1.8586">
        <ele>142.60000610352</ele>
        <time>2011-05-17T10:40:53.000Z</time>
      </trkpt>
      <trkpt lat="48.74416" lon="1.85865">
        <ele>142.80000305176</ele>
        <time>2011-05-17T10:40:57.000Z</time>
      </trkpt>
      <trkpt lat="48.74413" lon="1.85875">
        <ele>143.19999694824</ele>
        <time>2011-05-17T10:41:03.000Z</time>
      </trkpt>
      <trkpt lat="48.7441" lon="1.85879">
        <ele>143.19999694824</ele>
        <time>2011-05-17T10:41:07.000Z</time>
      </trkpt>
      <trkpt lat="48.74407" lon="1.85884">
        <ele>143.19999694824</ele>
        <time>2011-05-17T10:41:15.000Z</time>
      </trkpt>
      <trkpt lat="48.74406" lon="1.85882">
        <ele>143</ele>
        <time>2011-05-17T10:41:19.000Z</time>
      </trkpt>
      <trkpt lat="48.74393" lon="1.85909">
        <ele>143.19999694824</ele>
        <time>2011-05-17T10:41:45.000Z</time>
      </trkpt>
      <trkpt lat="48.74387" lon="1.85916">
        <ele>143</ele>
        <time>2011-05-17T10:41:50.000Z</time>
      </trkpt>
      <trkpt lat="48.74385" lon="1.85919">
        <ele>143</ele>
        <time>2011-05-17T10:41:52.000Z</time>
      </trkpt>
      <trkpt lat="48.74378" lon="1.85928">
        <ele>143.19999694824</ele>
        <time>2011-05-17T10:41:58.000Z</time>
      </trkpt>
      <trkpt lat="48.74373" lon="1.85937">
        <ele>143.39999389648</ele>
        <time>2011-05-17T10:42:04.000Z</time>
      </trkpt>
      <trkpt lat="48.74364" lon="1.85948">
        <ele>143.39999389648</ele>
        <time>2011-05-17T10:42:14.000Z</time>
      </trkpt>
      <trkpt lat="48.74356" lon="1.85953">
        <ele>143.19999694824</ele>
        <time>2011-05-17T10:42:20.000Z</time>
      </trkpt>
      <trkpt lat="48.74349" lon="1.85959">
        <ele>143</ele>
        <time>2011-05-17T10:42:26.000Z</time>
      </trkpt>
      <trkpt lat="48.7434" lon="1.85968">
        <ele>142.80000305176</ele>
        <time>2011-05-17T10:42:34.000Z</time>
      </trkpt>
      <trkpt lat="48.74331" lon="1.85983">
        <ele>143.39999389648</ele>
        <time>2011-05-17T10:42:44.000Z</time>
      </trkpt>
      <trkpt lat="48.74325" lon="1.85993">
        <ele>144</ele>
        <time>2011-05-17T10:42:51.000Z</time>
      </trkpt>
      <trkpt lat="48.7432" lon="1.85998">
        <ele>144.19999694824</ele>
        <time>2011-05-17T10:42:56.000Z</time>
      </trkpt>
      <trkpt lat="48.74314" lon="1.86001">
        <ele>144.39999389648</ele>
        <time>2011-05-17T10:43:01.000Z</time>
      </trkpt>
      <trkpt lat="48.74303" lon="1.86005">
        <ele>144.80000305176</ele>
        <time>2011-05-17T10:43:09.000Z</time>
      </trkpt>
      <trkpt lat="48.74292" lon="1.86005">
        <ele>144.39999389648</ele>
        <time>2011-05-17T10:43:17.000Z</time>
      </trkpt>
      <trkpt lat="48.74285" lon="1.86006">
        <ele>144.39999389648</ele>
        <time>2011-05-17T10:43:23.000Z</time>
      </trkpt>
      <trkpt lat="48.74275" lon="1.8601">
        <ele>144.80000305176</ele>
        <time>2011-05-17T10:43:31.000Z</time>
      </trkpt>
      <trkpt lat="48.74267" lon="1.86014">
        <ele>145.19999694824</ele>
        <time>2011-05-17T10:43:38.000Z</time>
      </trkpt>
      <trkpt lat="48.74261" lon="1.86015">
        <ele>145.19999694824</ele>
        <time>2011-05-17T10:43:44.000Z</time>
      </trkpt>
      <trkpt lat="48.74252" lon="1.86017">
        <ele>145.39999389648</ele>
        <time>2011-05-17T10:43:51.000Z</time>
      </trkpt>
      <trkpt lat="48.74241" lon="1.86019">
        <ele>145.39999389648</ele>
        <time>2011-05-17T10:43:58.000Z</time>
      </trkpt>
      <trkpt lat="48.74236" lon="1.8602">
        <ele>145.39999389648</ele>
        <time>2011-05-17T10:44:04.000Z</time>
      </trkpt>
      <trkpt lat="48.74235" lon="1.86023">
        <ele>145.80000305176</ele>
        <time>2011-05-17T10:44:10.000Z</time>
      </trkpt>
      <trkpt lat="48.74272" lon="1.86137">
        <ele>168.39999389648</ele>
        <time>2011-05-17T10:46:56.000Z</time>
      </trkpt>
      <trkpt lat="48.7427" lon="1.86142">
        <ele>169.19999694824</ele>
        <time>2011-05-17T10:47:00.000Z</time>
      </trkpt>
      <trkpt lat="48.74268" lon="1.86146">
        <ele>169.80000305176</ele>
        <time>2011-05-17T10:47:07.000Z</time>
      </trkpt>
      <trkpt lat="48.74259" lon="1.86143">
        <ele>169</ele>
        <time>2011-05-17T10:48:01.000Z</time>
      </trkpt>
      <trkpt lat="48.74263" lon="1.86138">
        <ele>168.19999694824</ele>
        <time>2011-05-17T10:48:07.000Z</time>
      </trkpt>
      <trkpt lat="48.74265" lon="1.86134">
        <ele>167.60000610352</ele>
        <time>2011-05-17T10:48:15.000Z</time>
      </trkpt>
      <trkpt lat="48.74264" lon="1.86147">
        <ele>169.80000305176</ele>
        <time>2011-05-17T10:49:47.000Z</time>
      </trkpt>
      <trkpt lat="48.74262" lon="1.86156">
        <ele>171.39999389648</ele>
        <time>2011-05-17T10:49:53.000Z</time>
      </trkpt>
      <trkpt lat="48.74259" lon="1.86164">
        <ele>172.80000305176</ele>
        <time>2011-05-17T10:49:58.000Z</time>
      </trkpt>
      <trkpt lat="48.74253" lon="1.86175">
        <ele>173.39999389648</ele>
        <time>2011-05-17T10:50:06.000Z</time>
      </trkpt>
      <trkpt lat="48.74252" lon="1.86179">
        <ele>173.60000610352</ele>
        <time>2011-05-17T10:50:09.000Z</time>
      </trkpt>
      <trkpt lat="48.74253" lon="1.86189">
        <ele>174.19999694824</ele>
        <time>2011-05-17T10:50:14.000Z</time>
      </trkpt>
      <trkpt lat="48.74252" lon="1.86195">
        <ele>174.39999389648</ele>
        <time>2011-05-17T10:50:20.000Z</time>
      </trkpt>
      <trkpt lat="48.74241" lon="1.86201">
        <ele>174.19999694824</ele>
        <time>2011-05-17T10:50:50.000Z</time>
      </trkpt>
      <trkpt lat="48.74238" lon="1.86205">
        <ele>174.19999694824</ele>
        <time>2011-05-17T10:50:52.000Z</time>
      </trkpt>
      <trkpt lat="48.74235" lon="1.86214">
        <ele>174.60000610352</ele>
        <time>2011-05-17T10:50:59.000Z</time>
      </trkpt>
      <trkpt lat="48.74232" lon="1.86217">
        <ele>174.80000305176</ele>
        <time>2011-05-17T10:51:03.000Z</time>
      </trkpt>
      <trkpt lat="48.74221" lon="1.86226">
        <ele>175</ele>
        <time>2011-05-17T10:51:13.000Z</time>
      </trkpt>
      <trkpt lat="48.74212" lon="1.86235">
        <ele>175.60000610352</ele>
        <time>2011-05-17T10:51:23.000Z</time>
      </trkpt>
      <trkpt lat="48.74206" lon="1.86243">
        <ele>176.19999694824</ele>
        <time>2011-05-17T10:51:30.000Z</time>
      </trkpt>
      <trkpt lat="48.74204" lon="1.86245">
        <ele>176.39999389648</ele>
        <time>2011-05-17T10:51:32.000Z</time>
      </trkpt>
      <trkpt lat="48.74201" lon="1.86257">
        <ele>176.60000610352</ele>
        <time>2011-05-17T10:51:39.000Z</time>
      </trkpt>
      <trkpt lat="48.74199" lon="1.86263">
        <ele>176.60000610352</ele>
        <time>2011-05-17T10:51:46.000Z</time>
      </trkpt>
      <trkpt lat="48.74191" lon="1.86295">
        <ele>175.80000305176</ele>
        <time>2011-05-17T10:52:40.000Z</time>
      </trkpt>
      <trkpt lat="48.74187" lon="1.86311">
        <ele>175.39999389648</ele>
        <time>2011-05-17T10:52:48.000Z</time>
      </trkpt>
      <trkpt lat="48.74181" lon="1.86325">
        <ele>175.39999389648</ele>
        <time>2011-05-17T10:52:56.000Z</time>
      </trkpt>
      <trkpt lat="48.74178" lon="1.86333">
        <ele>175.39999389648</ele>
        <time>2011-05-17T10:53:01.000Z</time>
      </trkpt>
      <trkpt lat="48.74176" lon="1.86341">
        <ele>175.19999694824</ele>
        <time>2011-05-17T10:53:05.000Z</time>
      </trkpt>
      <trkpt lat="48.74174" lon="1.86349">
        <ele>175</ele>
        <time>2011-05-17T10:53:10.000Z</time>
      </trkpt>
      <trkpt lat="48.74173" lon="1.86351">
        <ele>175</ele>
        <time>2011-05-17T10:53:14.000Z</time>
      </trkpt>
      <trkpt lat="48.74168" lon="1.86346">
        <ele>175.39999389648</ele>
        <time>2011-05-17T10:53:31.000Z</time>
      </trkpt>
      <trkpt lat="48.74165" lon="1.86342">
        <ele>175.60000610352</ele>
        <time>2011-05-17T10:53:33.000Z</time>
      </trkpt>
      <trkpt lat="48.74162" lon="1.86341">
        <ele>175.80000305176</ele>
        <time>2011-05-17T10:53:35.000Z</time>
      </trkpt>
      <trkpt lat="48.7415" lon="1.86343">
        <ele>176</ele>
        <time>2011-05-17T10:53:44.000Z</time>
      </trkpt>
      <trkpt lat="48.74148" lon="1.86342">
        <ele>176</ele>
        <time>2011-05-17T10:53:45.000Z</time>
      </trkpt>
      <trkpt lat="48.74139" lon="1.86335">
        <ele>176.60000610352</ele>
        <time>2011-05-17T10:53:53.000Z</time>
      </trkpt>
      <trkpt lat="48.7413" lon="1.86328">
        <ele>177</ele>
        <time>2011-05-17T10:54:01.000Z</time>
      </trkpt>
      <trkpt lat="48.74117" lon="1.86322">
        <ele>177.39999389648</ele>
        <time>2011-05-17T10:54:10.000Z</time>
      </trkpt>
      <trkpt lat="48.74107" lon="1.86318">
        <ele>178</ele>
        <time>2011-05-17T10:54:17.000Z</time>
      </trkpt>
      <trkpt lat="48.74101" lon="1.86312">
        <ele>178.39999389648</ele>
        <time>2011-05-17T10:54:23.000Z</time>
      </trkpt>
      <trkpt lat="48.74097" lon="1.86305">
        <ele>178.80000305176</ele>
        <time>2011-05-17T10:54:28.000Z</time>
      </trkpt>
      <trkpt lat="48.74092" lon="1.86296">
        <ele>179.39999389648</ele>
        <time>2011-05-17T10:54:33.000Z</time>
      </trkpt>
      <trkpt lat="48.7409" lon="1.86294">
        <ele>179.60000610352</ele>
        <time>2011-05-17T10:54:35.000Z</time>
      </trkpt>
      <trkpt lat="48.74084" lon="1.86288">
        <ele>180</ele>
        <time>2011-05-17T10:54:40.000Z</time>
      </trkpt>
      <trkpt lat="48.74071" lon="1.8628">
        <ele>180.60000610352</ele>
        <time>2011-05-17T10:54:48.000Z</time>
      </trkpt>
      <trkpt lat="48.74062" lon="1.86272">
        <ele>181.19999694824</ele>
        <time>2011-05-17T10:54:55.000Z</time>
      </trkpt>
      <trkpt lat="48.74054" lon="1.86266">
        <ele>181.60000610352</ele>
        <time>2011-05-17T10:55:01.000Z</time>
      </trkpt>
      <trkpt lat="48.74046" lon="1.8626">
        <ele>182.19999694824</ele>
        <time>2011-05-17T10:55:07.000Z</time>
      </trkpt>
      <trkpt lat="48.74037" lon="1.86257">
        <ele>182.60000610352</ele>
        <time>2011-05-17T10:55:13.000Z</time>
      </trkpt>
      <trkpt lat="48.74025" lon="1.86255">
        <ele>183</ele>
        <time>2011-05-17T10:55:20.000Z</time>
      </trkpt>
      <trkpt lat="48.74016" lon="1.86252">
        <ele>183.39999389648</ele>
        <time>2011-05-17T10:55:26.000Z</time>
      </trkpt>
      <trkpt lat="48.74007" lon="1.86247">
        <ele>183.60000610352</ele>
        <time>2011-05-17T10:55:32.000Z</time>
      </trkpt>
      <trkpt lat="48.73998" lon="1.86243">
        <ele>183.80000305176</ele>
        <time>2011-05-17T10:55:38.000Z</time>
      </trkpt>
      <trkpt lat="48.7399" lon="1.86237">
        <ele>184.19999694824</ele>
        <time>2011-05-17T10:55:44.000Z</time>
      </trkpt>
      <trkpt lat="48.7398" lon="1.86227">
        <ele>184.80000305176</ele>
        <time>2011-05-17T10:55:51.000Z</time>
      </trkpt>
      <trkpt lat="48.73971" lon="1.8622">
        <ele>185.39999389648</ele>
        <time>2011-05-17T10:55:56.000Z</time>
      </trkpt>
      <trkpt lat="48.73965" lon="1.86216">
        <ele>185.80000305176</ele>
        <time>2011-05-17T10:56:00.000Z</time>
      </trkpt>
      <trkpt lat="48.73955" lon="1.86209">
        <ele>186.39999389648</ele>
        <time>2011-05-17T10:56:06.000Z</time>
      </trkpt>
      <trkpt lat="48.73943" lon="1.86197">
        <ele>187.19999694824</ele>
        <time>2011-05-17T10:56:11.000Z</time>
      </trkpt>
      <trkpt lat="48.73926" lon="1.86181">
        <ele>188.39999389648</ele>
        <time>2011-05-17T10:56:16.000Z</time>
      </trkpt>
      <trkpt lat="48.73912" lon="1.86172">
        <ele>189</ele>
        <time>2011-05-17T10:56:20.000Z</time>
      </trkpt>
      <trkpt lat="48.73896" lon="1.86157">
        <ele>187.80000305176</ele>
        <time>2011-05-17T10:56:25.000Z</time>
      </trkpt>
      <trkpt lat="48.73877" lon="1.86153">
        <ele>187.60000610352</ele>
        <time>2011-05-17T10:56:30.000Z</time>
      </trkpt>
      <trkpt lat="48.7386" lon="1.86149">
        <ele>187.80000305176</ele>
        <time>2011-05-17T10:56:35.000Z</time>
      </trkpt>
      <trkpt lat="48.73852" lon="1.86139">
        <ele>187.39999389648</ele>
        <time>2011-05-17T10:56:38.000Z</time>
      </trkpt>
      <trkpt lat="48.7385" lon="1.86135">
        <ele>187.19999694824</ele>
        <time>2011-05-17T10:56:40.000Z</time>
      </trkpt>
      <trkpt lat="48.73853" lon="1.86139">
        <ele>187.39999389648</ele>
        <time>2011-05-17T10:56:47.000Z</time>
      </trkpt>
      <trkpt lat="48.73852" lon="1.86144">
        <ele>187.60000610352</ele>
        <time>2011-05-17T10:56:50.000Z</time>
      </trkpt>
      <trkpt lat="48.73836" lon="1.86156">
        <ele>188.60000610352</ele>
        <time>2011-05-17T10:56:56.000Z</time>
      </trkpt>
      <trkpt lat="48.73818" lon="1.86167">
        <ele>188.60000610352</ele>
        <time>2011-05-17T10:57:01.000Z</time>
      </trkpt>
      <trkpt lat="48.73803" lon="1.86176">
        <ele>188.39999389648</ele>
        <time>2011-05-17T10:57:05.000Z</time>
      </trkpt>
      <trkpt lat="48.73783" lon="1.86184">
        <ele>188.19999694824</ele>
        <time>2011-05-17T10:57:11.000Z</time>
      </trkpt>
      <trkpt lat="48.73767" lon="1.86185">
        <ele>188</ele>
        <time>2011-05-17T10:57:16.000Z</time>
      </trkpt>
      <trkpt lat="48.73748" lon="1.86188">
        <ele>187.60000610352</ele>
        <time>2011-05-17T10:57:21.000Z</time>
      </trkpt>
      <trkpt lat="48.73728" lon="1.86196">
        <ele>188</ele>
        <time>2011-05-17T10:57:26.000Z</time>
      </trkpt>
      <trkpt lat="48.73711" lon="1.86203">
        <ele>188.19999694824</ele>
        <time>2011-05-17T10:57:31.000Z</time>
      </trkpt>
      <trkpt lat="48.73689" lon="1.86212">
        <ele>188.39999389648</ele>
        <time>2011-05-17T10:57:37.000Z</time>
      </trkpt>
      <trkpt lat="48.73672" lon="1.8622">
        <ele>188.60000610352</ele>
        <time>2011-05-17T10:57:42.000Z</time>
      </trkpt>
      <trkpt lat="48.73653" lon="1.86232">
        <ele>188.19999694824</ele>
        <time>2011-05-17T10:57:47.000Z</time>
      </trkpt>
      <trkpt lat="48.73636" lon="1.86241">
        <ele>187.60000610352</ele>
        <time>2011-05-17T10:57:52.000Z</time>
      </trkpt>
      <trkpt lat="48.73615" lon="1.86255">
        <ele>186.80000305176</ele>
        <time>2011-05-17T10:57:58.000Z</time>
      </trkpt>
      <trkpt lat="48.73598" lon="1.86264">
        <ele>185.80000305176</ele>
        <time>2011-05-17T10:58:03.000Z</time>
      </trkpt>
      <trkpt lat="48.73581" lon="1.86279">
        <ele>184.80000305176</ele>
        <time>2011-05-17T10:58:08.000Z</time>
      </trkpt>
      <trkpt lat="48.73571" lon="1.86284">
        <ele>184.39999389648</ele>
        <time>2011-05-17T10:58:11.000Z</time>
      </trkpt>
      <trkpt lat="48.73555" lon="1.86283">
        <ele>184</ele>
        <time>2011-05-17T10:58:17.000Z</time>
      </trkpt>
      <trkpt lat="48.73539" lon="1.86289">
        <ele>183.60000610352</ele>
        <time>2011-05-17T10:58:22.000Z</time>
      </trkpt>
      <trkpt lat="48.73523" lon="1.86296">
        <ele>183.19999694824</ele>
        <time>2011-05-17T10:58:27.000Z</time>
      </trkpt>
      <trkpt lat="48.7351" lon="1.86311">
        <ele>183</ele>
        <time>2011-05-17T10:58:32.000Z</time>
      </trkpt>
      <trkpt lat="48.73497" lon="1.86319">
        <ele>183</ele>
        <time>2011-05-17T10:58:36.000Z</time>
      </trkpt>
      <trkpt lat="48.73478" lon="1.86325">
        <ele>183.39999389648</ele>
        <time>2011-05-17T10:58:41.000Z</time>
      </trkpt>
      <trkpt lat="48.73463" lon="1.86331">
        <ele>183.80000305176</ele>
        <time>2011-05-17T10:58:45.000Z</time>
      </trkpt>
      <trkpt lat="48.7344" lon="1.86337">
        <ele>184.19999694824</ele>
        <time>2011-05-17T10:58:51.000Z</time>
      </trkpt>
      <trkpt lat="48.7342" lon="1.86342">
        <ele>184.39999389648</ele>
        <time>2011-05-17T10:58:57.000Z</time>
      </trkpt>
      <trkpt lat="48.73408" lon="1.86345">
        <ele>184.39999389648</ele>
        <time>2011-05-17T10:59:01.000Z</time>
      </trkpt>
      <trkpt lat="48.73389" lon="1.86352">
        <ele>184</ele>
        <time>2011-05-17T10:59:07.000Z</time>
      </trkpt>
      <trkpt lat="48.73372" lon="1.86362">
        <ele>183.60000610352</ele>
        <time>2011-05-17T10:59:12.000Z</time>
      </trkpt>
      <trkpt lat="48.73353" lon="1.86373">
        <ele>183</ele>
        <time>2011-05-17T10:59:18.000Z</time>
      </trkpt>
      <trkpt lat="48.7334" lon="1.86376">
        <ele>182.80000305176</ele>
        <time>2011-05-17T10:59:22.000Z</time>
      </trkpt>
      <trkpt lat="48.73323" lon="1.86373">
        <ele>183.19999694824</ele>
        <time>2011-05-17T10:59:27.000Z</time>
      </trkpt>
      <trkpt lat="48.73314" lon="1.86375">
        <ele>183.60000610352</ele>
        <time>2011-05-17T10:59:31.000Z</time>
      </trkpt>
      <trkpt lat="48.73308" lon="1.86379">
        <ele>183.39999389648</ele>
        <time>2011-05-17T10:59:33.000Z</time>
      </trkpt>
      <trkpt lat="48.73294" lon="1.86384">
        <ele>183.60000610352</ele>
        <time>2011-05-17T10:59:38.000Z</time>
      </trkpt>
      <trkpt lat="48.73278" lon="1.86381">
        <ele>184.19999694824</ele>
        <time>2011-05-17T10:59:42.000Z</time>
      </trkpt>
      <trkpt lat="48.73274" lon="1.86378">
        <ele>184.39999389648</ele>
        <time>2011-05-17T10:59:43.000Z</time>
      </trkpt>
      <trkpt lat="48.7326" lon="1.86364">
        <ele>185.80000305176</ele>
        <time>2011-05-17T10:59:47.000Z</time>
      </trkpt>
      <trkpt lat="48.73241" lon="1.86348">
        <ele>186.80000305176</ele>
        <time>2011-05-17T10:59:52.000Z</time>
      </trkpt>
      <trkpt lat="48.73234" lon="1.86343">
        <ele>186.80000305176</ele>
        <time>2011-05-17T10:59:54.000Z</time>
      </trkpt>
      <trkpt lat="48.73217" lon="1.86333">
        <ele>187.19999694824</ele>
        <time>2011-05-17T10:59:58.000Z</time>
      </trkpt>
      <trkpt lat="48.73191" lon="1.86316">
        <ele>187</ele>
        <time>2011-05-17T11:00:03.000Z</time>
      </trkpt>
      <trkpt lat="48.73177" lon="1.86304">
        <ele>187</ele>
        <time>2011-05-17T11:00:06.000Z</time>
      </trkpt>
      <trkpt lat="48.73149" lon="1.86284">
        <ele>187.80000305176</ele>
        <time>2011-05-17T11:00:12.000Z</time>
      </trkpt>
      <trkpt lat="48.73145" lon="1.86281">
        <ele>187.80000305176</ele>
        <time>2011-05-17T11:00:13.000Z</time>
      </trkpt>
      <trkpt lat="48.73115" lon="1.86264">
        <ele>188.60000610352</ele>
        <time>2011-05-17T11:00:18.000Z</time>
      </trkpt>
      <trkpt lat="48.73088" lon="1.86241">
        <ele>188.80000305176</ele>
        <time>2011-05-17T11:00:23.000Z</time>
      </trkpt>
      <trkpt lat="48.73053" lon="1.86219">
        <ele>188.19999694824</ele>
        <time>2011-05-17T11:00:29.000Z</time>
      </trkpt>
      <trkpt lat="48.73034" lon="1.86207">
        <ele>188.19999694824</ele>
        <time>2011-05-17T11:00:33.000Z</time>
      </trkpt>
      <trkpt lat="48.72998" lon="1.86181">
        <ele>188.80000305176</ele>
        <time>2011-05-17T11:00:39.000Z</time>
      </trkpt>
      <trkpt lat="48.72993" lon="1.86176">
        <ele>188.80000305176</ele>
        <time>2011-05-17T11:00:40.000Z</time>
      </trkpt>
      <trkpt lat="48.72959" lon="1.86151">
        <ele>189.39999389648</ele>
        <time>2011-05-17T11:00:46.000Z</time>
      </trkpt>
      <trkpt lat="48.72945" lon="1.86141">
        <ele>189.60000610352</ele>
        <time>2011-05-17T11:00:49.000Z</time>
      </trkpt>
      <trkpt lat="48.72928" lon="1.8613">
        <ele>189.80000305176</ele>
        <time>2011-05-17T11:00:53.000Z</time>
      </trkpt>
      <trkpt lat="48.72908" lon="1.86112">
        <ele>189.80000305176</ele>
        <time>2011-05-17T11:00:58.000Z</time>
      </trkpt>
      <trkpt lat="48.72887" lon="1.86081">
        <ele>190</ele>
        <time>2011-05-17T11:01:05.000Z</time>
      </trkpt>
      <trkpt lat="48.72883" lon="1.86077">
        <ele>190</ele>
        <time>2011-05-17T11:01:06.000Z</time>
      </trkpt>
      <trkpt lat="48.72872" lon="1.86059">
        <ele>190.19999694824</ele>
        <time>2011-05-17T11:01:10.000Z</time>
      </trkpt>
      <trkpt lat="48.72867" lon="1.86048">
        <ele>190.39999389648</ele>
        <time>2011-05-17T11:01:12.000Z</time>
      </trkpt>
      <trkpt lat="48.72864" lon="1.86026">
        <ele>190.60000610352</ele>
        <time>2011-05-17T11:01:16.000Z</time>
      </trkpt>
      <trkpt lat="48.72856" lon="1.85998">
        <ele>191</ele>
        <time>2011-05-17T11:01:21.000Z</time>
      </trkpt>
      <trkpt lat="48.72846" lon="1.85967">
        <ele>191.19999694824</ele>
        <time>2011-05-17T11:01:26.000Z</time>
      </trkpt>
      <trkpt lat="48.72838" lon="1.85945">
        <ele>191.60000610352</ele>
        <time>2011-05-17T11:01:30.000Z</time>
      </trkpt>
      <trkpt lat="48.72834" lon="1.85936">
        <ele>191.60000610352</ele>
        <time>2011-05-17T11:01:32.000Z</time>
      </trkpt>
      <trkpt lat="48.72831" lon="1.85924">
        <ele>191.80000305176</ele>
        <time>2011-05-17T11:01:34.000Z</time>
      </trkpt>
      <trkpt lat="48.72825" lon="1.85907">
        <ele>191.60000610352</ele>
        <time>2011-05-17T11:01:37.000Z</time>
      </trkpt>
      <trkpt lat="48.72814" lon="1.8588">
        <ele>191.19999694824</ele>
        <time>2011-05-17T11:01:42.000Z</time>
      </trkpt>
      <trkpt lat="48.72805" lon="1.85841">
        <ele>190.39999389648</ele>
        <time>2011-05-17T11:01:49.000Z</time>
      </trkpt>
      <trkpt lat="48.72797" lon="1.85817">
        <ele>189.80000305176</ele>
        <time>2011-05-17T11:01:54.000Z</time>
      </trkpt>
      <trkpt lat="48.72784" lon="1.85781">
        <ele>188.80000305176</ele>
        <time>2011-05-17T11:02:00.000Z</time>
      </trkpt>
      <trkpt lat="48.72782" lon="1.85776">
        <ele>188.80000305176</ele>
        <time>2011-05-17T11:02:01.000Z</time>
      </trkpt>
      <trkpt lat="48.72778" lon="1.85759">
        <ele>188.39999389648</ele>
        <time>2011-05-17T11:02:04.000Z</time>
      </trkpt>
      <trkpt lat="48.72769" lon="1.85728">
        <ele>187.60000610352</ele>
        <time>2011-05-17T11:02:09.000Z</time>
      </trkpt>
      <trkpt lat="48.72757" lon="1.85693">
        <ele>186.60000610352</ele>
        <time>2011-05-17T11:02:15.000Z</time>
      </trkpt>
      <trkpt lat="48.72751" lon="1.85667">
        <ele>186</ele>
        <time>2011-05-17T11:02:20.000Z</time>
      </trkpt>
      <trkpt lat="48.72744" lon="1.8564">
        <ele>185.80000305176</ele>
        <time>2011-05-17T11:02:25.000Z</time>
      </trkpt>
      <trkpt lat="48.72739" lon="1.85618">
        <ele>186</ele>
        <time>2011-05-17T11:02:30.000Z</time>
      </trkpt>
      <trkpt lat="48.7273" lon="1.85589">
        <ele>186.19999694824</ele>
        <time>2011-05-17T11:02:36.000Z</time>
      </trkpt>
      <trkpt lat="48.72723" lon="1.85563">
        <ele>186.19999694824</ele>
        <time>2011-05-17T11:02:41.000Z</time>
      </trkpt>
      <trkpt lat="48.72715" lon="1.85536">
        <ele>186.19999694824</ele>
        <time>2011-05-17T11:02:46.000Z</time>
      </trkpt>
      <trkpt lat="48.72705" lon="1.85498">
        <ele>186.60000610352</ele>
        <time>2011-05-17T11:02:53.000Z</time>
      </trkpt>
      <trkpt lat="48.72699" lon="1.85481">
        <ele>186.80000305176</ele>
        <time>2011-05-17T11:02:56.000Z</time>
      </trkpt>
      <trkpt lat="48.72681" lon="1.85436">
        <ele>187</ele>
        <time>2011-05-17T11:03:03.000Z</time>
      </trkpt>
      <trkpt lat="48.72676" lon="1.85423">
        <ele>187</ele>
        <time>2011-05-17T11:03:05.000Z</time>
      </trkpt>
      <trkpt lat="48.72666" lon="1.85394">
        <ele>187.19999694824</ele>
        <time>2011-05-17T11:03:10.000Z</time>
      </trkpt>
      <trkpt lat="48.72661" lon="1.85373">
        <ele>187.39999389648</ele>
        <time>2011-05-17T11:03:14.000Z</time>
      </trkpt>
      <trkpt lat="48.72658" lon="1.85362">
        <ele>187.60000610352</ele>
        <time>2011-05-17T11:03:16.000Z</time>
      </trkpt>
      <trkpt lat="48.72649" lon="1.85331">
        <ele>188</ele>
        <time>2011-05-17T11:03:21.000Z</time>
      </trkpt>
      <trkpt lat="48.72642" lon="1.85298">
        <ele>188</ele>
        <time>2011-05-17T11:03:27.000Z</time>
      </trkpt>
      <trkpt lat="48.72634" lon="1.85264">
        <ele>188.19999694824</ele>
        <time>2011-05-17T11:03:33.000Z</time>
      </trkpt>
      <trkpt lat="48.72631" lon="1.85252">
        <ele>188.39999389648</ele>
        <time>2011-05-17T11:03:35.000Z</time>
      </trkpt>
      <trkpt lat="48.72627" lon="1.85234">
        <ele>188.19999694824</ele>
        <time>2011-05-17T11:03:38.000Z</time>
      </trkpt>
      <trkpt lat="48.7262" lon="1.8521">
        <ele>188.19999694824</ele>
        <time>2011-05-17T11:03:42.000Z</time>
      </trkpt>
      <trkpt lat="48.72616" lon="1.85191">
        <ele>188.19999694824</ele>
        <time>2011-05-17T11:03:45.000Z</time>
      </trkpt>
      <trkpt lat="48.72608" lon="1.85167">
        <ele>188.39999389648</ele>
        <time>2011-05-17T11:03:49.000Z</time>
      </trkpt>
      <trkpt lat="48.72601" lon="1.85149">
        <ele>188.60000610352</ele>
        <time>2011-05-17T11:03:52.000Z</time>
      </trkpt>
      <trkpt lat="48.72596" lon="1.85125">
        <ele>189</ele>
        <time>2011-05-17T11:03:57.000Z</time>
      </trkpt>
      <trkpt lat="48.72595" lon="1.85119">
        <ele>189</ele>
        <time>2011-05-17T11:03:58.000Z</time>
      </trkpt>
      <trkpt lat="48.72582" lon="1.85083">
        <ele>189.80000305176</ele>
        <time>2011-05-17T11:04:04.000Z</time>
      </trkpt>
      <trkpt lat="48.72579" lon="1.85059">
        <ele>189.60000610352</ele>
        <time>2011-05-17T11:04:09.000Z</time>
      </trkpt>
      <trkpt lat="48.72577" lon="1.85028">
        <ele>189.19999694824</ele>
        <time>2011-05-17T11:04:14.000Z</time>
      </trkpt>
      <trkpt lat="48.72573" lon="1.84995">
        <ele>189</ele>
        <time>2011-05-17T11:04:19.000Z</time>
      </trkpt>
      <trkpt lat="48.72571" lon="1.84946">
        <ele>188.60000610352</ele>
        <time>2011-05-17T11:04:25.000Z</time>
      </trkpt>
      <trkpt lat="48.72565" lon="1.84891">
        <ele>188.60000610352</ele>
        <time>2011-05-17T11:04:30.000Z</time>
      </trkpt>
      <trkpt lat="48.72565" lon="1.84842">
        <ele>189</ele>
        <time>2011-05-17T11:04:35.000Z</time>
      </trkpt>
      <trkpt lat="48.72563" lon="1.84792">
        <ele>189.39999389648</ele>
        <time>2011-05-17T11:04:40.000Z</time>
      </trkpt>
      <trkpt lat="48.72554" lon="1.84728">
        <ele>190.39999389648</ele>
        <time>2011-05-17T11:04:46.000Z</time>
      </trkpt>
      <trkpt lat="48.72551" lon="1.84708">
        <ele>191</ele>
        <time>2011-05-17T11:04:48.000Z</time>
      </trkpt>
      <trkpt lat="48.72546" lon="1.84651">
        <ele>192.60000610352</ele>
        <time>2011-05-17T11:04:54.000Z</time>
      </trkpt>
      <trkpt lat="48.72543" lon="1.84635">
        <ele>192.60000610352</ele>
        <time>2011-05-17T11:04:56.000Z</time>
      </trkpt>
      <trkpt lat="48.7254" lon="1.8461">
        <ele>192.80000305176</ele>
        <time>2011-05-17T11:04:59.000Z</time>
      </trkpt>
      <trkpt lat="48.72539" lon="1.84574">
        <ele>192.80000305176</ele>
        <time>2011-05-17T11:05:04.000Z</time>
      </trkpt>
      <trkpt lat="48.72534" lon="1.84543">
        <ele>192.19999694824</ele>
        <time>2011-05-17T11:05:09.000Z</time>
      </trkpt>
      <trkpt lat="48.72534" lon="1.84537">
        <ele>192.19999694824</ele>
        <time>2011-05-17T11:05:10.000Z</time>
      </trkpt>
      <trkpt lat="48.72533" lon="1.84518">
        <ele>191.80000305176</ele>
        <time>2011-05-17T11:05:13.000Z</time>
      </trkpt>
      <trkpt lat="48.72532" lon="1.84505">
        <ele>191.60000610352</ele>
        <time>2011-05-17T11:05:15.000Z</time>
      </trkpt>
      <trkpt lat="48.72528" lon="1.84471">
        <ele>190.80000305176</ele>
        <time>2011-05-17T11:05:21.000Z</time>
      </trkpt>
      <trkpt lat="48.72524" lon="1.84441">
        <ele>190.19999694824</ele>
        <time>2011-05-17T11:05:26.000Z</time>
      </trkpt>
      <trkpt lat="48.72522" lon="1.84434">
        <ele>190</ele>
        <time>2011-05-17T11:05:27.000Z</time>
      </trkpt>
      <trkpt lat="48.72516" lon="1.84406">
        <ele>189.80000305176</ele>
        <time>2011-05-17T11:05:31.000Z</time>
      </trkpt>
      <trkpt lat="48.72514" lon="1.84387">
        <ele>189.80000305176</ele>
        <time>2011-05-17T11:05:35.000Z</time>
      </trkpt>
      <trkpt lat="48.72512" lon="1.84362">
        <ele>189.80000305176</ele>
        <time>2011-05-17T11:05:40.000Z</time>
      </trkpt>
      <trkpt lat="48.72513" lon="1.84352">
        <ele>189.80000305176</ele>
        <time>2011-05-17T11:05:43.000Z</time>
      </trkpt>
      <trkpt lat="48.72512" lon="1.84348">
        <ele>189.80000305176</ele>
        <time>2011-05-17T11:05:48.000Z</time>
      </trkpt>
      <trkpt lat="48.72512" lon="1.84343">
        <ele>189.80000305176</ele>
        <time>2011-05-17T11:05:52.000Z</time>
      </trkpt>
      <trkpt lat="48.72512" lon="1.8434">
        <ele>189.80000305176</ele>
        <time>2011-05-17T11:05:53.000Z</time>
      </trkpt>
      <trkpt lat="48.72512" lon="1.84321">
        <ele>189.80000305176</ele>
        <time>2011-05-17T11:06:00.000Z</time>
      </trkpt>
      <trkpt lat="48.7251" lon="1.84307">
        <ele>190</ele>
        <time>2011-05-17T11:06:06.000Z</time>
      </trkpt>
      <trkpt lat="48.72513" lon="1.84287">
        <ele>190.19999694824</ele>
        <time>2011-05-17T11:06:15.000Z</time>
      </trkpt>
      <trkpt lat="48.72514" lon="1.84273">
        <ele>190.39999389648</ele>
        <time>2011-05-17T11:06:21.000Z</time>
      </trkpt>
      <trkpt lat="48.72514" lon="1.84268">
        <ele>190.39999389648</ele>
        <time>2011-05-17T11:06:23.000Z</time>
      </trkpt>
      <trkpt lat="48.72515" lon="1.8425">
        <ele>190.60000610352</ele>
        <time>2011-05-17T11:06:30.000Z</time>
      </trkpt>
      <trkpt lat="48.72516" lon="1.84246">
        <ele>190.60000610352</ele>
        <time>2011-05-17T11:06:32.000Z</time>
      </trkpt>
      <trkpt lat="48.72517" lon="1.8424">
        <ele>190.60000610352</ele>
        <time>2011-05-17T11:06:35.000Z</time>
      </trkpt>
      <trkpt lat="48.72519" lon="1.8423">
        <ele>190.60000610352</ele>
        <time>2011-05-17T11:06:40.000Z</time>
      </trkpt>
      <trkpt lat="48.72523" lon="1.84215">
        <ele>190.60000610352</ele>
        <time>2011-05-17T11:06:47.000Z</time>
      </trkpt>
      <trkpt lat="48.72524" lon="1.84206">
        <ele>190.80000305176</ele>
        <time>2011-05-17T11:06:51.000Z</time>
      </trkpt>
      <trkpt lat="48.72525" lon="1.84187">
        <ele>191</ele>
        <time>2011-05-17T11:06:59.000Z</time>
      </trkpt>
      <trkpt lat="48.72528" lon="1.8417">
        <ele>191.19999694824</ele>
        <time>2011-05-17T11:07:06.000Z</time>
      </trkpt>
      <trkpt lat="48.72529" lon="1.84158">
        <ele>191.39999389648</ele>
        <time>2011-05-17T11:07:11.000Z</time>
      </trkpt>
      <trkpt lat="48.72529" lon="1.8415">
        <ele>191.39999389648</ele>
        <time>2011-05-17T11:07:14.000Z</time>
      </trkpt>
      <trkpt lat="48.7253" lon="1.84138">
        <ele>191.60000610352</ele>
        <time>2011-05-17T11:07:19.000Z</time>
      </trkpt>
      <trkpt lat="48.72531" lon="1.84123">
        <ele>191.60000610352</ele>
        <time>2011-05-17T11:07:25.000Z</time>
      </trkpt>
      <trkpt lat="48.72529" lon="1.84102">
        <ele>191.80000305176</ele>
        <time>2011-05-17T11:07:32.000Z</time>
      </trkpt>
      <trkpt lat="48.72528" lon="1.84081">
        <ele>192</ele>
        <time>2011-05-17T11:07:39.000Z</time>
      </trkpt>
      <trkpt lat="48.72528" lon="1.84079">
        <ele>192</ele>
        <time>2011-05-17T11:07:40.000Z</time>
      </trkpt>
      <trkpt lat="48.72533" lon="1.84065">
        <ele>192.19999694824</ele>
        <time>2011-05-17T11:07:46.000Z</time>
      </trkpt>
      <trkpt lat="48.72535" lon="1.84048">
        <ele>192.19999694824</ele>
        <time>2011-05-17T11:07:53.000Z</time>
      </trkpt>
      <trkpt lat="48.72536" lon="1.84043">
        <ele>192.39999389648</ele>
        <time>2011-05-17T11:07:55.000Z</time>
      </trkpt>
      <trkpt lat="48.72539" lon="1.84029">
        <ele>192.39999389648</ele>
        <time>2011-05-17T11:08:01.000Z</time>
      </trkpt>
      <trkpt lat="48.72539" lon="1.84026">
        <ele>192.39999389648</ele>
        <time>2011-05-17T11:08:02.000Z</time>
      </trkpt>
      <trkpt lat="48.72541" lon="1.84009">
        <ele>192.39999389648</ele>
        <time>2011-05-17T11:08:09.000Z</time>
      </trkpt>
      <trkpt lat="48.72542" lon="1.8399">
        <ele>192.39999389648</ele>
        <time>2011-05-17T11:08:16.000Z</time>
      </trkpt>
      <trkpt lat="48.72544" lon="1.83978">
        <ele>192.19999694824</ele>
        <time>2011-05-17T11:08:21.000Z</time>
      </trkpt>
      <trkpt lat="48.72543" lon="1.83959">
        <ele>192.19999694824</ele>
        <time>2011-05-17T11:08:28.000Z</time>
      </trkpt>
      <trkpt lat="48.72545" lon="1.8395">
        <ele>192</ele>
        <time>2011-05-17T11:08:32.000Z</time>
      </trkpt>
      <trkpt lat="48.72548" lon="1.83933">
        <ele>192</ele>
        <time>2011-05-17T11:08:39.000Z</time>
      </trkpt>
      <trkpt lat="48.72549" lon="1.83918">
        <ele>192</ele>
        <time>2011-05-17T11:08:45.000Z</time>
      </trkpt>
      <trkpt lat="48.72553" lon="1.83899">
        <ele>191.80000305176</ele>
        <time>2011-05-17T11:08:53.000Z</time>
      </trkpt>
      <trkpt lat="48.72555" lon="1.83877">
        <ele>191.80000305176</ele>
        <time>2011-05-17T11:09:02.000Z</time>
      </trkpt>
      <trkpt lat="48.72556" lon="1.83859">
        <ele>192</ele>
        <time>2011-05-17T11:09:09.000Z</time>
      </trkpt>
      <trkpt lat="48.72557" lon="1.83842">
        <ele>192</ele>
        <time>2011-05-17T11:09:16.000Z</time>
      </trkpt>
      <trkpt lat="48.72559" lon="1.8383">
        <ele>192</ele>
        <time>2011-05-17T11:09:21.000Z</time>
      </trkpt>
      <trkpt lat="48.72561" lon="1.83819">
        <ele>191.60000610352</ele>
        <time>2011-05-17T11:09:26.000Z</time>
      </trkpt>
      <trkpt lat="48.72561" lon="1.83815">
        <ele>191.39999389648</ele>
        <time>2011-05-17T11:09:28.000Z</time>
      </trkpt>
      <trkpt lat="48.72563" lon="1.8381">
        <ele>191.19999694824</ele>
        <time>2011-05-17T11:09:36.000Z</time>
      </trkpt>
      <trkpt lat="48.72563" lon="1.8381">
        <ele>191.19999694824</ele>
        <time>2011-05-17T11:09:37.000Z</time>
      </trkpt>
      <trkpt lat="48.72562" lon="1.83802">
        <ele>191</ele>
        <time>2011-05-17T11:09:44.000Z</time>
      </trkpt>
      <trkpt lat="48.72563" lon="1.83788">
        <ele>190.39999389648</ele>
        <time>2011-05-17T11:09:50.000Z</time>
      </trkpt>
      <trkpt lat="48.72567" lon="1.83772">
        <ele>189.80000305176</ele>
        <time>2011-05-17T11:09:57.000Z</time>
      </trkpt>
      <trkpt lat="48.72569" lon="1.83753">
        <ele>189</ele>
        <time>2011-05-17T11:10:04.000Z</time>
      </trkpt>
      <trkpt lat="48.72571" lon="1.83737">
        <ele>188.60000610352</ele>
        <time>2011-05-17T11:10:10.000Z</time>
      </trkpt>
      <trkpt lat="48.72571" lon="1.83734">
        <ele>188.60000610352</ele>
        <time>2011-05-17T11:10:11.000Z</time>
      </trkpt>
      <trkpt lat="48.7257" lon="1.83722">
        <ele>188.19999694824</ele>
        <time>2011-05-17T11:10:16.000Z</time>
      </trkpt>
      <trkpt lat="48.72573" lon="1.83705">
        <ele>187.80000305176</ele>
        <time>2011-05-17T11:10:23.000Z</time>
      </trkpt>
      <trkpt lat="48.72575" lon="1.83687">
        <ele>187.39999389648</ele>
        <time>2011-05-17T11:10:30.000Z</time>
      </trkpt>
      <trkpt lat="48.72575" lon="1.83682">
        <ele>187.39999389648</ele>
        <time>2011-05-17T11:10:32.000Z</time>
      </trkpt>
      <trkpt lat="48.72576" lon="1.83672">
        <ele>187.19999694824</ele>
        <time>2011-05-17T11:10:36.000Z</time>
      </trkpt>
      <trkpt lat="48.72581" lon="1.83648">
        <ele>186.19999694824</ele>
        <time>2011-05-17T11:10:46.000Z</time>
      </trkpt>
      <trkpt lat="48.72582" lon="1.83632">
        <ele>185.60000610352</ele>
        <time>2011-05-17T11:10:52.000Z</time>
      </trkpt>
      <trkpt lat="48.72583" lon="1.83609">
        <ele>184.80000305176</ele>
        <time>2011-05-17T11:11:00.000Z</time>
      </trkpt>
      <trkpt lat="48.72582" lon="1.83585">
        <ele>184</ele>
        <time>2011-05-17T11:11:08.000Z</time>
      </trkpt>
      <trkpt lat="48.72587" lon="1.8357">
        <ele>183.60000610352</ele>
        <time>2011-05-17T11:11:15.000Z</time>
      </trkpt>
      <trkpt lat="48.72589" lon="1.83559">
        <ele>183.39999389648</ele>
        <time>2011-05-17T11:11:20.000Z</time>
      </trkpt>
      <trkpt lat="48.72587" lon="1.83539">
        <ele>183.19999694824</ele>
        <time>2011-05-17T11:11:28.000Z</time>
      </trkpt>
      <trkpt lat="48.72583" lon="1.83525">
        <ele>183.19999694824</ele>
        <time>2011-05-17T11:11:35.000Z</time>
      </trkpt>
      <trkpt lat="48.72582" lon="1.83512">
        <ele>183</ele>
        <time>2011-05-17T11:11:41.000Z</time>
      </trkpt>
      <trkpt lat="48.72581" lon="1.83497">
        <ele>183</ele>
        <time>2011-05-17T11:11:48.000Z</time>
      </trkpt>
      <trkpt lat="48.72577" lon="1.83476">
        <ele>183.39999389648</ele>
        <time>2011-05-17T11:11:57.000Z</time>
      </trkpt>
      <trkpt lat="48.72573" lon="1.83463">
        <ele>183.60000610352</ele>
        <time>2011-05-17T11:12:03.000Z</time>
      </trkpt>
      <trkpt lat="48.72569" lon="1.83443">
        <ele>184</ele>
        <time>2011-05-17T11:12:12.000Z</time>
      </trkpt>
      <trkpt lat="48.72569" lon="1.8343">
        <ele>184.19999694824</ele>
        <time>2011-05-17T11:12:18.000Z</time>
      </trkpt>
      <trkpt lat="48.72582" lon="1.83432">
        <ele>184.60000610352</ele>
        <time>2011-05-17T11:12:27.000Z</time>
      </trkpt>
      <trkpt lat="48.72592" lon="1.8344">
        <ele>184</ele>
        <time>2011-05-17T11:12:34.000Z</time>
      </trkpt>
      <trkpt lat="48.72596" lon="1.83441">
        <ele>183.80000305176</ele>
        <time>2011-05-17T11:12:37.000Z</time>
      </trkpt>
      <trkpt lat="48.72601" lon="1.83439">
        <ele>183.80000305176</ele>
        <time>2011-05-17T11:12:40.000Z</time>
      </trkpt>
      <trkpt lat="48.72607" lon="1.83421">
        <ele>184</ele>
        <time>2011-05-17T11:12:48.000Z</time>
      </trkpt>
      <trkpt lat="48.72607" lon="1.83418">
        <ele>184</ele>
        <time>2011-05-17T11:12:49.000Z</time>
      </trkpt>
      <trkpt lat="48.72608" lon="1.83406">
        <ele>184</ele>
        <time>2011-05-17T11:12:54.000Z</time>
      </trkpt>
      <trkpt lat="48.72611" lon="1.83381">
        <ele>183.80000305176</ele>
        <time>2011-05-17T11:13:04.000Z</time>
      </trkpt>
      <trkpt lat="48.72614" lon="1.83362">
        <ele>183.60000610352</ele>
        <time>2011-05-17T11:13:12.000Z</time>
      </trkpt>
      <trkpt lat="48.72617" lon="1.83335">
        <ele>183.39999389648</ele>
        <time>2011-05-17T11:13:23.000Z</time>
      </trkpt>
      <trkpt lat="48.72617" lon="1.83314">
        <ele>182.60000610352</ele>
        <time>2011-05-17T11:13:31.000Z</time>
      </trkpt>
      <trkpt lat="48.72619" lon="1.83296">
        <ele>182</ele>
        <time>2011-05-17T11:13:38.000Z</time>
      </trkpt>
      <trkpt lat="48.72621" lon="1.83277">
        <ele>181.19999694824</ele>
        <time>2011-05-17T11:13:46.000Z</time>
      </trkpt>
      <trkpt lat="48.72623" lon="1.83254">
        <ele>180.60000610352</ele>
        <time>2011-05-17T11:13:55.000Z</time>
      </trkpt>
      <trkpt lat="48.72626" lon="1.83227">
        <ele>180.19999694824</ele>
        <time>2011-05-17T11:14:06.000Z</time>
      </trkpt>
      <trkpt lat="48.7263" lon="1.83196">
        <ele>180</ele>
        <time>2011-05-17T11:14:18.000Z</time>
      </trkpt>
      <trkpt lat="48.72633" lon="1.83165">
        <ele>179.80000305176</ele>
        <time>2011-05-17T11:14:31.000Z</time>
      </trkpt>
      <trkpt lat="48.72635" lon="1.8315">
        <ele>179.80000305176</ele>
        <time>2011-05-17T11:14:38.000Z</time>
      </trkpt>
      <trkpt lat="48.72635" lon="1.8315">
        <ele>179.80000305176</ele>
        <time>2011-05-17T11:14:40.000Z</time>
      </trkpt>
      <trkpt lat="48.72636" lon="1.83145">
        <ele>179.80000305176</ele>
        <time>2011-05-17T11:14:45.000Z</time>
      </trkpt>
      <trkpt lat="48.72638" lon="1.83125">
        <ele>179.60000610352</ele>
        <time>2011-05-17T11:14:52.000Z</time>
      </trkpt>
      <trkpt lat="48.72641" lon="1.83103">
        <ele>179.39999389648</ele>
        <time>2011-05-17T11:15:01.000Z</time>
      </trkpt>
      <trkpt lat="48.72642" lon="1.83088">
        <ele>179.19999694824</ele>
        <time>2011-05-17T11:15:10.000Z</time>
      </trkpt>
      <trkpt lat="48.72642" lon="1.83087">
        <ele>179.19999694824</ele>
        <time>2011-05-17T11:15:12.000Z</time>
      </trkpt>
      <trkpt lat="48.72642" lon="1.83082">
        <ele>179.19999694824</ele>
        <time>2011-05-17T11:15:24.000Z</time>
      </trkpt>
      <trkpt lat="48.72646" lon="1.83051">
        <ele>179.19999694824</ele>
        <time>2011-05-17T11:15:35.000Z</time>
      </trkpt>
      <trkpt lat="48.72648" lon="1.83029">
        <ele>179.19999694824</ele>
        <time>2011-05-17T11:15:45.000Z</time>
      </trkpt>
      <trkpt lat="48.72651" lon="1.83003">
        <ele>179.19999694824</ele>
        <time>2011-05-17T11:15:56.000Z</time>
      </trkpt>
      <trkpt lat="48.72653" lon="1.82984">
        <ele>179</ele>
        <time>2011-05-17T11:16:04.000Z</time>
      </trkpt>
      <trkpt lat="48.72655" lon="1.82963">
        <ele>178.60000610352</ele>
        <time>2011-05-17T11:16:13.000Z</time>
      </trkpt>
      <trkpt lat="48.72656" lon="1.82947">
        <ele>178.39999389648</ele>
        <time>2011-05-17T11:16:20.000Z</time>
      </trkpt>
      <trkpt lat="48.7266" lon="1.82924">
        <ele>178</ele>
        <time>2011-05-17T11:16:30.000Z</time>
      </trkpt>
      <trkpt lat="48.72662" lon="1.82904">
        <ele>178</ele>
        <time>2011-05-17T11:16:39.000Z</time>
      </trkpt>
      <trkpt lat="48.72663" lon="1.82881">
        <ele>178</ele>
        <time>2011-05-17T11:16:49.000Z</time>
      </trkpt>
      <trkpt lat="48.72664" lon="1.82862">
        <ele>178</ele>
        <time>2011-05-17T11:16:58.000Z</time>
      </trkpt>
      <trkpt lat="48.72666" lon="1.82839">
        <ele>178</ele>
        <time>2011-05-17T11:17:08.000Z</time>
      </trkpt>
      <trkpt lat="48.72668" lon="1.82818">
        <ele>178</ele>
        <time>2011-05-17T11:17:17.000Z</time>
      </trkpt>
      <trkpt lat="48.72671" lon="1.82796">
        <ele>178.39999389648</ele>
        <time>2011-05-17T11:17:27.000Z</time>
      </trkpt>
      <trkpt lat="48.72674" lon="1.82777">
        <ele>178.60000610352</ele>
        <time>2011-05-17T11:17:36.000Z</time>
      </trkpt>
      <trkpt lat="48.72676" lon="1.82759">
        <ele>178.80000305176</ele>
        <time>2011-05-17T11:17:44.000Z</time>
      </trkpt>
      <trkpt lat="48.72678" lon="1.82742">
        <ele>178.60000610352</ele>
        <time>2011-05-17T11:17:52.000Z</time>
      </trkpt>
      <trkpt lat="48.72679" lon="1.82729">
        <ele>178.60000610352</ele>
        <time>2011-05-17T11:17:59.000Z</time>
      </trkpt>
      <trkpt lat="48.72682" lon="1.82712">
        <ele>178.39999389648</ele>
        <time>2011-05-17T11:18:07.000Z</time>
      </trkpt>
      <trkpt lat="48.72684" lon="1.82693">
        <ele>178.19999694824</ele>
        <time>2011-05-17T11:18:16.000Z</time>
      </trkpt>
      <trkpt lat="48.72685" lon="1.82676">
        <ele>178</ele>
        <time>2011-05-17T11:18:22.000Z</time>
      </trkpt>
      <trkpt lat="48.72688" lon="1.82654">
        <ele>178</ele>
        <time>2011-05-17T11:18:32.000Z</time>
      </trkpt>
      <trkpt lat="48.7269" lon="1.82635">
        <ele>178.19999694824</ele>
        <time>2011-05-17T11:18:40.000Z</time>
      </trkpt>
      <trkpt lat="48.7269" lon="1.82631">
        <ele>178.39999389648</ele>
        <time>2011-05-17T11:18:44.000Z</time>
      </trkpt>
      <trkpt lat="48.72692" lon="1.82625">
        <ele>178.39999389648</ele>
        <time>2011-05-17T11:18:52.000Z</time>
      </trkpt>
      <trkpt lat="48.72692" lon="1.82613">
        <ele>178.60000610352</ele>
        <time>2011-05-17T11:18:57.000Z</time>
      </trkpt>
      <trkpt lat="48.72693" lon="1.82606">
        <ele>178.60000610352</ele>
        <time>2011-05-17T11:19:00.000Z</time>
      </trkpt>
      <trkpt lat="48.72694" lon="1.82597">
        <ele>178.80000305176</ele>
        <time>2011-05-17T11:19:04.000Z</time>
      </trkpt>
      <trkpt lat="48.72697" lon="1.82574">
        <ele>179</ele>
        <time>2011-05-17T11:19:15.000Z</time>
      </trkpt>
      <trkpt lat="48.72697" lon="1.82574">
        <ele>179</ele>
        <time>2011-05-17T11:19:17.000Z</time>
      </trkpt>
      <trkpt lat="48.72698" lon="1.82565">
        <ele>179.19999694824</ele>
        <time>2011-05-17T11:19:29.000Z</time>
      </trkpt>
      <trkpt lat="48.72699" lon="1.82559">
        <ele>179.39999389648</ele>
        <time>2011-05-17T11:19:31.000Z</time>
      </trkpt>
      <trkpt lat="48.72701" lon="1.82532">
        <ele>179.80000305176</ele>
        <time>2011-05-17T11:19:42.000Z</time>
      </trkpt>
      <trkpt lat="48.72702" lon="1.82516">
        <ele>180.19999694824</ele>
        <time>2011-05-17T11:19:49.000Z</time>
      </trkpt>
      <trkpt lat="48.72703" lon="1.82509">
        <ele>180.19999694824</ele>
        <time>2011-05-17T11:19:52.000Z</time>
      </trkpt>
      <trkpt lat="48.72703" lon="1.82492">
        <ele>180.39999389648</ele>
        <time>2011-05-17T11:20:00.000Z</time>
      </trkpt>
      <trkpt lat="48.72704" lon="1.82483">
        <ele>180.19999694824</ele>
        <time>2011-05-17T11:20:05.000Z</time>
      </trkpt>
      <trkpt lat="48.72707" lon="1.8247">
        <ele>180</ele>
        <time>2011-05-17T11:20:11.000Z</time>
      </trkpt>
      <trkpt lat="48.7271" lon="1.82449">
        <ele>179.80000305176</ele>
        <time>2011-05-17T11:20:20.000Z</time>
      </trkpt>
      <trkpt lat="48.72712" lon="1.82432">
        <ele>179.60000610352</ele>
        <time>2011-05-17T11:20:27.000Z</time>
      </trkpt>
      <trkpt lat="48.72711" lon="1.82425">
        <ele>179.39999389648</ele>
        <time>2011-05-17T11:20:30.000Z</time>
      </trkpt>
      <trkpt lat="48.72715" lon="1.82402">
        <ele>179.39999389648</ele>
        <time>2011-05-17T11:20:39.000Z</time>
      </trkpt>
      <trkpt lat="48.72718" lon="1.82383">
        <ele>179.60000610352</ele>
        <time>2011-05-17T11:20:47.000Z</time>
      </trkpt>
      <trkpt lat="48.72719" lon="1.82361">
        <ele>179.80000305176</ele>
        <time>2011-05-17T11:20:56.000Z</time>
      </trkpt>
      <trkpt lat="48.72721" lon="1.82339">
        <ele>180.19999694824</ele>
        <time>2011-05-17T11:21:05.000Z</time>
      </trkpt>
      <trkpt lat="48.72723" lon="1.82322">
        <ele>181</ele>
        <time>2011-05-17T11:21:12.000Z</time>
      </trkpt>
      <trkpt lat="48.72722" lon="1.82318">
        <ele>181.19999694824</ele>
        <time>2011-05-17T11:21:17.000Z</time>
      </trkpt>
      <trkpt lat="48.7272" lon="1.82303">
        <ele>182.19999694824</ele>
        <time>2011-05-17T11:21:51.000Z</time>
      </trkpt>
      <trkpt lat="48.72724" lon="1.82294">
        <ele>183</ele>
        <time>2011-05-17T11:21:55.000Z</time>
      </trkpt>
      <trkpt lat="48.72728" lon="1.82285">
        <ele>183.80000305176</ele>
        <time>2011-05-17T11:22:00.000Z</time>
      </trkpt>
      <trkpt lat="48.72729" lon="1.82272">
        <ele>184.60000610352</ele>
        <time>2011-05-17T11:22:06.000Z</time>
      </trkpt>
      <trkpt lat="48.7273" lon="1.8226">
        <ele>185.60000610352</ele>
        <time>2011-05-17T11:22:11.000Z</time>
      </trkpt>
      <trkpt lat="48.72734" lon="1.82248">
        <ele>186.39999389648</ele>
        <time>2011-05-17T11:22:17.000Z</time>
      </trkpt>
      <trkpt lat="48.72739" lon="1.82232">
        <ele>187</ele>
        <time>2011-05-17T11:22:25.000Z</time>
      </trkpt>
      <trkpt lat="48.72743" lon="1.82223">
        <ele>187.39999389648</ele>
        <time>2011-05-17T11:22:30.000Z</time>
      </trkpt>
      <trkpt lat="48.72745" lon="1.82214">
        <ele>187.60000610352</ele>
        <time>2011-05-17T11:22:34.000Z</time>
      </trkpt>
      <trkpt lat="48.72749" lon="1.822">
        <ele>188</ele>
        <time>2011-05-17T11:22:41.000Z</time>
      </trkpt>
      <trkpt lat="48.72752" lon="1.82188">
        <ele>188.19999694824</ele>
        <time>2011-05-17T11:22:47.000Z</time>
      </trkpt>
      <trkpt lat="48.72757" lon="1.82168">
        <ele>188.19999694824</ele>
        <time>2011-05-17T11:22:56.000Z</time>
      </trkpt>
      <trkpt lat="48.72757" lon="1.82166">
        <ele>188.19999694824</ele>
        <time>2011-05-17T11:22:57.000Z</time>
      </trkpt>
      <trkpt lat="48.72762" lon="1.82148">
        <ele>187.60000610352</ele>
        <time>2011-05-17T11:23:05.000Z</time>
      </trkpt>
      <trkpt lat="48.72766" lon="1.82137">
        <ele>187.19999694824</ele>
        <time>2011-05-17T11:23:11.000Z</time>
      </trkpt>
      <trkpt lat="48.7277" lon="1.8213">
        <ele>187</ele>
        <time>2011-05-17T11:23:15.000Z</time>
      </trkpt>
      <trkpt lat="48.72775" lon="1.82119">
        <ele>186.60000610352</ele>
        <time>2011-05-17T11:23:21.000Z</time>
      </trkpt>
      <trkpt lat="48.72777" lon="1.82112">
        <ele>186.39999389648</ele>
        <time>2011-05-17T11:23:24.000Z</time>
      </trkpt>
      <trkpt lat="48.72779" lon="1.82095">
        <ele>186.39999389648</ele>
        <time>2011-05-17T11:23:31.000Z</time>
      </trkpt>
      <trkpt lat="48.72781" lon="1.82077">
        <ele>186.60000610352</ele>
        <time>2011-05-17T11:23:38.000Z</time>
      </trkpt>
      <trkpt lat="48.72784" lon="1.82065">
        <ele>186.60000610352</ele>
        <time>2011-05-17T11:23:44.000Z</time>
      </trkpt>
      <trkpt lat="48.72788" lon="1.8206">
        <ele>186.60000610352</ele>
        <time>2011-05-17T11:23:47.000Z</time>
      </trkpt>
      <trkpt lat="48.72794" lon="1.8204">
        <ele>186.80000305176</ele>
        <time>2011-05-17T11:23:56.000Z</time>
      </trkpt>
      <trkpt lat="48.72798" lon="1.82021">
        <ele>187.19999694824</ele>
        <time>2011-05-17T11:24:04.000Z</time>
      </trkpt>
      <trkpt lat="48.72796" lon="1.82008">
        <ele>187.60000610352</ele>
        <time>2011-05-17T11:24:09.000Z</time>
      </trkpt>
      <trkpt lat="48.728" lon="1.81998">
        <ele>187.60000610352</ele>
        <time>2011-05-17T11:24:15.000Z</time>
      </trkpt>
      <trkpt lat="48.72805" lon="1.81986">
        <ele>187.60000610352</ele>
        <time>2011-05-17T11:24:21.000Z</time>
      </trkpt>
      <trkpt lat="48.72807" lon="1.81974">
        <ele>187.60000610352</ele>
        <time>2011-05-17T11:24:26.000Z</time>
      </trkpt>
      <trkpt lat="48.72811" lon="1.81953">
        <ele>187.60000610352</ele>
        <time>2011-05-17T11:24:35.000Z</time>
      </trkpt>
      <trkpt lat="48.72812" lon="1.81945">
        <ele>187.80000305176</ele>
        <time>2011-05-17T11:24:38.000Z</time>
      </trkpt>
      <trkpt lat="48.72819" lon="1.8193">
        <ele>187.80000305176</ele>
        <time>2011-05-17T11:24:46.000Z</time>
      </trkpt>
      <trkpt lat="48.72822" lon="1.81923">
        <ele>187.80000305176</ele>
        <time>2011-05-17T11:24:50.000Z</time>
      </trkpt>
      <trkpt lat="48.72824" lon="1.81916">
        <ele>188</ele>
        <time>2011-05-17T11:24:54.000Z</time>
      </trkpt>
      <trkpt lat="48.72827" lon="1.81902">
        <ele>188</ele>
        <time>2011-05-17T11:25:01.000Z</time>
      </trkpt>
      <trkpt lat="48.7283" lon="1.81897">
        <ele>188.19999694824</ele>
        <time>2011-05-17T11:25:04.000Z</time>
      </trkpt>
      <trkpt lat="48.72833" lon="1.81882">
        <ele>188.39999389648</ele>
        <time>2011-05-17T11:25:11.000Z</time>
      </trkpt>
      <trkpt lat="48.72835" lon="1.81878">
        <ele>188.39999389648</ele>
        <time>2011-05-17T11:25:13.000Z</time>
      </trkpt>
      <trkpt lat="48.72841" lon="1.81864">
        <ele>188.60000610352</ele>
        <time>2011-05-17T11:25:20.000Z</time>
      </trkpt>
      <trkpt lat="48.72846" lon="1.81847">
        <ele>189</ele>
        <time>2011-05-17T11:25:28.000Z</time>
      </trkpt>
      <trkpt lat="48.7285" lon="1.81835">
        <ele>189</ele>
        <time>2011-05-17T11:25:34.000Z</time>
      </trkpt>
      <trkpt lat="48.72854" lon="1.81818">
        <ele>188.80000305176</ele>
        <time>2011-05-17T11:25:42.000Z</time>
      </trkpt>
      <trkpt lat="48.72859" lon="1.81806">
        <ele>188.60000610352</ele>
        <time>2011-05-17T11:25:49.000Z</time>
      </trkpt>
      <trkpt lat="48.72858" lon="1.81787">
        <ele>188.19999694824</ele>
        <time>2011-05-17T11:25:56.000Z</time>
      </trkpt>
      <trkpt lat="48.72858" lon="1.81782">
        <ele>188.19999694824</ele>
        <time>2011-05-17T11:25:58.000Z</time>
      </trkpt>
      <trkpt lat="48.72865" lon="1.81767">
        <ele>188</ele>
        <time>2011-05-17T11:26:06.000Z</time>
      </trkpt>
      <trkpt lat="48.72866" lon="1.81765">
        <ele>188</ele>
        <time>2011-05-17T11:26:07.000Z</time>
      </trkpt>
      <trkpt lat="48.72868" lon="1.81749">
        <ele>187.80000305176</ele>
        <time>2011-05-17T11:26:14.000Z</time>
      </trkpt>
      <trkpt lat="48.72872" lon="1.81736">
        <ele>187.80000305176</ele>
        <time>2011-05-17T11:26:20.000Z</time>
      </trkpt>
      <trkpt lat="48.72878" lon="1.81725">
        <ele>187.80000305176</ele>
        <time>2011-05-17T11:26:26.000Z</time>
      </trkpt>
      <trkpt lat="48.72883" lon="1.81711">
        <ele>187.80000305176</ele>
        <time>2011-05-17T11:26:33.000Z</time>
      </trkpt>
      <trkpt lat="48.72888" lon="1.81689">
        <ele>187.80000305176</ele>
        <time>2011-05-17T11:26:43.000Z</time>
      </trkpt>
      <trkpt lat="48.72889" lon="1.81686">
        <ele>187.80000305176</ele>
        <time>2011-05-17T11:26:45.000Z</time>
      </trkpt>
      <trkpt lat="48.7289" lon="1.81678">
        <ele>187.60000610352</ele>
        <time>2011-05-17T11:26:51.000Z</time>
      </trkpt>
      <trkpt lat="48.72891" lon="1.81673">
        <ele>187.60000610352</ele>
        <time>2011-05-17T11:26:57.000Z</time>
      </trkpt>
      <trkpt lat="48.72886" lon="1.81662">
        <ele>187.60000610352</ele>
        <time>2011-05-17T11:27:11.000Z</time>
      </trkpt>
      <trkpt lat="48.72883" lon="1.81654">
        <ele>187.60000610352</ele>
        <time>2011-05-17T11:27:14.000Z</time>
      </trkpt>
      <trkpt lat="48.72879" lon="1.8164">
        <ele>187.60000610352</ele>
        <time>2011-05-17T11:27:21.000Z</time>
      </trkpt>
      <trkpt lat="48.72872" lon="1.81624">
        <ele>187.60000610352</ele>
        <time>2011-05-17T11:27:29.000Z</time>
      </trkpt>
      <trkpt lat="48.72869" lon="1.81611">
        <ele>187.60000610352</ele>
        <time>2011-05-17T11:27:35.000Z</time>
      </trkpt>
      <trkpt lat="48.72865" lon="1.81602">
        <ele>187.60000610352</ele>
        <time>2011-05-17T11:27:40.000Z</time>
      </trkpt>
      <trkpt lat="48.72862" lon="1.81589">
        <ele>187.60000610352</ele>
        <time>2011-05-17T11:27:46.000Z</time>
      </trkpt>
      <trkpt lat="48.72856" lon="1.81576">
        <ele>187.39999389648</ele>
        <time>2011-05-17T11:27:53.000Z</time>
      </trkpt>
      <trkpt lat="48.72851" lon="1.81562">
        <ele>187</ele>
        <time>2011-05-17T11:28:00.000Z</time>
      </trkpt>
      <trkpt lat="48.72849" lon="1.81546">
        <ele>186.80000305176</ele>
        <time>2011-05-17T11:28:06.000Z</time>
      </trkpt>
      <trkpt lat="48.72845" lon="1.81531">
        <ele>186.39999389648</ele>
        <time>2011-05-17T11:28:12.000Z</time>
      </trkpt>
      <trkpt lat="48.7284" lon="1.81518">
        <ele>186.19999694824</ele>
        <time>2011-05-17T11:28:17.000Z</time>
      </trkpt>
      <trkpt lat="48.72832" lon="1.81499">
        <ele>186</ele>
        <time>2011-05-17T11:28:26.000Z</time>
      </trkpt>
      <trkpt lat="48.72825" lon="1.81479">
        <ele>186</ele>
        <time>2011-05-17T11:28:35.000Z</time>
      </trkpt>
      <trkpt lat="48.72817" lon="1.81457">
        <ele>186.19999694824</ele>
        <time>2011-05-17T11:28:45.000Z</time>
      </trkpt>
      <trkpt lat="48.72812" lon="1.81444">
        <ele>186.19999694824</ele>
        <time>2011-05-17T11:28:52.000Z</time>
      </trkpt>
      <trkpt lat="48.72806" lon="1.81429">
        <ele>186.19999694824</ele>
        <time>2011-05-17T11:28:59.000Z</time>
      </trkpt>
      <trkpt lat="48.72801" lon="1.81417">
        <ele>186.19999694824</ele>
        <time>2011-05-17T11:29:05.000Z</time>
      </trkpt>
      <trkpt lat="48.72796" lon="1.81405">
        <ele>186.19999694824</ele>
        <time>2011-05-17T11:29:11.000Z</time>
      </trkpt>
      <trkpt lat="48.72792" lon="1.81397">
        <ele>186.19999694824</ele>
        <time>2011-05-17T11:29:15.000Z</time>
      </trkpt>
      <trkpt lat="48.72792" lon="1.81393">
        <ele>186.39999389648</ele>
        <time>2011-05-17T11:29:17.000Z</time>
      </trkpt>
      <trkpt lat="48.72788" lon="1.81383">
        <ele>186.39999389648</ele>
        <time>2011-05-17T11:29:21.000Z</time>
      </trkpt>
      <trkpt lat="48.7278" lon="1.81362">
        <ele>186.60000610352</ele>
        <time>2011-05-17T11:29:30.000Z</time>
      </trkpt>
      <trkpt lat="48.72775" lon="1.81347">
        <ele>186.60000610352</ele>
        <time>2011-05-17T11:29:37.000Z</time>
      </trkpt>
      <trkpt lat="48.72769" lon="1.81328">
        <ele>186.60000610352</ele>
        <time>2011-05-17T11:29:46.000Z</time>
      </trkpt>
      <trkpt lat="48.72765" lon="1.81316">
        <ele>186.39999389648</ele>
        <time>2011-05-17T11:29:52.000Z</time>
      </trkpt>
      <trkpt lat="48.72757" lon="1.81304">
        <ele>186.19999694824</ele>
        <time>2011-05-17T11:29:57.000Z</time>
      </trkpt>
      <trkpt lat="48.72752" lon="1.81288">
        <ele>186</ele>
        <time>2011-05-17T11:30:04.000Z</time>
      </trkpt>
      <trkpt lat="48.72752" lon="1.81285">
        <ele>186</ele>
        <time>2011-05-17T11:30:05.000Z</time>
      </trkpt>
      <trkpt lat="48.72747" lon="1.81271">
        <ele>185.80000305176</ele>
        <time>2011-05-17T11:30:11.000Z</time>
      </trkpt>
      <trkpt lat="48.7274" lon="1.81252">
        <ele>185.60000610352</ele>
        <time>2011-05-17T11:30:19.000Z</time>
      </trkpt>
      <trkpt lat="48.7273" lon="1.81224">
        <ele>185.39999389648</ele>
        <time>2011-05-17T11:30:25.000Z</time>
      </trkpt>
      <trkpt lat="48.72717" lon="1.81189">
        <ele>184.80000305176</ele>
        <time>2011-05-17T11:30:31.000Z</time>
      </trkpt>
      <trkpt lat="48.72708" lon="1.81161">
        <ele>184.39999389648</ele>
        <time>2011-05-17T11:30:37.000Z</time>
      </trkpt>
      <trkpt lat="48.72698" lon="1.81133">
        <ele>183.80000305176</ele>
        <time>2011-05-17T11:30:42.000Z</time>
      </trkpt>
      <trkpt lat="48.72694" lon="1.81122">
        <ele>183.60000610352</ele>
        <time>2011-05-17T11:30:44.000Z</time>
      </trkpt>
      <trkpt lat="48.72683" lon="1.81096">
        <ele>182.80000305176</ele>
        <time>2011-05-17T11:30:49.000Z</time>
      </trkpt>
      <trkpt lat="48.72678" lon="1.81075">
        <ele>182.39999389648</ele>
        <time>2011-05-17T11:30:53.000Z</time>
      </trkpt>
      <trkpt lat="48.72669" lon="1.81053">
        <ele>181.60000610352</ele>
        <time>2011-05-17T11:30:59.000Z</time>
      </trkpt>
      <trkpt lat="48.7266" lon="1.81041">
        <ele>181</ele>
        <time>2011-05-17T11:31:03.000Z</time>
      </trkpt>
      <trkpt lat="48.72648" lon="1.8102">
        <ele>180</ele>
        <time>2011-05-17T11:31:09.000Z</time>
      </trkpt>
      <trkpt lat="48.72647" lon="1.81014">
        <ele>179.80000305176</ele>
        <time>2011-05-17T11:31:12.000Z</time>
      </trkpt>
      <trkpt lat="48.72652" lon="1.81005">
        <ele>180</ele>
        <time>2011-05-17T11:31:17.000Z</time>
      </trkpt>
      <trkpt lat="48.72658" lon="1.80985">
        <ele>180</ele>
        <time>2011-05-17T11:31:22.000Z</time>
      </trkpt>
      <trkpt lat="48.72666" lon="1.80969">
        <ele>180.19999694824</ele>
        <time>2011-05-17T11:31:26.000Z</time>
      </trkpt>
      <trkpt lat="48.72676" lon="1.8095">
        <ele>180.19999694824</ele>
        <time>2011-05-17T11:31:31.000Z</time>
      </trkpt>
      <trkpt lat="48.72688" lon="1.80928">
        <ele>180.19999694824</ele>
        <time>2011-05-17T11:31:36.000Z</time>
      </trkpt>
      <trkpt lat="48.727" lon="1.80909">
        <ele>180.19999694824</ele>
        <time>2011-05-17T11:31:41.000Z</time>
      </trkpt>
      <trkpt lat="48.72707" lon="1.80884">
        <ele>179.80000305176</ele>
        <time>2011-05-17T11:31:46.000Z</time>
      </trkpt>
      <trkpt lat="48.72714" lon="1.80869">
        <ele>179.60000610352</ele>
        <time>2011-05-17T11:31:49.000Z</time>
      </trkpt>
      <trkpt lat="48.72724" lon="1.80845">
        <ele>179.39999389648</ele>
        <time>2011-05-17T11:31:54.000Z</time>
      </trkpt>
      <trkpt lat="48.72734" lon="1.80819">
        <ele>178.80000305176</ele>
        <time>2011-05-17T11:31:59.000Z</time>
      </trkpt>
      <trkpt lat="48.7274" lon="1.80798">
        <ele>178</ele>
        <time>2011-05-17T11:32:04.000Z</time>
      </trkpt>
      <trkpt lat="48.72741" lon="1.80793">
        <ele>177.80000305176</ele>
        <time>2011-05-17T11:32:06.000Z</time>
      </trkpt>
      <trkpt lat="48.72746" lon="1.80782">
        <ele>177.39999389648</ele>
        <time>2011-05-17T11:32:12.000Z</time>
      </trkpt>
      <trkpt lat="48.72749" lon="1.80771">
        <ele>177</ele>
        <time>2011-05-17T11:32:17.000Z</time>
      </trkpt>
      <trkpt lat="48.72753" lon="1.80764">
        <ele>176.80000305176</ele>
        <time>2011-05-17T11:32:21.000Z</time>
      </trkpt>
      <trkpt lat="48.72759" lon="1.80751">
        <ele>176.39999389648</ele>
        <time>2011-05-17T11:32:28.000Z</time>
      </trkpt>
      <trkpt lat="48.72764" lon="1.80741">
        <ele>176.39999389648</ele>
        <time>2011-05-17T11:32:34.000Z</time>
      </trkpt>
      <trkpt lat="48.72765" lon="1.80739">
        <ele>176.60000610352</ele>
        <time>2011-05-17T11:32:39.000Z</time>
      </trkpt>
      <trkpt lat="48.72765" lon="1.80739">
        <ele>176.60000610352</ele>
        <time>2011-05-17T11:32:40.000Z</time>
      </trkpt>
      <trkpt lat="48.72757" lon="1.80727">
        <ele>175.80000305176</ele>
        <time>2011-05-17T11:33:22.000Z</time>
      </trkpt>
      <trkpt lat="48.72759" lon="1.80732">
        <ele>176</ele>
        <time>2011-05-17T11:33:24.000Z</time>
      </trkpt>
      <trkpt lat="48.72761" lon="1.80738">
        <ele>176.19999694824</ele>
        <time>2011-05-17T11:33:28.000Z</time>
      </trkpt>
      <trkpt lat="48.72769" lon="1.80737">
        <ele>176.60000610352</ele>
        <time>2011-05-17T11:33:34.000Z</time>
      </trkpt>
      <trkpt lat="48.72773" lon="1.8073">
        <ele>176.80000305176</ele>
        <time>2011-05-17T11:33:38.000Z</time>
      </trkpt>
      <trkpt lat="48.72781" lon="1.80716">
        <ele>176.80000305176</ele>
        <time>2011-05-17T11:33:47.000Z</time>
      </trkpt>
      <trkpt lat="48.72788" lon="1.80711">
        <ele>177</ele>
        <time>2011-05-17T11:33:53.000Z</time>
      </trkpt>
      <trkpt lat="48.72791" lon="1.80709">
        <ele>177.19999694824</ele>
        <time>2011-05-17T11:33:55.000Z</time>
      </trkpt>
      <trkpt lat="48.72801" lon="1.80699">
        <ele>177.39999389648</ele>
        <time>2011-05-17T11:34:02.000Z</time>
      </trkpt>
      <trkpt lat="48.72809" lon="1.80688">
        <ele>177.39999389648</ele>
        <time>2011-05-17T11:34:09.000Z</time>
      </trkpt>
      <trkpt lat="48.72814" lon="1.80679">
        <ele>177.39999389648</ele>
        <time>2011-05-17T11:34:15.000Z</time>
      </trkpt>
      <trkpt lat="48.72816" lon="1.80676">
        <ele>177.39999389648</ele>
        <time>2011-05-17T11:34:17.000Z</time>
      </trkpt>
      <trkpt lat="48.72821" lon="1.80664">
        <ele>177.19999694824</ele>
        <time>2011-05-17T11:34:23.000Z</time>
      </trkpt>
      <trkpt lat="48.72826" lon="1.80646">
        <ele>177.39999389648</ele>
        <time>2011-05-17T11:34:31.000Z</time>
      </trkpt>
      <trkpt lat="48.72831" lon="1.80638">
        <ele>177.39999389648</ele>
        <time>2011-05-17T11:34:36.000Z</time>
      </trkpt>
      <trkpt lat="48.72834" lon="1.80634">
        <ele>177.60000610352</ele>
        <time>2011-05-17T11:34:38.000Z</time>
      </trkpt>
      <trkpt lat="48.72838" lon="1.80627">
        <ele>177.80000305176</ele>
        <time>2011-05-17T11:34:42.000Z</time>
      </trkpt>
      <trkpt lat="48.72845" lon="1.80612">
        <ele>178</ele>
        <time>2011-05-17T11:34:50.000Z</time>
      </trkpt>
      <trkpt lat="48.7285" lon="1.80597">
        <ele>178</ele>
        <time>2011-05-17T11:34:57.000Z</time>
      </trkpt>
      <trkpt lat="48.72852" lon="1.80589">
        <ele>178.19999694824</ele>
        <time>2011-05-17T11:35:01.000Z</time>
      </trkpt>
      <trkpt lat="48.72851" lon="1.80581">
        <ele>178</ele>
        <time>2011-05-17T11:35:07.000Z</time>
      </trkpt>
      <trkpt lat="48.72847" lon="1.80573">
        <ele>177.60000610352</ele>
        <time>2011-05-17T11:35:13.000Z</time>
      </trkpt>
      <trkpt lat="48.72843" lon="1.80567">
        <ele>177.19999694824</ele>
        <time>2011-05-17T11:35:20.000Z</time>
      </trkpt>
      <trkpt lat="48.72843" lon="1.80568">
        <ele>177.19999694824</ele>
        <time>2011-05-17T11:35:21.000Z</time>
      </trkpt>
      <trkpt lat="48.72849" lon="1.80568">
        <ele>177.60000610352</ele>
        <time>2011-05-17T11:35:50.000Z</time>
      </trkpt>
      <trkpt lat="48.72857" lon="1.80571">
        <ele>178</ele>
        <time>2011-05-17T11:35:55.000Z</time>
      </trkpt>
      <trkpt lat="48.7286" lon="1.80569">
        <ele>178.19999694824</ele>
        <time>2011-05-17T11:35:58.000Z</time>
      </trkpt>
      <trkpt lat="48.72868" lon="1.80563">
        <ele>178.39999389648</ele>
        <time>2011-05-17T11:36:04.000Z</time>
      </trkpt>
      <trkpt lat="48.72871" lon="1.80561">
        <ele>178.39999389648</ele>
        <time>2011-05-17T11:36:06.000Z</time>
      </trkpt>
      <trkpt lat="48.72875" lon="1.80554">
        <ele>178.39999389648</ele>
        <time>2011-05-17T11:36:10.000Z</time>
      </trkpt>
      <trkpt lat="48.72879" lon="1.80542">
        <ele>178</ele>
        <time>2011-05-17T11:36:16.000Z</time>
      </trkpt>
      <trkpt lat="48.72883" lon="1.80528">
        <ele>177.60000610352</ele>
        <time>2011-05-17T11:36:23.000Z</time>
      </trkpt>
      <trkpt lat="48.72884" lon="1.80522">
        <ele>177.39999389648</ele>
        <time>2011-05-17T11:36:26.000Z</time>
      </trkpt>
      <trkpt lat="48.72885" lon="1.80513">
        <ele>177</ele>
        <time>2011-05-17T11:36:31.000Z</time>
      </trkpt>
      <trkpt lat="48.72885" lon="1.80498">
        <ele>176.39999389648</ele>
        <time>2011-05-17T11:36:37.000Z</time>
      </trkpt>
      <trkpt lat="48.72883" lon="1.80483">
        <ele>176</ele>
        <time>2011-05-17T11:36:43.000Z</time>
      </trkpt>
      <trkpt lat="48.72885" lon="1.80474">
        <ele>175.80000305176</ele>
        <time>2011-05-17T11:36:46.000Z</time>
      </trkpt>
      <trkpt lat="48.72893" lon="1.80452">
        <ele>175.39999389648</ele>
        <time>2011-05-17T11:36:51.000Z</time>
      </trkpt>
      <trkpt lat="48.72895" lon="1.80442">
        <ele>175.19999694824</ele>
        <time>2011-05-17T11:36:53.000Z</time>
      </trkpt>
      <trkpt lat="48.72903" lon="1.80411">
        <ele>174.80000305176</ele>
        <time>2011-05-17T11:36:59.000Z</time>
      </trkpt>
      <trkpt lat="48.72913" lon="1.80385">
        <ele>175.60000610352</ele>
        <time>2011-05-17T11:37:04.000Z</time>
      </trkpt>
      <trkpt lat="48.72923" lon="1.80362">
        <ele>176.39999389648</ele>
        <time>2011-05-17T11:37:09.000Z</time>
      </trkpt>
      <trkpt lat="48.72928" lon="1.80353">
        <ele>176.80000305176</ele>
        <time>2011-05-17T11:37:14.000Z</time>
      </trkpt>
      <trkpt lat="48.72936" lon="1.80341">
        <ele>177.19999694824</ele>
        <time>2011-05-17T11:37:21.000Z</time>
      </trkpt>
      <trkpt lat="48.7294" lon="1.80329">
        <ele>177.39999389648</ele>
        <time>2011-05-17T11:37:28.000Z</time>
      </trkpt>
      <trkpt lat="48.7294" lon="1.80317">
        <ele>177.60000610352</ele>
        <time>2011-05-17T11:37:34.000Z</time>
      </trkpt>
      <trkpt lat="48.72937" lon="1.80308">
        <ele>177.60000610352</ele>
        <time>2011-05-17T11:37:40.000Z</time>
      </trkpt>
      <trkpt lat="48.72932" lon="1.80296">
        <ele>177.60000610352</ele>
        <time>2011-05-17T11:37:47.000Z</time>
      </trkpt>
      <trkpt lat="48.72923" lon="1.80284">
        <ele>177.60000610352</ele>
        <time>2011-05-17T11:37:55.000Z</time>
      </trkpt>
      <trkpt lat="48.72915" lon="1.80278">
        <ele>177.60000610352</ele>
        <time>2011-05-17T11:38:03.000Z</time>
      </trkpt>
      <trkpt lat="48.72912" lon="1.80275">
        <ele>177.60000610352</ele>
        <time>2011-05-17T11:38:06.000Z</time>
      </trkpt>
      <trkpt lat="48.729" lon="1.80267">
        <ele>178</ele>
        <time>2011-05-17T11:38:14.000Z</time>
      </trkpt>
      <trkpt lat="48.72889" lon="1.80259">
        <ele>178.39999389648</ele>
        <time>2011-05-17T11:38:22.000Z</time>
      </trkpt>
      <trkpt lat="48.72875" lon="1.80249">
        <ele>178.80000305176</ele>
        <time>2011-05-17T11:38:32.000Z</time>
      </trkpt>
      <trkpt lat="48.72862" lon="1.8024">
        <ele>178.80000305176</ele>
        <time>2011-05-17T11:38:42.000Z</time>
      </trkpt>
      <trkpt lat="48.72846" lon="1.80229">
        <ele>178.60000610352</ele>
        <time>2011-05-17T11:38:53.000Z</time>
      </trkpt>
      <trkpt lat="48.72834" lon="1.80221">
        <ele>178.60000610352</ele>
        <time>2011-05-17T11:39:01.000Z</time>
      </trkpt>
      <trkpt lat="48.72818" lon="1.8021">
        <ele>177.60000610352</ele>
        <time>2011-05-17T11:39:12.000Z</time>
      </trkpt>
      <trkpt lat="48.72805" lon="1.802">
        <ele>176.60000610352</ele>
        <time>2011-05-17T11:39:21.000Z</time>
      </trkpt>
      <trkpt lat="48.72789" lon="1.80189">
        <ele>175.80000305176</ele>
        <time>2011-05-17T11:39:32.000Z</time>
      </trkpt>
      <trkpt lat="48.72771" lon="1.80178">
        <ele>174.80000305176</ele>
        <time>2011-05-17T11:39:44.000Z</time>
      </trkpt>
      <trkpt lat="48.72754" lon="1.80166">
        <ele>174</ele>
        <time>2011-05-17T11:39:56.000Z</time>
      </trkpt>
      <trkpt lat="48.72746" lon="1.8016">
        <ele>174.19999694824</ele>
        <time>2011-05-17T11:40:01.000Z</time>
      </trkpt>
      <trkpt lat="48.72731" lon="1.80149">
        <ele>174.80000305176</ele>
        <time>2011-05-17T11:40:11.000Z</time>
      </trkpt>
      <trkpt lat="48.72719" lon="1.80141">
        <ele>175.39999389648</ele>
        <time>2011-05-17T11:40:19.000Z</time>
      </trkpt>
      <trkpt lat="48.72714" lon="1.80136">
        <ele>175.60000610352</ele>
        <time>2011-05-17T11:40:23.000Z</time>
      </trkpt>
      <trkpt lat="48.72701" lon="1.80128">
        <ele>176.19999694824</ele>
        <time>2011-05-17T11:40:33.000Z</time>
      </trkpt>
      <trkpt lat="48.7269" lon="1.80121">
        <ele>176.80000305176</ele>
        <time>2011-05-17T11:40:42.000Z</time>
      </trkpt>
      <trkpt lat="48.72679" lon="1.80115">
        <ele>177.39999389648</ele>
        <time>2011-05-17T11:40:49.000Z</time>
      </trkpt>
      <trkpt lat="48.72669" lon="1.80106">
        <ele>178</ele>
        <time>2011-05-17T11:40:57.000Z</time>
      </trkpt>
      <trkpt lat="48.72659" lon="1.80103">
        <ele>178.19999694824</ele>
        <time>2011-05-17T11:41:04.000Z</time>
      </trkpt>
      <trkpt lat="48.72648" lon="1.80096">
        <ele>178.19999694824</ele>
        <time>2011-05-17T11:41:11.000Z</time>
      </trkpt>
      <trkpt lat="48.72638" lon="1.80088">
        <ele>178.39999389648</ele>
        <time>2011-05-17T11:41:19.000Z</time>
      </trkpt>
      <trkpt lat="48.72625" lon="1.80078">
        <ele>178.60000610352</ele>
        <time>2011-05-17T11:41:27.000Z</time>
      </trkpt>
      <trkpt lat="48.72615" lon="1.80071">
        <ele>179</ele>
        <time>2011-05-17T11:41:34.000Z</time>
      </trkpt>
      <trkpt lat="48.72608" lon="1.80066">
        <ele>179.19999694824</ele>
        <time>2011-05-17T11:41:39.000Z</time>
      </trkpt>
      <trkpt lat="48.72598" lon="1.80058">
        <ele>179.60000610352</ele>
        <time>2011-05-17T11:41:46.000Z</time>
      </trkpt>
      <trkpt lat="48.72597" lon="1.80057">
        <ele>179.60000610352</ele>
        <time>2011-05-17T11:41:47.000Z</time>
      </trkpt>
      <trkpt lat="48.72584" lon="1.80047">
        <ele>180</ele>
        <time>2011-05-17T11:41:57.000Z</time>
      </trkpt>
      <trkpt lat="48.72569" lon="1.80038">
        <ele>180.80000305176</ele>
        <time>2011-05-17T11:42:07.000Z</time>
      </trkpt>
      <trkpt lat="48.72557" lon="1.80029">
        <ele>181.39999389648</ele>
        <time>2011-05-17T11:42:16.000Z</time>
      </trkpt>
      <trkpt lat="48.72548" lon="1.80022">
        <ele>181.80000305176</ele>
        <time>2011-05-17T11:42:23.000Z</time>
      </trkpt>
      <trkpt lat="48.72538" lon="1.80016">
        <ele>182.39999389648</ele>
        <time>2011-05-17T11:42:30.000Z</time>
      </trkpt>
      <trkpt lat="48.72526" lon="1.80007">
        <ele>183.19999694824</ele>
        <time>2011-05-17T11:42:39.000Z</time>
      </trkpt>
      <trkpt lat="48.72514" lon="1.8">
        <ele>183.80000305176</ele>
        <time>2011-05-17T11:42:47.000Z</time>
      </trkpt>
      <trkpt lat="48.72502" lon="1.79991">
        <ele>184.19999694824</ele>
        <time>2011-05-17T11:42:55.000Z</time>
      </trkpt>
      <trkpt lat="48.7249" lon="1.79983">
        <ele>184.39999389648</ele>
        <time>2011-05-17T11:43:03.000Z</time>
      </trkpt>
      <trkpt lat="48.72477" lon="1.79974">
        <ele>184.39999389648</ele>
        <time>2011-05-17T11:43:12.000Z</time>
      </trkpt>
      <trkpt lat="48.72464" lon="1.79964">
        <ele>184.39999389648</ele>
        <time>2011-05-17T11:43:21.000Z</time>
      </trkpt>
      <trkpt lat="48.72451" lon="1.79956">
        <ele>184.19999694824</ele>
        <time>2011-05-17T11:43:30.000Z</time>
      </trkpt>
      <trkpt lat="48.7245" lon="1.79955">
        <ele>184.19999694824</ele>
        <time>2011-05-17T11:43:31.000Z</time>
      </trkpt>
      <trkpt lat="48.72439" lon="1.79948">
        <ele>184.19999694824</ele>
        <time>2011-05-17T11:43:38.000Z</time>
      </trkpt>
      <trkpt lat="48.7243" lon="1.79942">
        <ele>184.19999694824</ele>
        <time>2011-05-17T11:43:44.000Z</time>
      </trkpt>
      <trkpt lat="48.72419" lon="1.79934">
        <ele>184.19999694824</ele>
        <time>2011-05-17T11:43:52.000Z</time>
      </trkpt>
      <trkpt lat="48.72409" lon="1.79927">
        <ele>184</ele>
        <time>2011-05-17T11:44:00.000Z</time>
      </trkpt>
      <trkpt lat="48.72401" lon="1.79923">
        <ele>183.80000305176</ele>
        <time>2011-05-17T11:44:07.000Z</time>
      </trkpt>
      <trkpt lat="48.72397" lon="1.79921">
        <ele>183.80000305176</ele>
        <time>2011-05-17T11:44:11.000Z</time>
      </trkpt>
      <trkpt lat="48.72384" lon="1.79911">
        <ele>183.60000610352</ele>
        <time>2011-05-17T11:44:20.000Z</time>
      </trkpt>
      <trkpt lat="48.72372" lon="1.79902">
        <ele>183.39999389648</ele>
        <time>2011-05-17T11:44:29.000Z</time>
      </trkpt>
      <trkpt lat="48.72357" lon="1.79891">
        <ele>183.19999694824</ele>
        <time>2011-05-17T11:44:39.000Z</time>
      </trkpt>
      <trkpt lat="48.72342" lon="1.79881">
        <ele>183</ele>
        <time>2011-05-17T11:44:45.000Z</time>
      </trkpt>
      <trkpt lat="48.72323" lon="1.79866">
        <ele>183</ele>
        <time>2011-05-17T11:44:51.000Z</time>
      </trkpt>
      <trkpt lat="48.723" lon="1.79849">
        <ele>183.39999389648</ele>
        <time>2011-05-17T11:44:58.000Z</time>
      </trkpt>
      <trkpt lat="48.72274" lon="1.79831">
        <ele>183.60000610352</ele>
        <time>2011-05-17T11:45:05.000Z</time>
      </trkpt>
      <trkpt lat="48.72244" lon="1.79808">
        <ele>183.80000305176</ele>
        <time>2011-05-17T11:45:13.000Z</time>
      </trkpt>
      <trkpt lat="48.72218" lon="1.79791">
        <ele>183.19999694824</ele>
        <time>2011-05-17T11:45:20.000Z</time>
      </trkpt>
      <trkpt lat="48.72196" lon="1.79776">
        <ele>182.60000610352</ele>
        <time>2011-05-17T11:45:26.000Z</time>
      </trkpt>
      <trkpt lat="48.72166" lon="1.79756">
        <ele>181.60000610352</ele>
        <time>2011-05-17T11:45:34.000Z</time>
      </trkpt>
      <trkpt lat="48.72158" lon="1.79751">
        <ele>181.60000610352</ele>
        <time>2011-05-17T11:45:36.000Z</time>
      </trkpt>
      <trkpt lat="48.72127" lon="1.79729">
        <ele>181.80000305176</ele>
        <time>2011-05-17T11:45:44.000Z</time>
      </trkpt>
      <trkpt lat="48.72124" lon="1.79726">
        <ele>182</ele>
        <time>2011-05-17T11:45:45.000Z</time>
      </trkpt>
      <trkpt lat="48.72105" lon="1.79712">
        <ele>182.60000610352</ele>
        <time>2011-05-17T11:45:50.000Z</time>
      </trkpt>
      <trkpt lat="48.72092" lon="1.79703">
        <ele>183.19999694824</ele>
        <time>2011-05-17T11:45:54.000Z</time>
      </trkpt>
      <trkpt lat="48.72073" lon="1.79685">
        <ele>184.19999694824</ele>
        <time>2011-05-17T11:46:00.000Z</time>
      </trkpt>
      <trkpt lat="48.72049" lon="1.79671">
        <ele>184</ele>
        <time>2011-05-17T11:46:06.000Z</time>
      </trkpt>
      <trkpt lat="48.72026" lon="1.79653">
        <ele>183.39999389648</ele>
        <time>2011-05-17T11:46:12.000Z</time>
      </trkpt>
      <trkpt lat="48.72009" lon="1.79641">
        <ele>183</ele>
        <time>2011-05-17T11:46:17.000Z</time>
      </trkpt>
      <trkpt lat="48.71993" lon="1.79632">
        <ele>182.39999389648</ele>
        <time>2011-05-17T11:46:22.000Z</time>
      </trkpt>
      <trkpt lat="48.71972" lon="1.79617">
        <ele>181.60000610352</ele>
        <time>2011-05-17T11:46:29.000Z</time>
      </trkpt>
      <trkpt lat="48.71957" lon="1.79608">
        <ele>180.80000305176</ele>
        <time>2011-05-17T11:46:35.000Z</time>
      </trkpt>
      <trkpt lat="48.7195" lon="1.79602">
        <ele>180.60000610352</ele>
        <time>2011-05-17T11:46:40.000Z</time>
      </trkpt>
      <trkpt lat="48.71948" lon="1.796">
        <ele>180.39999389648</ele>
        <time>2011-05-17T11:46:42.000Z</time>
      </trkpt>
      <trkpt lat="48.71939" lon="1.79596">
        <ele>180</ele>
        <time>2011-05-17T11:46:48.000Z</time>
      </trkpt>
      <trkpt lat="48.71934" lon="1.79595">
        <ele>179.80000305176</ele>
        <time>2011-05-17T11:46:52.000Z</time>
      </trkpt>
      <trkpt lat="48.71923" lon="1.79593">
        <ele>179.19999694824</ele>
        <time>2011-05-17T11:46:59.000Z</time>
      </trkpt>
      <trkpt lat="48.71909" lon="1.79583">
        <ele>178.19999694824</ele>
        <time>2011-05-17T11:47:09.000Z</time>
      </trkpt>
      <trkpt lat="48.71902" lon="1.79577">
        <ele>178</ele>
        <time>2011-05-17T11:47:14.000Z</time>
      </trkpt>
      <trkpt lat="48.71892" lon="1.79571">
        <ele>177.39999389648</ele>
        <time>2011-05-17T11:47:21.000Z</time>
      </trkpt>
      <trkpt lat="48.71883" lon="1.79564">
        <ele>177</ele>
        <time>2011-05-17T11:47:27.000Z</time>
      </trkpt>
      <trkpt lat="48.71876" lon="1.79559">
        <ele>176.60000610352</ele>
        <time>2011-05-17T11:47:32.000Z</time>
      </trkpt>
      <trkpt lat="48.71864" lon="1.79552">
        <ele>176</ele>
        <time>2011-05-17T11:47:40.000Z</time>
      </trkpt>
      <trkpt lat="48.71855" lon="1.79546">
        <ele>175.60000610352</ele>
        <time>2011-05-17T11:47:46.000Z</time>
      </trkpt>
      <trkpt lat="48.71844" lon="1.79537">
        <ele>175</ele>
        <time>2011-05-17T11:47:54.000Z</time>
      </trkpt>
      <trkpt lat="48.71832" lon="1.79528">
        <ele>174.60000610352</ele>
        <time>2011-05-17T11:48:02.000Z</time>
      </trkpt>
      <trkpt lat="48.71822" lon="1.7952">
        <ele>174.60000610352</ele>
        <time>2011-05-17T11:48:09.000Z</time>
      </trkpt>
      <trkpt lat="48.7181" lon="1.79512">
        <ele>174.60000610352</ele>
        <time>2011-05-17T11:48:18.000Z</time>
      </trkpt>
      <trkpt lat="48.71795" lon="1.79504">
        <ele>174.39999389648</ele>
        <time>2011-05-17T11:48:28.000Z</time>
      </trkpt>
      <trkpt lat="48.71781" lon="1.79493">
        <ele>174.19999694824</ele>
        <time>2011-05-17T11:48:38.000Z</time>
      </trkpt>
      <trkpt lat="48.71772" lon="1.79487">
        <ele>174.19999694824</ele>
        <time>2011-05-17T11:48:45.000Z</time>
      </trkpt>
      <trkpt lat="48.71762" lon="1.79483">
        <ele>174</ele>
        <time>2011-05-17T11:48:52.000Z</time>
      </trkpt>
      <trkpt lat="48.7175" lon="1.79474">
        <ele>174.19999694824</ele>
        <time>2011-05-17T11:49:01.000Z</time>
      </trkpt>
      <trkpt lat="48.71738" lon="1.7947">
        <ele>174.19999694824</ele>
        <time>2011-05-17T11:49:09.000Z</time>
      </trkpt>
      <trkpt lat="48.71726" lon="1.7946">
        <ele>174.60000610352</ele>
        <time>2011-05-17T11:49:18.000Z</time>
      </trkpt>
      <trkpt lat="48.71716" lon="1.79452">
        <ele>174.80000305176</ele>
        <time>2011-05-17T11:49:26.000Z</time>
      </trkpt>
      <trkpt lat="48.71703" lon="1.79441">
        <ele>175</ele>
        <time>2011-05-17T11:49:36.000Z</time>
      </trkpt>
      <trkpt lat="48.71691" lon="1.79433">
        <ele>175</ele>
        <time>2011-05-17T11:49:45.000Z</time>
      </trkpt>
      <trkpt lat="48.71678" lon="1.79422">
        <ele>175</ele>
        <time>2011-05-17T11:49:55.000Z</time>
      </trkpt>
      <trkpt lat="48.71665" lon="1.79413">
        <ele>175</ele>
        <time>2011-05-17T11:50:04.000Z</time>
      </trkpt>
      <trkpt lat="48.71656" lon="1.79407">
        <ele>175.19999694824</ele>
        <time>2011-05-17T11:50:11.000Z</time>
      </trkpt>
      <trkpt lat="48.71643" lon="1.79397">
        <ele>175.80000305176</ele>
        <time>2011-05-17T11:50:20.000Z</time>
      </trkpt>
      <trkpt lat="48.71628" lon="1.79387">
        <ele>176.19999694824</ele>
        <time>2011-05-17T11:50:30.000Z</time>
      </trkpt>
      <trkpt lat="48.71615" lon="1.79378">
        <ele>176.80000305176</ele>
        <time>2011-05-17T11:50:39.000Z</time>
      </trkpt>
      <trkpt lat="48.71602" lon="1.79369">
        <ele>177.19999694824</ele>
        <time>2011-05-17T11:50:48.000Z</time>
      </trkpt>
      <trkpt lat="48.71588" lon="1.79359">
        <ele>177.80000305176</ele>
        <time>2011-05-17T11:50:58.000Z</time>
      </trkpt>
      <trkpt lat="48.71574" lon="1.79348">
        <ele>178.39999389648</ele>
        <time>2011-05-17T11:51:08.000Z</time>
      </trkpt>
      <trkpt lat="48.71556" lon="1.79335">
        <ele>179.19999694824</ele>
        <time>2011-05-17T11:51:21.000Z</time>
      </trkpt>
      <trkpt lat="48.71544" lon="1.79328">
        <ele>179.60000610352</ele>
        <time>2011-05-17T11:51:30.000Z</time>
      </trkpt>
      <trkpt lat="48.71534" lon="1.79317">
        <ele>180</ele>
        <time>2011-05-17T11:51:38.000Z</time>
      </trkpt>
      <trkpt lat="48.71529" lon="1.79304">
        <ele>180.60000610352</ele>
        <time>2011-05-17T11:51:45.000Z</time>
      </trkpt>
      <trkpt lat="48.71529" lon="1.7929">
        <ele>181</ele>
        <time>2011-05-17T11:51:51.000Z</time>
      </trkpt>
      <trkpt lat="48.71533" lon="1.79277">
        <ele>181.39999389648</ele>
        <time>2011-05-17T11:51:57.000Z</time>
      </trkpt>
      <trkpt lat="48.71538" lon="1.79261">
        <ele>181.80000305176</ele>
        <time>2011-05-17T11:52:03.000Z</time>
      </trkpt>
      <trkpt lat="48.71544" lon="1.79239">
        <ele>182</ele>
        <time>2011-05-17T11:52:12.000Z</time>
      </trkpt>
      <trkpt lat="48.71552" lon="1.79212">
        <ele>181.80000305176</ele>
        <time>2011-05-17T11:52:18.000Z</time>
      </trkpt>
      <trkpt lat="48.71564" lon="1.79184">
        <ele>181.60000610352</ele>
        <time>2011-05-17T11:52:24.000Z</time>
      </trkpt>
      <trkpt lat="48.71573" lon="1.79155">
        <ele>181.19999694824</ele>
        <time>2011-05-17T11:52:29.000Z</time>
      </trkpt>
      <trkpt lat="48.71574" lon="1.79148">
        <ele>181.19999694824</ele>
        <time>2011-05-17T11:52:30.000Z</time>
      </trkpt>
      <trkpt lat="48.71583" lon="1.79112">
        <ele>180.19999694824</ele>
        <time>2011-05-17T11:52:36.000Z</time>
      </trkpt>
      <trkpt lat="48.71597" lon="1.79065">
        <ele>179.60000610352</ele>
        <time>2011-05-17T11:52:43.000Z</time>
      </trkpt>
      <trkpt lat="48.71601" lon="1.79052">
        <ele>179.80000305176</ele>
        <time>2011-05-17T11:52:45.000Z</time>
      </trkpt>
      <trkpt lat="48.71611" lon="1.79027">
        <ele>179.80000305176</ele>
        <time>2011-05-17T11:52:50.000Z</time>
      </trkpt>
      <trkpt lat="48.71613" lon="1.79022">
        <ele>179.80000305176</ele>
        <time>2011-05-17T11:52:51.000Z</time>
      </trkpt>
      <trkpt lat="48.71626" lon="1.78977">
        <ele>179.80000305176</ele>
        <time>2011-05-17T11:52:58.000Z</time>
      </trkpt>
      <trkpt lat="48.71628" lon="1.78971">
        <ele>179.80000305176</ele>
        <time>2011-05-17T11:52:59.000Z</time>
      </trkpt>
      <trkpt lat="48.71642" lon="1.78918">
        <ele>179.39999389648</ele>
        <time>2011-05-17T11:53:07.000Z</time>
      </trkpt>
      <trkpt lat="48.7165" lon="1.78895">
        <ele>179.60000610352</ele>
        <time>2011-05-17T11:53:11.000Z</time>
      </trkpt>
      <trkpt lat="48.71655" lon="1.78874">
        <ele>179.80000305176</ele>
        <time>2011-05-17T11:53:15.000Z</time>
      </trkpt>
      <trkpt lat="48.71667" lon="1.78835">
        <ele>179.80000305176</ele>
        <time>2011-05-17T11:53:22.000Z</time>
      </trkpt>
      <trkpt lat="48.71675" lon="1.78811">
        <ele>180</ele>
        <time>2011-05-17T11:53:26.000Z</time>
      </trkpt>
      <trkpt lat="48.71683" lon="1.7878">
        <ele>180.39999389648</ele>
        <time>2011-05-17T11:53:31.000Z</time>
      </trkpt>
      <trkpt lat="48.7169" lon="1.78764">
        <ele>180.39999389648</ele>
        <time>2011-05-17T11:53:34.000Z</time>
      </trkpt>
      <trkpt lat="48.71695" lon="1.78752">
        <ele>180.60000610352</ele>
        <time>2011-05-17T11:53:36.000Z</time>
      </trkpt>
      <trkpt lat="48.71702" lon="1.78728">
        <ele>181</ele>
        <time>2011-05-17T11:53:40.000Z</time>
      </trkpt>
      <trkpt lat="48.71717" lon="1.78683">
        <ele>182</ele>
        <time>2011-05-17T11:53:48.000Z</time>
      </trkpt>
      <trkpt lat="48.71723" lon="1.78659">
        <ele>182</ele>
        <time>2011-05-17T11:53:53.000Z</time>
      </trkpt>
      <trkpt lat="48.71727" lon="1.78641">
        <ele>181.39999389648</ele>
        <time>2011-05-17T11:53:58.000Z</time>
      </trkpt>
      <trkpt lat="48.71731" lon="1.78626">
        <ele>180.80000305176</ele>
        <time>2011-05-17T11:54:05.000Z</time>
      </trkpt>
      <trkpt lat="48.71738" lon="1.78609">
        <ele>179.80000305176</ele>
        <time>2011-05-17T11:54:14.000Z</time>
      </trkpt>
      <trkpt lat="48.71738" lon="1.78607">
        <ele>179.60000610352</ele>
        <time>2011-05-17T11:54:15.000Z</time>
      </trkpt>
      <trkpt lat="48.71736" lon="1.78586">
        <ele>179</ele>
        <time>2011-05-17T11:54:24.000Z</time>
      </trkpt>
      <trkpt lat="48.71734" lon="1.78569">
        <ele>179</ele>
        <time>2011-05-17T11:54:32.000Z</time>
      </trkpt>
      <trkpt lat="48.7173" lon="1.78555">
        <ele>179.19999694824</ele>
        <time>2011-05-17T11:54:40.000Z</time>
      </trkpt>
      <trkpt lat="48.71722" lon="1.78544">
        <ele>179.80000305176</ele>
        <time>2011-05-17T11:54:47.000Z</time>
      </trkpt>
      <trkpt lat="48.71717" lon="1.78539">
        <ele>180</ele>
        <time>2011-05-17T11:54:50.000Z</time>
      </trkpt>
      <trkpt lat="48.71715" lon="1.78538">
        <ele>180.19999694824</ele>
        <time>2011-05-17T11:54:53.000Z</time>
      </trkpt>
      <trkpt lat="48.71709" lon="1.78533">
        <ele>180.60000610352</ele>
        <time>2011-05-17T11:55:04.000Z</time>
      </trkpt>
      <trkpt lat="48.71701" lon="1.78527">
        <ele>181</ele>
        <time>2011-05-17T11:55:07.000Z</time>
      </trkpt>
      <trkpt lat="48.71684" lon="1.78515">
        <ele>182</ele>
        <time>2011-05-17T11:55:14.000Z</time>
      </trkpt>
      <trkpt lat="48.71668" lon="1.78496">
        <ele>182.60000610352</ele>
        <time>2011-05-17T11:55:20.000Z</time>
      </trkpt>
      <trkpt lat="48.71657" lon="1.78473">
        <ele>181.60000610352</ele>
        <time>2011-05-17T11:55:25.000Z</time>
      </trkpt>
      <trkpt lat="48.71653" lon="1.78435">
        <ele>179.80000305176</ele>
        <time>2011-05-17T11:55:31.000Z</time>
      </trkpt>
      <trkpt lat="48.71648" lon="1.78396">
        <ele>178.60000610352</ele>
        <time>2011-05-17T11:55:37.000Z</time>
      </trkpt>
      <trkpt lat="48.71647" lon="1.7839">
        <ele>178.60000610352</ele>
        <time>2011-05-17T11:55:38.000Z</time>
      </trkpt>
      <trkpt lat="48.71639" lon="1.78365">
        <ele>178.39999389648</ele>
        <time>2011-05-17T11:55:42.000Z</time>
      </trkpt>
      <trkpt lat="48.71621" lon="1.78347">
        <ele>178.39999389648</ele>
        <time>2011-05-17T11:55:47.000Z</time>
      </trkpt>
      <trkpt lat="48.71613" lon="1.78344">
        <ele>178.60000610352</ele>
        <time>2011-05-17T11:55:49.000Z</time>
      </trkpt>
      <trkpt lat="48.716" lon="1.78339">
        <ele>178.80000305176</ele>
        <time>2011-05-17T11:55:52.000Z</time>
      </trkpt>
      <trkpt lat="48.71582" lon="1.7833">
        <ele>178.80000305176</ele>
        <time>2011-05-17T11:55:56.000Z</time>
      </trkpt>
      <trkpt lat="48.71557" lon="1.78314">
        <ele>178.60000610352</ele>
        <time>2011-05-17T11:56:02.000Z</time>
      </trkpt>
      <trkpt lat="48.71553" lon="1.78311">
        <ele>178.60000610352</ele>
        <time>2011-05-17T11:56:03.000Z</time>
      </trkpt>
      <trkpt lat="48.71546" lon="1.78308">
        <ele>178.39999389648</ele>
        <time>2011-05-17T11:56:05.000Z</time>
      </trkpt>
      <trkpt lat="48.71524" lon="1.78296">
        <ele>178</ele>
        <time>2011-05-17T11:56:11.000Z</time>
      </trkpt>
      <trkpt lat="48.7152" lon="1.78293">
        <ele>178</ele>
        <time>2011-05-17T11:56:12.000Z</time>
      </trkpt>
      <trkpt lat="48.71499" lon="1.78288">
        <ele>177.80000305176</ele>
        <time>2011-05-17T11:56:17.000Z</time>
      </trkpt>
      <trkpt lat="48.71496" lon="1.78287">
        <ele>177.80000305176</ele>
        <time>2011-05-17T11:56:18.000Z</time>
      </trkpt>
      <trkpt lat="48.71477" lon="1.78284">
        <ele>177.60000610352</ele>
        <time>2011-05-17T11:56:25.000Z</time>
      </trkpt>
      <trkpt lat="48.71467" lon="1.78279">
        <ele>177.60000610352</ele>
        <time>2011-05-17T11:56:31.000Z</time>
      </trkpt>
      <trkpt lat="48.71456" lon="1.78275">
        <ele>177.39999389648</ele>
        <time>2011-05-17T11:56:38.000Z</time>
      </trkpt>
      <trkpt lat="48.71447" lon="1.7827">
        <ele>177.39999389648</ele>
        <time>2011-05-17T11:56:44.000Z</time>
      </trkpt>
      <trkpt lat="48.71436" lon="1.78265">
        <ele>177.19999694824</ele>
        <time>2011-05-17T11:56:51.000Z</time>
      </trkpt>
      <trkpt lat="48.71423" lon="1.78263">
        <ele>177.19999694824</ele>
        <time>2011-05-17T11:56:59.000Z</time>
      </trkpt>
      <trkpt lat="48.71415" lon="1.78257">
        <ele>177.19999694824</ele>
        <time>2011-05-17T11:57:05.000Z</time>
      </trkpt>
      <trkpt lat="48.7141" lon="1.78256">
        <ele>177.39999389648</ele>
        <time>2011-05-17T11:57:08.000Z</time>
      </trkpt>
      <trkpt lat="48.71405" lon="1.78252">
        <ele>177.39999389648</ele>
        <time>2011-05-17T11:57:12.000Z</time>
      </trkpt>
      <trkpt lat="48.71395" lon="1.78246">
        <ele>177.60000610352</ele>
        <time>2011-05-17T11:57:19.000Z</time>
      </trkpt>
      <trkpt lat="48.71386" lon="1.78246">
        <ele>178</ele>
        <time>2011-05-17T11:57:26.000Z</time>
      </trkpt>
      <trkpt lat="48.71377" lon="1.78243">
        <ele>178.19999694824</ele>
        <time>2011-05-17T11:57:32.000Z</time>
      </trkpt>
      <trkpt lat="48.71369" lon="1.78241">
        <ele>178.39999389648</ele>
        <time>2011-05-17T11:57:38.000Z</time>
      </trkpt>
      <trkpt lat="48.71357" lon="1.78238">
        <ele>178.80000305176</ele>
        <time>2011-05-17T11:57:45.000Z</time>
      </trkpt>
      <trkpt lat="48.71349" lon="1.78235">
        <ele>179</ele>
        <time>2011-05-17T11:57:50.000Z</time>
      </trkpt>
      <trkpt lat="48.7134" lon="1.78233">
        <ele>179.19999694824</ele>
        <time>2011-05-17T11:57:56.000Z</time>
      </trkpt>
      <trkpt lat="48.7133" lon="1.78229">
        <ele>179.19999694824</ele>
        <time>2011-05-17T11:58:02.000Z</time>
      </trkpt>
      <trkpt lat="48.7132" lon="1.78227">
        <ele>178.80000305176</ele>
        <time>2011-05-17T11:58:08.000Z</time>
      </trkpt>
      <trkpt lat="48.71312" lon="1.78222">
        <ele>178.39999389648</ele>
        <time>2011-05-17T11:58:14.000Z</time>
      </trkpt>
      <trkpt lat="48.713" lon="1.78215">
        <ele>177.80000305176</ele>
        <time>2011-05-17T11:58:21.000Z</time>
      </trkpt>
      <trkpt lat="48.71291" lon="1.78213">
        <ele>177.39999389648</ele>
        <time>2011-05-17T11:58:26.000Z</time>
      </trkpt>
      <trkpt lat="48.71277" lon="1.78207">
        <ele>176.80000305176</ele>
        <time>2011-05-17T11:58:34.000Z</time>
      </trkpt>
      <trkpt lat="48.7127" lon="1.78201">
        <ele>176.39999389648</ele>
        <time>2011-05-17T11:58:39.000Z</time>
      </trkpt>
      <trkpt lat="48.71265" lon="1.78196">
        <ele>176.19999694824</ele>
        <time>2011-05-17T11:58:43.000Z</time>
      </trkpt>
      <trkpt lat="48.71258" lon="1.78186">
        <ele>175.60000610352</ele>
        <time>2011-05-17T11:58:50.000Z</time>
      </trkpt>
      <trkpt lat="48.71248" lon="1.78175">
        <ele>175.19999694824</ele>
        <time>2011-05-17T11:58:57.000Z</time>
      </trkpt>
      <trkpt lat="48.71236" lon="1.78157">
        <ele>174.80000305176</ele>
        <time>2011-05-17T11:59:07.000Z</time>
      </trkpt>
      <trkpt lat="48.71233" lon="1.78156">
        <ele>174.80000305176</ele>
        <time>2011-05-17T11:59:12.000Z</time>
      </trkpt>
      <trkpt lat="48.71231" lon="1.78154">
        <ele>174.80000305176</ele>
        <time>2011-05-17T11:59:16.000Z</time>
      </trkpt>
      <trkpt lat="48.71226" lon="1.78145">
        <ele>174.60000610352</ele>
        <time>2011-05-17T11:59:21.000Z</time>
      </trkpt>
      <trkpt lat="48.71216" lon="1.78132">
        <ele>174.39999389648</ele>
        <time>2011-05-17T11:59:30.000Z</time>
      </trkpt>
      <trkpt lat="48.71206" lon="1.78123">
        <ele>174.39999389648</ele>
        <time>2011-05-17T11:59:37.000Z</time>
      </trkpt>
      <trkpt lat="48.712" lon="1.78114">
        <ele>174.19999694824</ele>
        <time>2011-05-17T11:59:43.000Z</time>
      </trkpt>
      <trkpt lat="48.71193" lon="1.78107">
        <ele>174.19999694824</ele>
        <time>2011-05-17T11:59:48.000Z</time>
      </trkpt>
      <trkpt lat="48.7119" lon="1.78103">
        <ele>174</ele>
        <time>2011-05-17T11:59:50.000Z</time>
      </trkpt>
      <trkpt lat="48.71183" lon="1.78094">
        <ele>174</ele>
        <time>2011-05-17T11:59:56.000Z</time>
      </trkpt>
      <trkpt lat="48.71174" lon="1.78081">
        <ele>173.80000305176</ele>
        <time>2011-05-17T12:00:03.000Z</time>
      </trkpt>
      <trkpt lat="48.71162" lon="1.78069">
        <ele>173.39999389648</ele>
        <time>2011-05-17T12:00:12.000Z</time>
      </trkpt>
      <trkpt lat="48.71156" lon="1.7806">
        <ele>173</ele>
        <time>2011-05-17T12:00:18.000Z</time>
      </trkpt>
      <trkpt lat="48.71149" lon="1.78048">
        <ele>172.60000610352</ele>
        <time>2011-05-17T12:00:25.000Z</time>
      </trkpt>
      <trkpt lat="48.71142" lon="1.78032">
        <ele>172</ele>
        <time>2011-05-17T12:00:33.000Z</time>
      </trkpt>
      <trkpt lat="48.71139" lon="1.78023">
        <ele>171.80000305176</ele>
        <time>2011-05-17T12:00:38.000Z</time>
      </trkpt>
      <trkpt lat="48.71133" lon="1.78003">
        <ele>171</ele>
        <time>2011-05-17T12:00:47.000Z</time>
      </trkpt>
      <trkpt lat="48.71133" lon="1.78">
        <ele>171</ele>
        <time>2011-05-17T12:00:48.000Z</time>
      </trkpt>
      <trkpt lat="48.71135" lon="1.77986">
        <ele>170.80000305176</ele>
        <time>2011-05-17T12:00:53.000Z</time>
      </trkpt>
      <trkpt lat="48.71137" lon="1.77965">
        <ele>170.80000305176</ele>
        <time>2011-05-17T12:00:57.000Z</time>
      </trkpt>
      <trkpt lat="48.71134" lon="1.77948">
        <ele>170.80000305176</ele>
        <time>2011-05-17T12:01:01.000Z</time>
      </trkpt>
      <trkpt lat="48.71129" lon="1.77937">
        <ele>170.60000610352</ele>
        <time>2011-05-17T12:01:04.000Z</time>
      </trkpt>
      <trkpt lat="48.71119" lon="1.77901">
        <ele>170.19999694824</ele>
        <time>2011-05-17T12:01:11.000Z</time>
      </trkpt>
      <trkpt lat="48.71112" lon="1.77866">
        <ele>170</ele>
        <time>2011-05-17T12:01:17.000Z</time>
      </trkpt>
      <trkpt lat="48.71111" lon="1.7786">
        <ele>169.80000305176</ele>
        <time>2011-05-17T12:01:18.000Z</time>
      </trkpt>
      <trkpt lat="48.71107" lon="1.77835">
        <ele>169.80000305176</ele>
        <time>2011-05-17T12:01:22.000Z</time>
      </trkpt>
      <trkpt lat="48.71103" lon="1.77804">
        <ele>169.60000610352</ele>
        <time>2011-05-17T12:01:28.000Z</time>
      </trkpt>
      <trkpt lat="48.71103" lon="1.77795">
        <ele>169.60000610352</ele>
        <time>2011-05-17T12:01:30.000Z</time>
      </trkpt>
      <trkpt lat="48.71095" lon="1.7777">
        <ele>169.19999694824</ele>
        <time>2011-05-17T12:01:35.000Z</time>
      </trkpt>
      <trkpt lat="48.71087" lon="1.77752">
        <ele>169</ele>
        <time>2011-05-17T12:01:39.000Z</time>
      </trkpt>
      <trkpt lat="48.71074" lon="1.77723">
        <ele>169.39999389648</ele>
        <time>2011-05-17T12:01:45.000Z</time>
      </trkpt>
      <trkpt lat="48.71064" lon="1.77699">
        <ele>170</ele>
        <time>2011-05-17T12:01:50.000Z</time>
      </trkpt>
      <trkpt lat="48.71052" lon="1.77671">
        <ele>170.60000610352</ele>
        <time>2011-05-17T12:01:55.000Z</time>
      </trkpt>
      <trkpt lat="48.7104" lon="1.77643">
        <ele>171.19999694824</ele>
        <time>2011-05-17T12:02:00.000Z</time>
      </trkpt>
      <trkpt lat="48.71029" lon="1.7761">
        <ele>171.60000610352</ele>
        <time>2011-05-17T12:02:05.000Z</time>
      </trkpt>
      <trkpt lat="48.71016" lon="1.77568">
        <ele>172.19999694824</ele>
        <time>2011-05-17T12:02:11.000Z</time>
      </trkpt>
      <trkpt lat="48.70987" lon="1.775">
        <ele>174</ele>
        <time>2011-05-17T12:02:20.000Z</time>
      </trkpt>
      <trkpt lat="48.70973" lon="1.77469">
        <ele>174.80000305176</ele>
        <time>2011-05-17T12:02:24.000Z</time>
      </trkpt>
      <trkpt lat="48.70958" lon="1.77437">
        <ele>175.39999389648</ele>
        <time>2011-05-17T12:02:28.000Z</time>
      </trkpt>
      <trkpt lat="48.70935" lon="1.77392">
        <ele>176</ele>
        <time>2011-05-17T12:02:34.000Z</time>
      </trkpt>
      <trkpt lat="48.70912" lon="1.77349">
        <ele>177.19999694824</ele>
        <time>2011-05-17T12:02:40.000Z</time>
      </trkpt>
      <trkpt lat="48.70909" lon="1.77341">
        <ele>177.39999389648</ele>
        <time>2011-05-17T12:02:41.000Z</time>
      </trkpt>
      <trkpt lat="48.70896" lon="1.77316">
        <ele>177</ele>
        <time>2011-05-17T12:02:45.000Z</time>
      </trkpt>
      <trkpt lat="48.70884" lon="1.77279">
        <ele>176</ele>
        <time>2011-05-17T12:02:52.000Z</time>
      </trkpt>
      <trkpt lat="48.70881" lon="1.77266">
        <ele>175.80000305176</ele>
        <time>2011-05-17T12:02:57.000Z</time>
      </trkpt>
      <trkpt lat="48.7088" lon="1.77261">
        <ele>175.60000610352</ele>
        <time>2011-05-17T12:02:59.000Z</time>
      </trkpt>
      <trkpt lat="48.70873" lon="1.77253">
        <ele>175.39999389648</ele>
        <time>2011-05-17T12:03:04.000Z</time>
      </trkpt>
      <trkpt lat="48.70848" lon="1.7725">
        <ele>175</ele>
        <time>2011-05-17T12:03:11.000Z</time>
      </trkpt>
      <trkpt lat="48.7083" lon="1.77248">
        <ele>174.80000305176</ele>
        <time>2011-05-17T12:03:16.000Z</time>
      </trkpt>
      <trkpt lat="48.70812" lon="1.77245">
        <ele>175</ele>
        <time>2011-05-17T12:03:21.000Z</time>
      </trkpt>
      <trkpt lat="48.70792" lon="1.77248">
        <ele>175.39999389648</ele>
        <time>2011-05-17T12:03:26.000Z</time>
      </trkpt>
      <trkpt lat="48.70772" lon="1.7725">
        <ele>175.60000610352</ele>
        <time>2011-05-17T12:03:31.000Z</time>
      </trkpt>
      <trkpt lat="48.70748" lon="1.77253">
        <ele>176</ele>
        <time>2011-05-17T12:03:37.000Z</time>
      </trkpt>
      <trkpt lat="48.70729" lon="1.77253">
        <ele>176.19999694824</ele>
        <time>2011-05-17T12:03:42.000Z</time>
      </trkpt>
      <trkpt lat="48.70714" lon="1.77254">
        <ele>176.39999389648</ele>
        <time>2011-05-17T12:03:46.000Z</time>
      </trkpt>
      <trkpt lat="48.7069" lon="1.77252">
        <ele>176.60000610352</ele>
        <time>2011-05-17T12:03:52.000Z</time>
      </trkpt>
      <trkpt lat="48.70666" lon="1.77249">
        <ele>177</ele>
        <time>2011-05-17T12:03:58.000Z</time>
      </trkpt>
      <trkpt lat="48.70655" lon="1.77248">
        <ele>177.39999389648</ele>
        <time>2011-05-17T12:04:01.000Z</time>
      </trkpt>
      <trkpt lat="48.70631" lon="1.77247">
        <ele>178.39999389648</ele>
        <time>2011-05-17T12:04:07.000Z</time>
      </trkpt>
      <trkpt lat="48.70609" lon="1.77244">
        <ele>179.39999389648</ele>
        <time>2011-05-17T12:04:13.000Z</time>
      </trkpt>
      <trkpt lat="48.70585" lon="1.77239">
        <ele>180</ele>
        <time>2011-05-17T12:04:19.000Z</time>
      </trkpt>
      <trkpt lat="48.70572" lon="1.77238">
        <ele>180.19999694824</ele>
        <time>2011-05-17T12:04:23.000Z</time>
      </trkpt>
      <trkpt lat="48.70558" lon="1.77236">
        <ele>180.39999389648</ele>
        <time>2011-05-17T12:04:27.000Z</time>
      </trkpt>
      <trkpt lat="48.70538" lon="1.77234">
        <ele>180.80000305176</ele>
        <time>2011-05-17T12:04:32.000Z</time>
      </trkpt>
      <trkpt lat="48.70516" lon="1.77232">
        <ele>181</ele>
        <time>2011-05-17T12:04:38.000Z</time>
      </trkpt>
      <trkpt lat="48.70501" lon="1.77231">
        <ele>181.19999694824</ele>
        <time>2011-05-17T12:04:42.000Z</time>
      </trkpt>
      <trkpt lat="48.70483" lon="1.7723">
        <ele>181</ele>
        <time>2011-05-17T12:04:47.000Z</time>
      </trkpt>
      <trkpt lat="48.70463" lon="1.77233">
        <ele>181</ele>
        <time>2011-05-17T12:04:52.000Z</time>
      </trkpt>
      <trkpt lat="48.70441" lon="1.77242">
        <ele>181.19999694824</ele>
        <time>2011-05-17T12:04:57.000Z</time>
      </trkpt>
      <trkpt lat="48.70417" lon="1.77258">
        <ele>181.19999694824</ele>
        <time>2011-05-17T12:05:03.000Z</time>
      </trkpt>
      <trkpt lat="48.7041" lon="1.77264">
        <ele>181.19999694824</ele>
        <time>2011-05-17T12:05:05.000Z</time>
      </trkpt>
      <trkpt lat="48.7039" lon="1.7728">
        <ele>181.19999694824</ele>
        <time>2011-05-17T12:05:11.000Z</time>
      </trkpt>
      <trkpt lat="48.70377" lon="1.77283">
        <ele>181</ele>
        <time>2011-05-17T12:05:15.000Z</time>
      </trkpt>
      <trkpt lat="48.70374" lon="1.77268">
        <ele>180.60000610352</ele>
        <time>2011-05-17T12:05:18.000Z</time>
      </trkpt>
      <trkpt lat="48.70368" lon="1.77233">
        <ele>180.39999389648</ele>
        <time>2011-05-17T12:05:24.000Z</time>
      </trkpt>
      <trkpt lat="48.70362" lon="1.77203">
        <ele>180.60000610352</ele>
        <time>2011-05-17T12:05:29.000Z</time>
      </trkpt>
      <trkpt lat="48.7036" lon="1.77191">
        <ele>180.80000305176</ele>
        <time>2011-05-17T12:05:33.000Z</time>
      </trkpt>
      <trkpt lat="48.70357" lon="1.77181">
        <ele>180.80000305176</ele>
        <time>2011-05-17T12:05:37.000Z</time>
      </trkpt>
      <trkpt lat="48.70356" lon="1.77168">
        <ele>181</ele>
        <time>2011-05-17T12:05:43.000Z</time>
      </trkpt>
      <trkpt lat="48.70354" lon="1.77155">
        <ele>181.19999694824</ele>
        <time>2011-05-17T12:05:50.000Z</time>
      </trkpt>
      <trkpt lat="48.70354" lon="1.77153">
        <ele>181.19999694824</ele>
        <time>2011-05-17T12:05:51.000Z</time>
      </trkpt>
      <trkpt lat="48.70351" lon="1.77139">
        <ele>181.19999694824</ele>
        <time>2011-05-17T12:05:58.000Z</time>
      </trkpt>
      <trkpt lat="48.70348" lon="1.77121">
        <ele>181.19999694824</ele>
        <time>2011-05-17T12:06:06.000Z</time>
      </trkpt>
      <trkpt lat="48.70346" lon="1.77106">
        <ele>181.39999389648</ele>
        <time>2011-05-17T12:06:12.000Z</time>
      </trkpt>
      <trkpt lat="48.70344" lon="1.7709">
        <ele>181.39999389648</ele>
        <time>2011-05-17T12:06:18.000Z</time>
      </trkpt>
      <trkpt lat="48.70344" lon="1.77086">
        <ele>181.39999389648</ele>
        <time>2011-05-17T12:06:20.000Z</time>
      </trkpt>
      <trkpt lat="48.70344" lon="1.77077">
        <ele>181.39999389648</ele>
        <time>2011-05-17T12:06:24.000Z</time>
      </trkpt>
      <trkpt lat="48.70341" lon="1.77066">
        <ele>181.60000610352</ele>
        <time>2011-05-17T12:06:28.000Z</time>
      </trkpt>
      <trkpt lat="48.70342" lon="1.7705">
        <ele>181.39999389648</ele>
        <time>2011-05-17T12:06:36.000Z</time>
      </trkpt>
      <trkpt lat="48.7034" lon="1.77036">
        <ele>181.60000610352</ele>
        <time>2011-05-17T12:06:42.000Z</time>
      </trkpt>
      <trkpt lat="48.70338" lon="1.7702">
        <ele>181.60000610352</ele>
        <time>2011-05-17T12:06:49.000Z</time>
      </trkpt>
      <trkpt lat="48.70336" lon="1.77004">
        <ele>181.80000305176</ele>
        <time>2011-05-17T12:06:55.000Z</time>
      </trkpt>
      <trkpt lat="48.70334" lon="1.7699">
        <ele>181.60000610352</ele>
        <time>2011-05-17T12:07:01.000Z</time>
      </trkpt>
      <trkpt lat="48.70333" lon="1.76978">
        <ele>181.39999389648</ele>
        <time>2011-05-17T12:07:06.000Z</time>
      </trkpt>
      <trkpt lat="48.70333" lon="1.76969">
        <ele>181.19999694824</ele>
        <time>2011-05-17T12:07:13.000Z</time>
      </trkpt>
      <trkpt lat="48.70333" lon="1.76957">
        <ele>180.80000305176</ele>
        <time>2011-05-17T12:07:19.000Z</time>
      </trkpt>
      <trkpt lat="48.70333" lon="1.76953">
        <ele>180.80000305176</ele>
        <time>2011-05-17T12:07:21.000Z</time>
      </trkpt>
      <trkpt lat="48.70332" lon="1.76928">
        <ele>180.19999694824</ele>
        <time>2011-05-17T12:07:31.000Z</time>
      </trkpt>
      <trkpt lat="48.70332" lon="1.76913">
        <ele>179.80000305176</ele>
        <time>2011-05-17T12:07:37.000Z</time>
      </trkpt>
      <trkpt lat="48.70331" lon="1.76894">
        <ele>179.60000610352</ele>
        <time>2011-05-17T12:07:45.000Z</time>
      </trkpt>
      <trkpt lat="48.7033" lon="1.76879">
        <ele>179.39999389648</ele>
        <time>2011-05-17T12:07:52.000Z</time>
      </trkpt>
      <trkpt lat="48.7033" lon="1.76861">
        <ele>179.19999694824</ele>
        <time>2011-05-17T12:07:59.000Z</time>
      </trkpt>
      <trkpt lat="48.70329" lon="1.76851">
        <ele>179.19999694824</ele>
        <time>2011-05-17T12:08:04.000Z</time>
      </trkpt>
      <trkpt lat="48.70328" lon="1.76845">
        <ele>179</ele>
        <time>2011-05-17T12:08:08.000Z</time>
      </trkpt>
      <trkpt lat="48.70327" lon="1.7682">
        <ele>178.80000305176</ele>
        <time>2011-05-17T12:08:18.000Z</time>
      </trkpt>
      <trkpt lat="48.70326" lon="1.76798">
        <ele>178.60000610352</ele>
        <time>2011-05-17T12:08:27.000Z</time>
      </trkpt>
      <trkpt lat="48.70326" lon="1.76781">
        <ele>178.39999389648</ele>
        <time>2011-05-17T12:08:34.000Z</time>
      </trkpt>
      <trkpt lat="48.70326" lon="1.76757">
        <ele>178.19999694824</ele>
        <time>2011-05-17T12:08:44.000Z</time>
      </trkpt>
      <trkpt lat="48.70325" lon="1.76743">
        <ele>178</ele>
        <time>2011-05-17T12:08:50.000Z</time>
      </trkpt>
      <trkpt lat="48.70325" lon="1.7674">
        <ele>178</ele>
        <time>2011-05-17T12:08:51.000Z</time>
      </trkpt>
      <trkpt lat="48.70326" lon="1.76727">
        <ele>178</ele>
        <time>2011-05-17T12:08:57.000Z</time>
      </trkpt>
      <trkpt lat="48.70325" lon="1.76713">
        <ele>178.19999694824</ele>
        <time>2011-05-17T12:09:03.000Z</time>
      </trkpt>
      <trkpt lat="48.70324" lon="1.76692">
        <ele>178.19999694824</ele>
        <time>2011-05-17T12:09:13.000Z</time>
      </trkpt>
      <trkpt lat="48.70323" lon="1.76676">
        <ele>178.19999694824</ele>
        <time>2011-05-17T12:09:20.000Z</time>
      </trkpt>
      <trkpt lat="48.70322" lon="1.76665">
        <ele>178.19999694824</ele>
        <time>2011-05-17T12:09:25.000Z</time>
      </trkpt>
      <trkpt lat="48.70321" lon="1.76652">
        <ele>178.39999389648</ele>
        <time>2011-05-17T12:09:30.000Z</time>
      </trkpt>
      <trkpt lat="48.70328" lon="1.7664">
        <ele>178.39999389648</ele>
        <time>2011-05-17T12:09:37.000Z</time>
      </trkpt>
      <trkpt lat="48.7033" lon="1.76639">
        <ele>178.39999389648</ele>
        <time>2011-05-17T12:09:39.000Z</time>
      </trkpt>
      <trkpt lat="48.70332" lon="1.76637">
        <ele>178.19999694824</ele>
        <time>2011-05-17T12:09:42.000Z</time>
      </trkpt>
      <trkpt lat="48.70335" lon="1.76635">
        <ele>178.39999389648</ele>
        <time>2011-05-17T12:09:47.000Z</time>
      </trkpt>
      <trkpt lat="48.70335" lon="1.76635">
        <ele>178.39999389648</ele>
        <time>2011-05-17T12:09:48.000Z</time>
      </trkpt>
      <trkpt lat="48.70355" lon="1.7662">
        <ele>179</ele>
        <time>2011-05-17T12:12:33.000Z</time>
      </trkpt>
      <trkpt lat="48.7036" lon="1.76617">
        <ele>179.19999694824</ele>
        <time>2011-05-17T12:12:37.000Z</time>
      </trkpt>
      <trkpt lat="48.70363" lon="1.76616">
        <ele>179.19999694824</ele>
        <time>2011-05-17T12:12:39.000Z</time>
      </trkpt>
      <trkpt lat="48.70372" lon="1.7661">
        <ele>179.60000610352</ele>
        <time>2011-05-17T12:12:46.000Z</time>
      </trkpt>
      <trkpt lat="48.70376" lon="1.76607">
        <ele>179.60000610352</ele>
        <time>2011-05-17T12:12:49.000Z</time>
      </trkpt>
      <trkpt lat="48.70386" lon="1.76601">
        <ele>180</ele>
        <time>2011-05-17T12:12:56.000Z</time>
      </trkpt>
      <trkpt lat="48.70392" lon="1.76597">
        <ele>180.19999694824</ele>
        <time>2011-05-17T12:13:02.000Z</time>
      </trkpt>
      <trkpt lat="48.70393" lon="1.76597">
        <ele>180.19999694824</ele>
        <time>2011-05-17T12:13:03.000Z</time>
      </trkpt>
      <trkpt lat="48.70396" lon="1.76596">
        <ele>180.19999694824</ele>
        <time>2011-05-17T12:13:05.000Z</time>
      </trkpt>
      <trkpt lat="48.70402" lon="1.76593">
        <ele>180.39999389648</ele>
        <time>2011-05-17T12:13:10.000Z</time>
      </trkpt>
      <trkpt lat="48.70414" lon="1.76589">
        <ele>180.80000305176</ele>
        <time>2011-05-17T12:13:17.000Z</time>
      </trkpt>
      <trkpt lat="48.70417" lon="1.76588">
        <ele>180.80000305176</ele>
        <time>2011-05-17T12:13:19.000Z</time>
      </trkpt>
      <trkpt lat="48.70426" lon="1.76583">
        <ele>180.39999389648</ele>
        <time>2011-05-17T12:13:26.000Z</time>
      </trkpt>
      <trkpt lat="48.70432" lon="1.76574">
        <ele>180.19999694824</ele>
        <time>2011-05-17T12:13:31.000Z</time>
      </trkpt>
      <trkpt lat="48.70432" lon="1.76571">
        <ele>180.19999694824</ele>
        <time>2011-05-17T12:13:32.000Z</time>
      </trkpt>
      <trkpt lat="48.70438" lon="1.76555">
        <ele>179.80000305176</ele>
        <time>2011-05-17T12:13:40.000Z</time>
      </trkpt>
      <trkpt lat="48.70441" lon="1.76541">
        <ele>179.60000610352</ele>
        <time>2011-05-17T12:13:47.000Z</time>
      </trkpt>
      <trkpt lat="48.70443" lon="1.76533">
        <ele>179.39999389648</ele>
        <time>2011-05-17T12:13:52.000Z</time>
      </trkpt>
      <trkpt lat="48.70446" lon="1.76518">
        <ele>179.19999694824</ele>
        <time>2011-05-17T12:14:00.000Z</time>
      </trkpt>
      <trkpt lat="48.7045" lon="1.76504">
        <ele>179</ele>
        <time>2011-05-17T12:14:07.000Z</time>
      </trkpt>
      <trkpt lat="48.70451" lon="1.76499">
        <ele>178.80000305176</ele>
        <time>2011-05-17T12:14:09.000Z</time>
      </trkpt>
      <trkpt lat="48.70453" lon="1.76486">
        <ele>178.39999389648</ele>
        <time>2011-05-17T12:14:15.000Z</time>
      </trkpt>
      <trkpt lat="48.70454" lon="1.76473">
        <ele>178</ele>
        <time>2011-05-17T12:14:21.000Z</time>
      </trkpt>
      <trkpt lat="48.70459" lon="1.76454">
        <ele>177.19999694824</ele>
        <time>2011-05-17T12:14:30.000Z</time>
      </trkpt>
      <trkpt lat="48.70461" lon="1.76438">
        <ele>176.80000305176</ele>
        <time>2011-05-17T12:14:38.000Z</time>
      </trkpt>
      <trkpt lat="48.7046" lon="1.76431">
        <ele>176.60000610352</ele>
        <time>2011-05-17T12:14:41.000Z</time>
      </trkpt>
      <trkpt lat="48.70457" lon="1.76416">
        <ele>176.39999389648</ele>
        <time>2011-05-17T12:14:48.000Z</time>
      </trkpt>
      <trkpt lat="48.70455" lon="1.76398">
        <ele>175.60000610352</ele>
        <time>2011-05-17T12:14:56.000Z</time>
      </trkpt>
      <trkpt lat="48.70453" lon="1.76381">
        <ele>175</ele>
        <time>2011-05-17T12:15:04.000Z</time>
      </trkpt>
      <trkpt lat="48.70451" lon="1.7637">
        <ele>174.39999389648</ele>
        <time>2011-05-17T12:15:09.000Z</time>
      </trkpt>
      <trkpt lat="48.7045" lon="1.76354">
        <ele>173.80000305176</ele>
        <time>2011-05-17T12:15:16.000Z</time>
      </trkpt>
      <trkpt lat="48.70448" lon="1.76342">
        <ele>173.19999694824</ele>
        <time>2011-05-17T12:15:22.000Z</time>
      </trkpt>
      <trkpt lat="48.70446" lon="1.7633">
        <ele>172.80000305176</ele>
        <time>2011-05-17T12:15:28.000Z</time>
      </trkpt>
      <trkpt lat="48.70445" lon="1.76318">
        <ele>172.80000305176</ele>
        <time>2011-05-17T12:15:33.000Z</time>
      </trkpt>
      <trkpt lat="48.70445" lon="1.76315">
        <ele>172.80000305176</ele>
        <time>2011-05-17T12:15:35.000Z</time>
      </trkpt>
      <trkpt lat="48.70444" lon="1.76302">
        <ele>172.80000305176</ele>
        <time>2011-05-17T12:15:42.000Z</time>
      </trkpt>
      <trkpt lat="48.70445" lon="1.76291">
        <ele>172.80000305176</ele>
        <time>2011-05-17T12:15:48.000Z</time>
      </trkpt>
      <trkpt lat="48.70446" lon="1.76281">
        <ele>172.60000610352</ele>
        <time>2011-05-17T12:15:53.000Z</time>
      </trkpt>
      <trkpt lat="48.70445" lon="1.76279">
        <ele>172.60000610352</ele>
        <time>2011-05-17T12:15:57.000Z</time>
      </trkpt>
      <trkpt lat="48.70446" lon="1.76277">
        <ele>172.60000610352</ele>
        <time>2011-05-17T12:16:01.000Z</time>
      </trkpt>
      <trkpt lat="48.70448" lon="1.76268">
        <ele>172.39999389648</ele>
        <time>2011-05-17T12:16:04.000Z</time>
      </trkpt>
      <trkpt lat="48.70452" lon="1.7626">
        <ele>172.19999694824</ele>
        <time>2011-05-17T12:16:09.000Z</time>
      </trkpt>
      <trkpt lat="48.70453" lon="1.76256">
        <ele>172.19999694824</ele>
        <time>2011-05-17T12:16:11.000Z</time>
      </trkpt>
      <trkpt lat="48.70455" lon="1.76249">
        <ele>172.19999694824</ele>
        <time>2011-05-17T12:16:14.000Z</time>
      </trkpt>
      <trkpt lat="48.70457" lon="1.76242">
        <ele>172.19999694824</ele>
        <time>2011-05-17T12:16:18.000Z</time>
      </trkpt>
      <trkpt lat="48.70458" lon="1.76227">
        <ele>172.39999389648</ele>
        <time>2011-05-17T12:16:25.000Z</time>
      </trkpt>
      <trkpt lat="48.70456" lon="1.76214">
        <ele>172.80000305176</ele>
        <time>2011-05-17T12:16:31.000Z</time>
      </trkpt>
      <trkpt lat="48.70454" lon="1.76198">
        <ele>173.39999389648</ele>
        <time>2011-05-17T12:16:38.000Z</time>
      </trkpt>
      <trkpt lat="48.70452" lon="1.76185">
        <ele>173.80000305176</ele>
        <time>2011-05-17T12:16:44.000Z</time>
      </trkpt>
      <trkpt lat="48.70452" lon="1.76172">
        <ele>174</ele>
        <time>2011-05-17T12:16:50.000Z</time>
      </trkpt>
      <trkpt lat="48.70451" lon="1.7616">
        <ele>174.39999389648</ele>
        <time>2011-05-17T12:16:56.000Z</time>
      </trkpt>
      <trkpt lat="48.70451" lon="1.76154">
        <ele>174.39999389648</ele>
        <time>2011-05-17T12:16:59.000Z</time>
      </trkpt>
      <trkpt lat="48.70453" lon="1.76139">
        <ele>174.39999389648</ele>
        <time>2011-05-17T12:17:06.000Z</time>
      </trkpt>
      <trkpt lat="48.70454" lon="1.76125">
        <ele>174.60000610352</ele>
        <time>2011-05-17T12:17:12.000Z</time>
      </trkpt>
      <trkpt lat="48.70456" lon="1.76111">
        <ele>174.60000610352</ele>
        <time>2011-05-17T12:17:18.000Z</time>
      </trkpt>
      <trkpt lat="48.70458" lon="1.76107">
        <ele>174.60000610352</ele>
        <time>2011-05-17T12:17:21.000Z</time>
      </trkpt>
      <trkpt lat="48.7046" lon="1.76094">
        <ele>174.60000610352</ele>
        <time>2011-05-17T12:17:27.000Z</time>
      </trkpt>
      <trkpt lat="48.70461" lon="1.76091">
        <ele>174.60000610352</ele>
        <time>2011-05-17T12:17:29.000Z</time>
      </trkpt>
      <trkpt lat="48.70465" lon="1.76077">
        <ele>175</ele>
        <time>2011-05-17T12:17:36.000Z</time>
      </trkpt>
      <trkpt lat="48.7047" lon="1.76062">
        <ele>175.60000610352</ele>
        <time>2011-05-17T12:17:44.000Z</time>
      </trkpt>
      <trkpt lat="48.70473" lon="1.76048">
        <ele>176.19999694824</ele>
        <time>2011-05-17T12:17:52.000Z</time>
      </trkpt>
      <trkpt lat="48.70473" lon="1.76045">
        <ele>176.39999389648</ele>
        <time>2011-05-17T12:17:53.000Z</time>
      </trkpt>
      <trkpt lat="48.70474" lon="1.76039">
        <ele>176.60000610352</ele>
        <time>2011-05-17T12:17:56.000Z</time>
      </trkpt>
      <trkpt lat="48.70477" lon="1.76026">
        <ele>177.19999694824</ele>
        <time>2011-05-17T12:18:03.000Z</time>
      </trkpt>
      <trkpt lat="48.70478" lon="1.7602">
        <ele>177.60000610352</ele>
        <time>2011-05-17T12:18:06.000Z</time>
      </trkpt>
      <trkpt lat="48.7048" lon="1.76015">
        <ele>177.80000305176</ele>
        <time>2011-05-17T12:18:09.000Z</time>
      </trkpt>
      <trkpt lat="48.70484" lon="1.76">
        <ele>178.60000610352</ele>
        <time>2011-05-17T12:18:17.000Z</time>
      </trkpt>
      <trkpt lat="48.70488" lon="1.75988">
        <ele>178.80000305176</ele>
        <time>2011-05-17T12:18:23.000Z</time>
      </trkpt>
      <trkpt lat="48.70492" lon="1.75979">
        <ele>179.19999694824</ele>
        <time>2011-05-17T12:18:28.000Z</time>
      </trkpt>
      <trkpt lat="48.70493" lon="1.75975">
        <ele>179.19999694824</ele>
        <time>2011-05-17T12:18:30.000Z</time>
      </trkpt>
      <trkpt lat="48.70502" lon="1.75963">
        <ele>179.60000610352</ele>
        <time>2011-05-17T12:18:38.000Z</time>
      </trkpt>
      <trkpt lat="48.70508" lon="1.75953">
        <ele>179.60000610352</ele>
        <time>2011-05-17T12:18:45.000Z</time>
      </trkpt>
      <trkpt lat="48.70509" lon="1.75949">
        <ele>179.80000305176</ele>
        <time>2011-05-17T12:18:47.000Z</time>
      </trkpt>
      <trkpt lat="48.70511" lon="1.75938">
        <ele>180</ele>
        <time>2011-05-17T12:18:52.000Z</time>
      </trkpt>
      <trkpt lat="48.70516" lon="1.75926">
        <ele>180.39999389648</ele>
        <time>2011-05-17T12:18:59.000Z</time>
      </trkpt>
      <trkpt lat="48.7052" lon="1.75921">
        <ele>180.19999694824</ele>
        <time>2011-05-17T12:19:02.000Z</time>
      </trkpt>
      <trkpt lat="48.70527" lon="1.7591">
        <ele>180</ele>
        <time>2011-05-17T12:19:09.000Z</time>
      </trkpt>
      <trkpt lat="48.70534" lon="1.75901">
        <ele>179.60000610352</ele>
        <time>2011-05-17T12:19:16.000Z</time>
      </trkpt>
      <trkpt lat="48.70536" lon="1.75898">
        <ele>179.60000610352</ele>
        <time>2011-05-17T12:19:18.000Z</time>
      </trkpt>
      <trkpt lat="48.70541" lon="1.75885">
        <ele>179.39999389648</ele>
        <time>2011-05-17T12:19:25.000Z</time>
      </trkpt>
      <trkpt lat="48.70545" lon="1.75877">
        <ele>179</ele>
        <time>2011-05-17T12:19:30.000Z</time>
      </trkpt>
      <trkpt lat="48.70549" lon="1.75866">
        <ele>178.80000305176</ele>
        <time>2011-05-17T12:19:36.000Z</time>
      </trkpt>
      <trkpt lat="48.7055" lon="1.75864">
        <ele>178.80000305176</ele>
        <time>2011-05-17T12:19:37.000Z</time>
      </trkpt>
      <trkpt lat="48.70557" lon="1.75853">
        <ele>178.19999694824</ele>
        <time>2011-05-17T12:19:45.000Z</time>
      </trkpt>
      <trkpt lat="48.70565" lon="1.75838">
        <ele>177.60000610352</ele>
        <time>2011-05-17T12:19:53.000Z</time>
      </trkpt>
      <trkpt lat="48.70569" lon="1.75828">
        <ele>177.39999389648</ele>
        <time>2011-05-17T12:19:59.000Z</time>
      </trkpt>
      <trkpt lat="48.7057" lon="1.75825">
        <ele>177.39999389648</ele>
        <time>2011-05-17T12:20:00.000Z</time>
      </trkpt>
      <trkpt lat="48.70574" lon="1.75816">
        <ele>177.39999389648</ele>
        <time>2011-05-17T12:20:06.000Z</time>
      </trkpt>
      <trkpt lat="48.70578" lon="1.75807">
        <ele>177.39999389648</ele>
        <time>2011-05-17T12:20:11.000Z</time>
      </trkpt>
      <trkpt lat="48.70585" lon="1.75794">
        <ele>177.19999694824</ele>
        <time>2011-05-17T12:20:19.000Z</time>
      </trkpt>
      <trkpt lat="48.70593" lon="1.75781">
        <ele>177.19999694824</ele>
        <time>2011-05-17T12:20:26.000Z</time>
      </trkpt>
      <trkpt lat="48.70601" lon="1.75767">
        <ele>177.19999694824</ele>
        <time>2011-05-17T12:20:35.000Z</time>
      </trkpt>
      <trkpt lat="48.70601" lon="1.75766">
        <ele>177.19999694824</ele>
        <time>2011-05-17T12:20:36.000Z</time>
      </trkpt>
      <trkpt lat="48.70607" lon="1.75757">
        <ele>177.19999694824</ele>
        <time>2011-05-17T12:20:42.000Z</time>
      </trkpt>
      <trkpt lat="48.70615" lon="1.75744">
        <ele>177.39999389648</ele>
        <time>2011-05-17T12:20:50.000Z</time>
      </trkpt>
      <trkpt lat="48.70621" lon="1.75734">
        <ele>177.39999389648</ele>
        <time>2011-05-17T12:20:57.000Z</time>
      </trkpt>
      <trkpt lat="48.70622" lon="1.75732">
        <ele>177.39999389648</ele>
        <time>2011-05-17T12:20:58.000Z</time>
      </trkpt>
      <trkpt lat="48.70627" lon="1.75724">
        <ele>177.39999389648</ele>
        <time>2011-05-17T12:21:03.000Z</time>
      </trkpt>
      <trkpt lat="48.70634" lon="1.75713">
        <ele>177.19999694824</ele>
        <time>2011-05-17T12:21:11.000Z</time>
      </trkpt>
      <trkpt lat="48.70638" lon="1.757">
        <ele>177.19999694824</ele>
        <time>2011-05-17T12:21:18.000Z</time>
      </trkpt>
      <trkpt lat="48.70642" lon="1.75694">
        <ele>177</ele>
        <time>2011-05-17T12:21:23.000Z</time>
      </trkpt>
      <trkpt lat="48.70647" lon="1.75685">
        <ele>176.80000305176</ele>
        <time>2011-05-17T12:21:30.000Z</time>
      </trkpt>
      <trkpt lat="48.7065" lon="1.75682">
        <ele>176.39999389648</ele>
        <time>2011-05-17T12:21:33.000Z</time>
      </trkpt>
      <trkpt lat="48.7066" lon="1.75686">
        <ele>175.39999389648</ele>
        <time>2011-05-17T12:21:41.000Z</time>
      </trkpt>
      <trkpt lat="48.70666" lon="1.75695">
        <ele>174.60000610352</ele>
        <time>2011-05-17T12:21:48.000Z</time>
      </trkpt>
      <trkpt lat="48.70677" lon="1.75707">
        <ele>174.19999694824</ele>
        <time>2011-05-17T12:21:59.000Z</time>
      </trkpt>
      <trkpt lat="48.70678" lon="1.75708">
        <ele>174.19999694824</ele>
        <time>2011-05-17T12:22:00.000Z</time>
      </trkpt>
      <trkpt lat="48.70686" lon="1.75716">
        <ele>174.19999694824</ele>
        <time>2011-05-17T12:22:07.000Z</time>
      </trkpt>
      <trkpt lat="48.70687" lon="1.75718">
        <ele>174</ele>
        <time>2011-05-17T12:22:08.000Z</time>
      </trkpt>
      <trkpt lat="48.70695" lon="1.75726">
        <ele>174</ele>
        <time>2011-05-17T12:22:15.000Z</time>
      </trkpt>
      <trkpt lat="48.70702" lon="1.75731">
        <ele>174</ele>
        <time>2011-05-17T12:22:20.000Z</time>
      </trkpt>
      <trkpt lat="48.70705" lon="1.75736">
        <ele>174</ele>
        <time>2011-05-17T12:22:23.000Z</time>
      </trkpt>
      <trkpt lat="48.70715" lon="1.75747">
        <ele>173.80000305176</ele>
        <time>2011-05-17T12:22:31.000Z</time>
      </trkpt>
      <trkpt lat="48.70722" lon="1.75755">
        <ele>173.80000305176</ele>
        <time>2011-05-17T12:22:37.000Z</time>
      </trkpt>
      <trkpt lat="48.70727" lon="1.75762">
        <ele>173.80000305176</ele>
        <time>2011-05-17T12:22:42.000Z</time>
      </trkpt>
      <trkpt lat="48.70729" lon="1.75766">
        <ele>173.60000610352</ele>
        <time>2011-05-17T12:22:44.000Z</time>
      </trkpt>
      <trkpt lat="48.7073" lon="1.75768">
        <ele>173.60000610352</ele>
        <time>2011-05-17T12:22:48.000Z</time>
      </trkpt>
      <trkpt lat="48.70735" lon="1.75782">
        <ele>173.39999389648</ele>
        <time>2011-05-17T12:23:14.000Z</time>
      </trkpt>
      <trkpt lat="48.70741" lon="1.75791">
        <ele>173.39999389648</ele>
        <time>2011-05-17T12:23:20.000Z</time>
      </trkpt>
      <trkpt lat="48.70747" lon="1.75798">
        <ele>173.39999389648</ele>
        <time>2011-05-17T12:23:25.000Z</time>
      </trkpt>
      <trkpt lat="48.70751" lon="1.75805">
        <ele>173.19999694824</ele>
        <time>2011-05-17T12:23:30.000Z</time>
      </trkpt>
      <trkpt lat="48.70756" lon="1.75812">
        <ele>173</ele>
        <time>2011-05-17T12:23:35.000Z</time>
      </trkpt>
      <trkpt lat="48.7076" lon="1.75816">
        <ele>173</ele>
        <time>2011-05-17T12:23:38.000Z</time>
      </trkpt>
      <trkpt lat="48.70767" lon="1.75825">
        <ele>172.80000305176</ele>
        <time>2011-05-17T12:23:44.000Z</time>
      </trkpt>
      <trkpt lat="48.70772" lon="1.75832">
        <ele>172.60000610352</ele>
        <time>2011-05-17T12:23:49.000Z</time>
      </trkpt>
      <trkpt lat="48.70772" lon="1.75834">
        <ele>172.60000610352</ele>
        <time>2011-05-17T12:23:52.000Z</time>
      </trkpt>
      <trkpt lat="48.70776" lon="1.75837">
        <ele>172.60000610352</ele>
        <time>2011-05-17T12:23:55.000Z</time>
      </trkpt>
      <trkpt lat="48.70779" lon="1.75842">
        <ele>172.60000610352</ele>
        <time>2011-05-17T12:23:59.000Z</time>
      </trkpt>
      <trkpt lat="48.70786" lon="1.75853">
        <ele>172.60000610352</ele>
        <time>2011-05-17T12:24:07.000Z</time>
      </trkpt>
      <trkpt lat="48.70789" lon="1.75859">
        <ele>172.80000305176</ele>
        <time>2011-05-17T12:24:12.000Z</time>
      </trkpt>
      <trkpt lat="48.70793" lon="1.75863">
        <ele>172.80000305176</ele>
        <time>2011-05-17T12:24:16.000Z</time>
      </trkpt>
      <trkpt lat="48.70801" lon="1.7587">
        <ele>172.80000305176</ele>
        <time>2011-05-17T12:24:24.000Z</time>
      </trkpt>
      <trkpt lat="48.70806" lon="1.75873">
        <ele>172.80000305176</ele>
        <time>2011-05-17T12:24:29.000Z</time>
      </trkpt>
      <trkpt lat="48.70807" lon="1.75874">
        <ele>172.80000305176</ele>
        <time>2011-05-17T12:24:32.000Z</time>
      </trkpt>
      <trkpt lat="48.70813" lon="1.75878">
        <ele>173</ele>
        <time>2011-05-17T12:25:50.000Z</time>
      </trkpt>
      <trkpt lat="48.70822" lon="1.75885">
        <ele>173.19999694824</ele>
        <time>2011-05-17T12:25:58.000Z</time>
      </trkpt>
      <trkpt lat="48.70823" lon="1.75886">
        <ele>173.19999694824</ele>
        <time>2011-05-17T12:25:59.000Z</time>
      </trkpt>
      <trkpt lat="48.7083" lon="1.7589">
        <ele>173.19999694824</ele>
        <time>2011-05-17T12:26:08.000Z</time>
      </trkpt>
    </trkseg>
  </trk>
</gpx>